<?xml version="1.0" encoding="UTF-8" standalone="no" ?>
<gpx xmlns="http://www.topografix.com/GPX/1/1" xmlns:xsi="http://www.w3.org/2001/XMLSchema-instance" xsi:schemaLocation="http://www.topografix.com/GPX/1/1 http://www.topografix.com/GPX/1/1/gpx.xsd" version="1.1" creator="VisuGPX - https://www.visugpx.com">
  <metadata>
    <name>Tourtoule</name>
    <desc><![CDATA[pour VVN]]></desc>
  </metadata>
  <trk>
    <name><![CDATA[Tourtoule_1]]></name>
    <trkseg>
      <trkpt lat="45.85943" lon="3.02477">
        <ele>590.2</ele>
        <time>2018-12-29T12:23:03Z</time>
      </trkpt>
      <trkpt lat="45.85942" lon="3.02477">
        <ele>590.2</ele>
        <time>2018-12-29T12:23:04Z</time>
      </trkpt>
      <trkpt lat="45.85943" lon="3.02475">
        <ele>607.8</ele>
        <time>2018-12-29T12:23:13Z</time>
      </trkpt>
      <trkpt lat="45.85947" lon="3.0247">
        <ele>607.8</ele>
        <time>2018-12-29T12:23:16Z</time>
      </trkpt>
      <trkpt lat="45.85949" lon="3.02463">
        <ele>607.8</ele>
        <time>2018-12-29T12:23:19Z</time>
      </trkpt>
      <trkpt lat="45.85949" lon="3.02458">
        <ele>607.8</ele>
        <time>2018-12-29T12:23:21Z</time>
      </trkpt>
      <trkpt lat="45.85949" lon="3.02451">
        <ele>607.8</ele>
        <time>2018-12-29T12:23:24Z</time>
      </trkpt>
      <trkpt lat="45.85952" lon="3.02444">
        <ele>607.8</ele>
        <time>2018-12-29T12:23:27Z</time>
      </trkpt>
      <trkpt lat="45.85954" lon="3.02443">
        <ele>607.8</ele>
        <time>2018-12-29T12:23:29Z</time>
      </trkpt>
      <trkpt lat="45.85955" lon="3.02444">
        <ele>607.8</ele>
        <time>2018-12-29T12:23:30Z</time>
      </trkpt>
      <trkpt lat="45.85956" lon="3.02447">
        <ele>607.8</ele>
        <time>2018-12-29T12:23:33Z</time>
      </trkpt>
      <trkpt lat="45.85956" lon="3.02442">
        <ele>588.2</ele>
        <time>2018-12-29T12:35:43Z</time>
      </trkpt>
      <trkpt lat="45.85955" lon="3.02437">
        <ele>587.6</ele>
        <time>2018-12-29T12:35:45Z</time>
      </trkpt>
      <trkpt lat="45.85954" lon="3.02434">
        <ele>587.2</ele>
        <time>2018-12-29T12:35:46Z</time>
      </trkpt>
      <trkpt lat="45.85953" lon="3.02431">
        <ele>586.8</ele>
        <time>2018-12-29T12:35:47Z</time>
      </trkpt>
      <trkpt lat="45.85952" lon="3.02428">
        <ele>586.4</ele>
        <time>2018-12-29T12:35:48Z</time>
      </trkpt>
      <trkpt lat="45.85951" lon="3.02426">
        <ele>586</ele>
        <time>2018-12-29T12:35:49Z</time>
      </trkpt>
      <trkpt lat="45.8595" lon="3.02424">
        <ele>586</ele>
        <time>2018-12-29T12:35:50Z</time>
      </trkpt>
      <trkpt lat="45.85945" lon="3.02422">
        <ele>586</ele>
        <time>2018-12-29T12:35:52Z</time>
      </trkpt>
      <trkpt lat="45.85929" lon="3.02417">
        <ele>586</ele>
        <time>2018-12-29T12:35:58Z</time>
      </trkpt>
      <trkpt lat="45.8591" lon="3.02411">
        <ele>586</ele>
        <time>2018-12-29T12:36:04Z</time>
      </trkpt>
      <trkpt lat="45.85888" lon="3.02404">
        <ele>586</ele>
        <time>2018-12-29T12:36:12Z</time>
      </trkpt>
      <trkpt lat="45.85883" lon="3.02403">
        <ele>586.4</ele>
        <time>2018-12-29T12:36:14Z</time>
      </trkpt>
      <trkpt lat="45.8588" lon="3.02403">
        <ele>586.8</ele>
        <time>2018-12-29T12:36:15Z</time>
      </trkpt>
      <trkpt lat="45.85878" lon="3.02403">
        <ele>587.2</ele>
        <time>2018-12-29T12:36:16Z</time>
      </trkpt>
      <trkpt lat="45.85876" lon="3.02402">
        <ele>587.6</ele>
        <time>2018-12-29T12:36:17Z</time>
      </trkpt>
      <trkpt lat="45.85874" lon="3.02402">
        <ele>588</ele>
        <time>2018-12-29T12:36:18Z</time>
      </trkpt>
      <trkpt lat="45.8587" lon="3.024">
        <ele>588</ele>
        <time>2018-12-29T12:36:20Z</time>
      </trkpt>
      <trkpt lat="45.85856" lon="3.02397">
        <ele>588</ele>
        <time>2018-12-29T12:36:27Z</time>
      </trkpt>
      <trkpt lat="45.85846" lon="3.02395">
        <ele>588.8</ele>
        <time>2018-12-29T12:36:32Z</time>
      </trkpt>
      <trkpt lat="45.85845" lon="3.02394">
        <ele>589.2</ele>
        <time>2018-12-29T12:36:33Z</time>
      </trkpt>
      <trkpt lat="45.85843" lon="3.02393">
        <ele>589.6</ele>
        <time>2018-12-29T12:36:34Z</time>
      </trkpt>
      <trkpt lat="45.85841" lon="3.02392">
        <ele>590</ele>
        <time>2018-12-29T12:36:35Z</time>
      </trkpt>
      <trkpt lat="45.85829" lon="3.02389">
        <ele>590.6</ele>
        <time>2018-12-29T12:36:41Z</time>
      </trkpt>
      <trkpt lat="45.85827" lon="3.02389">
        <ele>591</ele>
        <time>2018-12-29T12:36:42Z</time>
      </trkpt>
      <trkpt lat="45.85825" lon="3.02389">
        <ele>591.4</ele>
        <time>2018-12-29T12:36:43Z</time>
      </trkpt>
      <trkpt lat="45.85823" lon="3.02389">
        <ele>591.8</ele>
        <time>2018-12-29T12:36:44Z</time>
      </trkpt>
      <trkpt lat="45.85821" lon="3.02389">
        <ele>592.2</ele>
        <time>2018-12-29T12:36:45Z</time>
      </trkpt>
      <trkpt lat="45.85816" lon="3.02386">
        <ele>592.2</ele>
        <time>2018-12-29T12:36:48Z</time>
      </trkpt>
      <trkpt lat="45.85814" lon="3.02385">
        <ele>592.6</ele>
        <time>2018-12-29T12:36:49Z</time>
      </trkpt>
      <trkpt lat="45.85812" lon="3.02385">
        <ele>593</ele>
        <time>2018-12-29T12:36:50Z</time>
      </trkpt>
      <trkpt lat="45.8581" lon="3.02385">
        <ele>593.4</ele>
        <time>2018-12-29T12:36:51Z</time>
      </trkpt>
      <trkpt lat="45.85807" lon="3.02385">
        <ele>593.8</ele>
        <time>2018-12-29T12:36:52Z</time>
      </trkpt>
      <trkpt lat="45.85805" lon="3.02384">
        <ele>594.2</ele>
        <time>2018-12-29T12:36:53Z</time>
      </trkpt>
      <trkpt lat="45.85803" lon="3.02384">
        <ele>594.2</ele>
        <time>2018-12-29T12:36:54Z</time>
      </trkpt>
      <trkpt lat="45.85797" lon="3.02382">
        <ele>595.2</ele>
        <time>2018-12-29T12:36:57Z</time>
      </trkpt>
      <trkpt lat="45.85795" lon="3.02381">
        <ele>595.6</ele>
        <time>2018-12-29T12:36:58Z</time>
      </trkpt>
      <trkpt lat="45.85793" lon="3.0238">
        <ele>596</ele>
        <time>2018-12-29T12:36:59Z</time>
      </trkpt>
      <trkpt lat="45.8579" lon="3.0238">
        <ele>596.4</ele>
        <time>2018-12-29T12:37:00Z</time>
      </trkpt>
      <trkpt lat="45.85785" lon="3.02378">
        <ele>596.4</ele>
        <time>2018-12-29T12:37:02Z</time>
      </trkpt>
      <trkpt lat="45.8578" lon="3.02376">
        <ele>597</ele>
        <time>2018-12-29T12:37:04Z</time>
      </trkpt>
      <trkpt lat="45.85777" lon="3.02375">
        <ele>597.4</ele>
        <time>2018-12-29T12:37:05Z</time>
      </trkpt>
      <trkpt lat="45.85775" lon="3.02375">
        <ele>597.8</ele>
        <time>2018-12-29T12:37:06Z</time>
      </trkpt>
      <trkpt lat="45.85772" lon="3.02375">
        <ele>598.2</ele>
        <time>2018-12-29T12:37:07Z</time>
      </trkpt>
      <trkpt lat="45.8577" lon="3.02375">
        <ele>598.8</ele>
        <time>2018-12-29T12:37:08Z</time>
      </trkpt>
      <trkpt lat="45.85757" lon="3.02375">
        <ele>599.2</ele>
        <time>2018-12-29T12:37:13Z</time>
      </trkpt>
      <trkpt lat="45.85755" lon="3.02375">
        <ele>599.6</ele>
        <time>2018-12-29T12:37:14Z</time>
      </trkpt>
      <trkpt lat="45.85752" lon="3.02375">
        <ele>600</ele>
        <time>2018-12-29T12:37:15Z</time>
      </trkpt>
      <trkpt lat="45.8575" lon="3.02374">
        <ele>600.4</ele>
        <time>2018-12-29T12:37:16Z</time>
      </trkpt>
      <trkpt lat="45.85748" lon="3.02373">
        <ele>600.8</ele>
        <time>2018-12-29T12:37:17Z</time>
      </trkpt>
      <trkpt lat="45.85739" lon="3.02371">
        <ele>600.8</ele>
        <time>2018-12-29T12:37:21Z</time>
      </trkpt>
      <trkpt lat="45.85725" lon="3.02365">
        <ele>600.8</ele>
        <time>2018-12-29T12:37:27Z</time>
      </trkpt>
      <trkpt lat="45.85708" lon="3.02356">
        <ele>600.8</ele>
        <time>2018-12-29T12:37:34Z</time>
      </trkpt>
      <trkpt lat="45.85694" lon="3.02345">
        <ele>600.8</ele>
        <time>2018-12-29T12:37:40Z</time>
      </trkpt>
      <trkpt lat="45.85685" lon="3.0233">
        <ele>601.2</ele>
        <time>2018-12-29T12:37:46Z</time>
      </trkpt>
      <trkpt lat="45.85684" lon="3.02327">
        <ele>602</ele>
        <time>2018-12-29T12:37:47Z</time>
      </trkpt>
      <trkpt lat="45.85683" lon="3.02324">
        <ele>602.4</ele>
        <time>2018-12-29T12:37:48Z</time>
      </trkpt>
      <trkpt lat="45.85681" lon="3.02321">
        <ele>602.8</ele>
        <time>2018-12-29T12:37:49Z</time>
      </trkpt>
      <trkpt lat="45.85675" lon="3.02299">
        <ele>602.8</ele>
        <time>2018-12-29T12:37:56Z</time>
      </trkpt>
      <trkpt lat="45.85671" lon="3.02283">
        <ele>603.2</ele>
        <time>2018-12-29T12:38:01Z</time>
      </trkpt>
      <trkpt lat="45.85671" lon="3.0228">
        <ele>603.8</ele>
        <time>2018-12-29T12:38:02Z</time>
      </trkpt>
      <trkpt lat="45.85671" lon="3.02277">
        <ele>604.2</ele>
        <time>2018-12-29T12:38:03Z</time>
      </trkpt>
      <trkpt lat="45.8567" lon="3.02273">
        <ele>604.6</ele>
        <time>2018-12-29T12:38:04Z</time>
      </trkpt>
      <trkpt lat="45.8567" lon="3.0227">
        <ele>605</ele>
        <time>2018-12-29T12:38:05Z</time>
      </trkpt>
      <trkpt lat="45.8567" lon="3.02244">
        <ele>605</ele>
        <time>2018-12-29T12:38:12Z</time>
      </trkpt>
      <trkpt lat="45.85672" lon="3.02211">
        <ele>605</ele>
        <time>2018-12-29T12:38:22Z</time>
      </trkpt>
      <trkpt lat="45.85674" lon="3.02183">
        <ele>605.4</ele>
        <time>2018-12-29T12:38:31Z</time>
      </trkpt>
      <trkpt lat="45.85674" lon="3.0218">
        <ele>605.8</ele>
        <time>2018-12-29T12:38:32Z</time>
      </trkpt>
      <trkpt lat="45.85674" lon="3.02177">
        <ele>606.2</ele>
        <time>2018-12-29T12:38:33Z</time>
      </trkpt>
      <trkpt lat="45.85674" lon="3.02174">
        <ele>606.6</ele>
        <time>2018-12-29T12:38:34Z</time>
      </trkpt>
      <trkpt lat="45.85675" lon="3.02171">
        <ele>607</ele>
        <time>2018-12-29T12:38:35Z</time>
      </trkpt>
      <trkpt lat="45.85677" lon="3.02154">
        <ele>607</ele>
        <time>2018-12-29T12:38:40Z</time>
      </trkpt>
      <trkpt lat="45.85677" lon="3.02141">
        <ele>607.6</ele>
        <time>2018-12-29T12:38:44Z</time>
      </trkpt>
      <trkpt lat="45.85677" lon="3.02137">
        <ele>608</ele>
        <time>2018-12-29T12:38:45Z</time>
      </trkpt>
      <trkpt lat="45.85676" lon="3.02134">
        <ele>608.4</ele>
        <time>2018-12-29T12:38:46Z</time>
      </trkpt>
      <trkpt lat="45.85676" lon="3.0213">
        <ele>609</ele>
        <time>2018-12-29T12:38:47Z</time>
      </trkpt>
      <trkpt lat="45.85676" lon="3.02127">
        <ele>609.4</ele>
        <time>2018-12-29T12:38:48Z</time>
      </trkpt>
      <trkpt lat="45.85675" lon="3.02107">
        <ele>609.8</ele>
        <time>2018-12-29T12:38:54Z</time>
      </trkpt>
      <trkpt lat="45.85675" lon="3.02104">
        <ele>610.2</ele>
        <time>2018-12-29T12:38:55Z</time>
      </trkpt>
      <trkpt lat="45.85675" lon="3.02101">
        <ele>610.6</ele>
        <time>2018-12-29T12:38:56Z</time>
      </trkpt>
      <trkpt lat="45.85675" lon="3.02098">
        <ele>611.2</ele>
        <time>2018-12-29T12:38:57Z</time>
      </trkpt>
      <trkpt lat="45.85675" lon="3.02095">
        <ele>611.6</ele>
        <time>2018-12-29T12:38:58Z</time>
      </trkpt>
      <trkpt lat="45.85674" lon="3.02078">
        <ele>611.6</ele>
        <time>2018-12-29T12:39:03Z</time>
      </trkpt>
      <trkpt lat="45.85674" lon="3.02055">
        <ele>612</ele>
        <time>2018-12-29T12:39:09Z</time>
      </trkpt>
      <trkpt lat="45.85673" lon="3.02052">
        <ele>612.4</ele>
        <time>2018-12-29T12:39:10Z</time>
      </trkpt>
      <trkpt lat="45.85673" lon="3.02048">
        <ele>612.8</ele>
        <time>2018-12-29T12:39:11Z</time>
      </trkpt>
      <trkpt lat="45.85673" lon="3.02044">
        <ele>613.2</ele>
        <time>2018-12-29T12:39:12Z</time>
      </trkpt>
      <trkpt lat="45.85672" lon="3.02041">
        <ele>613.6</ele>
        <time>2018-12-29T12:39:13Z</time>
      </trkpt>
      <trkpt lat="45.85671" lon="3.02027">
        <ele>613.6</ele>
        <time>2018-12-29T12:39:17Z</time>
      </trkpt>
      <trkpt lat="45.8567" lon="3.02021">
        <ele>614</ele>
        <time>2018-12-29T12:39:19Z</time>
      </trkpt>
      <trkpt lat="45.85669" lon="3.02019">
        <ele>614.4</ele>
        <time>2018-12-29T12:39:20Z</time>
      </trkpt>
      <trkpt lat="45.85669" lon="3.02016">
        <ele>614.8</ele>
        <time>2018-12-29T12:39:21Z</time>
      </trkpt>
      <trkpt lat="45.85669" lon="3.02014">
        <ele>615.4</ele>
        <time>2018-12-29T12:39:22Z</time>
      </trkpt>
      <trkpt lat="45.85669" lon="3.02012">
        <ele>615.8</ele>
        <time>2018-12-29T12:39:23Z</time>
      </trkpt>
      <trkpt lat="45.85669" lon="3.0201">
        <ele>615.8</ele>
        <time>2018-12-29T12:39:24Z</time>
      </trkpt>
      <trkpt lat="45.85668" lon="3.02005">
        <ele>615.8</ele>
        <time>2018-12-29T12:39:26Z</time>
      </trkpt>
      <trkpt lat="45.85669" lon="3.02001">
        <ele>615.8</ele>
        <time>2018-12-29T12:39:29Z</time>
      </trkpt>
      <trkpt lat="45.85668" lon="3.01996">
        <ele>615.8</ele>
        <time>2018-12-29T12:39:33Z</time>
      </trkpt>
      <trkpt lat="45.85667" lon="3.02002">
        <ele>615.8</ele>
        <time>2018-12-29T12:39:36Z</time>
      </trkpt>
      <trkpt lat="45.85667" lon="3.02004">
        <ele>615.8</ele>
        <time>2018-12-29T12:39:37Z</time>
      </trkpt>
      <trkpt lat="45.85671" lon="3.02023">
        <ele>615.8</ele>
        <time>2018-12-29T12:39:42Z</time>
      </trkpt>
      <trkpt lat="45.85673" lon="3.02049">
        <ele>615.8</ele>
        <time>2018-12-29T12:39:46Z</time>
      </trkpt>
      <trkpt lat="45.85674" lon="3.02064">
        <ele>615.2</ele>
        <time>2018-12-29T12:39:48Z</time>
      </trkpt>
      <trkpt lat="45.85674" lon="3.02072">
        <ele>614.8</ele>
        <time>2018-12-29T12:39:49Z</time>
      </trkpt>
      <trkpt lat="45.85675" lon="3.02081">
        <ele>613.8</ele>
        <time>2018-12-29T12:39:50Z</time>
      </trkpt>
      <trkpt lat="45.85675" lon="3.02089">
        <ele>613.4</ele>
        <time>2018-12-29T12:39:51Z</time>
      </trkpt>
      <trkpt lat="45.85676" lon="3.02097">
        <ele>613.4</ele>
        <time>2018-12-29T12:39:52Z</time>
      </trkpt>
      <trkpt lat="45.85676" lon="3.02105">
        <ele>613</ele>
        <time>2018-12-29T12:39:53Z</time>
      </trkpt>
      <trkpt lat="45.85677" lon="3.02112">
        <ele>612.6</ele>
        <time>2018-12-29T12:39:54Z</time>
      </trkpt>
      <trkpt lat="45.85677" lon="3.02119">
        <ele>612</ele>
        <time>2018-12-29T12:39:55Z</time>
      </trkpt>
      <trkpt lat="45.85678" lon="3.02126">
        <ele>611.6</ele>
        <time>2018-12-29T12:39:56Z</time>
      </trkpt>
      <trkpt lat="45.85678" lon="3.02133">
        <ele>611.2</ele>
        <time>2018-12-29T12:39:57Z</time>
      </trkpt>
      <trkpt lat="45.85678" lon="3.02148">
        <ele>610.8</ele>
        <time>2018-12-29T12:39:59Z</time>
      </trkpt>
      <trkpt lat="45.85678" lon="3.02154">
        <ele>610.2</ele>
        <time>2018-12-29T12:40:00Z</time>
      </trkpt>
      <trkpt lat="45.85678" lon="3.02159">
        <ele>609.8</ele>
        <time>2018-12-29T12:40:01Z</time>
      </trkpt>
      <trkpt lat="45.85678" lon="3.02162">
        <ele>609.4</ele>
        <time>2018-12-29T12:40:02Z</time>
      </trkpt>
      <trkpt lat="45.85679" lon="3.02165">
        <ele>608.8</ele>
        <time>2018-12-29T12:40:03Z</time>
      </trkpt>
      <trkpt lat="45.85682" lon="3.0217">
        <ele>608.8</ele>
        <time>2018-12-29T12:40:05Z</time>
      </trkpt>
      <trkpt lat="45.85685" lon="3.0217">
        <ele>608.8</ele>
        <time>2018-12-29T12:40:06Z</time>
      </trkpt>
      <trkpt lat="45.8571" lon="3.02175">
        <ele>608.8</ele>
        <time>2018-12-29T12:40:14Z</time>
      </trkpt>
      <trkpt lat="45.85735" lon="3.02177">
        <ele>608.8</ele>
        <time>2018-12-29T12:40:22Z</time>
      </trkpt>
      <trkpt lat="45.85745" lon="3.02169">
        <ele>608.8</ele>
        <time>2018-12-29T12:40:25Z</time>
      </trkpt>
      <trkpt lat="45.85747" lon="3.02165">
        <ele>608.8</ele>
        <time>2018-12-29T12:40:26Z</time>
      </trkpt>
      <trkpt lat="45.85756" lon="3.02146">
        <ele>608.8</ele>
        <time>2018-12-29T12:40:31Z</time>
      </trkpt>
      <trkpt lat="45.85758" lon="3.02143">
        <ele>609.4</ele>
        <time>2018-12-29T12:40:32Z</time>
      </trkpt>
      <trkpt lat="45.8576" lon="3.0214">
        <ele>609.8</ele>
        <time>2018-12-29T12:40:33Z</time>
      </trkpt>
      <trkpt lat="45.85762" lon="3.02137">
        <ele>610.2</ele>
        <time>2018-12-29T12:40:34Z</time>
      </trkpt>
      <trkpt lat="45.85764" lon="3.02134">
        <ele>610.6</ele>
        <time>2018-12-29T12:40:35Z</time>
      </trkpt>
      <trkpt lat="45.85766" lon="3.02131">
        <ele>611</ele>
        <time>2018-12-29T12:40:36Z</time>
      </trkpt>
      <trkpt lat="45.85775" lon="3.02113">
        <ele>611</ele>
        <time>2018-12-29T12:40:42Z</time>
      </trkpt>
      <trkpt lat="45.85778" lon="3.02107">
        <ele>611.4</ele>
        <time>2018-12-29T12:40:44Z</time>
      </trkpt>
      <trkpt lat="45.85779" lon="3.02104">
        <ele>611.8</ele>
        <time>2018-12-29T12:40:45Z</time>
      </trkpt>
      <trkpt lat="45.85781" lon="3.021">
        <ele>612.4</ele>
        <time>2018-12-29T12:40:46Z</time>
      </trkpt>
      <trkpt lat="45.85782" lon="3.02097">
        <ele>612.8</ele>
        <time>2018-12-29T12:40:47Z</time>
      </trkpt>
      <trkpt lat="45.85784" lon="3.02094">
        <ele>613.2</ele>
        <time>2018-12-29T12:40:48Z</time>
      </trkpt>
      <trkpt lat="45.85785" lon="3.0209">
        <ele>613.2</ele>
        <time>2018-12-29T12:40:49Z</time>
      </trkpt>
      <trkpt lat="45.85795" lon="3.02069">
        <ele>613.2</ele>
        <time>2018-12-29T12:40:55Z</time>
      </trkpt>
      <trkpt lat="45.85803" lon="3.02052">
        <ele>613.2</ele>
        <time>2018-12-29T12:41:00Z</time>
      </trkpt>
      <trkpt lat="45.85812" lon="3.02031">
        <ele>613.2</ele>
        <time>2018-12-29T12:41:06Z</time>
      </trkpt>
      <trkpt lat="45.85817" lon="3.02021">
        <ele>613.6</ele>
        <time>2018-12-29T12:41:09Z</time>
      </trkpt>
      <trkpt lat="45.85818" lon="3.02018">
        <ele>614</ele>
        <time>2018-12-29T12:41:10Z</time>
      </trkpt>
      <trkpt lat="45.85819" lon="3.02015">
        <ele>614.4</ele>
        <time>2018-12-29T12:41:11Z</time>
      </trkpt>
      <trkpt lat="45.85819" lon="3.02013">
        <ele>615</ele>
        <time>2018-12-29T12:41:12Z</time>
      </trkpt>
      <trkpt lat="45.8582" lon="3.0201">
        <ele>615.4</ele>
        <time>2018-12-29T12:41:13Z</time>
      </trkpt>
      <trkpt lat="45.85823" lon="3.02004">
        <ele>615.8</ele>
        <time>2018-12-29T12:41:15Z</time>
      </trkpt>
      <trkpt lat="45.85824" lon="3.02001">
        <ele>616.2</ele>
        <time>2018-12-29T12:41:16Z</time>
      </trkpt>
      <trkpt lat="45.85826" lon="3.01998">
        <ele>616.6</ele>
        <time>2018-12-29T12:41:17Z</time>
      </trkpt>
      <trkpt lat="45.85827" lon="3.01995">
        <ele>617</ele>
        <time>2018-12-29T12:41:18Z</time>
      </trkpt>
      <trkpt lat="45.85828" lon="3.01991">
        <ele>617.4</ele>
        <time>2018-12-29T12:41:19Z</time>
      </trkpt>
      <trkpt lat="45.85831" lon="3.01986">
        <ele>617.8</ele>
        <time>2018-12-29T12:41:21Z</time>
      </trkpt>
      <trkpt lat="45.85833" lon="3.01983">
        <ele>618.2</ele>
        <time>2018-12-29T12:41:22Z</time>
      </trkpt>
      <trkpt lat="45.85834" lon="3.0198">
        <ele>618.6</ele>
        <time>2018-12-29T12:41:23Z</time>
      </trkpt>
      <trkpt lat="45.85835" lon="3.01978">
        <ele>619</ele>
        <time>2018-12-29T12:41:24Z</time>
      </trkpt>
      <trkpt lat="45.85836" lon="3.01975">
        <ele>619.4</ele>
        <time>2018-12-29T12:41:25Z</time>
      </trkpt>
      <trkpt lat="45.85839" lon="3.01967">
        <ele>619.4</ele>
        <time>2018-12-29T12:41:28Z</time>
      </trkpt>
      <trkpt lat="45.85841" lon="3.01962">
        <ele>619.8</ele>
        <time>2018-12-29T12:41:30Z</time>
      </trkpt>
      <trkpt lat="45.85842" lon="3.0196">
        <ele>620.2</ele>
        <time>2018-12-29T12:41:31Z</time>
      </trkpt>
      <trkpt lat="45.85844" lon="3.01957">
        <ele>620.6</ele>
        <time>2018-12-29T12:41:32Z</time>
      </trkpt>
      <trkpt lat="45.85845" lon="3.01955">
        <ele>621</ele>
        <time>2018-12-29T12:41:33Z</time>
      </trkpt>
      <trkpt lat="45.85846" lon="3.01953">
        <ele>621.4</ele>
        <time>2018-12-29T12:41:34Z</time>
      </trkpt>
      <trkpt lat="45.85847" lon="3.01948">
        <ele>621.4</ele>
        <time>2018-12-29T12:41:36Z</time>
      </trkpt>
      <trkpt lat="45.85852" lon="3.01938">
        <ele>621.8</ele>
        <time>2018-12-29T12:41:41Z</time>
      </trkpt>
      <trkpt lat="45.85853" lon="3.01935">
        <ele>622.2</ele>
        <time>2018-12-29T12:41:42Z</time>
      </trkpt>
      <trkpt lat="45.85854" lon="3.01933">
        <ele>622.6</ele>
        <time>2018-12-29T12:41:43Z</time>
      </trkpt>
      <trkpt lat="45.85855" lon="3.01931">
        <ele>623</ele>
        <time>2018-12-29T12:41:44Z</time>
      </trkpt>
      <trkpt lat="45.85856" lon="3.01929">
        <ele>623.4</ele>
        <time>2018-12-29T12:41:45Z</time>
      </trkpt>
      <trkpt lat="45.85858" lon="3.0192">
        <ele>623.4</ele>
        <time>2018-12-29T12:41:49Z</time>
      </trkpt>
      <trkpt lat="45.85855" lon="3.01902">
        <ele>623.4</ele>
        <time>2018-12-29T12:41:56Z</time>
      </trkpt>
      <trkpt lat="45.85852" lon="3.01887">
        <ele>623.8</ele>
        <time>2018-12-29T12:42:01Z</time>
      </trkpt>
      <trkpt lat="45.85851" lon="3.01884">
        <ele>624.4</ele>
        <time>2018-12-29T12:42:02Z</time>
      </trkpt>
      <trkpt lat="45.8585" lon="3.01881">
        <ele>624.8</ele>
        <time>2018-12-29T12:42:03Z</time>
      </trkpt>
      <trkpt lat="45.85849" lon="3.01879">
        <ele>625.2</ele>
        <time>2018-12-29T12:42:04Z</time>
      </trkpt>
      <trkpt lat="45.85848" lon="3.01876">
        <ele>625.6</ele>
        <time>2018-12-29T12:42:05Z</time>
      </trkpt>
      <trkpt lat="45.85844" lon="3.01862">
        <ele>625.6</ele>
        <time>2018-12-29T12:42:10Z</time>
      </trkpt>
      <trkpt lat="45.85835" lon="3.01842">
        <ele>625.6</ele>
        <time>2018-12-29T12:42:18Z</time>
      </trkpt>
      <trkpt lat="45.85832" lon="3.01837">
        <ele>626</ele>
        <time>2018-12-29T12:42:20Z</time>
      </trkpt>
      <trkpt lat="45.8583" lon="3.01834">
        <ele>626.4</ele>
        <time>2018-12-29T12:42:21Z</time>
      </trkpt>
      <trkpt lat="45.85828" lon="3.01831">
        <ele>626.8</ele>
        <time>2018-12-29T12:42:22Z</time>
      </trkpt>
      <trkpt lat="45.85826" lon="3.01828">
        <ele>627.2</ele>
        <time>2018-12-29T12:42:23Z</time>
      </trkpt>
      <trkpt lat="45.85825" lon="3.01825">
        <ele>627.6</ele>
        <time>2018-12-29T12:42:24Z</time>
      </trkpt>
      <trkpt lat="45.85811" lon="3.01807">
        <ele>627.6</ele>
        <time>2018-12-29T12:42:30Z</time>
      </trkpt>
      <trkpt lat="45.85793" lon="3.01783">
        <ele>627.6</ele>
        <time>2018-12-29T12:42:37Z</time>
      </trkpt>
      <trkpt lat="45.85776" lon="3.01763">
        <ele>627.6</ele>
        <time>2018-12-29T12:42:44Z</time>
      </trkpt>
      <trkpt lat="45.85762" lon="3.01744">
        <ele>627.6</ele>
        <time>2018-12-29T12:42:50Z</time>
      </trkpt>
      <trkpt lat="45.85749" lon="3.01726">
        <ele>627.6</ele>
        <time>2018-12-29T12:42:55Z</time>
      </trkpt>
      <trkpt lat="45.85725" lon="3.01694">
        <ele>627.6</ele>
        <time>2018-12-29T12:43:03Z</time>
      </trkpt>
      <trkpt lat="45.85697" lon="3.01661">
        <ele>627.6</ele>
        <time>2018-12-29T12:43:11Z</time>
      </trkpt>
      <trkpt lat="45.85677" lon="3.01639">
        <ele>627.6</ele>
        <time>2018-12-29T12:43:17Z</time>
      </trkpt>
      <trkpt lat="45.85651" lon="3.01609">
        <ele>627.6</ele>
        <time>2018-12-29T12:43:24Z</time>
      </trkpt>
      <trkpt lat="45.8562" lon="3.01579">
        <ele>627.6</ele>
        <time>2018-12-29T12:43:32Z</time>
      </trkpt>
      <trkpt lat="45.85613" lon="3.01571">
        <ele>627.6</ele>
        <time>2018-12-29T12:43:34Z</time>
      </trkpt>
      <trkpt lat="45.85611" lon="3.01566">
        <ele>628</ele>
        <time>2018-12-29T12:43:35Z</time>
      </trkpt>
      <trkpt lat="45.85609" lon="3.0156">
        <ele>628.4</ele>
        <time>2018-12-29T12:43:36Z</time>
      </trkpt>
      <trkpt lat="45.85608" lon="3.01553">
        <ele>628.8</ele>
        <time>2018-12-29T12:43:37Z</time>
      </trkpt>
      <trkpt lat="45.85606" lon="3.01547">
        <ele>629.2</ele>
        <time>2018-12-29T12:43:38Z</time>
      </trkpt>
      <trkpt lat="45.85605" lon="3.01539">
        <ele>629.8</ele>
        <time>2018-12-29T12:43:39Z</time>
      </trkpt>
      <trkpt lat="45.85602" lon="3.01526">
        <ele>629.8</ele>
        <time>2018-12-29T12:43:41Z</time>
      </trkpt>
      <trkpt lat="45.85592" lon="3.01482">
        <ele>629.8</ele>
        <time>2018-12-29T12:43:48Z</time>
      </trkpt>
      <trkpt lat="45.85581" lon="3.01434">
        <ele>629.8</ele>
        <time>2018-12-29T12:43:57Z</time>
      </trkpt>
      <trkpt lat="45.85575" lon="3.01397">
        <ele>629.8</ele>
        <time>2018-12-29T12:44:04Z</time>
      </trkpt>
      <trkpt lat="45.85569" lon="3.01355">
        <ele>629.8</ele>
        <time>2018-12-29T12:44:12Z</time>
      </trkpt>
      <trkpt lat="45.85561" lon="3.0132">
        <ele>629.8</ele>
        <time>2018-12-29T12:44:19Z</time>
      </trkpt>
      <trkpt lat="45.85551" lon="3.01297">
        <ele>629.8</ele>
        <time>2018-12-29T12:44:25Z</time>
      </trkpt>
      <trkpt lat="45.85545" lon="3.01292">
        <ele>629.8</ele>
        <time>2018-12-29T12:44:28Z</time>
      </trkpt>
      <trkpt lat="45.85542" lon="3.01293">
        <ele>630.2</ele>
        <time>2018-12-29T12:44:29Z</time>
      </trkpt>
      <trkpt lat="45.8554" lon="3.01295">
        <ele>630.6</ele>
        <time>2018-12-29T12:44:30Z</time>
      </trkpt>
      <trkpt lat="45.85537" lon="3.01298">
        <ele>631</ele>
        <time>2018-12-29T12:44:31Z</time>
      </trkpt>
      <trkpt lat="45.85534" lon="3.01301">
        <ele>631.4</ele>
        <time>2018-12-29T12:44:32Z</time>
      </trkpt>
      <trkpt lat="45.85531" lon="3.01305">
        <ele>631.8</ele>
        <time>2018-12-29T12:44:33Z</time>
      </trkpt>
      <trkpt lat="45.85526" lon="3.01317">
        <ele>631.8</ele>
        <time>2018-12-29T12:44:36Z</time>
      </trkpt>
      <trkpt lat="45.85525" lon="3.01322">
        <ele>632.2</ele>
        <time>2018-12-29T12:44:37Z</time>
      </trkpt>
      <trkpt lat="45.85524" lon="3.01326">
        <ele>632.6</ele>
        <time>2018-12-29T12:44:38Z</time>
      </trkpt>
      <trkpt lat="45.85523" lon="3.0133">
        <ele>633</ele>
        <time>2018-12-29T12:44:39Z</time>
      </trkpt>
      <trkpt lat="45.85523" lon="3.01335">
        <ele>633.6</ele>
        <time>2018-12-29T12:44:40Z</time>
      </trkpt>
      <trkpt lat="45.85522" lon="3.01339">
        <ele>634</ele>
        <time>2018-12-29T12:44:41Z</time>
      </trkpt>
      <trkpt lat="45.85521" lon="3.01345">
        <ele>634.4</ele>
        <time>2018-12-29T12:44:43Z</time>
      </trkpt>
      <trkpt lat="45.8552" lon="3.01348">
        <ele>635</ele>
        <time>2018-12-29T12:44:44Z</time>
      </trkpt>
      <trkpt lat="45.8552" lon="3.01351">
        <ele>635.4</ele>
        <time>2018-12-29T12:44:45Z</time>
      </trkpt>
      <trkpt lat="45.85519" lon="3.01354">
        <ele>636.4</ele>
        <time>2018-12-29T12:44:46Z</time>
      </trkpt>
      <trkpt lat="45.85518" lon="3.01362">
        <ele>636.8</ele>
        <time>2018-12-29T12:44:49Z</time>
      </trkpt>
      <trkpt lat="45.85517" lon="3.01364">
        <ele>637.2</ele>
        <time>2018-12-29T12:44:50Z</time>
      </trkpt>
      <trkpt lat="45.85516" lon="3.01367">
        <ele>637.6</ele>
        <time>2018-12-29T12:44:51Z</time>
      </trkpt>
      <trkpt lat="45.85516" lon="3.01369">
        <ele>638.2</ele>
        <time>2018-12-29T12:44:52Z</time>
      </trkpt>
      <trkpt lat="45.85516" lon="3.01372">
        <ele>638.6</ele>
        <time>2018-12-29T12:44:53Z</time>
      </trkpt>
      <trkpt lat="45.85516" lon="3.01378">
        <ele>638.6</ele>
        <time>2018-12-29T12:44:56Z</time>
      </trkpt>
      <trkpt lat="45.85517" lon="3.01383">
        <ele>638.6</ele>
        <time>2018-12-29T12:44:59Z</time>
      </trkpt>
      <trkpt lat="45.85517" lon="3.01387">
        <ele>638.6</ele>
        <time>2018-12-29T12:45:01Z</time>
      </trkpt>
      <trkpt lat="45.85517" lon="3.01389">
        <ele>638.6</ele>
        <time>2018-12-29T12:45:03Z</time>
      </trkpt>
      <trkpt lat="45.85521" lon="3.01397">
        <ele>638.6</ele>
        <time>2018-12-29T12:45:07Z</time>
      </trkpt>
      <trkpt lat="45.85533" lon="3.01418">
        <ele>638.6</ele>
        <time>2018-12-29T12:45:13Z</time>
      </trkpt>
      <trkpt lat="45.85541" lon="3.01438">
        <ele>638</ele>
        <time>2018-12-29T12:45:17Z</time>
      </trkpt>
      <trkpt lat="45.85543" lon="3.01444">
        <ele>637.6</ele>
        <time>2018-12-29T12:45:18Z</time>
      </trkpt>
      <trkpt lat="45.85545" lon="3.0145">
        <ele>637.2</ele>
        <time>2018-12-29T12:45:19Z</time>
      </trkpt>
      <trkpt lat="45.85547" lon="3.01455">
        <ele>636.8</ele>
        <time>2018-12-29T12:45:20Z</time>
      </trkpt>
      <trkpt lat="45.85548" lon="3.01459">
        <ele>636.2</ele>
        <time>2018-12-29T12:45:21Z</time>
      </trkpt>
      <trkpt lat="45.8555" lon="3.01473">
        <ele>636.2</ele>
        <time>2018-12-29T12:45:24Z</time>
      </trkpt>
      <trkpt lat="45.85554" lon="3.01501">
        <ele>636.2</ele>
        <time>2018-12-29T12:45:30Z</time>
      </trkpt>
      <trkpt lat="45.85559" lon="3.01532">
        <ele>636.2</ele>
        <time>2018-12-29T12:45:37Z</time>
      </trkpt>
      <trkpt lat="45.85564" lon="3.01566">
        <ele>636.2</ele>
        <time>2018-12-29T12:45:44Z</time>
      </trkpt>
      <trkpt lat="45.85565" lon="3.01571">
        <ele>635.8</ele>
        <time>2018-12-29T12:45:45Z</time>
      </trkpt>
      <trkpt lat="45.85565" lon="3.01576">
        <ele>635.4</ele>
        <time>2018-12-29T12:45:46Z</time>
      </trkpt>
      <trkpt lat="45.85566" lon="3.01581">
        <ele>635</ele>
        <time>2018-12-29T12:45:47Z</time>
      </trkpt>
      <trkpt lat="45.85566" lon="3.01587">
        <ele>634.6</ele>
        <time>2018-12-29T12:45:48Z</time>
      </trkpt>
      <trkpt lat="45.85566" lon="3.01593">
        <ele>634.2</ele>
        <time>2018-12-29T12:45:49Z</time>
      </trkpt>
      <trkpt lat="45.85568" lon="3.01625">
        <ele>633.6</ele>
        <time>2018-12-29T12:45:54Z</time>
      </trkpt>
      <trkpt lat="45.85568" lon="3.01631">
        <ele>633.2</ele>
        <time>2018-12-29T12:45:55Z</time>
      </trkpt>
      <trkpt lat="45.85568" lon="3.01636">
        <ele>632.8</ele>
        <time>2018-12-29T12:45:56Z</time>
      </trkpt>
      <trkpt lat="45.85568" lon="3.01642">
        <ele>632.4</ele>
        <time>2018-12-29T12:45:57Z</time>
      </trkpt>
      <trkpt lat="45.85567" lon="3.01648">
        <ele>632</ele>
        <time>2018-12-29T12:45:58Z</time>
      </trkpt>
      <trkpt lat="45.85565" lon="3.0167">
        <ele>632</ele>
        <time>2018-12-29T12:46:02Z</time>
      </trkpt>
      <trkpt lat="45.8556" lon="3.01692">
        <ele>632</ele>
        <time>2018-12-29T12:46:06Z</time>
      </trkpt>
      <trkpt lat="45.85555" lon="3.01702">
        <ele>632</ele>
        <time>2018-12-29T12:46:08Z</time>
      </trkpt>
      <trkpt lat="45.85543" lon="3.01723">
        <ele>632</ele>
        <time>2018-12-29T12:46:12Z</time>
      </trkpt>
      <trkpt lat="45.8554" lon="3.01728">
        <ele>631.4</ele>
        <time>2018-12-29T12:46:13Z</time>
      </trkpt>
      <trkpt lat="45.85536" lon="3.01732">
        <ele>631</ele>
        <time>2018-12-29T12:46:14Z</time>
      </trkpt>
      <trkpt lat="45.85533" lon="3.01737">
        <ele>630.6</ele>
        <time>2018-12-29T12:46:15Z</time>
      </trkpt>
      <trkpt lat="45.8553" lon="3.01743">
        <ele>630.2</ele>
        <time>2018-12-29T12:46:16Z</time>
      </trkpt>
      <trkpt lat="45.85527" lon="3.01748">
        <ele>629.8</ele>
        <time>2018-12-29T12:46:17Z</time>
      </trkpt>
      <trkpt lat="45.85524" lon="3.01753">
        <ele>629.8</ele>
        <time>2018-12-29T12:46:18Z</time>
      </trkpt>
      <trkpt lat="45.85517" lon="3.01763">
        <ele>629.8</ele>
        <time>2018-12-29T12:46:20Z</time>
      </trkpt>
      <trkpt lat="45.85515" lon="3.01768">
        <ele>629.4</ele>
        <time>2018-12-29T12:46:21Z</time>
      </trkpt>
      <trkpt lat="45.85513" lon="3.01773">
        <ele>629</ele>
        <time>2018-12-29T12:46:22Z</time>
      </trkpt>
      <trkpt lat="45.8551" lon="3.01778">
        <ele>628.2</ele>
        <time>2018-12-29T12:46:23Z</time>
      </trkpt>
      <trkpt lat="45.85509" lon="3.01785">
        <ele>627.8</ele>
        <time>2018-12-29T12:46:24Z</time>
      </trkpt>
      <trkpt lat="45.85503" lon="3.01805">
        <ele>627.8</ele>
        <time>2018-12-29T12:46:28Z</time>
      </trkpt>
      <trkpt lat="45.85497" lon="3.01828">
        <ele>627.8</ele>
        <time>2018-12-29T12:46:32Z</time>
      </trkpt>
      <trkpt lat="45.85495" lon="3.01833">
        <ele>627.8</ele>
        <time>2018-12-29T12:46:33Z</time>
      </trkpt>
      <trkpt lat="45.85487" lon="3.01856">
        <ele>627.8</ele>
        <time>2018-12-29T12:46:38Z</time>
      </trkpt>
      <trkpt lat="45.85485" lon="3.01862">
        <ele>627.8</ele>
        <time>2018-12-29T12:46:39Z</time>
      </trkpt>
      <trkpt lat="45.85483" lon="3.0187">
        <ele>627.4</ele>
        <time>2018-12-29T12:46:40Z</time>
      </trkpt>
      <trkpt lat="45.85479" lon="3.01879">
        <ele>627</ele>
        <time>2018-12-29T12:46:41Z</time>
      </trkpt>
      <trkpt lat="45.85476" lon="3.01887">
        <ele>626.6</ele>
        <time>2018-12-29T12:46:42Z</time>
      </trkpt>
      <trkpt lat="45.85473" lon="3.01896">
        <ele>626</ele>
        <time>2018-12-29T12:46:43Z</time>
      </trkpt>
      <trkpt lat="45.85471" lon="3.01904">
        <ele>625.6</ele>
        <time>2018-12-29T12:46:44Z</time>
      </trkpt>
      <trkpt lat="45.85468" lon="3.01912">
        <ele>625.2</ele>
        <time>2018-12-29T12:46:45Z</time>
      </trkpt>
      <trkpt lat="45.85465" lon="3.01919">
        <ele>624.8</ele>
        <time>2018-12-29T12:46:46Z</time>
      </trkpt>
      <trkpt lat="45.85462" lon="3.01928">
        <ele>624.4</ele>
        <time>2018-12-29T12:46:47Z</time>
      </trkpt>
      <trkpt lat="45.85459" lon="3.01937">
        <ele>623.6</ele>
        <time>2018-12-29T12:46:48Z</time>
      </trkpt>
      <trkpt lat="45.85456" lon="3.01945">
        <ele>623.6</ele>
        <time>2018-12-29T12:46:49Z</time>
      </trkpt>
      <trkpt lat="45.85435" lon="3.01991">
        <ele>623.6</ele>
        <time>2018-12-29T12:46:55Z</time>
      </trkpt>
      <trkpt lat="45.85419" lon="3.02013">
        <ele>623.6</ele>
        <time>2018-12-29T12:46:59Z</time>
      </trkpt>
      <trkpt lat="45.85411" lon="3.02019">
        <ele>623.6</ele>
        <time>2018-12-29T12:47:01Z</time>
      </trkpt>
      <trkpt lat="45.85398" lon="3.02017">
        <ele>623.6</ele>
        <time>2018-12-29T12:47:04Z</time>
      </trkpt>
      <trkpt lat="45.85391" lon="3.02014">
        <ele>623.6</ele>
        <time>2018-12-29T12:47:06Z</time>
      </trkpt>
      <trkpt lat="45.85379" lon="3.02008">
        <ele>623.6</ele>
        <time>2018-12-29T12:47:09Z</time>
      </trkpt>
      <trkpt lat="45.85357" lon="3.01994">
        <ele>623.6</ele>
        <time>2018-12-29T12:47:15Z</time>
      </trkpt>
      <trkpt lat="45.8534" lon="3.01984">
        <ele>623.6</ele>
        <time>2018-12-29T12:47:21Z</time>
      </trkpt>
      <trkpt lat="45.85337" lon="3.01982">
        <ele>624</ele>
        <time>2018-12-29T12:47:22Z</time>
      </trkpt>
      <trkpt lat="45.85333" lon="3.0198">
        <ele>624.4</ele>
        <time>2018-12-29T12:47:23Z</time>
      </trkpt>
      <trkpt lat="45.8533" lon="3.01978">
        <ele>624.8</ele>
        <time>2018-12-29T12:47:24Z</time>
      </trkpt>
      <trkpt lat="45.85326" lon="3.01975">
        <ele>625.2</ele>
        <time>2018-12-29T12:47:25Z</time>
      </trkpt>
      <trkpt lat="45.85323" lon="3.01973">
        <ele>625.6</ele>
        <time>2018-12-29T12:47:26Z</time>
      </trkpt>
      <trkpt lat="45.85317" lon="3.01969">
        <ele>625.6</ele>
        <time>2018-12-29T12:47:28Z</time>
      </trkpt>
      <trkpt lat="45.8531" lon="3.01964">
        <ele>625.6</ele>
        <time>2018-12-29T12:47:32Z</time>
      </trkpt>
      <trkpt lat="45.85299" lon="3.0196">
        <ele>625.6</ele>
        <time>2018-12-29T12:47:36Z</time>
      </trkpt>
      <trkpt lat="45.85296" lon="3.01959">
        <ele>625.6</ele>
        <time>2018-12-29T12:47:38Z</time>
      </trkpt>
      <trkpt lat="45.85295" lon="3.0196">
        <ele>625.6</ele>
        <time>2018-12-29T12:47:42Z</time>
      </trkpt>
      <trkpt lat="45.85294" lon="3.01963">
        <ele>625.6</ele>
        <time>2018-12-29T12:47:43Z</time>
      </trkpt>
      <trkpt lat="45.85293" lon="3.01979">
        <ele>625.6</ele>
        <time>2018-12-29T12:47:48Z</time>
      </trkpt>
      <trkpt lat="45.85291" lon="3.02001">
        <ele>625.6</ele>
        <time>2018-12-29T12:47:52Z</time>
      </trkpt>
      <trkpt lat="45.85291" lon="3.02007">
        <ele>625.6</ele>
        <time>2018-12-29T12:47:53Z</time>
      </trkpt>
      <trkpt lat="45.85289" lon="3.02031">
        <ele>625.2</ele>
        <time>2018-12-29T12:47:56Z</time>
      </trkpt>
      <trkpt lat="45.85289" lon="3.0204">
        <ele>624.8</ele>
        <time>2018-12-29T12:47:57Z</time>
      </trkpt>
      <trkpt lat="45.85289" lon="3.02048">
        <ele>624.4</ele>
        <time>2018-12-29T12:47:58Z</time>
      </trkpt>
      <trkpt lat="45.85288" lon="3.02058">
        <ele>623.6</ele>
        <time>2018-12-29T12:47:59Z</time>
      </trkpt>
      <trkpt lat="45.85286" lon="3.02067">
        <ele>623</ele>
        <time>2018-12-29T12:48:00Z</time>
      </trkpt>
      <trkpt lat="45.85281" lon="3.02076">
        <ele>622.2</ele>
        <time>2018-12-29T12:48:01Z</time>
      </trkpt>
      <trkpt lat="45.85277" lon="3.02086">
        <ele>620.6</ele>
        <time>2018-12-29T12:48:02Z</time>
      </trkpt>
      <trkpt lat="45.85272" lon="3.02097">
        <ele>619.6</ele>
        <time>2018-12-29T12:48:03Z</time>
      </trkpt>
      <trkpt lat="45.85267" lon="3.02107">
        <ele>618.6</ele>
        <time>2018-12-29T12:48:04Z</time>
      </trkpt>
      <trkpt lat="45.8526" lon="3.02117">
        <ele>617.6</ele>
        <time>2018-12-29T12:48:05Z</time>
      </trkpt>
      <trkpt lat="45.85252" lon="3.02124">
        <ele>616.4</ele>
        <time>2018-12-29T12:48:06Z</time>
      </trkpt>
      <trkpt lat="45.85244" lon="3.02126">
        <ele>615.4</ele>
        <time>2018-12-29T12:48:07Z</time>
      </trkpt>
      <trkpt lat="45.85235" lon="3.02124">
        <ele>614.2</ele>
        <time>2018-12-29T12:48:08Z</time>
      </trkpt>
      <trkpt lat="45.85226" lon="3.0212">
        <ele>613.2</ele>
        <time>2018-12-29T12:48:09Z</time>
      </trkpt>
      <trkpt lat="45.8521" lon="3.02118">
        <ele>613.2</ele>
        <time>2018-12-29T12:48:11Z</time>
      </trkpt>
      <trkpt lat="45.85186" lon="3.02115">
        <ele>613.2</ele>
        <time>2018-12-29T12:48:15Z</time>
      </trkpt>
      <trkpt lat="45.85148" lon="3.02108">
        <ele>613.2</ele>
        <time>2018-12-29T12:48:22Z</time>
      </trkpt>
      <trkpt lat="45.85143" lon="3.02108">
        <ele>613.2</ele>
        <time>2018-12-29T12:48:23Z</time>
      </trkpt>
      <trkpt lat="45.8512" lon="3.02105">
        <ele>612.6</ele>
        <time>2018-12-29T12:48:27Z</time>
      </trkpt>
      <trkpt lat="45.85114" lon="3.02105">
        <ele>612.2</ele>
        <time>2018-12-29T12:48:28Z</time>
      </trkpt>
      <trkpt lat="45.85108" lon="3.02104">
        <ele>611.8</ele>
        <time>2018-12-29T12:48:29Z</time>
      </trkpt>
      <trkpt lat="45.85102" lon="3.02102">
        <ele>611.2</ele>
        <time>2018-12-29T12:48:30Z</time>
      </trkpt>
      <trkpt lat="45.85096" lon="3.021">
        <ele>610.8</ele>
        <time>2018-12-29T12:48:31Z</time>
      </trkpt>
      <trkpt lat="45.8509" lon="3.02098">
        <ele>610.4</ele>
        <time>2018-12-29T12:48:32Z</time>
      </trkpt>
      <trkpt lat="45.85085" lon="3.02095">
        <ele>610</ele>
        <time>2018-12-29T12:48:33Z</time>
      </trkpt>
      <trkpt lat="45.8508" lon="3.02092">
        <ele>609.6</ele>
        <time>2018-12-29T12:48:34Z</time>
      </trkpt>
      <trkpt lat="45.85075" lon="3.02089">
        <ele>609.2</ele>
        <time>2018-12-29T12:48:35Z</time>
      </trkpt>
      <trkpt lat="45.8507" lon="3.02086">
        <ele>608.8</ele>
        <time>2018-12-29T12:48:36Z</time>
      </trkpt>
      <trkpt lat="45.85057" lon="3.02078">
        <ele>608.8</ele>
        <time>2018-12-29T12:48:39Z</time>
      </trkpt>
      <trkpt lat="45.85021" lon="3.02056">
        <ele>608.8</ele>
        <time>2018-12-29T12:48:47Z</time>
      </trkpt>
      <trkpt lat="45.85012" lon="3.02049">
        <ele>608.8</ele>
        <time>2018-12-29T12:48:49Z</time>
      </trkpt>
      <trkpt lat="45.85001" lon="3.02037">
        <ele>609.2</ele>
        <time>2018-12-29T12:48:52Z</time>
      </trkpt>
      <trkpt lat="45.84998" lon="3.02033">
        <ele>609.6</ele>
        <time>2018-12-29T12:48:53Z</time>
      </trkpt>
      <trkpt lat="45.84994" lon="3.02029">
        <ele>610</ele>
        <time>2018-12-29T12:48:54Z</time>
      </trkpt>
      <trkpt lat="45.84992" lon="3.02025">
        <ele>610.4</ele>
        <time>2018-12-29T12:48:55Z</time>
      </trkpt>
      <trkpt lat="45.84989" lon="3.02022">
        <ele>610.8</ele>
        <time>2018-12-29T12:48:56Z</time>
      </trkpt>
      <trkpt lat="45.84986" lon="3.02019">
        <ele>611.2</ele>
        <time>2018-12-29T12:48:57Z</time>
      </trkpt>
      <trkpt lat="45.84983" lon="3.02015">
        <ele>611.6</ele>
        <time>2018-12-29T12:48:58Z</time>
      </trkpt>
      <trkpt lat="45.8498" lon="3.02012">
        <ele>612</ele>
        <time>2018-12-29T12:48:59Z</time>
      </trkpt>
      <trkpt lat="45.84977" lon="3.02007">
        <ele>612.4</ele>
        <time>2018-12-29T12:49:00Z</time>
      </trkpt>
      <trkpt lat="45.84974" lon="3.02003">
        <ele>612.8</ele>
        <time>2018-12-29T12:49:01Z</time>
      </trkpt>
      <trkpt lat="45.84966" lon="3.01987">
        <ele>612.8</ele>
        <time>2018-12-29T12:49:04Z</time>
      </trkpt>
      <trkpt lat="45.84949" lon="3.01957">
        <ele>612.4</ele>
        <time>2018-12-29T12:49:09Z</time>
      </trkpt>
      <trkpt lat="45.84945" lon="3.01949">
        <ele>611.8</ele>
        <time>2018-12-29T12:49:10Z</time>
      </trkpt>
      <trkpt lat="45.84942" lon="3.01941">
        <ele>611.4</ele>
        <time>2018-12-29T12:49:11Z</time>
      </trkpt>
      <trkpt lat="45.84938" lon="3.01932">
        <ele>610.8</ele>
        <time>2018-12-29T12:49:12Z</time>
      </trkpt>
      <trkpt lat="45.84936" lon="3.01924">
        <ele>610</ele>
        <time>2018-12-29T12:49:13Z</time>
      </trkpt>
      <trkpt lat="45.84933" lon="3.01915">
        <ele>609.4</ele>
        <time>2018-12-29T12:49:14Z</time>
      </trkpt>
      <trkpt lat="45.8493" lon="3.01907">
        <ele>608.8</ele>
        <time>2018-12-29T12:49:15Z</time>
      </trkpt>
      <trkpt lat="45.84928" lon="3.01898">
        <ele>608.2</ele>
        <time>2018-12-29T12:49:16Z</time>
      </trkpt>
      <trkpt lat="45.84926" lon="3.0189">
        <ele>607.8</ele>
        <time>2018-12-29T12:49:17Z</time>
      </trkpt>
      <trkpt lat="45.84924" lon="3.01882">
        <ele>607.4</ele>
        <time>2018-12-29T12:49:18Z</time>
      </trkpt>
      <trkpt lat="45.84922" lon="3.01874">
        <ele>607</ele>
        <time>2018-12-29T12:49:19Z</time>
      </trkpt>
      <trkpt lat="45.84921" lon="3.01866">
        <ele>606.6</ele>
        <time>2018-12-29T12:49:20Z</time>
      </trkpt>
      <trkpt lat="45.8492" lon="3.01857">
        <ele>606.2</ele>
        <time>2018-12-29T12:49:21Z</time>
      </trkpt>
      <trkpt lat="45.84918" lon="3.01849">
        <ele>606.2</ele>
        <time>2018-12-29T12:49:22Z</time>
      </trkpt>
      <trkpt lat="45.8491" lon="3.01802">
        <ele>606.2</ele>
        <time>2018-12-29T12:49:28Z</time>
      </trkpt>
      <trkpt lat="45.84908" lon="3.01795">
        <ele>605.8</ele>
        <time>2018-12-29T12:49:29Z</time>
      </trkpt>
      <trkpt lat="45.84906" lon="3.01788">
        <ele>605.2</ele>
        <time>2018-12-29T12:49:30Z</time>
      </trkpt>
      <trkpt lat="45.84904" lon="3.0178">
        <ele>604.8</ele>
        <time>2018-12-29T12:49:31Z</time>
      </trkpt>
      <trkpt lat="45.84902" lon="3.01773">
        <ele>604.4</ele>
        <time>2018-12-29T12:49:32Z</time>
      </trkpt>
      <trkpt lat="45.84901" lon="3.01766">
        <ele>604</ele>
        <time>2018-12-29T12:49:33Z</time>
      </trkpt>
      <trkpt lat="45.84893" lon="3.01738">
        <ele>604</ele>
        <time>2018-12-29T12:49:37Z</time>
      </trkpt>
      <trkpt lat="45.84888" lon="3.01708">
        <ele>603.2</ele>
        <time>2018-12-29T12:49:41Z</time>
      </trkpt>
      <trkpt lat="45.84887" lon="3.01701">
        <ele>602.6</ele>
        <time>2018-12-29T12:49:42Z</time>
      </trkpt>
      <trkpt lat="45.84885" lon="3.01693">
        <ele>602.2</ele>
        <time>2018-12-29T12:49:43Z</time>
      </trkpt>
      <trkpt lat="45.84884" lon="3.01685">
        <ele>601.6</ele>
        <time>2018-12-29T12:49:44Z</time>
      </trkpt>
      <trkpt lat="45.84877" lon="3.0166">
        <ele>601.6</ele>
        <time>2018-12-29T12:49:48Z</time>
      </trkpt>
      <trkpt lat="45.84869" lon="3.01653">
        <ele>601.6</ele>
        <time>2018-12-29T12:49:51Z</time>
      </trkpt>
      <trkpt lat="45.84859" lon="3.01642">
        <ele>601.6</ele>
        <time>2018-12-29T12:49:54Z</time>
      </trkpt>
      <trkpt lat="45.84856" lon="3.01637">
        <ele>601.6</ele>
        <time>2018-12-29T12:49:55Z</time>
      </trkpt>
      <trkpt lat="45.84853" lon="3.01633">
        <ele>601.2</ele>
        <time>2018-12-29T12:49:56Z</time>
      </trkpt>
      <trkpt lat="45.8485" lon="3.01628">
        <ele>600.8</ele>
        <time>2018-12-29T12:49:57Z</time>
      </trkpt>
      <trkpt lat="45.84847" lon="3.01624">
        <ele>600.4</ele>
        <time>2018-12-29T12:49:58Z</time>
      </trkpt>
      <trkpt lat="45.84844" lon="3.01619">
        <ele>600</ele>
        <time>2018-12-29T12:49:59Z</time>
      </trkpt>
      <trkpt lat="45.8484" lon="3.01615">
        <ele>599.4</ele>
        <time>2018-12-29T12:50:00Z</time>
      </trkpt>
      <trkpt lat="45.84831" lon="3.01602">
        <ele>599.4</ele>
        <time>2018-12-29T12:50:03Z</time>
      </trkpt>
      <trkpt lat="45.84827" lon="3.01599">
        <ele>599.4</ele>
        <time>2018-12-29T12:50:04Z</time>
      </trkpt>
      <trkpt lat="45.8481" lon="3.0158">
        <ele>599.4</ele>
        <time>2018-12-29T12:50:10Z</time>
      </trkpt>
      <trkpt lat="45.84802" lon="3.01572">
        <ele>599.8</ele>
        <time>2018-12-29T12:50:13Z</time>
      </trkpt>
      <trkpt lat="45.84799" lon="3.0157">
        <ele>600.2</ele>
        <time>2018-12-29T12:50:14Z</time>
      </trkpt>
      <trkpt lat="45.84796" lon="3.01568">
        <ele>600.8</ele>
        <time>2018-12-29T12:50:15Z</time>
      </trkpt>
      <trkpt lat="45.84793" lon="3.01565">
        <ele>601.2</ele>
        <time>2018-12-29T12:50:16Z</time>
      </trkpt>
      <trkpt lat="45.84791" lon="3.01562">
        <ele>601.6</ele>
        <time>2018-12-29T12:50:17Z</time>
      </trkpt>
      <trkpt lat="45.84777" lon="3.01551">
        <ele>601.6</ele>
        <time>2018-12-29T12:50:21Z</time>
      </trkpt>
      <trkpt lat="45.84757" lon="3.01536">
        <ele>602</ele>
        <time>2018-12-29T12:50:27Z</time>
      </trkpt>
      <trkpt lat="45.84753" lon="3.01534">
        <ele>602.4</ele>
        <time>2018-12-29T12:50:28Z</time>
      </trkpt>
      <trkpt lat="45.84751" lon="3.01533">
        <ele>602.8</ele>
        <time>2018-12-29T12:50:29Z</time>
      </trkpt>
      <trkpt lat="45.84747" lon="3.01531">
        <ele>603.6</ele>
        <time>2018-12-29T12:50:30Z</time>
      </trkpt>
      <trkpt lat="45.84737" lon="3.01524">
        <ele>604</ele>
        <time>2018-12-29T12:50:33Z</time>
      </trkpt>
      <trkpt lat="45.84734" lon="3.01522">
        <ele>604.6</ele>
        <time>2018-12-29T12:50:34Z</time>
      </trkpt>
      <trkpt lat="45.8473" lon="3.01521">
        <ele>605</ele>
        <time>2018-12-29T12:50:35Z</time>
      </trkpt>
      <trkpt lat="45.84726" lon="3.01519">
        <ele>605.4</ele>
        <time>2018-12-29T12:50:36Z</time>
      </trkpt>
      <trkpt lat="45.84722" lon="3.01518">
        <ele>605.8</ele>
        <time>2018-12-29T12:50:37Z</time>
      </trkpt>
      <trkpt lat="45.84717" lon="3.01515">
        <ele>605.8</ele>
        <time>2018-12-29T12:50:38Z</time>
      </trkpt>
      <trkpt lat="45.84705" lon="3.01512">
        <ele>605.4</ele>
        <time>2018-12-29T12:50:40Z</time>
      </trkpt>
      <trkpt lat="45.84699" lon="3.01509">
        <ele>604.8</ele>
        <time>2018-12-29T12:50:41Z</time>
      </trkpt>
      <trkpt lat="45.84693" lon="3.01508">
        <ele>604.4</ele>
        <time>2018-12-29T12:50:42Z</time>
      </trkpt>
      <trkpt lat="45.84687" lon="3.01506">
        <ele>603.6</ele>
        <time>2018-12-29T12:50:43Z</time>
      </trkpt>
      <trkpt lat="45.84681" lon="3.01503">
        <ele>603</ele>
        <time>2018-12-29T12:50:44Z</time>
      </trkpt>
      <trkpt lat="45.84675" lon="3.015">
        <ele>602.4</ele>
        <time>2018-12-29T12:50:45Z</time>
      </trkpt>
      <trkpt lat="45.84669" lon="3.01497">
        <ele>601.8</ele>
        <time>2018-12-29T12:50:46Z</time>
      </trkpt>
      <trkpt lat="45.84663" lon="3.01494">
        <ele>601.2</ele>
        <time>2018-12-29T12:50:47Z</time>
      </trkpt>
      <trkpt lat="45.84657" lon="3.01492">
        <ele>601.2</ele>
        <time>2018-12-29T12:50:48Z</time>
      </trkpt>
      <trkpt lat="45.84639" lon="3.01489">
        <ele>601.2</ele>
        <time>2018-12-29T12:50:51Z</time>
      </trkpt>
      <trkpt lat="45.84634" lon="3.01488">
        <ele>600.8</ele>
        <time>2018-12-29T12:50:52Z</time>
      </trkpt>
      <trkpt lat="45.84629" lon="3.01487">
        <ele>600.2</ele>
        <time>2018-12-29T12:50:53Z</time>
      </trkpt>
      <trkpt lat="45.84623" lon="3.01486">
        <ele>599.4</ele>
        <time>2018-12-29T12:50:54Z</time>
      </trkpt>
      <trkpt lat="45.84617" lon="3.01485">
        <ele>599</ele>
        <time>2018-12-29T12:50:55Z</time>
      </trkpt>
      <trkpt lat="45.84611" lon="3.01484">
        <ele>598.4</ele>
        <time>2018-12-29T12:50:56Z</time>
      </trkpt>
      <trkpt lat="45.84606" lon="3.01484">
        <ele>598</ele>
        <time>2018-12-29T12:50:57Z</time>
      </trkpt>
      <trkpt lat="45.846" lon="3.01484">
        <ele>597.6</ele>
        <time>2018-12-29T12:50:58Z</time>
      </trkpt>
      <trkpt lat="45.84594" lon="3.01485">
        <ele>597.2</ele>
        <time>2018-12-29T12:50:59Z</time>
      </trkpt>
      <trkpt lat="45.84588" lon="3.01486">
        <ele>596.8</ele>
        <time>2018-12-29T12:51:00Z</time>
      </trkpt>
      <trkpt lat="45.84583" lon="3.01488">
        <ele>596.4</ele>
        <time>2018-12-29T12:51:01Z</time>
      </trkpt>
      <trkpt lat="45.84577" lon="3.01491">
        <ele>596</ele>
        <time>2018-12-29T12:51:02Z</time>
      </trkpt>
      <trkpt lat="45.84573" lon="3.01493">
        <ele>595.6</ele>
        <time>2018-12-29T12:51:03Z</time>
      </trkpt>
      <trkpt lat="45.8457" lon="3.01495">
        <ele>595.2</ele>
        <time>2018-12-29T12:51:04Z</time>
      </trkpt>
      <trkpt lat="45.84568" lon="3.01495">
        <ele>594.8</ele>
        <time>2018-12-29T12:51:05Z</time>
      </trkpt>
      <trkpt lat="45.84567" lon="3.01494">
        <ele>594.8</ele>
        <time>2018-12-29T12:51:06Z</time>
      </trkpt>
      <trkpt lat="45.84567" lon="3.01494">
        <ele>594.8</ele>
        <time>2018-12-29T12:51:09Z</time>
      </trkpt>
      <trkpt lat="45.84565" lon="3.01485">
        <ele>594.8</ele>
        <time>2018-12-29T12:51:50Z</time>
      </trkpt>
      <trkpt lat="45.84568" lon="3.01473">
        <ele>594.8</ele>
        <time>2018-12-29T12:51:54Z</time>
      </trkpt>
      <trkpt lat="45.84572" lon="3.01468">
        <ele>594.8</ele>
        <time>2018-12-29T12:51:56Z</time>
      </trkpt>
      <trkpt lat="45.84575" lon="3.01455">
        <ele>594.8</ele>
        <time>2018-12-29T12:52:01Z</time>
      </trkpt>
      <trkpt lat="45.84575" lon="3.01444">
        <ele>594.8</ele>
        <time>2018-12-29T12:52:06Z</time>
      </trkpt>
      <trkpt lat="45.84575" lon="3.0144">
        <ele>595.2</ele>
        <time>2018-12-29T12:52:08Z</time>
      </trkpt>
      <trkpt lat="45.84576" lon="3.01437">
        <ele>595.6</ele>
        <time>2018-12-29T12:52:09Z</time>
      </trkpt>
      <trkpt lat="45.84576" lon="3.01435">
        <ele>596</ele>
        <time>2018-12-29T12:52:10Z</time>
      </trkpt>
      <trkpt lat="45.84576" lon="3.01433">
        <ele>596.4</ele>
        <time>2018-12-29T12:52:11Z</time>
      </trkpt>
      <trkpt lat="45.84576" lon="3.01431">
        <ele>596.8</ele>
        <time>2018-12-29T12:52:12Z</time>
      </trkpt>
      <trkpt lat="45.84577" lon="3.01426">
        <ele>596.8</ele>
        <time>2018-12-29T12:52:15Z</time>
      </trkpt>
      <trkpt lat="45.84578" lon="3.01424">
        <ele>596.8</ele>
        <time>2018-12-29T12:52:16Z</time>
      </trkpt>
      <trkpt lat="45.8458" lon="3.01414">
        <ele>597.2</ele>
        <time>2018-12-29T12:52:21Z</time>
      </trkpt>
      <trkpt lat="45.8458" lon="3.01412">
        <ele>597.6</ele>
        <time>2018-12-29T12:52:22Z</time>
      </trkpt>
      <trkpt lat="45.84581" lon="3.0141">
        <ele>598</ele>
        <time>2018-12-29T12:52:23Z</time>
      </trkpt>
      <trkpt lat="45.84581" lon="3.01408">
        <ele>598.4</ele>
        <time>2018-12-29T12:52:24Z</time>
      </trkpt>
      <trkpt lat="45.84581" lon="3.01406">
        <ele>598.8</ele>
        <time>2018-12-29T12:52:25Z</time>
      </trkpt>
      <trkpt lat="45.84583" lon="3.014">
        <ele>598.8</ele>
        <time>2018-12-29T12:52:28Z</time>
      </trkpt>
      <trkpt lat="45.84583" lon="3.01394">
        <ele>599.4</ele>
        <time>2018-12-29T12:52:31Z</time>
      </trkpt>
      <trkpt lat="45.84583" lon="3.01392">
        <ele>600.2</ele>
        <time>2018-12-29T12:52:32Z</time>
      </trkpt>
      <trkpt lat="45.84583" lon="3.0139">
        <ele>600.6</ele>
        <time>2018-12-29T12:52:33Z</time>
      </trkpt>
      <trkpt lat="45.84583" lon="3.01388">
        <ele>601</ele>
        <time>2018-12-29T12:52:34Z</time>
      </trkpt>
      <trkpt lat="45.84585" lon="3.01377">
        <ele>601</ele>
        <time>2018-12-29T12:52:39Z</time>
      </trkpt>
      <trkpt lat="45.84583" lon="3.01363">
        <ele>601.6</ele>
        <time>2018-12-29T12:52:44Z</time>
      </trkpt>
      <trkpt lat="45.84583" lon="3.01361">
        <ele>602</ele>
        <time>2018-12-29T12:52:45Z</time>
      </trkpt>
      <trkpt lat="45.84583" lon="3.01358">
        <ele>602.4</ele>
        <time>2018-12-29T12:52:46Z</time>
      </trkpt>
      <trkpt lat="45.84583" lon="3.01356">
        <ele>602.8</ele>
        <time>2018-12-29T12:52:47Z</time>
      </trkpt>
      <trkpt lat="45.84582" lon="3.01353">
        <ele>603.2</ele>
        <time>2018-12-29T12:52:48Z</time>
      </trkpt>
      <trkpt lat="45.84581" lon="3.01347">
        <ele>603.2</ele>
        <time>2018-12-29T12:52:50Z</time>
      </trkpt>
      <trkpt lat="45.84579" lon="3.01336">
        <ele>603.6</ele>
        <time>2018-12-29T12:52:54Z</time>
      </trkpt>
      <trkpt lat="45.84579" lon="3.01334">
        <ele>604</ele>
        <time>2018-12-29T12:52:55Z</time>
      </trkpt>
      <trkpt lat="45.84579" lon="3.01332">
        <ele>604.8</ele>
        <time>2018-12-29T12:52:56Z</time>
      </trkpt>
      <trkpt lat="45.84579" lon="3.01329">
        <ele>605.2</ele>
        <time>2018-12-29T12:52:57Z</time>
      </trkpt>
      <trkpt lat="45.8458" lon="3.01327">
        <ele>605.2</ele>
        <time>2018-12-29T12:52:58Z</time>
      </trkpt>
      <trkpt lat="45.84582" lon="3.01318">
        <ele>605.6</ele>
        <time>2018-12-29T12:53:02Z</time>
      </trkpt>
      <trkpt lat="45.84583" lon="3.01315">
        <ele>606.2</ele>
        <time>2018-12-29T12:53:03Z</time>
      </trkpt>
      <trkpt lat="45.84583" lon="3.01313">
        <ele>606.6</ele>
        <time>2018-12-29T12:53:04Z</time>
      </trkpt>
      <trkpt lat="45.84584" lon="3.0131">
        <ele>607</ele>
        <time>2018-12-29T12:53:05Z</time>
      </trkpt>
      <trkpt lat="45.84584" lon="3.01307">
        <ele>607.4</ele>
        <time>2018-12-29T12:53:06Z</time>
      </trkpt>
      <trkpt lat="45.84585" lon="3.01301">
        <ele>607.4</ele>
        <time>2018-12-29T12:53:08Z</time>
      </trkpt>
      <trkpt lat="45.84586" lon="3.01287">
        <ele>607.4</ele>
        <time>2018-12-29T12:53:13Z</time>
      </trkpt>
      <trkpt lat="45.84588" lon="3.01274">
        <ele>607.4</ele>
        <time>2018-12-29T12:53:17Z</time>
      </trkpt>
      <trkpt lat="45.84588" lon="3.01272">
        <ele>607.8</ele>
        <time>2018-12-29T12:53:18Z</time>
      </trkpt>
      <trkpt lat="45.84587" lon="3.01269">
        <ele>608.2</ele>
        <time>2018-12-29T12:53:19Z</time>
      </trkpt>
      <trkpt lat="45.84587" lon="3.01266">
        <ele>608.6</ele>
        <time>2018-12-29T12:53:20Z</time>
      </trkpt>
      <trkpt lat="45.84586" lon="3.01263">
        <ele>609.6</ele>
        <time>2018-12-29T12:53:21Z</time>
      </trkpt>
      <trkpt lat="45.84585" lon="3.0126">
        <ele>609.6</ele>
        <time>2018-12-29T12:53:22Z</time>
      </trkpt>
      <trkpt lat="45.84584" lon="3.01257">
        <ele>609.6</ele>
        <time>2018-12-29T12:53:23Z</time>
      </trkpt>
      <trkpt lat="45.84577" lon="3.01251">
        <ele>609.6</ele>
        <time>2018-12-29T12:53:26Z</time>
      </trkpt>
      <trkpt lat="45.84573" lon="3.01237">
        <ele>609.6</ele>
        <time>2018-12-29T12:53:30Z</time>
      </trkpt>
      <trkpt lat="45.84572" lon="3.01233">
        <ele>609.6</ele>
        <time>2018-12-29T12:53:31Z</time>
      </trkpt>
      <trkpt lat="45.84572" lon="3.01229">
        <ele>610</ele>
        <time>2018-12-29T12:53:32Z</time>
      </trkpt>
      <trkpt lat="45.84573" lon="3.01225">
        <ele>610.4</ele>
        <time>2018-12-29T12:53:33Z</time>
      </trkpt>
      <trkpt lat="45.84573" lon="3.01221">
        <ele>610.8</ele>
        <time>2018-12-29T12:53:34Z</time>
      </trkpt>
      <trkpt lat="45.84574" lon="3.01217">
        <ele>611.2</ele>
        <time>2018-12-29T12:53:35Z</time>
      </trkpt>
      <trkpt lat="45.84575" lon="3.01213">
        <ele>611.6</ele>
        <time>2018-12-29T12:53:36Z</time>
      </trkpt>
      <trkpt lat="45.84575" lon="3.01196">
        <ele>611.6</ele>
        <time>2018-12-29T12:53:41Z</time>
      </trkpt>
      <trkpt lat="45.84574" lon="3.0118">
        <ele>612</ele>
        <time>2018-12-29T12:53:46Z</time>
      </trkpt>
      <trkpt lat="45.84574" lon="3.01177">
        <ele>612.4</ele>
        <time>2018-12-29T12:53:47Z</time>
      </trkpt>
      <trkpt lat="45.84573" lon="3.01173">
        <ele>612.8</ele>
        <time>2018-12-29T12:53:48Z</time>
      </trkpt>
      <trkpt lat="45.84573" lon="3.0117">
        <ele>613.2</ele>
        <time>2018-12-29T12:53:49Z</time>
      </trkpt>
      <trkpt lat="45.84573" lon="3.01166">
        <ele>613.8</ele>
        <time>2018-12-29T12:53:50Z</time>
      </trkpt>
      <trkpt lat="45.84575" lon="3.01153">
        <ele>613.8</ele>
        <time>2018-12-29T12:53:54Z</time>
      </trkpt>
      <trkpt lat="45.84579" lon="3.01137">
        <ele>613.8</ele>
        <time>2018-12-29T12:53:59Z</time>
      </trkpt>
      <trkpt lat="45.84579" lon="3.01133">
        <ele>614.2</ele>
        <time>2018-12-29T12:54:00Z</time>
      </trkpt>
      <trkpt lat="45.8458" lon="3.0113">
        <ele>614.6</ele>
        <time>2018-12-29T12:54:01Z</time>
      </trkpt>
      <trkpt lat="45.8458" lon="3.01127">
        <ele>615</ele>
        <time>2018-12-29T12:54:02Z</time>
      </trkpt>
      <trkpt lat="45.84581" lon="3.01124">
        <ele>615.4</ele>
        <time>2018-12-29T12:54:03Z</time>
      </trkpt>
      <trkpt lat="45.84581" lon="3.0112">
        <ele>615.8</ele>
        <time>2018-12-29T12:54:04Z</time>
      </trkpt>
      <trkpt lat="45.84581" lon="3.01113">
        <ele>615.8</ele>
        <time>2018-12-29T12:54:06Z</time>
      </trkpt>
      <trkpt lat="45.84582" lon="3.01092">
        <ele>615.8</ele>
        <time>2018-12-29T12:54:12Z</time>
      </trkpt>
      <trkpt lat="45.84584" lon="3.01079">
        <ele>616.2</ele>
        <time>2018-12-29T12:54:16Z</time>
      </trkpt>
      <trkpt lat="45.84585" lon="3.01075">
        <ele>616.6</ele>
        <time>2018-12-29T12:54:17Z</time>
      </trkpt>
      <trkpt lat="45.84586" lon="3.01072">
        <ele>617</ele>
        <time>2018-12-29T12:54:18Z</time>
      </trkpt>
      <trkpt lat="45.84587" lon="3.0107">
        <ele>617.4</ele>
        <time>2018-12-29T12:54:19Z</time>
      </trkpt>
      <trkpt lat="45.84587" lon="3.01067">
        <ele>617.8</ele>
        <time>2018-12-29T12:54:20Z</time>
      </trkpt>
      <trkpt lat="45.84589" lon="3.01056">
        <ele>617.8</ele>
        <time>2018-12-29T12:54:24Z</time>
      </trkpt>
      <trkpt lat="45.84594" lon="3.01043">
        <ele>617.8</ele>
        <time>2018-12-29T12:54:29Z</time>
      </trkpt>
      <trkpt lat="45.84601" lon="3.01028">
        <ele>617.8</ele>
        <time>2018-12-29T12:54:34Z</time>
      </trkpt>
      <trkpt lat="45.84602" lon="3.01026">
        <ele>618.6</ele>
        <time>2018-12-29T12:54:35Z</time>
      </trkpt>
      <trkpt lat="45.84602" lon="3.01024">
        <ele>619</ele>
        <time>2018-12-29T12:54:36Z</time>
      </trkpt>
      <trkpt lat="45.84603" lon="3.01022">
        <ele>619.4</ele>
        <time>2018-12-29T12:54:37Z</time>
      </trkpt>
      <trkpt lat="45.84604" lon="3.01019">
        <ele>619.8</ele>
        <time>2018-12-29T12:54:38Z</time>
      </trkpt>
      <trkpt lat="45.84606" lon="3.01016">
        <ele>619.8</ele>
        <time>2018-12-29T12:54:39Z</time>
      </trkpt>
      <trkpt lat="45.84612" lon="3.01001">
        <ele>619.8</ele>
        <time>2018-12-29T12:54:44Z</time>
      </trkpt>
      <trkpt lat="45.84615" lon="3.00984">
        <ele>619.8</ele>
        <time>2018-12-29T12:54:49Z</time>
      </trkpt>
      <trkpt lat="45.84618" lon="3.00967">
        <ele>619.8</ele>
        <time>2018-12-29T12:54:54Z</time>
      </trkpt>
      <trkpt lat="45.84616" lon="3.00962">
        <ele>620.2</ele>
        <time>2018-12-29T12:54:56Z</time>
      </trkpt>
      <trkpt lat="45.84615" lon="3.00959">
        <ele>620.8</ele>
        <time>2018-12-29T12:54:57Z</time>
      </trkpt>
      <trkpt lat="45.84614" lon="3.00956">
        <ele>621.2</ele>
        <time>2018-12-29T12:54:58Z</time>
      </trkpt>
      <trkpt lat="45.84612" lon="3.00952">
        <ele>621.6</ele>
        <time>2018-12-29T12:54:59Z</time>
      </trkpt>
      <trkpt lat="45.84611" lon="3.00949">
        <ele>622</ele>
        <time>2018-12-29T12:55:00Z</time>
      </trkpt>
      <trkpt lat="45.84607" lon="3.00935">
        <ele>622</ele>
        <time>2018-12-29T12:55:03Z</time>
      </trkpt>
      <trkpt lat="45.84607" lon="3.00927">
        <ele>622.4</ele>
        <time>2018-12-29T12:55:05Z</time>
      </trkpt>
      <trkpt lat="45.84606" lon="3.00924">
        <ele>622.8</ele>
        <time>2018-12-29T12:55:06Z</time>
      </trkpt>
      <trkpt lat="45.84606" lon="3.00921">
        <ele>623.2</ele>
        <time>2018-12-29T12:55:07Z</time>
      </trkpt>
      <trkpt lat="45.84604" lon="3.00918">
        <ele>623.8</ele>
        <time>2018-12-29T12:55:08Z</time>
      </trkpt>
      <trkpt lat="45.84603" lon="3.00914">
        <ele>624.2</ele>
        <time>2018-12-29T12:55:09Z</time>
      </trkpt>
      <trkpt lat="45.846" lon="3.009">
        <ele>624.2</ele>
        <time>2018-12-29T12:55:12Z</time>
      </trkpt>
      <trkpt lat="45.84599" lon="3.00896">
        <ele>624.2</ele>
        <time>2018-12-29T12:55:13Z</time>
      </trkpt>
      <trkpt lat="45.84597" lon="3.0088">
        <ele>624.2</ele>
        <time>2018-12-29T12:55:17Z</time>
      </trkpt>
      <trkpt lat="45.84598" lon="3.00873">
        <ele>624.2</ele>
        <time>2018-12-29T12:55:19Z</time>
      </trkpt>
      <trkpt lat="45.84598" lon="3.00864">
        <ele>624.2</ele>
        <time>2018-12-29T12:55:21Z</time>
      </trkpt>
      <trkpt lat="45.84599" lon="3.00856">
        <ele>624.2</ele>
        <time>2018-12-29T12:55:23Z</time>
      </trkpt>
      <trkpt lat="45.84601" lon="3.00849">
        <ele>625</ele>
        <time>2018-12-29T12:55:25Z</time>
      </trkpt>
      <trkpt lat="45.84601" lon="3.00845">
        <ele>625.4</ele>
        <time>2018-12-29T12:55:26Z</time>
      </trkpt>
      <trkpt lat="45.84601" lon="3.00842">
        <ele>625.8</ele>
        <time>2018-12-29T12:55:27Z</time>
      </trkpt>
      <trkpt lat="45.84601" lon="3.00839">
        <ele>626.2</ele>
        <time>2018-12-29T12:55:28Z</time>
      </trkpt>
      <trkpt lat="45.84603" lon="3.00833">
        <ele>626.2</ele>
        <time>2018-12-29T12:55:30Z</time>
      </trkpt>
      <trkpt lat="45.84604" lon="3.0083">
        <ele>626.2</ele>
        <time>2018-12-29T12:55:31Z</time>
      </trkpt>
      <trkpt lat="45.84604" lon="3.00825">
        <ele>626.2</ele>
        <time>2018-12-29T12:55:33Z</time>
      </trkpt>
      <trkpt lat="45.84606" lon="3.00818">
        <ele>626.2</ele>
        <time>2018-12-29T12:55:35Z</time>
      </trkpt>
      <trkpt lat="45.84607" lon="3.00809">
        <ele>626.2</ele>
        <time>2018-12-29T12:55:38Z</time>
      </trkpt>
      <trkpt lat="45.84609" lon="3.008">
        <ele>626.2</ele>
        <time>2018-12-29T12:55:41Z</time>
      </trkpt>
      <trkpt lat="45.84611" lon="3.0078">
        <ele>626.6</ele>
        <time>2018-12-29T12:55:47Z</time>
      </trkpt>
      <trkpt lat="45.84611" lon="3.00777">
        <ele>627</ele>
        <time>2018-12-29T12:55:48Z</time>
      </trkpt>
      <trkpt lat="45.84611" lon="3.00774">
        <ele>627.8</ele>
        <time>2018-12-29T12:55:49Z</time>
      </trkpt>
      <trkpt lat="45.84612" lon="3.0077">
        <ele>628.2</ele>
        <time>2018-12-29T12:55:50Z</time>
      </trkpt>
      <trkpt lat="45.84613" lon="3.00765">
        <ele>628.2</ele>
        <time>2018-12-29T12:55:52Z</time>
      </trkpt>
      <trkpt lat="45.84615" lon="3.0075">
        <ele>628.2</ele>
        <time>2018-12-29T12:55:58Z</time>
      </trkpt>
      <trkpt lat="45.84616" lon="3.00745">
        <ele>628.2</ele>
        <time>2018-12-29T12:56:00Z</time>
      </trkpt>
      <trkpt lat="45.84617" lon="3.00737">
        <ele>628.6</ele>
        <time>2018-12-29T12:56:03Z</time>
      </trkpt>
      <trkpt lat="45.84617" lon="3.00734">
        <ele>629</ele>
        <time>2018-12-29T12:56:04Z</time>
      </trkpt>
      <trkpt lat="45.84618" lon="3.00731">
        <ele>629.4</ele>
        <time>2018-12-29T12:56:05Z</time>
      </trkpt>
      <trkpt lat="45.84618" lon="3.00727">
        <ele>629.8</ele>
        <time>2018-12-29T12:56:06Z</time>
      </trkpt>
      <trkpt lat="45.84619" lon="3.00724">
        <ele>630.2</ele>
        <time>2018-12-29T12:56:07Z</time>
      </trkpt>
      <trkpt lat="45.84619" lon="3.0072">
        <ele>630.2</ele>
        <time>2018-12-29T12:56:08Z</time>
      </trkpt>
      <trkpt lat="45.84623" lon="3.00706">
        <ele>630.2</ele>
        <time>2018-12-29T12:56:12Z</time>
      </trkpt>
      <trkpt lat="45.84624" lon="3.00702">
        <ele>630.2</ele>
        <time>2018-12-29T12:56:13Z</time>
      </trkpt>
      <trkpt lat="45.84624" lon="3.00694">
        <ele>630.2</ele>
        <time>2018-12-29T12:56:16Z</time>
      </trkpt>
      <trkpt lat="45.84625" lon="3.0069">
        <ele>630.6</ele>
        <time>2018-12-29T12:56:17Z</time>
      </trkpt>
      <trkpt lat="45.84626" lon="3.00687">
        <ele>631</ele>
        <time>2018-12-29T12:56:18Z</time>
      </trkpt>
      <trkpt lat="45.84627" lon="3.00684">
        <ele>631.4</ele>
        <time>2018-12-29T12:56:19Z</time>
      </trkpt>
      <trkpt lat="45.84628" lon="3.0068">
        <ele>631.8</ele>
        <time>2018-12-29T12:56:20Z</time>
      </trkpt>
      <trkpt lat="45.84628" lon="3.00677">
        <ele>632.2</ele>
        <time>2018-12-29T12:56:21Z</time>
      </trkpt>
      <trkpt lat="45.84629" lon="3.00674">
        <ele>632.2</ele>
        <time>2018-12-29T12:56:22Z</time>
      </trkpt>
      <trkpt lat="45.84632" lon="3.00658">
        <ele>632.2</ele>
        <time>2018-12-29T12:56:27Z</time>
      </trkpt>
      <trkpt lat="45.84633" lon="3.00643">
        <ele>632.2</ele>
        <time>2018-12-29T12:56:33Z</time>
      </trkpt>
      <trkpt lat="45.84634" lon="3.00637">
        <ele>632.8</ele>
        <time>2018-12-29T12:56:35Z</time>
      </trkpt>
      <trkpt lat="45.84634" lon="3.00634">
        <ele>633.2</ele>
        <time>2018-12-29T12:56:36Z</time>
      </trkpt>
      <trkpt lat="45.84634" lon="3.0063">
        <ele>633.6</ele>
        <time>2018-12-29T12:56:37Z</time>
      </trkpt>
      <trkpt lat="45.84634" lon="3.00627">
        <ele>634</ele>
        <time>2018-12-29T12:56:38Z</time>
      </trkpt>
      <trkpt lat="45.84635" lon="3.00624">
        <ele>634.4</ele>
        <time>2018-12-29T12:56:39Z</time>
      </trkpt>
      <trkpt lat="45.84635" lon="3.00619">
        <ele>634.4</ele>
        <time>2018-12-29T12:56:41Z</time>
      </trkpt>
      <trkpt lat="45.84636" lon="3.00612">
        <ele>634.4</ele>
        <time>2018-12-29T12:56:43Z</time>
      </trkpt>
      <trkpt lat="45.84637" lon="3.006">
        <ele>634.8</ele>
        <time>2018-12-29T12:56:47Z</time>
      </trkpt>
      <trkpt lat="45.84637" lon="3.00598">
        <ele>635.4</ele>
        <time>2018-12-29T12:56:48Z</time>
      </trkpt>
      <trkpt lat="45.84637" lon="3.00595">
        <ele>635.8</ele>
        <time>2018-12-29T12:56:49Z</time>
      </trkpt>
      <trkpt lat="45.84637" lon="3.00593">
        <ele>636.2</ele>
        <time>2018-12-29T12:56:50Z</time>
      </trkpt>
      <trkpt lat="45.84637" lon="3.00591">
        <ele>636.8</ele>
        <time>2018-12-29T12:56:51Z</time>
      </trkpt>
      <trkpt lat="45.84637" lon="3.00584">
        <ele>636.8</ele>
        <time>2018-12-29T12:56:55Z</time>
      </trkpt>
      <trkpt lat="45.84636" lon="3.00583">
        <ele>636.8</ele>
        <time>2018-12-29T12:56:57Z</time>
      </trkpt>
      <trkpt lat="45.84633" lon="3.00581">
        <ele>636.8</ele>
        <time>2018-12-29T12:57:42Z</time>
      </trkpt>
      <trkpt lat="45.84628" lon="3.00581">
        <ele>636.8</ele>
        <time>2018-12-29T12:57:45Z</time>
      </trkpt>
      <trkpt lat="45.84623" lon="3.00577">
        <ele>636.8</ele>
        <time>2018-12-29T12:57:48Z</time>
      </trkpt>
      <trkpt lat="45.8462" lon="3.00575">
        <ele>636.8</ele>
        <time>2018-12-29T12:57:49Z</time>
      </trkpt>
      <trkpt lat="45.84606" lon="3.00564">
        <ele>636.8</ele>
        <time>2018-12-29T12:57:55Z</time>
      </trkpt>
      <trkpt lat="45.84586" lon="3.00551">
        <ele>636.8</ele>
        <time>2018-12-29T12:58:03Z</time>
      </trkpt>
      <trkpt lat="45.84584" lon="3.00548">
        <ele>637.2</ele>
        <time>2018-12-29T12:58:04Z</time>
      </trkpt>
      <trkpt lat="45.84581" lon="3.00547">
        <ele>637.6</ele>
        <time>2018-12-29T12:58:05Z</time>
      </trkpt>
      <trkpt lat="45.84579" lon="3.00545">
        <ele>638</ele>
        <time>2018-12-29T12:58:06Z</time>
      </trkpt>
      <trkpt lat="45.84577" lon="3.00543">
        <ele>638.4</ele>
        <time>2018-12-29T12:58:07Z</time>
      </trkpt>
      <trkpt lat="45.84575" lon="3.00542">
        <ele>638.8</ele>
        <time>2018-12-29T12:58:08Z</time>
      </trkpt>
      <trkpt lat="45.84565" lon="3.00537">
        <ele>638.8</ele>
        <time>2018-12-29T12:58:13Z</time>
      </trkpt>
      <trkpt lat="45.84558" lon="3.00533">
        <ele>638.8</ele>
        <time>2018-12-29T12:58:17Z</time>
      </trkpt>
      <trkpt lat="45.84556" lon="3.00534">
        <ele>638.8</ele>
        <time>2018-12-29T12:58:18Z</time>
      </trkpt>
      <trkpt lat="45.8455" lon="3.00532">
        <ele>638.8</ele>
        <time>2018-12-29T12:58:21Z</time>
      </trkpt>
      <trkpt lat="45.84546" lon="3.00531">
        <ele>638.8</ele>
        <time>2018-12-29T12:58:23Z</time>
      </trkpt>
      <trkpt lat="45.84544" lon="3.00532">
        <ele>638.8</ele>
        <time>2018-12-29T12:58:24Z</time>
      </trkpt>
      <trkpt lat="45.84538" lon="3.00531">
        <ele>638.8</ele>
        <time>2018-12-29T12:58:27Z</time>
      </trkpt>
      <trkpt lat="45.84532" lon="3.00529">
        <ele>639.2</ele>
        <time>2018-12-29T12:58:30Z</time>
      </trkpt>
      <trkpt lat="45.84529" lon="3.0053">
        <ele>639.6</ele>
        <time>2018-12-29T12:58:31Z</time>
      </trkpt>
      <trkpt lat="45.84527" lon="3.00529">
        <ele>640</ele>
        <time>2018-12-29T12:58:32Z</time>
      </trkpt>
      <trkpt lat="45.84524" lon="3.00529">
        <ele>640.4</ele>
        <time>2018-12-29T12:58:33Z</time>
      </trkpt>
      <trkpt lat="45.84521" lon="3.00529">
        <ele>640.8</ele>
        <time>2018-12-29T12:58:34Z</time>
      </trkpt>
      <trkpt lat="45.84506" lon="3.00529">
        <ele>640.8</ele>
        <time>2018-12-29T12:58:40Z</time>
      </trkpt>
      <trkpt lat="45.84483" lon="3.00529">
        <ele>640.8</ele>
        <time>2018-12-29T12:58:48Z</time>
      </trkpt>
      <trkpt lat="45.84472" lon="3.00529">
        <ele>641.2</ele>
        <time>2018-12-29T12:58:52Z</time>
      </trkpt>
      <trkpt lat="45.84469" lon="3.00529">
        <ele>641.6</ele>
        <time>2018-12-29T12:58:53Z</time>
      </trkpt>
      <trkpt lat="45.84466" lon="3.00529">
        <ele>642</ele>
        <time>2018-12-29T12:58:54Z</time>
      </trkpt>
      <trkpt lat="45.84463" lon="3.0053">
        <ele>642.4</ele>
        <time>2018-12-29T12:58:55Z</time>
      </trkpt>
      <trkpt lat="45.84461" lon="3.0053">
        <ele>642.8</ele>
        <time>2018-12-29T12:58:56Z</time>
      </trkpt>
      <trkpt lat="45.84458" lon="3.0053">
        <ele>642.8</ele>
        <time>2018-12-29T12:58:57Z</time>
      </trkpt>
      <trkpt lat="45.84435" lon="3.00527">
        <ele>642.8</ele>
        <time>2018-12-29T12:59:05Z</time>
      </trkpt>
      <trkpt lat="45.84416" lon="3.00525">
        <ele>643.4</ele>
        <time>2018-12-29T12:59:12Z</time>
      </trkpt>
      <trkpt lat="45.84414" lon="3.00524">
        <ele>643.8</ele>
        <time>2018-12-29T12:59:13Z</time>
      </trkpt>
      <trkpt lat="45.84411" lon="3.00524">
        <ele>644.2</ele>
        <time>2018-12-29T12:59:14Z</time>
      </trkpt>
      <trkpt lat="45.84409" lon="3.00523">
        <ele>644.6</ele>
        <time>2018-12-29T12:59:15Z</time>
      </trkpt>
      <trkpt lat="45.84407" lon="3.00522">
        <ele>645</ele>
        <time>2018-12-29T12:59:16Z</time>
      </trkpt>
      <trkpt lat="45.84399" lon="3.00522">
        <ele>645</ele>
        <time>2018-12-29T12:59:20Z</time>
      </trkpt>
      <trkpt lat="45.84393" lon="3.00523">
        <ele>645</ele>
        <time>2018-12-29T12:59:26Z</time>
      </trkpt>
      <trkpt lat="45.84393" lon="3.00523">
        <ele>645</ele>
        <time>2018-12-29T12:59:27Z</time>
      </trkpt>
      <trkpt lat="45.8439" lon="3.00516">
        <ele>645</ele>
        <time>2018-12-29T12:59:49Z</time>
      </trkpt>
      <trkpt lat="45.84387" lon="3.00514">
        <ele>645</ele>
        <time>2018-12-29T12:59:51Z</time>
      </trkpt>
      <trkpt lat="45.84367" lon="3.00505">
        <ele>645</ele>
        <time>2018-12-29T13:00:00Z</time>
      </trkpt>
      <trkpt lat="45.8436" lon="3.00502">
        <ele>645.6</ele>
        <time>2018-12-29T13:00:03Z</time>
      </trkpt>
      <trkpt lat="45.84357" lon="3.00501">
        <ele>646</ele>
        <time>2018-12-29T13:00:04Z</time>
      </trkpt>
      <trkpt lat="45.84355" lon="3.005">
        <ele>646.4</ele>
        <time>2018-12-29T13:00:05Z</time>
      </trkpt>
      <trkpt lat="45.84352" lon="3.00498">
        <ele>646.8</ele>
        <time>2018-12-29T13:00:06Z</time>
      </trkpt>
      <trkpt lat="45.8435" lon="3.00496">
        <ele>647.2</ele>
        <time>2018-12-29T13:00:07Z</time>
      </trkpt>
      <trkpt lat="45.84327" lon="3.00487">
        <ele>647.2</ele>
        <time>2018-12-29T13:00:15Z</time>
      </trkpt>
      <trkpt lat="45.84311" lon="3.0048">
        <ele>648</ele>
        <time>2018-12-29T13:00:21Z</time>
      </trkpt>
      <trkpt lat="45.84308" lon="3.00479">
        <ele>648.4</ele>
        <time>2018-12-29T13:00:22Z</time>
      </trkpt>
      <trkpt lat="45.84306" lon="3.00478">
        <ele>648.8</ele>
        <time>2018-12-29T13:00:23Z</time>
      </trkpt>
      <trkpt lat="45.84303" lon="3.00476">
        <ele>649.2</ele>
        <time>2018-12-29T13:00:24Z</time>
      </trkpt>
      <trkpt lat="45.84287" lon="3.00469">
        <ele>649.2</ele>
        <time>2018-12-29T13:00:30Z</time>
      </trkpt>
      <trkpt lat="45.84269" lon="3.00461">
        <ele>649.6</ele>
        <time>2018-12-29T13:00:37Z</time>
      </trkpt>
      <trkpt lat="45.84266" lon="3.0046">
        <ele>650</ele>
        <time>2018-12-29T13:00:38Z</time>
      </trkpt>
      <trkpt lat="45.84264" lon="3.00459">
        <ele>650.4</ele>
        <time>2018-12-29T13:00:39Z</time>
      </trkpt>
      <trkpt lat="45.84261" lon="3.00458">
        <ele>650.8</ele>
        <time>2018-12-29T13:00:40Z</time>
      </trkpt>
      <trkpt lat="45.84259" lon="3.00457">
        <ele>651.2</ele>
        <time>2018-12-29T13:00:41Z</time>
      </trkpt>
      <trkpt lat="45.84254" lon="3.00456">
        <ele>651.2</ele>
        <time>2018-12-29T13:00:43Z</time>
      </trkpt>
      <trkpt lat="45.84239" lon="3.00448">
        <ele>651.2</ele>
        <time>2018-12-29T13:00:50Z</time>
      </trkpt>
      <trkpt lat="45.84233" lon="3.00446">
        <ele>651.8</ele>
        <time>2018-12-29T13:00:53Z</time>
      </trkpt>
      <trkpt lat="45.84231" lon="3.00445">
        <ele>652.2</ele>
        <time>2018-12-29T13:00:54Z</time>
      </trkpt>
      <trkpt lat="45.8423" lon="3.00444">
        <ele>652.6</ele>
        <time>2018-12-29T13:00:55Z</time>
      </trkpt>
      <trkpt lat="45.84228" lon="3.00444">
        <ele>653</ele>
        <time>2018-12-29T13:00:56Z</time>
      </trkpt>
      <trkpt lat="45.84226" lon="3.00444">
        <ele>653.4</ele>
        <time>2018-12-29T13:00:57Z</time>
      </trkpt>
      <trkpt lat="45.84224" lon="3.00445">
        <ele>653.4</ele>
        <time>2018-12-29T13:00:58Z</time>
      </trkpt>
      <trkpt lat="45.84221" lon="3.00445">
        <ele>653.4</ele>
        <time>2018-12-29T13:01:00Z</time>
      </trkpt>
      <trkpt lat="45.8422" lon="3.00447">
        <ele>653.4</ele>
        <time>2018-12-29T13:01:02Z</time>
      </trkpt>
      <trkpt lat="45.84219" lon="3.00449">
        <ele>653.4</ele>
        <time>2018-12-29T13:01:03Z</time>
      </trkpt>
      <trkpt lat="45.8421" lon="3.00464">
        <ele>653.4</ele>
        <time>2018-12-29T13:01:09Z</time>
      </trkpt>
      <trkpt lat="45.84202" lon="3.00475">
        <ele>653.4</ele>
        <time>2018-12-29T13:01:13Z</time>
      </trkpt>
      <trkpt lat="45.84192" lon="3.0049">
        <ele>653.4</ele>
        <time>2018-12-29T13:01:18Z</time>
      </trkpt>
      <trkpt lat="45.84186" lon="3.00503">
        <ele>653.4</ele>
        <time>2018-12-29T13:01:22Z</time>
      </trkpt>
      <trkpt lat="45.84178" lon="3.00521">
        <ele>653</ele>
        <time>2018-12-29T13:01:26Z</time>
      </trkpt>
      <trkpt lat="45.84177" lon="3.00527">
        <ele>652.6</ele>
        <time>2018-12-29T13:01:27Z</time>
      </trkpt>
      <trkpt lat="45.84174" lon="3.00532">
        <ele>652.2</ele>
        <time>2018-12-29T13:01:28Z</time>
      </trkpt>
      <trkpt lat="45.84171" lon="3.00539">
        <ele>651.8</ele>
        <time>2018-12-29T13:01:29Z</time>
      </trkpt>
      <trkpt lat="45.84169" lon="3.00546">
        <ele>651.4</ele>
        <time>2018-12-29T13:01:30Z</time>
      </trkpt>
      <trkpt lat="45.84167" lon="3.00552">
        <ele>651.4</ele>
        <time>2018-12-29T13:01:31Z</time>
      </trkpt>
      <trkpt lat="45.84157" lon="3.00583">
        <ele>651.4</ele>
        <time>2018-12-29T13:01:37Z</time>
      </trkpt>
      <trkpt lat="45.84152" lon="3.00604">
        <ele>651.4</ele>
        <time>2018-12-29T13:01:41Z</time>
      </trkpt>
      <trkpt lat="45.84147" lon="3.00626">
        <ele>651.4</ele>
        <time>2018-12-29T13:01:45Z</time>
      </trkpt>
      <trkpt lat="45.84142" lon="3.00643">
        <ele>651.4</ele>
        <time>2018-12-29T13:01:49Z</time>
      </trkpt>
      <trkpt lat="45.84129" lon="3.00663">
        <ele>651.4</ele>
        <time>2018-12-29T13:01:54Z</time>
      </trkpt>
      <trkpt lat="45.84126" lon="3.00665">
        <ele>651.4</ele>
        <time>2018-12-29T13:01:55Z</time>
      </trkpt>
      <trkpt lat="45.84121" lon="3.00674">
        <ele>651.4</ele>
        <time>2018-12-29T13:01:57Z</time>
      </trkpt>
      <trkpt lat="45.84113" lon="3.00682">
        <ele>651.4</ele>
        <time>2018-12-29T13:02:00Z</time>
      </trkpt>
      <trkpt lat="45.84104" lon="3.00686">
        <ele>651.4</ele>
        <time>2018-12-29T13:02:03Z</time>
      </trkpt>
      <trkpt lat="45.84097" lon="3.00691">
        <ele>651.4</ele>
        <time>2018-12-29T13:02:05Z</time>
      </trkpt>
      <trkpt lat="45.84077" lon="3.007">
        <ele>651.4</ele>
        <time>2018-12-29T13:02:12Z</time>
      </trkpt>
      <trkpt lat="45.84064" lon="3.00706">
        <ele>651.4</ele>
        <time>2018-12-29T13:02:17Z</time>
      </trkpt>
      <trkpt lat="45.84053" lon="3.0071">
        <ele>651.8</ele>
        <time>2018-12-29T13:02:21Z</time>
      </trkpt>
      <trkpt lat="45.8405" lon="3.00711">
        <ele>652.2</ele>
        <time>2018-12-29T13:02:22Z</time>
      </trkpt>
      <trkpt lat="45.84048" lon="3.00712">
        <ele>652.6</ele>
        <time>2018-12-29T13:02:23Z</time>
      </trkpt>
      <trkpt lat="45.84045" lon="3.00713">
        <ele>653.4</ele>
        <time>2018-12-29T13:02:24Z</time>
      </trkpt>
      <trkpt lat="45.84038" lon="3.00716">
        <ele>653.4</ele>
        <time>2018-12-29T13:02:28Z</time>
      </trkpt>
      <trkpt lat="45.8403" lon="3.00718">
        <ele>653.8</ele>
        <time>2018-12-29T13:02:32Z</time>
      </trkpt>
      <trkpt lat="45.84028" lon="3.00719">
        <ele>654.2</ele>
        <time>2018-12-29T13:02:33Z</time>
      </trkpt>
      <trkpt lat="45.84026" lon="3.00719">
        <ele>654.6</ele>
        <time>2018-12-29T13:02:34Z</time>
      </trkpt>
      <trkpt lat="45.84023" lon="3.00721">
        <ele>655</ele>
        <time>2018-12-29T13:02:35Z</time>
      </trkpt>
      <trkpt lat="45.84021" lon="3.00721">
        <ele>655.4</ele>
        <time>2018-12-29T13:02:36Z</time>
      </trkpt>
      <trkpt lat="45.84013" lon="3.00724">
        <ele>655.4</ele>
        <time>2018-12-29T13:02:39Z</time>
      </trkpt>
      <trkpt lat="45.84002" lon="3.0073">
        <ele>655.4</ele>
        <time>2018-12-29T13:02:44Z</time>
      </trkpt>
      <trkpt lat="45.83988" lon="3.00736">
        <ele>655.4</ele>
        <time>2018-12-29T13:02:50Z</time>
      </trkpt>
      <trkpt lat="45.8398" lon="3.00741">
        <ele>655.8</ele>
        <time>2018-12-29T13:02:53Z</time>
      </trkpt>
      <trkpt lat="45.83977" lon="3.00742">
        <ele>656.2</ele>
        <time>2018-12-29T13:02:54Z</time>
      </trkpt>
      <trkpt lat="45.83975" lon="3.00743">
        <ele>656.6</ele>
        <time>2018-12-29T13:02:55Z</time>
      </trkpt>
      <trkpt lat="45.83973" lon="3.00744">
        <ele>657</ele>
        <time>2018-12-29T13:02:56Z</time>
      </trkpt>
      <trkpt lat="45.83971" lon="3.00745">
        <ele>657.4</ele>
        <time>2018-12-29T13:02:57Z</time>
      </trkpt>
      <trkpt lat="45.83964" lon="3.0075">
        <ele>657.4</ele>
        <time>2018-12-29T13:03:00Z</time>
      </trkpt>
      <trkpt lat="45.83952" lon="3.00758">
        <ele>657.4</ele>
        <time>2018-12-29T13:03:05Z</time>
      </trkpt>
      <trkpt lat="45.83942" lon="3.00765">
        <ele>658</ele>
        <time>2018-12-29T13:03:10Z</time>
      </trkpt>
      <trkpt lat="45.8394" lon="3.00767">
        <ele>658.4</ele>
        <time>2018-12-29T13:03:11Z</time>
      </trkpt>
      <trkpt lat="45.83936" lon="3.00769">
        <ele>658.8</ele>
        <time>2018-12-29T13:03:12Z</time>
      </trkpt>
      <trkpt lat="45.83934" lon="3.00769">
        <ele>659.2</ele>
        <time>2018-12-29T13:03:13Z</time>
      </trkpt>
      <trkpt lat="45.83932" lon="3.0077">
        <ele>659.6</ele>
        <time>2018-12-29T13:03:14Z</time>
      </trkpt>
      <trkpt lat="45.83915" lon="3.00779">
        <ele>659.6</ele>
        <time>2018-12-29T13:03:21Z</time>
      </trkpt>
      <trkpt lat="45.839" lon="3.00791">
        <ele>659.6</ele>
        <time>2018-12-29T13:03:27Z</time>
      </trkpt>
      <trkpt lat="45.83884" lon="3.008">
        <ele>659.6</ele>
        <time>2018-12-29T13:03:33Z</time>
      </trkpt>
      <trkpt lat="45.83863" lon="3.0082">
        <ele>659.6</ele>
        <time>2018-12-29T13:03:40Z</time>
      </trkpt>
      <trkpt lat="45.8384" lon="3.00838">
        <ele>660</ele>
        <time>2018-12-29T13:03:47Z</time>
      </trkpt>
      <trkpt lat="45.83837" lon="3.00841">
        <ele>660.4</ele>
        <time>2018-12-29T13:03:48Z</time>
      </trkpt>
      <trkpt lat="45.83834" lon="3.00843">
        <ele>660.8</ele>
        <time>2018-12-29T13:03:49Z</time>
      </trkpt>
      <trkpt lat="45.8383" lon="3.00845">
        <ele>661.2</ele>
        <time>2018-12-29T13:03:50Z</time>
      </trkpt>
      <trkpt lat="45.83827" lon="3.00847">
        <ele>661.6</ele>
        <time>2018-12-29T13:03:51Z</time>
      </trkpt>
      <trkpt lat="45.83814" lon="3.00857">
        <ele>661.6</ele>
        <time>2018-12-29T13:03:55Z</time>
      </trkpt>
      <trkpt lat="45.83794" lon="3.00873">
        <ele>661.6</ele>
        <time>2018-12-29T13:04:02Z</time>
      </trkpt>
      <trkpt lat="45.83776" lon="3.00886">
        <ele>661.6</ele>
        <time>2018-12-29T13:04:08Z</time>
      </trkpt>
      <trkpt lat="45.83757" lon="3.00898">
        <ele>661.6</ele>
        <time>2018-12-29T13:04:14Z</time>
      </trkpt>
      <trkpt lat="45.83751" lon="3.00903">
        <ele>662</ele>
        <time>2018-12-29T13:04:16Z</time>
      </trkpt>
      <trkpt lat="45.83748" lon="3.00905">
        <ele>662.4</ele>
        <time>2018-12-29T13:04:17Z</time>
      </trkpt>
      <trkpt lat="45.83746" lon="3.00907">
        <ele>662.8</ele>
        <time>2018-12-29T13:04:18Z</time>
      </trkpt>
      <trkpt lat="45.83743" lon="3.0091">
        <ele>663.2</ele>
        <time>2018-12-29T13:04:19Z</time>
      </trkpt>
      <trkpt lat="45.83742" lon="3.00911">
        <ele>663.8</ele>
        <time>2018-12-29T13:04:20Z</time>
      </trkpt>
      <trkpt lat="45.83736" lon="3.00915">
        <ele>664.2</ele>
        <time>2018-12-29T13:04:23Z</time>
      </trkpt>
      <trkpt lat="45.83734" lon="3.00917">
        <ele>664.6</ele>
        <time>2018-12-29T13:04:24Z</time>
      </trkpt>
      <trkpt lat="45.83732" lon="3.00918">
        <ele>665</ele>
        <time>2018-12-29T13:04:25Z</time>
      </trkpt>
      <trkpt lat="45.8373" lon="3.00919">
        <ele>665.4</ele>
        <time>2018-12-29T13:04:26Z</time>
      </trkpt>
      <trkpt lat="45.83727" lon="3.00922">
        <ele>665.8</ele>
        <time>2018-12-29T13:04:27Z</time>
      </trkpt>
      <trkpt lat="45.83717" lon="3.00927">
        <ele>666.2</ele>
        <time>2018-12-29T13:04:31Z</time>
      </trkpt>
      <trkpt lat="45.83715" lon="3.00929">
        <ele>666.6</ele>
        <time>2018-12-29T13:04:32Z</time>
      </trkpt>
      <trkpt lat="45.83712" lon="3.00931">
        <ele>667.2</ele>
        <time>2018-12-29T13:04:33Z</time>
      </trkpt>
      <trkpt lat="45.8371" lon="3.00932">
        <ele>667.6</ele>
        <time>2018-12-29T13:04:34Z</time>
      </trkpt>
      <trkpt lat="45.83708" lon="3.00934">
        <ele>668</ele>
        <time>2018-12-29T13:04:35Z</time>
      </trkpt>
      <trkpt lat="45.83704" lon="3.00937">
        <ele>668</ele>
        <time>2018-12-29T13:04:37Z</time>
      </trkpt>
      <trkpt lat="45.837" lon="3.0094">
        <ele>668.4</ele>
        <time>2018-12-29T13:04:39Z</time>
      </trkpt>
      <trkpt lat="45.83698" lon="3.00941">
        <ele>668.8</ele>
        <time>2018-12-29T13:04:40Z</time>
      </trkpt>
      <trkpt lat="45.83696" lon="3.00943">
        <ele>669.2</ele>
        <time>2018-12-29T13:04:41Z</time>
      </trkpt>
      <trkpt lat="45.83695" lon="3.00944">
        <ele>669.6</ele>
        <time>2018-12-29T13:04:42Z</time>
      </trkpt>
      <trkpt lat="45.83693" lon="3.00946">
        <ele>670</ele>
        <time>2018-12-29T13:04:43Z</time>
      </trkpt>
      <trkpt lat="45.83685" lon="3.00952">
        <ele>670</ele>
        <time>2018-12-29T13:04:47Z</time>
      </trkpt>
      <trkpt lat="45.83682" lon="3.00956">
        <ele>670.6</ele>
        <time>2018-12-29T13:04:49Z</time>
      </trkpt>
      <trkpt lat="45.83681" lon="3.00958">
        <ele>671</ele>
        <time>2018-12-29T13:04:50Z</time>
      </trkpt>
      <trkpt lat="45.83679" lon="3.0096">
        <ele>671.4</ele>
        <time>2018-12-29T13:04:51Z</time>
      </trkpt>
      <trkpt lat="45.83677" lon="3.00961">
        <ele>672.4</ele>
        <time>2018-12-29T13:04:52Z</time>
      </trkpt>
      <trkpt lat="45.83675" lon="3.00962">
        <ele>672.4</ele>
        <time>2018-12-29T13:04:53Z</time>
      </trkpt>
      <trkpt lat="45.83665" lon="3.00971">
        <ele>672.8</ele>
        <time>2018-12-29T13:04:57Z</time>
      </trkpt>
      <trkpt lat="45.83663" lon="3.00972">
        <ele>673.2</ele>
        <time>2018-12-29T13:04:58Z</time>
      </trkpt>
      <trkpt lat="45.83661" lon="3.00975">
        <ele>673.8</ele>
        <time>2018-12-29T13:04:59Z</time>
      </trkpt>
      <trkpt lat="45.83659" lon="3.00976">
        <ele>674.2</ele>
        <time>2018-12-29T13:05:00Z</time>
      </trkpt>
      <trkpt lat="45.83657" lon="3.00978">
        <ele>674.8</ele>
        <time>2018-12-29T13:05:01Z</time>
      </trkpt>
      <trkpt lat="45.83649" lon="3.00988">
        <ele>674.8</ele>
        <time>2018-12-29T13:05:05Z</time>
      </trkpt>
      <trkpt lat="45.83648" lon="3.0099">
        <ele>675.2</ele>
        <time>2018-12-29T13:05:06Z</time>
      </trkpt>
      <trkpt lat="45.83647" lon="3.00994">
        <ele>675.6</ele>
        <time>2018-12-29T13:05:07Z</time>
      </trkpt>
      <trkpt lat="45.83647" lon="3.00997">
        <ele>676</ele>
        <time>2018-12-29T13:05:08Z</time>
      </trkpt>
      <trkpt lat="45.83648" lon="3.00999">
        <ele>676.4</ele>
        <time>2018-12-29T13:05:09Z</time>
      </trkpt>
      <trkpt lat="45.83648" lon="3.01002">
        <ele>676.8</ele>
        <time>2018-12-29T13:05:10Z</time>
      </trkpt>
      <trkpt lat="45.83643" lon="3.01012">
        <ele>676.8</ele>
        <time>2018-12-29T13:05:14Z</time>
      </trkpt>
      <trkpt lat="45.83636" lon="3.01021">
        <ele>676.8</ele>
        <time>2018-12-29T13:05:18Z</time>
      </trkpt>
      <trkpt lat="45.83632" lon="3.01026">
        <ele>676.8</ele>
        <time>2018-12-29T13:05:20Z</time>
      </trkpt>
      <trkpt lat="45.83624" lon="3.0104">
        <ele>676.8</ele>
        <time>2018-12-29T13:05:26Z</time>
      </trkpt>
      <trkpt lat="45.83617" lon="3.01049">
        <ele>677.2</ele>
        <time>2018-12-29T13:05:32Z</time>
      </trkpt>
      <trkpt lat="45.83616" lon="3.01049">
        <ele>677.6</ele>
        <time>2018-12-29T13:05:33Z</time>
      </trkpt>
      <trkpt lat="45.83615" lon="3.01049">
        <ele>678</ele>
        <time>2018-12-29T13:05:34Z</time>
      </trkpt>
      <trkpt lat="45.83614" lon="3.01049">
        <ele>678.4</ele>
        <time>2018-12-29T13:05:35Z</time>
      </trkpt>
      <trkpt lat="45.83612" lon="3.0105">
        <ele>678.8</ele>
        <time>2018-12-29T13:05:36Z</time>
      </trkpt>
      <trkpt lat="45.8361" lon="3.01053">
        <ele>678.8</ele>
        <time>2018-12-29T13:05:38Z</time>
      </trkpt>
      <trkpt lat="45.83606" lon="3.01059">
        <ele>678.8</ele>
        <time>2018-12-29T13:05:41Z</time>
      </trkpt>
      <trkpt lat="45.83605" lon="3.01063">
        <ele>678.8</ele>
        <time>2018-12-29T13:05:43Z</time>
      </trkpt>
      <trkpt lat="45.83598" lon="3.01078">
        <ele>678.8</ele>
        <time>2018-12-29T13:05:49Z</time>
      </trkpt>
      <trkpt lat="45.83588" lon="3.01096">
        <ele>678.8</ele>
        <time>2018-12-29T13:05:54Z</time>
      </trkpt>
      <trkpt lat="45.83569" lon="3.01128">
        <ele>678.8</ele>
        <time>2018-12-29T13:06:02Z</time>
      </trkpt>
      <trkpt lat="45.83549" lon="3.01152">
        <ele>678.4</ele>
        <time>2018-12-29T13:06:08Z</time>
      </trkpt>
      <trkpt lat="45.83546" lon="3.01156">
        <ele>678</ele>
        <time>2018-12-29T13:06:09Z</time>
      </trkpt>
      <trkpt lat="45.83543" lon="3.0116">
        <ele>677.6</ele>
        <time>2018-12-29T13:06:10Z</time>
      </trkpt>
      <trkpt lat="45.83539" lon="3.01164">
        <ele>677.2</ele>
        <time>2018-12-29T13:06:11Z</time>
      </trkpt>
      <trkpt lat="45.83536" lon="3.01167">
        <ele>676.8</ele>
        <time>2018-12-29T13:06:12Z</time>
      </trkpt>
      <trkpt lat="45.83515" lon="3.01194">
        <ele>676.8</ele>
        <time>2018-12-29T13:06:19Z</time>
      </trkpt>
      <trkpt lat="45.83506" lon="3.01217">
        <ele>676.8</ele>
        <time>2018-12-29T13:06:24Z</time>
      </trkpt>
      <trkpt lat="45.835" lon="3.01232">
        <ele>676.4</ele>
        <time>2018-12-29T13:06:27Z</time>
      </trkpt>
      <trkpt lat="45.83498" lon="3.01237">
        <ele>676</ele>
        <time>2018-12-29T13:06:28Z</time>
      </trkpt>
      <trkpt lat="45.83496" lon="3.01243">
        <ele>675.6</ele>
        <time>2018-12-29T13:06:29Z</time>
      </trkpt>
      <trkpt lat="45.83494" lon="3.01248">
        <ele>675.2</ele>
        <time>2018-12-29T13:06:30Z</time>
      </trkpt>
      <trkpt lat="45.83491" lon="3.01253">
        <ele>674.8</ele>
        <time>2018-12-29T13:06:31Z</time>
      </trkpt>
      <trkpt lat="45.83488" lon="3.01258">
        <ele>674.8</ele>
        <time>2018-12-29T13:06:32Z</time>
      </trkpt>
      <trkpt lat="45.83478" lon="3.01267">
        <ele>674.8</ele>
        <time>2018-12-29T13:06:34Z</time>
      </trkpt>
      <trkpt lat="45.8346" lon="3.01277">
        <ele>674.8</ele>
        <time>2018-12-29T13:06:38Z</time>
      </trkpt>
      <trkpt lat="45.83455" lon="3.0128">
        <ele>674.8</ele>
        <time>2018-12-29T13:06:39Z</time>
      </trkpt>
      <trkpt lat="45.83444" lon="3.01284">
        <ele>674.8</ele>
        <time>2018-12-29T13:06:41Z</time>
      </trkpt>
      <trkpt lat="45.83427" lon="3.01288">
        <ele>674.8</ele>
        <time>2018-12-29T13:06:44Z</time>
      </trkpt>
      <trkpt lat="45.8342" lon="3.01288">
        <ele>674.8</ele>
        <time>2018-12-29T13:06:45Z</time>
      </trkpt>
      <trkpt lat="45.83415" lon="3.01289">
        <ele>674.4</ele>
        <time>2018-12-29T13:06:46Z</time>
      </trkpt>
      <trkpt lat="45.83408" lon="3.0129">
        <ele>674</ele>
        <time>2018-12-29T13:06:47Z</time>
      </trkpt>
      <trkpt lat="45.83402" lon="3.01289">
        <ele>673.6</ele>
        <time>2018-12-29T13:06:48Z</time>
      </trkpt>
      <trkpt lat="45.83396" lon="3.0129">
        <ele>673.2</ele>
        <time>2018-12-29T13:06:49Z</time>
      </trkpt>
      <trkpt lat="45.83389" lon="3.0129">
        <ele>672.8</ele>
        <time>2018-12-29T13:06:50Z</time>
      </trkpt>
      <trkpt lat="45.83364" lon="3.01293">
        <ele>672.4</ele>
        <time>2018-12-29T13:06:54Z</time>
      </trkpt>
      <trkpt lat="45.83358" lon="3.01294">
        <ele>671.8</ele>
        <time>2018-12-29T13:06:55Z</time>
      </trkpt>
      <trkpt lat="45.83352" lon="3.01295">
        <ele>671</ele>
        <time>2018-12-29T13:06:56Z</time>
      </trkpt>
      <trkpt lat="45.83347" lon="3.01297">
        <ele>670.6</ele>
        <time>2018-12-29T13:06:57Z</time>
      </trkpt>
      <trkpt lat="45.83315" lon="3.01307">
        <ele>670.6</ele>
        <time>2018-12-29T13:07:03Z</time>
      </trkpt>
      <trkpt lat="45.83277" lon="3.01329">
        <ele>670.6</ele>
        <time>2018-12-29T13:07:11Z</time>
      </trkpt>
      <trkpt lat="45.83241" lon="3.01351">
        <ele>670.6</ele>
        <time>2018-12-29T13:07:18Z</time>
      </trkpt>
      <trkpt lat="45.83201" lon="3.01368">
        <ele>670.6</ele>
        <time>2018-12-29T13:07:26Z</time>
      </trkpt>
      <trkpt lat="45.83188" lon="3.01371">
        <ele>671</ele>
        <time>2018-12-29T13:07:29Z</time>
      </trkpt>
      <trkpt lat="45.83185" lon="3.01372">
        <ele>671.4</ele>
        <time>2018-12-29T13:07:30Z</time>
      </trkpt>
      <trkpt lat="45.83181" lon="3.01372">
        <ele>672</ele>
        <time>2018-12-29T13:07:31Z</time>
      </trkpt>
      <trkpt lat="45.83178" lon="3.01373">
        <ele>672.4</ele>
        <time>2018-12-29T13:07:32Z</time>
      </trkpt>
      <trkpt lat="45.83175" lon="3.01373">
        <ele>672.8</ele>
        <time>2018-12-29T13:07:33Z</time>
      </trkpt>
      <trkpt lat="45.83162" lon="3.01375">
        <ele>673.2</ele>
        <time>2018-12-29T13:07:37Z</time>
      </trkpt>
      <trkpt lat="45.83159" lon="3.01375">
        <ele>673.6</ele>
        <time>2018-12-29T13:07:38Z</time>
      </trkpt>
      <trkpt lat="45.83157" lon="3.01375">
        <ele>674.2</ele>
        <time>2018-12-29T13:07:39Z</time>
      </trkpt>
      <trkpt lat="45.83154" lon="3.01376">
        <ele>674.6</ele>
        <time>2018-12-29T13:07:40Z</time>
      </trkpt>
      <trkpt lat="45.83151" lon="3.01377">
        <ele>675</ele>
        <time>2018-12-29T13:07:41Z</time>
      </trkpt>
      <trkpt lat="45.83142" lon="3.01377">
        <ele>675</ele>
        <time>2018-12-29T13:07:45Z</time>
      </trkpt>
      <trkpt lat="45.83125" lon="3.01379">
        <ele>675.4</ele>
        <time>2018-12-29T13:07:52Z</time>
      </trkpt>
      <trkpt lat="45.83122" lon="3.01378">
        <ele>675.8</ele>
        <time>2018-12-29T13:07:53Z</time>
      </trkpt>
      <trkpt lat="45.83121" lon="3.01378">
        <ele>676.2</ele>
        <time>2018-12-29T13:07:54Z</time>
      </trkpt>
      <trkpt lat="45.83118" lon="3.01377">
        <ele>676.6</ele>
        <time>2018-12-29T13:07:55Z</time>
      </trkpt>
      <trkpt lat="45.83116" lon="3.01376">
        <ele>677</ele>
        <time>2018-12-29T13:07:56Z</time>
      </trkpt>
      <trkpt lat="45.83112" lon="3.01374">
        <ele>677</ele>
        <time>2018-12-29T13:07:58Z</time>
      </trkpt>
      <trkpt lat="45.83108" lon="3.01371">
        <ele>677</ele>
        <time>2018-12-29T13:08:00Z</time>
      </trkpt>
      <trkpt lat="45.83109" lon="3.01367">
        <ele>677</ele>
        <time>2018-12-29T13:08:02Z</time>
      </trkpt>
      <trkpt lat="45.83115" lon="3.01367">
        <ele>677</ele>
        <time>2018-12-29T13:08:06Z</time>
      </trkpt>
      <trkpt lat="45.83118" lon="3.01363">
        <ele>677.4</ele>
        <time>2018-12-29T13:08:10Z</time>
      </trkpt>
      <trkpt lat="45.83117" lon="3.01362">
        <ele>677.8</ele>
        <time>2018-12-29T13:08:11Z</time>
      </trkpt>
      <trkpt lat="45.83119" lon="3.0136">
        <ele>678.2</ele>
        <time>2018-12-29T13:08:12Z</time>
      </trkpt>
      <trkpt lat="45.8312" lon="3.01358">
        <ele>678.8</ele>
        <time>2018-12-29T13:08:13Z</time>
      </trkpt>
      <trkpt lat="45.83121" lon="3.01356">
        <ele>679.2</ele>
        <time>2018-12-29T13:08:14Z</time>
      </trkpt>
      <trkpt lat="45.83122" lon="3.01355">
        <ele>679.2</ele>
        <time>2018-12-29T13:08:15Z</time>
      </trkpt>
      <trkpt lat="45.83129" lon="3.01344">
        <ele>679.2</ele>
        <time>2018-12-29T13:08:20Z</time>
      </trkpt>
      <trkpt lat="45.83132" lon="3.01343">
        <ele>679.6</ele>
        <time>2018-12-29T13:08:22Z</time>
      </trkpt>
      <trkpt lat="45.83135" lon="3.01342">
        <ele>680</ele>
        <time>2018-12-29T13:08:23Z</time>
      </trkpt>
      <trkpt lat="45.83137" lon="3.0134">
        <ele>680.6</ele>
        <time>2018-12-29T13:08:24Z</time>
      </trkpt>
      <trkpt lat="45.83139" lon="3.01339">
        <ele>681</ele>
        <time>2018-12-29T13:08:25Z</time>
      </trkpt>
      <trkpt lat="45.83138" lon="3.01335">
        <ele>681.4</ele>
        <time>2018-12-29T13:08:26Z</time>
      </trkpt>
      <trkpt lat="45.83142" lon="3.01328">
        <ele>681.4</ele>
        <time>2018-12-29T13:08:29Z</time>
      </trkpt>
      <trkpt lat="45.83148" lon="3.01321">
        <ele>681.8</ele>
        <time>2018-12-29T13:08:33Z</time>
      </trkpt>
      <trkpt lat="45.83149" lon="3.01319">
        <ele>682.6</ele>
        <time>2018-12-29T13:08:34Z</time>
      </trkpt>
      <trkpt lat="45.8315" lon="3.01317">
        <ele>683.2</ele>
        <time>2018-12-29T13:08:35Z</time>
      </trkpt>
      <trkpt lat="45.83151" lon="3.01313">
        <ele>683.6</ele>
        <time>2018-12-29T13:08:36Z</time>
      </trkpt>
      <trkpt lat="45.83158" lon="3.013">
        <ele>683.6</ele>
        <time>2018-12-29T13:08:41Z</time>
      </trkpt>
      <trkpt lat="45.83159" lon="3.01298">
        <ele>684</ele>
        <time>2018-12-29T13:08:42Z</time>
      </trkpt>
      <trkpt lat="45.83161" lon="3.01297">
        <ele>684.4</ele>
        <time>2018-12-29T13:08:43Z</time>
      </trkpt>
      <trkpt lat="45.83163" lon="3.01295">
        <ele>684.8</ele>
        <time>2018-12-29T13:08:44Z</time>
      </trkpt>
      <trkpt lat="45.83164" lon="3.01293">
        <ele>685.2</ele>
        <time>2018-12-29T13:08:45Z</time>
      </trkpt>
      <trkpt lat="45.83165" lon="3.01291">
        <ele>685.6</ele>
        <time>2018-12-29T13:08:46Z</time>
      </trkpt>
      <trkpt lat="45.83171" lon="3.01284">
        <ele>685.6</ele>
        <time>2018-12-29T13:08:49Z</time>
      </trkpt>
      <trkpt lat="45.83173" lon="3.0128">
        <ele>685.6</ele>
        <time>2018-12-29T13:08:51Z</time>
      </trkpt>
      <trkpt lat="45.83178" lon="3.01275">
        <ele>685.6</ele>
        <time>2018-12-29T13:08:54Z</time>
      </trkpt>
      <trkpt lat="45.83182" lon="3.01269">
        <ele>686</ele>
        <time>2018-12-29T13:08:57Z</time>
      </trkpt>
      <trkpt lat="45.83183" lon="3.01267">
        <ele>686.6</ele>
        <time>2018-12-29T13:08:58Z</time>
      </trkpt>
      <trkpt lat="45.83184" lon="3.01265">
        <ele>687.4</ele>
        <time>2018-12-29T13:08:59Z</time>
      </trkpt>
      <trkpt lat="45.83185" lon="3.01264">
        <ele>687.8</ele>
        <time>2018-12-29T13:09:00Z</time>
      </trkpt>
      <trkpt lat="45.83189" lon="3.01257">
        <ele>687.8</ele>
        <time>2018-12-29T13:09:03Z</time>
      </trkpt>
      <trkpt lat="45.83196" lon="3.01248">
        <ele>688.2</ele>
        <time>2018-12-29T13:09:08Z</time>
      </trkpt>
      <trkpt lat="45.83197" lon="3.01245">
        <ele>688.6</ele>
        <time>2018-12-29T13:09:09Z</time>
      </trkpt>
      <trkpt lat="45.83198" lon="3.01243">
        <ele>689</ele>
        <time>2018-12-29T13:09:10Z</time>
      </trkpt>
      <trkpt lat="45.832" lon="3.0124">
        <ele>689.6</ele>
        <time>2018-12-29T13:09:11Z</time>
      </trkpt>
      <trkpt lat="45.83201" lon="3.01238">
        <ele>690</ele>
        <time>2018-12-29T13:09:12Z</time>
      </trkpt>
      <trkpt lat="45.83203" lon="3.01236">
        <ele>690</ele>
        <time>2018-12-29T13:09:13Z</time>
      </trkpt>
      <trkpt lat="45.8321" lon="3.01222">
        <ele>690</ele>
        <time>2018-12-29T13:09:19Z</time>
      </trkpt>
      <trkpt lat="45.83212" lon="3.01218">
        <ele>690.4</ele>
        <time>2018-12-29T13:09:21Z</time>
      </trkpt>
      <trkpt lat="45.83213" lon="3.01215">
        <ele>690.8</ele>
        <time>2018-12-29T13:09:22Z</time>
      </trkpt>
      <trkpt lat="45.83215" lon="3.01213">
        <ele>691.2</ele>
        <time>2018-12-29T13:09:23Z</time>
      </trkpt>
      <trkpt lat="45.83217" lon="3.0121">
        <ele>692</ele>
        <time>2018-12-29T13:09:24Z</time>
      </trkpt>
      <trkpt lat="45.83228" lon="3.01192">
        <ele>692</ele>
        <time>2018-12-29T13:09:31Z</time>
      </trkpt>
      <trkpt lat="45.83229" lon="3.01189">
        <ele>692.4</ele>
        <time>2018-12-29T13:09:32Z</time>
      </trkpt>
      <trkpt lat="45.83229" lon="3.01186">
        <ele>692.8</ele>
        <time>2018-12-29T13:09:33Z</time>
      </trkpt>
      <trkpt lat="45.8323" lon="3.01182">
        <ele>693.2</ele>
        <time>2018-12-29T13:09:34Z</time>
      </trkpt>
      <trkpt lat="45.83231" lon="3.01179">
        <ele>693.6</ele>
        <time>2018-12-29T13:09:35Z</time>
      </trkpt>
      <trkpt lat="45.83232" lon="3.01176">
        <ele>694</ele>
        <time>2018-12-29T13:09:36Z</time>
      </trkpt>
      <trkpt lat="45.83234" lon="3.0117">
        <ele>694</ele>
        <time>2018-12-29T13:09:38Z</time>
      </trkpt>
      <trkpt lat="45.83238" lon="3.01158">
        <ele>694.4</ele>
        <time>2018-12-29T13:09:42Z</time>
      </trkpt>
      <trkpt lat="45.83239" lon="3.01155">
        <ele>694.8</ele>
        <time>2018-12-29T13:09:43Z</time>
      </trkpt>
      <trkpt lat="45.83239" lon="3.01152">
        <ele>695.2</ele>
        <time>2018-12-29T13:09:44Z</time>
      </trkpt>
      <trkpt lat="45.8324" lon="3.01149">
        <ele>695.6</ele>
        <time>2018-12-29T13:09:45Z</time>
      </trkpt>
      <trkpt lat="45.83241" lon="3.01146">
        <ele>696</ele>
        <time>2018-12-29T13:09:46Z</time>
      </trkpt>
      <trkpt lat="45.83246" lon="3.01129">
        <ele>696</ele>
        <time>2018-12-29T13:09:52Z</time>
      </trkpt>
      <trkpt lat="45.83247" lon="3.01123">
        <ele>696.4</ele>
        <time>2018-12-29T13:09:54Z</time>
      </trkpt>
      <trkpt lat="45.83248" lon="3.0112">
        <ele>697</ele>
        <time>2018-12-29T13:09:55Z</time>
      </trkpt>
      <trkpt lat="45.83248" lon="3.01117">
        <ele>697.4</ele>
        <time>2018-12-29T13:09:56Z</time>
      </trkpt>
      <trkpt lat="45.83247" lon="3.01115">
        <ele>697.8</ele>
        <time>2018-12-29T13:09:57Z</time>
      </trkpt>
      <trkpt lat="45.83246" lon="3.01112">
        <ele>698.2</ele>
        <time>2018-12-29T13:09:58Z</time>
      </trkpt>
      <trkpt lat="45.83243" lon="3.01111">
        <ele>698.2</ele>
        <time>2018-12-29T13:10:00Z</time>
      </trkpt>
      <trkpt lat="45.83225" lon="3.01118">
        <ele>698.2</ele>
        <time>2018-12-29T13:10:09Z</time>
      </trkpt>
      <trkpt lat="45.83223" lon="3.01118">
        <ele>698.6</ele>
        <time>2018-12-29T13:10:10Z</time>
      </trkpt>
      <trkpt lat="45.83221" lon="3.01118">
        <ele>699</ele>
        <time>2018-12-29T13:10:11Z</time>
      </trkpt>
      <trkpt lat="45.83219" lon="3.01118">
        <ele>699.4</ele>
        <time>2018-12-29T13:10:12Z</time>
      </trkpt>
      <trkpt lat="45.83217" lon="3.01118">
        <ele>700.2</ele>
        <time>2018-12-29T13:10:13Z</time>
      </trkpt>
      <trkpt lat="45.83209" lon="3.0112">
        <ele>700.2</ele>
        <time>2018-12-29T13:10:18Z</time>
      </trkpt>
      <trkpt lat="45.83195" lon="3.01126">
        <ele>700.6</ele>
        <time>2018-12-29T13:10:26Z</time>
      </trkpt>
      <trkpt lat="45.83193" lon="3.01126">
        <ele>701</ele>
        <time>2018-12-29T13:10:27Z</time>
      </trkpt>
      <trkpt lat="45.83192" lon="3.01126">
        <ele>701.4</ele>
        <time>2018-12-29T13:10:28Z</time>
      </trkpt>
      <trkpt lat="45.8319" lon="3.01126">
        <ele>701.8</ele>
        <time>2018-12-29T13:10:29Z</time>
      </trkpt>
      <trkpt lat="45.83188" lon="3.01127">
        <ele>702.2</ele>
        <time>2018-12-29T13:10:30Z</time>
      </trkpt>
      <trkpt lat="45.83181" lon="3.0113">
        <ele>702.2</ele>
        <time>2018-12-29T13:10:34Z</time>
      </trkpt>
      <trkpt lat="45.83171" lon="3.01134">
        <ele>702.2</ele>
        <time>2018-12-29T13:10:41Z</time>
      </trkpt>
      <trkpt lat="45.8317" lon="3.01134">
        <ele>702.6</ele>
        <time>2018-12-29T13:10:42Z</time>
      </trkpt>
      <trkpt lat="45.83169" lon="3.01135">
        <ele>703</ele>
        <time>2018-12-29T13:10:43Z</time>
      </trkpt>
      <trkpt lat="45.83167" lon="3.01135">
        <ele>703.4</ele>
        <time>2018-12-29T13:10:44Z</time>
      </trkpt>
      <trkpt lat="45.83166" lon="3.01136">
        <ele>704</ele>
        <time>2018-12-29T13:10:45Z</time>
      </trkpt>
      <trkpt lat="45.83165" lon="3.01137">
        <ele>704.4</ele>
        <time>2018-12-29T13:10:46Z</time>
      </trkpt>
      <trkpt lat="45.83164" lon="3.01138">
        <ele>704.4</ele>
        <time>2018-12-29T13:10:47Z</time>
      </trkpt>
      <trkpt lat="45.83157" lon="3.01146">
        <ele>704.4</ele>
        <time>2018-12-29T13:10:53Z</time>
      </trkpt>
      <trkpt lat="45.83152" lon="3.01146">
        <ele>704.8</ele>
        <time>2018-12-29T13:10:57Z</time>
      </trkpt>
      <trkpt lat="45.83151" lon="3.01146">
        <ele>705.2</ele>
        <time>2018-12-29T13:10:58Z</time>
      </trkpt>
      <trkpt lat="45.8315" lon="3.01147">
        <ele>705.6</ele>
        <time>2018-12-29T13:10:59Z</time>
      </trkpt>
      <trkpt lat="45.83149" lon="3.01147">
        <ele>706</ele>
        <time>2018-12-29T13:11:00Z</time>
      </trkpt>
      <trkpt lat="45.83148" lon="3.01148">
        <ele>706.4</ele>
        <time>2018-12-29T13:11:01Z</time>
      </trkpt>
      <trkpt lat="45.83143" lon="3.01152">
        <ele>706.4</ele>
        <time>2018-12-29T13:11:05Z</time>
      </trkpt>
      <trkpt lat="45.83139" lon="3.01156">
        <ele>706.4</ele>
        <time>2018-12-29T13:11:09Z</time>
      </trkpt>
      <trkpt lat="45.83135" lon="3.01156">
        <ele>706.4</ele>
        <time>2018-12-29T13:11:12Z</time>
      </trkpt>
      <trkpt lat="45.83131" lon="3.01153">
        <ele>706.4</ele>
        <time>2018-12-29T13:11:16Z</time>
      </trkpt>
      <trkpt lat="45.8313" lon="3.01153">
        <ele>706.4</ele>
        <time>2018-12-29T13:11:17Z</time>
      </trkpt>
      <trkpt lat="45.83128" lon="3.01153">
        <ele>706.4</ele>
        <time>2018-12-29T13:11:18Z</time>
      </trkpt>
      <trkpt lat="45.83124" lon="3.01157">
        <ele>706.4</ele>
        <time>2018-12-29T13:11:22Z</time>
      </trkpt>
      <trkpt lat="45.83122" lon="3.01157">
        <ele>706.8</ele>
        <time>2018-12-29T13:11:23Z</time>
      </trkpt>
      <trkpt lat="45.8312" lon="3.01157">
        <ele>707.2</ele>
        <time>2018-12-29T13:11:24Z</time>
      </trkpt>
      <trkpt lat="45.83118" lon="3.01157">
        <ele>707.6</ele>
        <time>2018-12-29T13:11:25Z</time>
      </trkpt>
      <trkpt lat="45.83117" lon="3.01157">
        <ele>708.2</ele>
        <time>2018-12-29T13:11:26Z</time>
      </trkpt>
      <trkpt lat="45.83115" lon="3.01157">
        <ele>708.6</ele>
        <time>2018-12-29T13:11:27Z</time>
      </trkpt>
      <trkpt lat="45.83111" lon="3.01156">
        <ele>708.6</ele>
        <time>2018-12-29T13:11:29Z</time>
      </trkpt>
      <trkpt lat="45.83097" lon="3.01149">
        <ele>708.6</ele>
        <time>2018-12-29T13:11:37Z</time>
      </trkpt>
      <trkpt lat="45.83094" lon="3.01147">
        <ele>709</ele>
        <time>2018-12-29T13:11:39Z</time>
      </trkpt>
      <trkpt lat="45.83092" lon="3.01146">
        <ele>709.4</ele>
        <time>2018-12-29T13:11:40Z</time>
      </trkpt>
      <trkpt lat="45.8309" lon="3.01144">
        <ele>709.8</ele>
        <time>2018-12-29T13:11:41Z</time>
      </trkpt>
      <trkpt lat="45.83089" lon="3.01143">
        <ele>710.2</ele>
        <time>2018-12-29T13:11:42Z</time>
      </trkpt>
      <trkpt lat="45.83087" lon="3.01141">
        <ele>710.6</ele>
        <time>2018-12-29T13:11:43Z</time>
      </trkpt>
      <trkpt lat="45.83085" lon="3.01138">
        <ele>710.6</ele>
        <time>2018-12-29T13:11:45Z</time>
      </trkpt>
      <trkpt lat="45.83079" lon="3.01126">
        <ele>710.6</ele>
        <time>2018-12-29T13:11:51Z</time>
      </trkpt>
      <trkpt lat="45.83077" lon="3.01115">
        <ele>711</ele>
        <time>2018-12-29T13:11:55Z</time>
      </trkpt>
      <trkpt lat="45.83077" lon="3.01112">
        <ele>711.4</ele>
        <time>2018-12-29T13:11:56Z</time>
      </trkpt>
      <trkpt lat="45.83076" lon="3.01109">
        <ele>711.8</ele>
        <time>2018-12-29T13:11:57Z</time>
      </trkpt>
      <trkpt lat="45.83076" lon="3.01106">
        <ele>712.2</ele>
        <time>2018-12-29T13:11:58Z</time>
      </trkpt>
      <trkpt lat="45.83076" lon="3.01103">
        <ele>712.6</ele>
        <time>2018-12-29T13:11:59Z</time>
      </trkpt>
      <trkpt lat="45.83075" lon="3.01089">
        <ele>712.6</ele>
        <time>2018-12-29T13:12:04Z</time>
      </trkpt>
      <trkpt lat="45.83075" lon="3.01083">
        <ele>712.6</ele>
        <time>2018-12-29T13:12:06Z</time>
      </trkpt>
      <trkpt lat="45.83075" lon="3.01076">
        <ele>712.6</ele>
        <time>2018-12-29T13:12:09Z</time>
      </trkpt>
      <trkpt lat="45.83075" lon="3.01074">
        <ele>712.6</ele>
        <time>2018-12-29T13:12:10Z</time>
      </trkpt>
      <trkpt lat="45.83074" lon="3.01066">
        <ele>712.6</ele>
        <time>2018-12-29T13:12:13Z</time>
      </trkpt>
      <trkpt lat="45.83073" lon="3.01061">
        <ele>713</ele>
        <time>2018-12-29T13:12:15Z</time>
      </trkpt>
      <trkpt lat="45.83073" lon="3.01058">
        <ele>713.4</ele>
        <time>2018-12-29T13:12:16Z</time>
      </trkpt>
      <trkpt lat="45.83072" lon="3.01056">
        <ele>714.2</ele>
        <time>2018-12-29T13:12:17Z</time>
      </trkpt>
      <trkpt lat="45.83071" lon="3.01052">
        <ele>714.8</ele>
        <time>2018-12-29T13:12:18Z</time>
      </trkpt>
      <trkpt lat="45.83071" lon="3.0105">
        <ele>714.8</ele>
        <time>2018-12-29T13:12:19Z</time>
      </trkpt>
      <trkpt lat="45.8307" lon="3.01047">
        <ele>714.8</ele>
        <time>2018-12-29T13:12:20Z</time>
      </trkpt>
      <trkpt lat="45.83069" lon="3.01043">
        <ele>714.8</ele>
        <time>2018-12-29T13:12:22Z</time>
      </trkpt>
      <trkpt lat="45.83068" lon="3.0104">
        <ele>714.8</ele>
        <time>2018-12-29T13:12:23Z</time>
      </trkpt>
      <trkpt lat="45.83067" lon="3.01035">
        <ele>715.2</ele>
        <time>2018-12-29T13:12:26Z</time>
      </trkpt>
      <trkpt lat="45.83066" lon="3.01032">
        <ele>715.6</ele>
        <time>2018-12-29T13:12:27Z</time>
      </trkpt>
      <trkpt lat="45.83065" lon="3.0103">
        <ele>716</ele>
        <time>2018-12-29T13:12:28Z</time>
      </trkpt>
      <trkpt lat="45.83064" lon="3.01029">
        <ele>716.4</ele>
        <time>2018-12-29T13:12:29Z</time>
      </trkpt>
      <trkpt lat="45.83063" lon="3.01027">
        <ele>716.8</ele>
        <time>2018-12-29T13:12:30Z</time>
      </trkpt>
      <trkpt lat="45.83057" lon="3.01017">
        <ele>717.2</ele>
        <time>2018-12-29T13:12:35Z</time>
      </trkpt>
      <trkpt lat="45.83056" lon="3.01016">
        <ele>717.6</ele>
        <time>2018-12-29T13:12:36Z</time>
      </trkpt>
      <trkpt lat="45.83054" lon="3.01015">
        <ele>718</ele>
        <time>2018-12-29T13:12:37Z</time>
      </trkpt>
      <trkpt lat="45.83053" lon="3.01014">
        <ele>718.4</ele>
        <time>2018-12-29T13:12:38Z</time>
      </trkpt>
      <trkpt lat="45.83052" lon="3.01014">
        <ele>718.8</ele>
        <time>2018-12-29T13:12:39Z</time>
      </trkpt>
      <trkpt lat="45.83051" lon="3.01013">
        <ele>718.8</ele>
        <time>2018-12-29T13:12:41Z</time>
      </trkpt>
      <trkpt lat="45.83049" lon="3.01011">
        <ele>719.2</ele>
        <time>2018-12-29T13:12:44Z</time>
      </trkpt>
      <trkpt lat="45.83048" lon="3.01011">
        <ele>719.8</ele>
        <time>2018-12-29T13:12:45Z</time>
      </trkpt>
      <trkpt lat="45.83046" lon="3.0101">
        <ele>720.2</ele>
        <time>2018-12-29T13:12:46Z</time>
      </trkpt>
      <trkpt lat="45.83045" lon="3.01009">
        <ele>720.6</ele>
        <time>2018-12-29T13:12:47Z</time>
      </trkpt>
      <trkpt lat="45.83044" lon="3.01009">
        <ele>721</ele>
        <time>2018-12-29T13:12:48Z</time>
      </trkpt>
      <trkpt lat="45.83037" lon="3.01008">
        <ele>721</ele>
        <time>2018-12-29T13:12:51Z</time>
      </trkpt>
      <trkpt lat="45.8303" lon="3.01007">
        <ele>721</ele>
        <time>2018-12-29T13:12:54Z</time>
      </trkpt>
      <trkpt lat="45.83026" lon="3.01006">
        <ele>721</ele>
        <time>2018-12-29T13:12:56Z</time>
      </trkpt>
      <trkpt lat="45.83024" lon="3.01004">
        <ele>721.4</ele>
        <time>2018-12-29T13:12:58Z</time>
      </trkpt>
      <trkpt lat="45.83022" lon="3.01003">
        <ele>721.8</ele>
        <time>2018-12-29T13:12:59Z</time>
      </trkpt>
      <trkpt lat="45.83021" lon="3.01002">
        <ele>722.2</ele>
        <time>2018-12-29T13:13:00Z</time>
      </trkpt>
      <trkpt lat="45.83019" lon="3.01002">
        <ele>722.6</ele>
        <time>2018-12-29T13:13:01Z</time>
      </trkpt>
      <trkpt lat="45.83018" lon="3.01001">
        <ele>723</ele>
        <time>2018-12-29T13:13:02Z</time>
      </trkpt>
      <trkpt lat="45.83015" lon="3.00999">
        <ele>723</ele>
        <time>2018-12-29T13:13:04Z</time>
      </trkpt>
      <trkpt lat="45.83011" lon="3.00998">
        <ele>723</ele>
        <time>2018-12-29T13:13:06Z</time>
      </trkpt>
      <trkpt lat="45.83007" lon="3.00997">
        <ele>723.4</ele>
        <time>2018-12-29T13:13:08Z</time>
      </trkpt>
      <trkpt lat="45.83004" lon="3.00996">
        <ele>724</ele>
        <time>2018-12-29T13:13:09Z</time>
      </trkpt>
      <trkpt lat="45.83001" lon="3.00995">
        <ele>724.4</ele>
        <time>2018-12-29T13:13:10Z</time>
      </trkpt>
      <trkpt lat="45.82999" lon="3.00995">
        <ele>724.8</ele>
        <time>2018-12-29T13:13:11Z</time>
      </trkpt>
      <trkpt lat="45.82998" lon="3.00994">
        <ele>725.2</ele>
        <time>2018-12-29T13:13:12Z</time>
      </trkpt>
      <trkpt lat="45.82992" lon="3.00992">
        <ele>725.2</ele>
        <time>2018-12-29T13:13:16Z</time>
      </trkpt>
      <trkpt lat="45.82991" lon="3.00991">
        <ele>725.6</ele>
        <time>2018-12-29T13:13:17Z</time>
      </trkpt>
      <trkpt lat="45.8299" lon="3.00991">
        <ele>726.2</ele>
        <time>2018-12-29T13:13:18Z</time>
      </trkpt>
      <trkpt lat="45.82989" lon="3.00991">
        <ele>726.6</ele>
        <time>2018-12-29T13:13:19Z</time>
      </trkpt>
      <trkpt lat="45.82988" lon="3.00991">
        <ele>727</ele>
        <time>2018-12-29T13:13:20Z</time>
      </trkpt>
      <trkpt lat="45.82987" lon="3.0099">
        <ele>727.4</ele>
        <time>2018-12-29T13:13:21Z</time>
      </trkpt>
      <trkpt lat="45.82983" lon="3.00989">
        <ele>727.4</ele>
        <time>2018-12-29T13:13:23Z</time>
      </trkpt>
      <trkpt lat="45.82977" lon="3.00986">
        <ele>728</ele>
        <time>2018-12-29T13:13:26Z</time>
      </trkpt>
      <trkpt lat="45.82975" lon="3.00984">
        <ele>728.4</ele>
        <time>2018-12-29T13:13:27Z</time>
      </trkpt>
      <trkpt lat="45.82973" lon="3.00982">
        <ele>728.8</ele>
        <time>2018-12-29T13:13:28Z</time>
      </trkpt>
      <trkpt lat="45.8297" lon="3.00981">
        <ele>729.2</ele>
        <time>2018-12-29T13:13:29Z</time>
      </trkpt>
      <trkpt lat="45.82966" lon="3.00979">
        <ele>729.6</ele>
        <time>2018-12-29T13:13:30Z</time>
      </trkpt>
      <trkpt lat="45.82953" lon="3.00975">
        <ele>730.2</ele>
        <time>2018-12-29T13:13:35Z</time>
      </trkpt>
      <trkpt lat="45.82952" lon="3.00975">
        <ele>730.6</ele>
        <time>2018-12-29T13:13:36Z</time>
      </trkpt>
      <trkpt lat="45.82951" lon="3.00974">
        <ele>731</ele>
        <time>2018-12-29T13:13:37Z</time>
      </trkpt>
      <trkpt lat="45.8295" lon="3.00973">
        <ele>731.6</ele>
        <time>2018-12-29T13:13:38Z</time>
      </trkpt>
      <trkpt lat="45.82948" lon="3.00972">
        <ele>732</ele>
        <time>2018-12-29T13:13:39Z</time>
      </trkpt>
      <trkpt lat="45.82948" lon="3.00972">
        <ele>732</ele>
        <time>2018-12-29T13:13:40Z</time>
      </trkpt>
      <trkpt lat="45.82943" lon="3.00971">
        <ele>733.2</ele>
        <time>2018-12-29T13:13:44Z</time>
      </trkpt>
      <trkpt lat="45.82941" lon="3.00971">
        <ele>733.6</ele>
        <time>2018-12-29T13:13:45Z</time>
      </trkpt>
      <trkpt lat="45.8294" lon="3.00971">
        <ele>734</ele>
        <time>2018-12-29T13:13:46Z</time>
      </trkpt>
      <trkpt lat="45.82938" lon="3.00971">
        <ele>734</ele>
        <time>2018-12-29T13:13:47Z</time>
      </trkpt>
      <trkpt lat="45.82932" lon="3.0097">
        <ele>734.6</ele>
        <time>2018-12-29T13:13:49Z</time>
      </trkpt>
      <trkpt lat="45.8293" lon="3.00969">
        <ele>735</ele>
        <time>2018-12-29T13:13:50Z</time>
      </trkpt>
      <trkpt lat="45.82928" lon="3.00968">
        <ele>735.4</ele>
        <time>2018-12-29T13:13:51Z</time>
      </trkpt>
      <trkpt lat="45.82926" lon="3.00967">
        <ele>735.8</ele>
        <time>2018-12-29T13:13:52Z</time>
      </trkpt>
      <trkpt lat="45.82924" lon="3.00966">
        <ele>736.2</ele>
        <time>2018-12-29T13:13:53Z</time>
      </trkpt>
      <trkpt lat="45.82919" lon="3.00962">
        <ele>736.6</ele>
        <time>2018-12-29T13:13:56Z</time>
      </trkpt>
      <trkpt lat="45.82917" lon="3.0096">
        <ele>737</ele>
        <time>2018-12-29T13:13:57Z</time>
      </trkpt>
      <trkpt lat="45.82915" lon="3.00958">
        <ele>737.4</ele>
        <time>2018-12-29T13:13:58Z</time>
      </trkpt>
      <trkpt lat="45.82913" lon="3.00955">
        <ele>737.8</ele>
        <time>2018-12-29T13:13:59Z</time>
      </trkpt>
      <trkpt lat="45.82911" lon="3.00953">
        <ele>738.2</ele>
        <time>2018-12-29T13:14:00Z</time>
      </trkpt>
      <trkpt lat="45.82904" lon="3.00944">
        <ele>738.2</ele>
        <time>2018-12-29T13:14:04Z</time>
      </trkpt>
      <trkpt lat="45.82903" lon="3.00941">
        <ele>738.8</ele>
        <time>2018-12-29T13:14:06Z</time>
      </trkpt>
      <trkpt lat="45.82902" lon="3.00939">
        <ele>739.2</ele>
        <time>2018-12-29T13:14:07Z</time>
      </trkpt>
      <trkpt lat="45.82901" lon="3.00938">
        <ele>739.6</ele>
        <time>2018-12-29T13:14:08Z</time>
      </trkpt>
      <trkpt lat="45.829" lon="3.00936">
        <ele>740</ele>
        <time>2018-12-29T13:14:09Z</time>
      </trkpt>
      <trkpt lat="45.82899" lon="3.00934">
        <ele>740.4</ele>
        <time>2018-12-29T13:14:10Z</time>
      </trkpt>
      <trkpt lat="45.82893" lon="3.00918">
        <ele>740.8</ele>
        <time>2018-12-29T13:14:18Z</time>
      </trkpt>
      <trkpt lat="45.82893" lon="3.00915">
        <ele>741.4</ele>
        <time>2018-12-29T13:14:19Z</time>
      </trkpt>
      <trkpt lat="45.82892" lon="3.00913">
        <ele>741.8</ele>
        <time>2018-12-29T13:14:20Z</time>
      </trkpt>
      <trkpt lat="45.82892" lon="3.00911">
        <ele>742.6</ele>
        <time>2018-12-29T13:14:21Z</time>
      </trkpt>
      <trkpt lat="45.82892" lon="3.00905">
        <ele>742.6</ele>
        <time>2018-12-29T13:14:24Z</time>
      </trkpt>
      <trkpt lat="45.82886" lon="3.0089">
        <ele>742.6</ele>
        <time>2018-12-29T13:14:32Z</time>
      </trkpt>
      <trkpt lat="45.82885" lon="3.00884">
        <ele>743</ele>
        <time>2018-12-29T13:14:35Z</time>
      </trkpt>
      <trkpt lat="45.82884" lon="3.00883">
        <ele>743.4</ele>
        <time>2018-12-29T13:14:36Z</time>
      </trkpt>
      <trkpt lat="45.82884" lon="3.00882">
        <ele>743.8</ele>
        <time>2018-12-29T13:14:37Z</time>
      </trkpt>
      <trkpt lat="45.82883" lon="3.00881">
        <ele>744.2</ele>
        <time>2018-12-29T13:14:38Z</time>
      </trkpt>
      <trkpt lat="45.82883" lon="3.0088">
        <ele>744.6</ele>
        <time>2018-12-29T13:14:39Z</time>
      </trkpt>
      <trkpt lat="45.82879" lon="3.00877">
        <ele>744.6</ele>
        <time>2018-12-29T13:14:44Z</time>
      </trkpt>
      <trkpt lat="45.82881" lon="3.00877">
        <ele>744.6</ele>
        <time>2018-12-29T13:14:46Z</time>
      </trkpt>
      <trkpt lat="45.82884" lon="3.00883">
        <ele>744.6</ele>
        <time>2018-12-29T13:14:49Z</time>
      </trkpt>
      <trkpt lat="45.82884" lon="3.00885">
        <ele>744.6</ele>
        <time>2018-12-29T13:14:51Z</time>
      </trkpt>
      <trkpt lat="45.82883" lon="3.00885">
        <ele>744.6</ele>
        <time>2018-12-29T13:15:59Z</time>
      </trkpt>
      <trkpt lat="45.82882" lon="3.00884">
        <ele>744.6</ele>
        <time>2018-12-29T13:16:00Z</time>
      </trkpt>
      <trkpt lat="45.82875" lon="3.00869">
        <ele>744.6</ele>
        <time>2018-12-29T13:16:06Z</time>
      </trkpt>
      <trkpt lat="45.82868" lon="3.00857">
        <ele>744.6</ele>
        <time>2018-12-29T13:16:11Z</time>
      </trkpt>
      <trkpt lat="45.82865" lon="3.0085">
        <ele>745</ele>
        <time>2018-12-29T13:16:14Z</time>
      </trkpt>
      <trkpt lat="45.82865" lon="3.00848">
        <ele>745.4</ele>
        <time>2018-12-29T13:16:15Z</time>
      </trkpt>
      <trkpt lat="45.82864" lon="3.00846">
        <ele>745.8</ele>
        <time>2018-12-29T13:16:16Z</time>
      </trkpt>
      <trkpt lat="45.82863" lon="3.00844">
        <ele>746.2</ele>
        <time>2018-12-29T13:16:17Z</time>
      </trkpt>
      <trkpt lat="45.82862" lon="3.00842">
        <ele>746.6</ele>
        <time>2018-12-29T13:16:18Z</time>
      </trkpt>
      <trkpt lat="45.82859" lon="3.00837">
        <ele>746.6</ele>
        <time>2018-12-29T13:16:21Z</time>
      </trkpt>
      <trkpt lat="45.82859" lon="3.00835">
        <ele>746.6</ele>
        <time>2018-12-29T13:16:22Z</time>
      </trkpt>
      <trkpt lat="45.82854" lon="3.00821">
        <ele>746.6</ele>
        <time>2018-12-29T13:16:27Z</time>
      </trkpt>
      <trkpt lat="45.82855" lon="3.00812">
        <ele>746.6</ele>
        <time>2018-12-29T13:16:31Z</time>
      </trkpt>
      <trkpt lat="45.82855" lon="3.00808">
        <ele>746.6</ele>
        <time>2018-12-29T13:16:33Z</time>
      </trkpt>
      <trkpt lat="45.82854" lon="3.00797">
        <ele>746.6</ele>
        <time>2018-12-29T13:16:36Z</time>
      </trkpt>
      <trkpt lat="45.82854" lon="3.00793">
        <ele>746.6</ele>
        <time>2018-12-29T13:16:37Z</time>
      </trkpt>
      <trkpt lat="45.82853" lon="3.00789">
        <ele>747.2</ele>
        <time>2018-12-29T13:16:38Z</time>
      </trkpt>
      <trkpt lat="45.82852" lon="3.00786">
        <ele>747.6</ele>
        <time>2018-12-29T13:16:39Z</time>
      </trkpt>
      <trkpt lat="45.82853" lon="3.00782">
        <ele>748</ele>
        <time>2018-12-29T13:16:40Z</time>
      </trkpt>
      <trkpt lat="45.82853" lon="3.00779">
        <ele>748.4</ele>
        <time>2018-12-29T13:16:41Z</time>
      </trkpt>
      <trkpt lat="45.82853" lon="3.00776">
        <ele>748.8</ele>
        <time>2018-12-29T13:16:42Z</time>
      </trkpt>
      <trkpt lat="45.82849" lon="3.00761">
        <ele>748.8</ele>
        <time>2018-12-29T13:16:46Z</time>
      </trkpt>
      <trkpt lat="45.82846" lon="3.0075">
        <ele>749.2</ele>
        <time>2018-12-29T13:16:49Z</time>
      </trkpt>
      <trkpt lat="45.82845" lon="3.00746">
        <ele>749.6</ele>
        <time>2018-12-29T13:16:50Z</time>
      </trkpt>
      <trkpt lat="45.82844" lon="3.00743">
        <ele>750</ele>
        <time>2018-12-29T13:16:51Z</time>
      </trkpt>
      <trkpt lat="45.82843" lon="3.0074">
        <ele>750.4</ele>
        <time>2018-12-29T13:16:52Z</time>
      </trkpt>
      <trkpt lat="45.82842" lon="3.00737">
        <ele>750.8</ele>
        <time>2018-12-29T13:16:53Z</time>
      </trkpt>
      <trkpt lat="45.82839" lon="3.00731">
        <ele>750.8</ele>
        <time>2018-12-29T13:16:55Z</time>
      </trkpt>
      <trkpt lat="45.82835" lon="3.00724">
        <ele>750.8</ele>
        <time>2018-12-29T13:16:57Z</time>
      </trkpt>
      <trkpt lat="45.82823" lon="3.00711">
        <ele>750.8</ele>
        <time>2018-12-29T13:17:02Z</time>
      </trkpt>
      <trkpt lat="45.82816" lon="3.00703">
        <ele>751.2</ele>
        <time>2018-12-29T13:17:05Z</time>
      </trkpt>
      <trkpt lat="45.82813" lon="3.00701">
        <ele>751.6</ele>
        <time>2018-12-29T13:17:06Z</time>
      </trkpt>
      <trkpt lat="45.82811" lon="3.00699">
        <ele>752</ele>
        <time>2018-12-29T13:17:07Z</time>
      </trkpt>
      <trkpt lat="45.82808" lon="3.00697">
        <ele>752.4</ele>
        <time>2018-12-29T13:17:08Z</time>
      </trkpt>
      <trkpt lat="45.82806" lon="3.00695">
        <ele>753</ele>
        <time>2018-12-29T13:17:09Z</time>
      </trkpt>
      <trkpt lat="45.82801" lon="3.00691">
        <ele>753</ele>
        <time>2018-12-29T13:17:11Z</time>
      </trkpt>
      <trkpt lat="45.82786" lon="3.00679">
        <ele>753</ele>
        <time>2018-12-29T13:17:16Z</time>
      </trkpt>
      <trkpt lat="45.82766" lon="3.00664">
        <ele>753</ele>
        <time>2018-12-29T13:17:23Z</time>
      </trkpt>
      <trkpt lat="45.82749" lon="3.00655">
        <ele>753</ele>
        <time>2018-12-29T13:17:29Z</time>
      </trkpt>
      <trkpt lat="45.82728" lon="3.00644">
        <ele>753</ele>
        <time>2018-12-29T13:17:37Z</time>
      </trkpt>
      <trkpt lat="45.82713" lon="3.00636">
        <ele>753.4</ele>
        <time>2018-12-29T13:17:43Z</time>
      </trkpt>
      <trkpt lat="45.82711" lon="3.00635">
        <ele>753.8</ele>
        <time>2018-12-29T13:17:44Z</time>
      </trkpt>
      <trkpt lat="45.82708" lon="3.00634">
        <ele>754.2</ele>
        <time>2018-12-29T13:17:45Z</time>
      </trkpt>
      <trkpt lat="45.82705" lon="3.00634">
        <ele>754.6</ele>
        <time>2018-12-29T13:17:46Z</time>
      </trkpt>
      <trkpt lat="45.82703" lon="3.00633">
        <ele>755</ele>
        <time>2018-12-29T13:17:47Z</time>
      </trkpt>
      <trkpt lat="45.82699" lon="3.00632">
        <ele>755</ele>
        <time>2018-12-29T13:17:49Z</time>
      </trkpt>
      <trkpt lat="45.82687" lon="3.00625">
        <ele>755</ele>
        <time>2018-12-29T13:17:54Z</time>
      </trkpt>
      <trkpt lat="45.82669" lon="3.00619">
        <ele>755</ele>
        <time>2018-12-29T13:18:01Z</time>
      </trkpt>
      <trkpt lat="45.82667" lon="3.00618">
        <ele>755.4</ele>
        <time>2018-12-29T13:18:02Z</time>
      </trkpt>
      <trkpt lat="45.82664" lon="3.00618">
        <ele>755.8</ele>
        <time>2018-12-29T13:18:03Z</time>
      </trkpt>
      <trkpt lat="45.82662" lon="3.00617">
        <ele>756.2</ele>
        <time>2018-12-29T13:18:04Z</time>
      </trkpt>
      <trkpt lat="45.8266" lon="3.00617">
        <ele>756.6</ele>
        <time>2018-12-29T13:18:05Z</time>
      </trkpt>
      <trkpt lat="45.82658" lon="3.00616">
        <ele>757.2</ele>
        <time>2018-12-29T13:18:06Z</time>
      </trkpt>
      <trkpt lat="45.82654" lon="3.00615">
        <ele>757.2</ele>
        <time>2018-12-29T13:18:08Z</time>
      </trkpt>
      <trkpt lat="45.82644" lon="3.00608">
        <ele>757.6</ele>
        <time>2018-12-29T13:18:13Z</time>
      </trkpt>
      <trkpt lat="45.82642" lon="3.00607">
        <ele>758</ele>
        <time>2018-12-29T13:18:14Z</time>
      </trkpt>
      <trkpt lat="45.82639" lon="3.00605">
        <ele>758.4</ele>
        <time>2018-12-29T13:18:15Z</time>
      </trkpt>
      <trkpt lat="45.82637" lon="3.00603">
        <ele>758.8</ele>
        <time>2018-12-29T13:18:16Z</time>
      </trkpt>
      <trkpt lat="45.82635" lon="3.00602">
        <ele>759.2</ele>
        <time>2018-12-29T13:18:17Z</time>
      </trkpt>
      <trkpt lat="45.8262" lon="3.00594">
        <ele>759.2</ele>
        <time>2018-12-29T13:18:23Z</time>
      </trkpt>
      <trkpt lat="45.82603" lon="3.00586">
        <ele>759.2</ele>
        <time>2018-12-29T13:18:29Z</time>
      </trkpt>
      <trkpt lat="45.82584" lon="3.00578">
        <ele>759.2</ele>
        <time>2018-12-29T13:18:36Z</time>
      </trkpt>
      <trkpt lat="45.82571" lon="3.00573">
        <ele>759.6</ele>
        <time>2018-12-29T13:18:41Z</time>
      </trkpt>
      <trkpt lat="45.82569" lon="3.00572">
        <ele>760</ele>
        <time>2018-12-29T13:18:42Z</time>
      </trkpt>
      <trkpt lat="45.82566" lon="3.00571">
        <ele>760.4</ele>
        <time>2018-12-29T13:18:43Z</time>
      </trkpt>
      <trkpt lat="45.82564" lon="3.00569">
        <ele>761</ele>
        <time>2018-12-29T13:18:44Z</time>
      </trkpt>
      <trkpt lat="45.82561" lon="3.00568">
        <ele>761.4</ele>
        <time>2018-12-29T13:18:45Z</time>
      </trkpt>
      <trkpt lat="45.82547" lon="3.00557">
        <ele>761.4</ele>
        <time>2018-12-29T13:18:51Z</time>
      </trkpt>
      <trkpt lat="45.82544" lon="3.00555">
        <ele>761.8</ele>
        <time>2018-12-29T13:18:52Z</time>
      </trkpt>
      <trkpt lat="45.82542" lon="3.00554">
        <ele>762.2</ele>
        <time>2018-12-29T13:18:53Z</time>
      </trkpt>
      <trkpt lat="45.8254" lon="3.00553">
        <ele>762.6</ele>
        <time>2018-12-29T13:18:54Z</time>
      </trkpt>
      <trkpt lat="45.82538" lon="3.00551">
        <ele>763</ele>
        <time>2018-12-29T13:18:55Z</time>
      </trkpt>
      <trkpt lat="45.82535" lon="3.0055">
        <ele>763.4</ele>
        <time>2018-12-29T13:18:56Z</time>
      </trkpt>
      <trkpt lat="45.82529" lon="3.00545">
        <ele>763.4</ele>
        <time>2018-12-29T13:18:59Z</time>
      </trkpt>
      <trkpt lat="45.82525" lon="3.00542">
        <ele>763.8</ele>
        <time>2018-12-29T13:19:01Z</time>
      </trkpt>
      <trkpt lat="45.82523" lon="3.00541">
        <ele>764.2</ele>
        <time>2018-12-29T13:19:02Z</time>
      </trkpt>
      <trkpt lat="45.82521" lon="3.00539">
        <ele>764.6</ele>
        <time>2018-12-29T13:19:03Z</time>
      </trkpt>
      <trkpt lat="45.82518" lon="3.00537">
        <ele>765</ele>
        <time>2018-12-29T13:19:04Z</time>
      </trkpt>
      <trkpt lat="45.82516" lon="3.00535">
        <ele>765.4</ele>
        <time>2018-12-29T13:19:05Z</time>
      </trkpt>
      <trkpt lat="45.82501" lon="3.00523">
        <ele>766</ele>
        <time>2018-12-29T13:19:12Z</time>
      </trkpt>
      <trkpt lat="45.82499" lon="3.00521">
        <ele>766.4</ele>
        <time>2018-12-29T13:19:13Z</time>
      </trkpt>
      <trkpt lat="45.82497" lon="3.0052">
        <ele>766.8</ele>
        <time>2018-12-29T13:19:14Z</time>
      </trkpt>
      <trkpt lat="45.82495" lon="3.00518">
        <ele>767.2</ele>
        <time>2018-12-29T13:19:15Z</time>
      </trkpt>
      <trkpt lat="45.82493" lon="3.00517">
        <ele>767.6</ele>
        <time>2018-12-29T13:19:16Z</time>
      </trkpt>
      <trkpt lat="45.82487" lon="3.00515">
        <ele>767.6</ele>
        <time>2018-12-29T13:19:19Z</time>
      </trkpt>
      <trkpt lat="45.8248" lon="3.00513">
        <ele>768</ele>
        <time>2018-12-29T13:19:22Z</time>
      </trkpt>
      <trkpt lat="45.82478" lon="3.00513">
        <ele>768.4</ele>
        <time>2018-12-29T13:19:23Z</time>
      </trkpt>
      <trkpt lat="45.82476" lon="3.00513">
        <ele>768.8</ele>
        <time>2018-12-29T13:19:24Z</time>
      </trkpt>
      <trkpt lat="45.82475" lon="3.00512">
        <ele>769.4</ele>
        <time>2018-12-29T13:19:25Z</time>
      </trkpt>
      <trkpt lat="45.82473" lon="3.00512">
        <ele>769.8</ele>
        <time>2018-12-29T13:19:26Z</time>
      </trkpt>
      <trkpt lat="45.8246" lon="3.00513">
        <ele>769.8</ele>
        <time>2018-12-29T13:19:32Z</time>
      </trkpt>
      <trkpt lat="45.82458" lon="3.00513">
        <ele>770.2</ele>
        <time>2018-12-29T13:19:33Z</time>
      </trkpt>
      <trkpt lat="45.82456" lon="3.00513">
        <ele>770.6</ele>
        <time>2018-12-29T13:19:34Z</time>
      </trkpt>
      <trkpt lat="45.82454" lon="3.00513">
        <ele>771</ele>
        <time>2018-12-29T13:19:35Z</time>
      </trkpt>
      <trkpt lat="45.82452" lon="3.00512">
        <ele>771.4</ele>
        <time>2018-12-29T13:19:36Z</time>
      </trkpt>
      <trkpt lat="45.82449" lon="3.00511">
        <ele>771.8</ele>
        <time>2018-12-29T13:19:37Z</time>
      </trkpt>
      <trkpt lat="45.82447" lon="3.0051">
        <ele>771.8</ele>
        <time>2018-12-29T13:19:38Z</time>
      </trkpt>
      <trkpt lat="45.82432" lon="3.00497">
        <ele>772.2</ele>
        <time>2018-12-29T13:19:45Z</time>
      </trkpt>
      <trkpt lat="45.8243" lon="3.00495">
        <ele>772.6</ele>
        <time>2018-12-29T13:19:46Z</time>
      </trkpt>
      <trkpt lat="45.82428" lon="3.00493">
        <ele>773</ele>
        <time>2018-12-29T13:19:47Z</time>
      </trkpt>
      <trkpt lat="45.82426" lon="3.00491">
        <ele>773.4</ele>
        <time>2018-12-29T13:19:48Z</time>
      </trkpt>
      <trkpt lat="45.82424" lon="3.00489">
        <ele>773.8</ele>
        <time>2018-12-29T13:19:49Z</time>
      </trkpt>
      <trkpt lat="45.82413" lon="3.00482">
        <ele>773.8</ele>
        <time>2018-12-29T13:19:54Z</time>
      </trkpt>
      <trkpt lat="45.82399" lon="3.00479">
        <ele>773.8</ele>
        <time>2018-12-29T13:20:01Z</time>
      </trkpt>
      <trkpt lat="45.82381" lon="3.00483">
        <ele>773.8</ele>
        <time>2018-12-29T13:20:08Z</time>
      </trkpt>
      <trkpt lat="45.82358" lon="3.00495">
        <ele>773.8</ele>
        <time>2018-12-29T13:20:15Z</time>
      </trkpt>
      <trkpt lat="45.82353" lon="3.00497">
        <ele>773.4</ele>
        <time>2018-12-29T13:20:16Z</time>
      </trkpt>
      <trkpt lat="45.82348" lon="3.00499">
        <ele>773</ele>
        <time>2018-12-29T13:20:17Z</time>
      </trkpt>
      <trkpt lat="45.82342" lon="3.00501">
        <ele>772.6</ele>
        <time>2018-12-29T13:20:18Z</time>
      </trkpt>
      <trkpt lat="45.82337" lon="3.00503">
        <ele>772.2</ele>
        <time>2018-12-29T13:20:19Z</time>
      </trkpt>
      <trkpt lat="45.82333" lon="3.00505">
        <ele>771.8</ele>
        <time>2018-12-29T13:20:20Z</time>
      </trkpt>
      <trkpt lat="45.8233" lon="3.00506">
        <ele>771.4</ele>
        <time>2018-12-29T13:20:21Z</time>
      </trkpt>
      <trkpt lat="45.82328" lon="3.00507">
        <ele>771</ele>
        <time>2018-12-29T13:20:22Z</time>
      </trkpt>
      <trkpt lat="45.82327" lon="3.00507">
        <ele>770.6</ele>
        <time>2018-12-29T13:20:23Z</time>
      </trkpt>
      <trkpt lat="45.82327" lon="3.00507">
        <ele>770</ele>
        <time>2018-12-29T13:20:24Z</time>
      </trkpt>
      <trkpt lat="45.82326" lon="3.00508">
        <ele>769.6</ele>
        <time>2018-12-29T13:20:49Z</time>
      </trkpt>
      <trkpt lat="45.82321" lon="3.00508">
        <ele>769.6</ele>
        <time>2018-12-29T13:20:52Z</time>
      </trkpt>
      <trkpt lat="45.82309" lon="3.0051">
        <ele>769.6</ele>
        <time>2018-12-29T13:20:59Z</time>
      </trkpt>
      <trkpt lat="45.82298" lon="3.00512">
        <ele>769.6</ele>
        <time>2018-12-29T13:21:05Z</time>
      </trkpt>
      <trkpt lat="45.82288" lon="3.00506">
        <ele>769.6</ele>
        <time>2018-12-29T13:21:11Z</time>
      </trkpt>
      <trkpt lat="45.82287" lon="3.00505">
        <ele>769.6</ele>
        <time>2018-12-29T13:21:13Z</time>
      </trkpt>
      <trkpt lat="45.82285" lon="3.00501">
        <ele>769.6</ele>
        <time>2018-12-29T13:24:56Z</time>
      </trkpt>
      <trkpt lat="45.82284" lon="3.00499">
        <ele>769.6</ele>
        <time>2018-12-29T13:24:57Z</time>
      </trkpt>
      <trkpt lat="45.82279" lon="3.0049">
        <ele>769.6</ele>
        <time>2018-12-29T13:25:01Z</time>
      </trkpt>
      <trkpt lat="45.82277" lon="3.00482">
        <ele>769.6</ele>
        <time>2018-12-29T13:25:04Z</time>
      </trkpt>
      <trkpt lat="45.82276" lon="3.00479">
        <ele>769.6</ele>
        <time>2018-12-29T13:25:05Z</time>
      </trkpt>
      <trkpt lat="45.82273" lon="3.0046">
        <ele>769.6</ele>
        <time>2018-12-29T13:25:10Z</time>
      </trkpt>
      <trkpt lat="45.82269" lon="3.00439">
        <ele>769.6</ele>
        <time>2018-12-29T13:25:15Z</time>
      </trkpt>
      <trkpt lat="45.82268" lon="3.0043">
        <ele>769.6</ele>
        <time>2018-12-29T13:25:17Z</time>
      </trkpt>
      <trkpt lat="45.82267" lon="3.00422">
        <ele>769.6</ele>
        <time>2018-12-29T13:25:19Z</time>
      </trkpt>
      <trkpt lat="45.82262" lon="3.00396">
        <ele>769.6</ele>
        <time>2018-12-29T13:25:24Z</time>
      </trkpt>
      <trkpt lat="45.82256" lon="3.00366">
        <ele>769.6</ele>
        <time>2018-12-29T13:25:29Z</time>
      </trkpt>
      <trkpt lat="45.8225" lon="3.00342">
        <ele>769.2</ele>
        <time>2018-12-29T13:25:33Z</time>
      </trkpt>
      <trkpt lat="45.82249" lon="3.00337">
        <ele>768.8</ele>
        <time>2018-12-29T13:25:34Z</time>
      </trkpt>
      <trkpt lat="45.82247" lon="3.00332">
        <ele>768.4</ele>
        <time>2018-12-29T13:25:35Z</time>
      </trkpt>
      <trkpt lat="45.82246" lon="3.00327">
        <ele>768</ele>
        <time>2018-12-29T13:25:36Z</time>
      </trkpt>
      <trkpt lat="45.82245" lon="3.00323">
        <ele>767.6</ele>
        <time>2018-12-29T13:25:37Z</time>
      </trkpt>
      <trkpt lat="45.82244" lon="3.00313">
        <ele>767.6</ele>
        <time>2018-12-29T13:25:39Z</time>
      </trkpt>
      <trkpt lat="45.82239" lon="3.00285">
        <ele>767.6</ele>
        <time>2018-12-29T13:25:44Z</time>
      </trkpt>
      <trkpt lat="45.82235" lon="3.00258">
        <ele>767.2</ele>
        <time>2018-12-29T13:25:48Z</time>
      </trkpt>
      <trkpt lat="45.82235" lon="3.00252">
        <ele>766.8</ele>
        <time>2018-12-29T13:25:49Z</time>
      </trkpt>
      <trkpt lat="45.82234" lon="3.00245">
        <ele>766.4</ele>
        <time>2018-12-29T13:25:50Z</time>
      </trkpt>
      <trkpt lat="45.82233" lon="3.00239">
        <ele>765.4</ele>
        <time>2018-12-29T13:25:51Z</time>
      </trkpt>
      <trkpt lat="45.82232" lon="3.00231">
        <ele>765.4</ele>
        <time>2018-12-29T13:25:52Z</time>
      </trkpt>
      <trkpt lat="45.82227" lon="3.00192">
        <ele>765</ele>
        <time>2018-12-29T13:25:57Z</time>
      </trkpt>
      <trkpt lat="45.82225" lon="3.00183">
        <ele>764.6</ele>
        <time>2018-12-29T13:25:58Z</time>
      </trkpt>
      <trkpt lat="45.82224" lon="3.00174">
        <ele>764.2</ele>
        <time>2018-12-29T13:25:59Z</time>
      </trkpt>
      <trkpt lat="45.82222" lon="3.00163">
        <ele>763.8</ele>
        <time>2018-12-29T13:26:00Z</time>
      </trkpt>
      <trkpt lat="45.82221" lon="3.00152">
        <ele>763.4</ele>
        <time>2018-12-29T13:26:01Z</time>
      </trkpt>
      <trkpt lat="45.8222" lon="3.00141">
        <ele>763</ele>
        <time>2018-12-29T13:26:02Z</time>
      </trkpt>
      <trkpt lat="45.8222" lon="3.0013">
        <ele>762.6</ele>
        <time>2018-12-29T13:26:03Z</time>
      </trkpt>
      <trkpt lat="45.82219" lon="3.00119">
        <ele>762.2</ele>
        <time>2018-12-29T13:26:04Z</time>
      </trkpt>
      <trkpt lat="45.82219" lon="3.00109">
        <ele>761.8</ele>
        <time>2018-12-29T13:26:05Z</time>
      </trkpt>
      <trkpt lat="45.82218" lon="3.00098">
        <ele>761.4</ele>
        <time>2018-12-29T13:26:06Z</time>
      </trkpt>
      <trkpt lat="45.82216" lon="3.00067">
        <ele>760.8</ele>
        <time>2018-12-29T13:26:09Z</time>
      </trkpt>
      <trkpt lat="45.82216" lon="3.00057">
        <ele>760.4</ele>
        <time>2018-12-29T13:26:10Z</time>
      </trkpt>
      <trkpt lat="45.82216" lon="3.00047">
        <ele>759.8</ele>
        <time>2018-12-29T13:26:11Z</time>
      </trkpt>
      <trkpt lat="45.82215" lon="3.00038">
        <ele>759.4</ele>
        <time>2018-12-29T13:26:12Z</time>
      </trkpt>
      <trkpt lat="45.82215" lon="3.00028">
        <ele>758.8</ele>
        <time>2018-12-29T13:26:13Z</time>
      </trkpt>
      <trkpt lat="45.82212" lon="2.99992">
        <ele>758.8</ele>
        <time>2018-12-29T13:26:17Z</time>
      </trkpt>
      <trkpt lat="45.82207" lon="2.99936">
        <ele>758.8</ele>
        <time>2018-12-29T13:26:24Z</time>
      </trkpt>
      <trkpt lat="45.82203" lon="2.9988">
        <ele>758.8</ele>
        <time>2018-12-29T13:26:31Z</time>
      </trkpt>
      <trkpt lat="45.82202" lon="2.99817">
        <ele>758.8</ele>
        <time>2018-12-29T13:26:39Z</time>
      </trkpt>
      <trkpt lat="45.82204" lon="2.99794">
        <ele>758.8</ele>
        <time>2018-12-29T13:26:42Z</time>
      </trkpt>
      <trkpt lat="45.82208" lon="2.9978">
        <ele>758.8</ele>
        <time>2018-12-29T13:26:44Z</time>
      </trkpt>
      <trkpt lat="45.82214" lon="2.99768">
        <ele>758.8</ele>
        <time>2018-12-29T13:26:46Z</time>
      </trkpt>
      <trkpt lat="45.82217" lon="2.99762">
        <ele>758.8</ele>
        <time>2018-12-29T13:26:47Z</time>
      </trkpt>
      <trkpt lat="45.82223" lon="2.99748">
        <ele>758.8</ele>
        <time>2018-12-29T13:26:49Z</time>
      </trkpt>
      <trkpt lat="45.82225" lon="2.99741">
        <ele>758.8</ele>
        <time>2018-12-29T13:26:50Z</time>
      </trkpt>
      <trkpt lat="45.82231" lon="2.99718">
        <ele>758.8</ele>
        <time>2018-12-29T13:26:53Z</time>
      </trkpt>
      <trkpt lat="45.82233" lon="2.9971">
        <ele>758.8</ele>
        <time>2018-12-29T13:26:54Z</time>
      </trkpt>
      <trkpt lat="45.82245" lon="2.99654">
        <ele>758.8</ele>
        <time>2018-12-29T13:27:01Z</time>
      </trkpt>
      <trkpt lat="45.82249" lon="2.99614">
        <ele>758.8</ele>
        <time>2018-12-29T13:27:06Z</time>
      </trkpt>
      <trkpt lat="45.82249" lon="2.99606">
        <ele>758.8</ele>
        <time>2018-12-29T13:27:07Z</time>
      </trkpt>
      <trkpt lat="45.82255" lon="2.99563">
        <ele>758.8</ele>
        <time>2018-12-29T13:27:13Z</time>
      </trkpt>
      <trkpt lat="45.82255" lon="2.99556">
        <ele>758.8</ele>
        <time>2018-12-29T13:27:14Z</time>
      </trkpt>
      <trkpt lat="45.82257" lon="2.99536">
        <ele>758.8</ele>
        <time>2018-12-29T13:27:18Z</time>
      </trkpt>
      <trkpt lat="45.82258" lon="2.9953">
        <ele>758.8</ele>
        <time>2018-12-29T13:27:19Z</time>
      </trkpt>
      <trkpt lat="45.82258" lon="2.99516">
        <ele>758.8</ele>
        <time>2018-12-29T13:27:22Z</time>
      </trkpt>
      <trkpt lat="45.82255" lon="2.99508">
        <ele>758.8</ele>
        <time>2018-12-29T13:27:26Z</time>
      </trkpt>
      <trkpt lat="45.8225" lon="2.99505">
        <ele>758.8</ele>
        <time>2018-12-29T13:27:30Z</time>
      </trkpt>
      <trkpt lat="45.82249" lon="2.99505">
        <ele>758.8</ele>
        <time>2018-12-29T13:27:31Z</time>
      </trkpt>
      <trkpt lat="45.82243" lon="2.99506">
        <ele>758.8</ele>
        <time>2018-12-29T13:27:36Z</time>
      </trkpt>
      <trkpt lat="45.82243" lon="2.99506">
        <ele>758.8</ele>
        <time>2018-12-29T13:27:37Z</time>
      </trkpt>
      <trkpt lat="45.82241" lon="2.99505">
        <ele>758.8</ele>
        <time>2018-12-29T13:28:04Z</time>
      </trkpt>
      <trkpt lat="45.82238" lon="2.99505">
        <ele>758.8</ele>
        <time>2018-12-29T13:28:06Z</time>
      </trkpt>
      <trkpt lat="45.82228" lon="2.99508">
        <ele>758.8</ele>
        <time>2018-12-29T13:28:11Z</time>
      </trkpt>
      <trkpt lat="45.82207" lon="2.99505">
        <ele>758.8</ele>
        <time>2018-12-29T13:28:19Z</time>
      </trkpt>
      <trkpt lat="45.82184" lon="2.99503">
        <ele>758.8</ele>
        <time>2018-12-29T13:28:26Z</time>
      </trkpt>
      <trkpt lat="45.82157" lon="2.99499">
        <ele>758.8</ele>
        <time>2018-12-29T13:28:34Z</time>
      </trkpt>
      <trkpt lat="45.82132" lon="2.99499">
        <ele>758.8</ele>
        <time>2018-12-29T13:28:41Z</time>
      </trkpt>
      <trkpt lat="45.82108" lon="2.99497">
        <ele>758.8</ele>
        <time>2018-12-29T13:28:48Z</time>
      </trkpt>
      <trkpt lat="45.82085" lon="2.99503">
        <ele>758.8</ele>
        <time>2018-12-29T13:28:55Z</time>
      </trkpt>
      <trkpt lat="45.82068" lon="2.99503">
        <ele>758.8</ele>
        <time>2018-12-29T13:29:00Z</time>
      </trkpt>
      <trkpt lat="45.8205" lon="2.99501">
        <ele>758.8</ele>
        <time>2018-12-29T13:29:05Z</time>
      </trkpt>
      <trkpt lat="45.82028" lon="2.995">
        <ele>758.8</ele>
        <time>2018-12-29T13:29:11Z</time>
      </trkpt>
      <trkpt lat="45.82007" lon="2.99495">
        <ele>758.8</ele>
        <time>2018-12-29T13:29:17Z</time>
      </trkpt>
      <trkpt lat="45.82004" lon="2.99494">
        <ele>759.4</ele>
        <time>2018-12-29T13:29:18Z</time>
      </trkpt>
      <trkpt lat="45.82001" lon="2.99493">
        <ele>759.8</ele>
        <time>2018-12-29T13:29:19Z</time>
      </trkpt>
      <trkpt lat="45.81999" lon="2.99492">
        <ele>760.2</ele>
        <time>2018-12-29T13:29:20Z</time>
      </trkpt>
      <trkpt lat="45.81996" lon="2.99491">
        <ele>760.6</ele>
        <time>2018-12-29T13:29:21Z</time>
      </trkpt>
      <trkpt lat="45.81994" lon="2.99489">
        <ele>761</ele>
        <time>2018-12-29T13:29:22Z</time>
      </trkpt>
      <trkpt lat="45.8199" lon="2.99488">
        <ele>761</ele>
        <time>2018-12-29T13:29:23Z</time>
      </trkpt>
      <trkpt lat="45.81972" lon="2.99482">
        <ele>761</ele>
        <time>2018-12-29T13:29:29Z</time>
      </trkpt>
      <trkpt lat="45.81953" lon="2.99477">
        <ele>761</ele>
        <time>2018-12-29T13:29:35Z</time>
      </trkpt>
      <trkpt lat="45.81933" lon="2.99473">
        <ele>761</ele>
        <time>2018-12-29T13:29:41Z</time>
      </trkpt>
      <trkpt lat="45.8191" lon="2.99462">
        <ele>761</ele>
        <time>2018-12-29T13:29:48Z</time>
      </trkpt>
      <trkpt lat="45.81892" lon="2.99455">
        <ele>761</ele>
        <time>2018-12-29T13:29:53Z</time>
      </trkpt>
      <trkpt lat="45.8187" lon="2.9945">
        <ele>761</ele>
        <time>2018-12-29T13:29:59Z</time>
      </trkpt>
      <trkpt lat="45.81849" lon="2.99445">
        <ele>761</ele>
        <time>2018-12-29T13:30:05Z</time>
      </trkpt>
      <trkpt lat="45.81823" lon="2.99438">
        <ele>761</ele>
        <time>2018-12-29T13:30:12Z</time>
      </trkpt>
      <trkpt lat="45.81808" lon="2.99435">
        <ele>761.4</ele>
        <time>2018-12-29T13:30:16Z</time>
      </trkpt>
      <trkpt lat="45.81805" lon="2.99434">
        <ele>761.8</ele>
        <time>2018-12-29T13:30:17Z</time>
      </trkpt>
      <trkpt lat="45.81801" lon="2.99434">
        <ele>762.2</ele>
        <time>2018-12-29T13:30:18Z</time>
      </trkpt>
      <trkpt lat="45.81797" lon="2.99433">
        <ele>762.6</ele>
        <time>2018-12-29T13:30:19Z</time>
      </trkpt>
      <trkpt lat="45.81794" lon="2.99432">
        <ele>763.2</ele>
        <time>2018-12-29T13:30:20Z</time>
      </trkpt>
      <trkpt lat="45.81773" lon="2.9943">
        <ele>763.2</ele>
        <time>2018-12-29T13:30:26Z</time>
      </trkpt>
      <trkpt lat="45.81758" lon="2.99429">
        <ele>763.6</ele>
        <time>2018-12-29T13:30:30Z</time>
      </trkpt>
      <trkpt lat="45.81754" lon="2.99429">
        <ele>764</ele>
        <time>2018-12-29T13:30:31Z</time>
      </trkpt>
      <trkpt lat="45.81751" lon="2.99428">
        <ele>764.4</ele>
        <time>2018-12-29T13:30:32Z</time>
      </trkpt>
      <trkpt lat="45.81747" lon="2.99427">
        <ele>764.8</ele>
        <time>2018-12-29T13:30:33Z</time>
      </trkpt>
      <trkpt lat="45.81744" lon="2.99427">
        <ele>765.2</ele>
        <time>2018-12-29T13:30:34Z</time>
      </trkpt>
      <trkpt lat="45.81733" lon="2.99425">
        <ele>765.2</ele>
        <time>2018-12-29T13:30:37Z</time>
      </trkpt>
      <trkpt lat="45.81727" lon="2.99423">
        <ele>765.6</ele>
        <time>2018-12-29T13:30:39Z</time>
      </trkpt>
      <trkpt lat="45.81726" lon="2.99421">
        <ele>766.2</ele>
        <time>2018-12-29T13:30:40Z</time>
      </trkpt>
      <trkpt lat="45.81724" lon="2.99419">
        <ele>766.6</ele>
        <time>2018-12-29T13:30:41Z</time>
      </trkpt>
      <trkpt lat="45.81722" lon="2.99417">
        <ele>767.2</ele>
        <time>2018-12-29T13:30:42Z</time>
      </trkpt>
      <trkpt lat="45.8172" lon="2.99415">
        <ele>767.6</ele>
        <time>2018-12-29T13:30:43Z</time>
      </trkpt>
      <trkpt lat="45.81711" lon="2.99411">
        <ele>767.6</ele>
        <time>2018-12-29T13:30:46Z</time>
      </trkpt>
      <trkpt lat="45.81699" lon="2.99407">
        <ele>767.6</ele>
        <time>2018-12-29T13:30:50Z</time>
      </trkpt>
      <trkpt lat="45.81689" lon="2.99405">
        <ele>768.2</ele>
        <time>2018-12-29T13:30:54Z</time>
      </trkpt>
      <trkpt lat="45.81688" lon="2.99404">
        <ele>768.6</ele>
        <time>2018-12-29T13:30:55Z</time>
      </trkpt>
      <trkpt lat="45.81685" lon="2.99404">
        <ele>769</ele>
        <time>2018-12-29T13:30:56Z</time>
      </trkpt>
      <trkpt lat="45.81682" lon="2.99406">
        <ele>769.4</ele>
        <time>2018-12-29T13:30:57Z</time>
      </trkpt>
      <trkpt lat="45.8168" lon="2.99406">
        <ele>769.8</ele>
        <time>2018-12-29T13:30:58Z</time>
      </trkpt>
      <trkpt lat="45.81668" lon="2.99407">
        <ele>769.8</ele>
        <time>2018-12-29T13:31:03Z</time>
      </trkpt>
      <trkpt lat="45.81665" lon="2.99406">
        <ele>769.8</ele>
        <time>2018-12-29T13:31:04Z</time>
      </trkpt>
      <trkpt lat="45.81663" lon="2.99406">
        <ele>770.2</ele>
        <time>2018-12-29T13:31:05Z</time>
      </trkpt>
      <trkpt lat="45.8166" lon="2.99405">
        <ele>770.8</ele>
        <time>2018-12-29T13:31:06Z</time>
      </trkpt>
      <trkpt lat="45.81657" lon="2.99404">
        <ele>771.2</ele>
        <time>2018-12-29T13:31:07Z</time>
      </trkpt>
      <trkpt lat="45.81655" lon="2.99403">
        <ele>771.6</ele>
        <time>2018-12-29T13:31:08Z</time>
      </trkpt>
      <trkpt lat="45.81652" lon="2.99403">
        <ele>772</ele>
        <time>2018-12-29T13:31:09Z</time>
      </trkpt>
      <trkpt lat="45.81641" lon="2.99404">
        <ele>772</ele>
        <time>2018-12-29T13:31:14Z</time>
      </trkpt>
      <trkpt lat="45.81631" lon="2.99403">
        <ele>772</ele>
        <time>2018-12-29T13:31:18Z</time>
      </trkpt>
      <trkpt lat="45.81622" lon="2.99402">
        <ele>772.4</ele>
        <time>2018-12-29T13:31:22Z</time>
      </trkpt>
      <trkpt lat="45.81621" lon="2.99403">
        <ele>772.8</ele>
        <time>2018-12-29T13:31:23Z</time>
      </trkpt>
      <trkpt lat="45.81618" lon="2.99403">
        <ele>773.2</ele>
        <time>2018-12-29T13:31:24Z</time>
      </trkpt>
      <trkpt lat="45.81616" lon="2.99402">
        <ele>773.6</ele>
        <time>2018-12-29T13:31:25Z</time>
      </trkpt>
      <trkpt lat="45.81613" lon="2.99402">
        <ele>774</ele>
        <time>2018-12-29T13:31:26Z</time>
      </trkpt>
      <trkpt lat="45.81609" lon="2.99403">
        <ele>774</ele>
        <time>2018-12-29T13:31:28Z</time>
      </trkpt>
      <trkpt lat="45.81604" lon="2.99403">
        <ele>774</ele>
        <time>2018-12-29T13:31:30Z</time>
      </trkpt>
      <trkpt lat="45.81598" lon="2.99403">
        <ele>774</ele>
        <time>2018-12-29T13:31:33Z</time>
      </trkpt>
      <trkpt lat="45.81593" lon="2.99403">
        <ele>774.4</ele>
        <time>2018-12-29T13:31:35Z</time>
      </trkpt>
      <trkpt lat="45.81591" lon="2.99403">
        <ele>775.4</ele>
        <time>2018-12-29T13:31:36Z</time>
      </trkpt>
      <trkpt lat="45.81589" lon="2.99403">
        <ele>775.8</ele>
        <time>2018-12-29T13:31:37Z</time>
      </trkpt>
      <trkpt lat="45.81586" lon="2.99403">
        <ele>776.2</ele>
        <time>2018-12-29T13:31:38Z</time>
      </trkpt>
      <trkpt lat="45.81577" lon="2.99404">
        <ele>776.2</ele>
        <time>2018-12-29T13:31:42Z</time>
      </trkpt>
      <trkpt lat="45.81569" lon="2.99404">
        <ele>776.2</ele>
        <time>2018-12-29T13:31:46Z</time>
      </trkpt>
      <trkpt lat="45.81562" lon="2.99405">
        <ele>776.6</ele>
        <time>2018-12-29T13:31:49Z</time>
      </trkpt>
      <trkpt lat="45.8156" lon="2.99405">
        <ele>777</ele>
        <time>2018-12-29T13:31:50Z</time>
      </trkpt>
      <trkpt lat="45.81558" lon="2.99406">
        <ele>777.4</ele>
        <time>2018-12-29T13:31:51Z</time>
      </trkpt>
      <trkpt lat="45.81556" lon="2.99407">
        <ele>777.8</ele>
        <time>2018-12-29T13:31:52Z</time>
      </trkpt>
      <trkpt lat="45.81553" lon="2.99408">
        <ele>778.2</ele>
        <time>2018-12-29T13:31:53Z</time>
      </trkpt>
      <trkpt lat="45.81548" lon="2.99409">
        <ele>778.2</ele>
        <time>2018-12-29T13:31:56Z</time>
      </trkpt>
      <trkpt lat="45.8154" lon="2.99408">
        <ele>778.2</ele>
        <time>2018-12-29T13:32:03Z</time>
      </trkpt>
      <trkpt lat="45.8154" lon="2.99398">
        <ele>778.2</ele>
        <time>2018-12-29T13:32:08Z</time>
      </trkpt>
      <trkpt lat="45.81541" lon="2.99396">
        <ele>778.2</ele>
        <time>2018-12-29T13:32:09Z</time>
      </trkpt>
      <trkpt lat="45.81539" lon="2.99377">
        <ele>778.2</ele>
        <time>2018-12-29T13:32:15Z</time>
      </trkpt>
      <trkpt lat="45.81531" lon="2.99366">
        <ele>778.2</ele>
        <time>2018-12-29T13:32:20Z</time>
      </trkpt>
      <trkpt lat="45.81531" lon="2.99366">
        <ele>778.2</ele>
        <time>2018-12-29T13:32:21Z</time>
      </trkpt>
      <trkpt lat="45.81532" lon="2.99369">
        <ele>778.2</ele>
        <time>2018-12-29T13:32:57Z</time>
      </trkpt>
      <trkpt lat="45.81534" lon="2.99374">
        <ele>778.2</ele>
        <time>2018-12-29T13:32:59Z</time>
      </trkpt>
      <trkpt lat="45.8154" lon="2.99396">
        <ele>778.2</ele>
        <time>2018-12-29T13:33:07Z</time>
      </trkpt>
      <trkpt lat="45.81539" lon="2.99398">
        <ele>778.2</ele>
        <time>2018-12-29T13:33:08Z</time>
      </trkpt>
      <trkpt lat="45.81534" lon="2.99401">
        <ele>778.2</ele>
        <time>2018-12-29T13:33:11Z</time>
      </trkpt>
      <trkpt lat="45.81528" lon="2.994">
        <ele>778.2</ele>
        <time>2018-12-29T13:33:14Z</time>
      </trkpt>
      <trkpt lat="45.81524" lon="2.99399">
        <ele>778.2</ele>
        <time>2018-12-29T13:33:16Z</time>
      </trkpt>
      <trkpt lat="45.81519" lon="2.99401">
        <ele>778.6</ele>
        <time>2018-12-29T13:33:18Z</time>
      </trkpt>
      <trkpt lat="45.81516" lon="2.99401">
        <ele>779</ele>
        <time>2018-12-29T13:33:19Z</time>
      </trkpt>
      <trkpt lat="45.81514" lon="2.994">
        <ele>779.4</ele>
        <time>2018-12-29T13:33:20Z</time>
      </trkpt>
      <trkpt lat="45.81513" lon="2.99401">
        <ele>779.8</ele>
        <time>2018-12-29T13:33:21Z</time>
      </trkpt>
      <trkpt lat="45.81511" lon="2.994">
        <ele>780.2</ele>
        <time>2018-12-29T13:33:22Z</time>
      </trkpt>
      <trkpt lat="45.81505" lon="2.99401">
        <ele>780.2</ele>
        <time>2018-12-29T13:33:25Z</time>
      </trkpt>
      <trkpt lat="45.815" lon="2.994">
        <ele>780.2</ele>
        <time>2018-12-29T13:33:28Z</time>
      </trkpt>
      <trkpt lat="45.81497" lon="2.99401">
        <ele>780.2</ele>
        <time>2018-12-29T13:33:29Z</time>
      </trkpt>
      <trkpt lat="45.81487" lon="2.99401">
        <ele>780.2</ele>
        <time>2018-12-29T13:33:34Z</time>
      </trkpt>
      <trkpt lat="45.81484" lon="2.99401">
        <ele>780.2</ele>
        <time>2018-12-29T13:33:36Z</time>
      </trkpt>
      <trkpt lat="45.81481" lon="2.99402">
        <ele>780.6</ele>
        <time>2018-12-29T13:33:37Z</time>
      </trkpt>
      <trkpt lat="45.8148" lon="2.99403">
        <ele>781</ele>
        <time>2018-12-29T13:33:38Z</time>
      </trkpt>
      <trkpt lat="45.81478" lon="2.99404">
        <ele>781.4</ele>
        <time>2018-12-29T13:33:39Z</time>
      </trkpt>
      <trkpt lat="45.81476" lon="2.99405">
        <ele>782.4</ele>
        <time>2018-12-29T13:33:40Z</time>
      </trkpt>
      <trkpt lat="45.81468" lon="2.99404">
        <ele>782.4</ele>
        <time>2018-12-29T13:33:45Z</time>
      </trkpt>
      <trkpt lat="45.81459" lon="2.99406">
        <ele>782.4</ele>
        <time>2018-12-29T13:33:52Z</time>
      </trkpt>
      <trkpt lat="45.81458" lon="2.99406">
        <ele>782.4</ele>
        <time>2018-12-29T13:33:53Z</time>
      </trkpt>
      <trkpt lat="45.81451" lon="2.99407">
        <ele>782.4</ele>
        <time>2018-12-29T13:33:57Z</time>
      </trkpt>
      <trkpt lat="45.81447" lon="2.99407">
        <ele>782.8</ele>
        <time>2018-12-29T13:33:59Z</time>
      </trkpt>
      <trkpt lat="45.81445" lon="2.99407">
        <ele>783.2</ele>
        <time>2018-12-29T13:34:00Z</time>
      </trkpt>
      <trkpt lat="45.81443" lon="2.99408">
        <ele>783.6</ele>
        <time>2018-12-29T13:34:01Z</time>
      </trkpt>
      <trkpt lat="45.8144" lon="2.99408">
        <ele>784</ele>
        <time>2018-12-29T13:34:02Z</time>
      </trkpt>
      <trkpt lat="45.81438" lon="2.99408">
        <ele>784.4</ele>
        <time>2018-12-29T13:34:03Z</time>
      </trkpt>
      <trkpt lat="45.81429" lon="2.99408">
        <ele>784.4</ele>
        <time>2018-12-29T13:34:08Z</time>
      </trkpt>
      <trkpt lat="45.81418" lon="2.99409">
        <ele>784.4</ele>
        <time>2018-12-29T13:34:13Z</time>
      </trkpt>
      <trkpt lat="45.81415" lon="2.99409">
        <ele>784.8</ele>
        <time>2018-12-29T13:34:15Z</time>
      </trkpt>
      <trkpt lat="45.81414" lon="2.99409">
        <ele>785.2</ele>
        <time>2018-12-29T13:34:16Z</time>
      </trkpt>
      <trkpt lat="45.81412" lon="2.99409">
        <ele>785.6</ele>
        <time>2018-12-29T13:34:17Z</time>
      </trkpt>
      <trkpt lat="45.81412" lon="2.99409">
        <ele>786</ele>
        <time>2018-12-29T13:34:18Z</time>
      </trkpt>
      <trkpt lat="45.8141" lon="2.99409">
        <ele>786.4</ele>
        <time>2018-12-29T13:34:19Z</time>
      </trkpt>
      <trkpt lat="45.81408" lon="2.99411">
        <ele>786.4</ele>
        <time>2018-12-29T13:34:20Z</time>
      </trkpt>
      <trkpt lat="45.81406" lon="2.99412">
        <ele>786.4</ele>
        <time>2018-12-29T13:34:21Z</time>
      </trkpt>
      <trkpt lat="45.814" lon="2.99413">
        <ele>786.4</ele>
        <time>2018-12-29T13:34:24Z</time>
      </trkpt>
      <trkpt lat="45.81396" lon="2.99414">
        <ele>786.4</ele>
        <time>2018-12-29T13:34:25Z</time>
      </trkpt>
      <trkpt lat="45.81387" lon="2.99415">
        <ele>786.8</ele>
        <time>2018-12-29T13:34:29Z</time>
      </trkpt>
      <trkpt lat="45.81385" lon="2.99415">
        <ele>787.8</ele>
        <time>2018-12-29T13:34:30Z</time>
      </trkpt>
      <trkpt lat="45.81382" lon="2.99415">
        <ele>788.2</ele>
        <time>2018-12-29T13:34:31Z</time>
      </trkpt>
      <trkpt lat="45.8138" lon="2.99416">
        <ele>788.6</ele>
        <time>2018-12-29T13:34:32Z</time>
      </trkpt>
      <trkpt lat="45.81373" lon="2.99416">
        <ele>788.6</ele>
        <time>2018-12-29T13:34:35Z</time>
      </trkpt>
      <trkpt lat="45.81359" lon="2.99418">
        <ele>788.6</ele>
        <time>2018-12-29T13:34:42Z</time>
      </trkpt>
      <trkpt lat="45.81356" lon="2.9942">
        <ele>789</ele>
        <time>2018-12-29T13:34:44Z</time>
      </trkpt>
      <trkpt lat="45.81354" lon="2.9942">
        <ele>789.4</ele>
        <time>2018-12-29T13:34:45Z</time>
      </trkpt>
      <trkpt lat="45.81352" lon="2.99422">
        <ele>789.8</ele>
        <time>2018-12-29T13:34:46Z</time>
      </trkpt>
      <trkpt lat="45.8135" lon="2.99423">
        <ele>790.2</ele>
        <time>2018-12-29T13:34:47Z</time>
      </trkpt>
      <trkpt lat="45.81348" lon="2.99424">
        <ele>790.6</ele>
        <time>2018-12-29T13:34:48Z</time>
      </trkpt>
      <trkpt lat="45.81343" lon="2.99425">
        <ele>790.6</ele>
        <time>2018-12-29T13:34:50Z</time>
      </trkpt>
      <trkpt lat="45.81331" lon="2.99428">
        <ele>790.6</ele>
        <time>2018-12-29T13:34:56Z</time>
      </trkpt>
      <trkpt lat="45.8133" lon="2.99427">
        <ele>790.6</ele>
        <time>2018-12-29T13:34:57Z</time>
      </trkpt>
      <trkpt lat="45.81327" lon="2.99427">
        <ele>791</ele>
        <time>2018-12-29T13:34:58Z</time>
      </trkpt>
      <trkpt lat="45.81325" lon="2.99427">
        <ele>791.4</ele>
        <time>2018-12-29T13:34:59Z</time>
      </trkpt>
      <trkpt lat="45.81322" lon="2.99427">
        <ele>791.8</ele>
        <time>2018-12-29T13:35:00Z</time>
      </trkpt>
      <trkpt lat="45.8132" lon="2.99428">
        <ele>792.2</ele>
        <time>2018-12-29T13:35:01Z</time>
      </trkpt>
      <trkpt lat="45.81317" lon="2.99428">
        <ele>792.8</ele>
        <time>2018-12-29T13:35:02Z</time>
      </trkpt>
      <trkpt lat="45.81314" lon="2.99429">
        <ele>792.8</ele>
        <time>2018-12-29T13:35:04Z</time>
      </trkpt>
      <trkpt lat="45.81311" lon="2.9943">
        <ele>792.8</ele>
        <time>2018-12-29T13:35:05Z</time>
      </trkpt>
      <trkpt lat="45.81299" lon="2.99432">
        <ele>792.8</ele>
        <time>2018-12-29T13:35:10Z</time>
      </trkpt>
      <trkpt lat="45.81297" lon="2.99432">
        <ele>792.8</ele>
        <time>2018-12-29T13:35:11Z</time>
      </trkpt>
      <trkpt lat="45.81288" lon="2.99434">
        <ele>793.2</ele>
        <time>2018-12-29T13:35:15Z</time>
      </trkpt>
      <trkpt lat="45.81285" lon="2.99435">
        <ele>793.6</ele>
        <time>2018-12-29T13:35:16Z</time>
      </trkpt>
      <trkpt lat="45.81282" lon="2.99435">
        <ele>794</ele>
        <time>2018-12-29T13:35:17Z</time>
      </trkpt>
      <trkpt lat="45.8128" lon="2.99436">
        <ele>794.4</ele>
        <time>2018-12-29T13:35:18Z</time>
      </trkpt>
      <trkpt lat="45.81278" lon="2.99436">
        <ele>794.8</ele>
        <time>2018-12-29T13:35:19Z</time>
      </trkpt>
      <trkpt lat="45.81276" lon="2.99437">
        <ele>794.8</ele>
        <time>2018-12-29T13:35:20Z</time>
      </trkpt>
      <trkpt lat="45.81266" lon="2.99438">
        <ele>794.8</ele>
        <time>2018-12-29T13:35:24Z</time>
      </trkpt>
      <trkpt lat="45.81263" lon="2.99438">
        <ele>794.8</ele>
        <time>2018-12-29T13:35:25Z</time>
      </trkpt>
      <trkpt lat="45.81258" lon="2.99438">
        <ele>795.2</ele>
        <time>2018-12-29T13:35:27Z</time>
      </trkpt>
      <trkpt lat="45.81256" lon="2.99437">
        <ele>795.6</ele>
        <time>2018-12-29T13:35:28Z</time>
      </trkpt>
      <trkpt lat="45.81254" lon="2.99437">
        <ele>796</ele>
        <time>2018-12-29T13:35:29Z</time>
      </trkpt>
      <trkpt lat="45.81252" lon="2.99437">
        <ele>796.4</ele>
        <time>2018-12-29T13:35:30Z</time>
      </trkpt>
      <trkpt lat="45.81249" lon="2.99437">
        <ele>796.8</ele>
        <time>2018-12-29T13:35:31Z</time>
      </trkpt>
      <trkpt lat="45.81236" lon="2.9944">
        <ele>796.8</ele>
        <time>2018-12-29T13:35:36Z</time>
      </trkpt>
      <trkpt lat="45.81221" lon="2.99443">
        <ele>797.2</ele>
        <time>2018-12-29T13:35:42Z</time>
      </trkpt>
      <trkpt lat="45.81219" lon="2.99443">
        <ele>797.6</ele>
        <time>2018-12-29T13:35:43Z</time>
      </trkpt>
      <trkpt lat="45.81217" lon="2.99444">
        <ele>798.6</ele>
        <time>2018-12-29T13:35:44Z</time>
      </trkpt>
      <trkpt lat="45.81215" lon="2.99444">
        <ele>799</ele>
        <time>2018-12-29T13:35:45Z</time>
      </trkpt>
      <trkpt lat="45.81211" lon="2.99447">
        <ele>799</ele>
        <time>2018-12-29T13:35:47Z</time>
      </trkpt>
      <trkpt lat="45.81204" lon="2.99447">
        <ele>799</ele>
        <time>2018-12-29T13:35:50Z</time>
      </trkpt>
      <trkpt lat="45.81195" lon="2.99448">
        <ele>799</ele>
        <time>2018-12-29T13:35:53Z</time>
      </trkpt>
      <trkpt lat="45.81194" lon="2.99447">
        <ele>799.4</ele>
        <time>2018-12-29T13:35:54Z</time>
      </trkpt>
      <trkpt lat="45.81191" lon="2.99448">
        <ele>799.8</ele>
        <time>2018-12-29T13:35:55Z</time>
      </trkpt>
      <trkpt lat="45.81189" lon="2.99448">
        <ele>800.2</ele>
        <time>2018-12-29T13:35:56Z</time>
      </trkpt>
      <trkpt lat="45.81187" lon="2.99448">
        <ele>800.6</ele>
        <time>2018-12-29T13:35:57Z</time>
      </trkpt>
      <trkpt lat="45.81185" lon="2.99449">
        <ele>801</ele>
        <time>2018-12-29T13:35:58Z</time>
      </trkpt>
      <trkpt lat="45.81177" lon="2.99449">
        <ele>801</ele>
        <time>2018-12-29T13:36:02Z</time>
      </trkpt>
      <trkpt lat="45.81167" lon="2.99449">
        <ele>801.4</ele>
        <time>2018-12-29T13:36:07Z</time>
      </trkpt>
      <trkpt lat="45.81164" lon="2.99449">
        <ele>802.2</ele>
        <time>2018-12-29T13:36:08Z</time>
      </trkpt>
      <trkpt lat="45.81161" lon="2.99449">
        <ele>802.6</ele>
        <time>2018-12-29T13:36:09Z</time>
      </trkpt>
      <trkpt lat="45.81159" lon="2.99449">
        <ele>803</ele>
        <time>2018-12-29T13:36:10Z</time>
      </trkpt>
      <trkpt lat="45.81153" lon="2.99448">
        <ele>803</ele>
        <time>2018-12-29T13:36:13Z</time>
      </trkpt>
      <trkpt lat="45.81141" lon="2.99446">
        <ele>803</ele>
        <time>2018-12-29T13:36:19Z</time>
      </trkpt>
      <trkpt lat="45.81132" lon="2.99442">
        <ele>803</ele>
        <time>2018-12-29T13:36:23Z</time>
      </trkpt>
      <trkpt lat="45.81128" lon="2.9944">
        <ele>803.4</ele>
        <time>2018-12-29T13:36:25Z</time>
      </trkpt>
      <trkpt lat="45.81126" lon="2.9944">
        <ele>804</ele>
        <time>2018-12-29T13:36:26Z</time>
      </trkpt>
      <trkpt lat="45.81124" lon="2.99439">
        <ele>804.4</ele>
        <time>2018-12-29T13:36:27Z</time>
      </trkpt>
      <trkpt lat="45.81122" lon="2.99437">
        <ele>804.8</ele>
        <time>2018-12-29T13:36:28Z</time>
      </trkpt>
      <trkpt lat="45.8112" lon="2.99436">
        <ele>805.2</ele>
        <time>2018-12-29T13:36:29Z</time>
      </trkpt>
      <trkpt lat="45.8111" lon="2.99433">
        <ele>805.2</ele>
        <time>2018-12-29T13:36:34Z</time>
      </trkpt>
      <trkpt lat="45.81101" lon="2.99428">
        <ele>805.6</ele>
        <time>2018-12-29T13:36:39Z</time>
      </trkpt>
      <trkpt lat="45.81099" lon="2.99426">
        <ele>806</ele>
        <time>2018-12-29T13:36:40Z</time>
      </trkpt>
      <trkpt lat="45.81097" lon="2.99425">
        <ele>806.4</ele>
        <time>2018-12-29T13:36:41Z</time>
      </trkpt>
      <trkpt lat="45.81095" lon="2.99424">
        <ele>806.8</ele>
        <time>2018-12-29T13:36:42Z</time>
      </trkpt>
      <trkpt lat="45.81093" lon="2.99423">
        <ele>807.2</ele>
        <time>2018-12-29T13:36:43Z</time>
      </trkpt>
      <trkpt lat="45.81091" lon="2.99422">
        <ele>807.2</ele>
        <time>2018-12-29T13:36:44Z</time>
      </trkpt>
      <trkpt lat="45.8108" lon="2.99414">
        <ele>807.2</ele>
        <time>2018-12-29T13:36:49Z</time>
      </trkpt>
      <trkpt lat="45.81064" lon="2.99406">
        <ele>807.6</ele>
        <time>2018-12-29T13:36:56Z</time>
      </trkpt>
      <trkpt lat="45.81061" lon="2.99404">
        <ele>808</ele>
        <time>2018-12-29T13:36:57Z</time>
      </trkpt>
      <trkpt lat="45.81057" lon="2.99403">
        <ele>808.8</ele>
        <time>2018-12-29T13:36:58Z</time>
      </trkpt>
      <trkpt lat="45.81055" lon="2.99402">
        <ele>809.2</ele>
        <time>2018-12-29T13:36:59Z</time>
      </trkpt>
      <trkpt lat="45.8105" lon="2.99399">
        <ele>809.2</ele>
        <time>2018-12-29T13:37:01Z</time>
      </trkpt>
      <trkpt lat="45.81034" lon="2.99394">
        <ele>809.2</ele>
        <time>2018-12-29T13:37:07Z</time>
      </trkpt>
      <trkpt lat="45.81026" lon="2.99391">
        <ele>809.6</ele>
        <time>2018-12-29T13:37:10Z</time>
      </trkpt>
      <trkpt lat="45.81024" lon="2.99391">
        <ele>810</ele>
        <time>2018-12-29T13:37:11Z</time>
      </trkpt>
      <trkpt lat="45.81022" lon="2.9939">
        <ele>810.6</ele>
        <time>2018-12-29T13:37:12Z</time>
      </trkpt>
      <trkpt lat="45.81019" lon="2.99389">
        <ele>811</ele>
        <time>2018-12-29T13:37:13Z</time>
      </trkpt>
      <trkpt lat="45.81016" lon="2.99388">
        <ele>811.4</ele>
        <time>2018-12-29T13:37:14Z</time>
      </trkpt>
      <trkpt lat="45.81003" lon="2.99384">
        <ele>811.4</ele>
        <time>2018-12-29T13:37:20Z</time>
      </trkpt>
      <trkpt lat="45.8099" lon="2.9938">
        <ele>811.8</ele>
        <time>2018-12-29T13:37:25Z</time>
      </trkpt>
      <trkpt lat="45.80988" lon="2.99379">
        <ele>812.2</ele>
        <time>2018-12-29T13:37:26Z</time>
      </trkpt>
      <trkpt lat="45.80985" lon="2.99378">
        <ele>812.6</ele>
        <time>2018-12-29T13:37:27Z</time>
      </trkpt>
      <trkpt lat="45.80983" lon="2.99377">
        <ele>813</ele>
        <time>2018-12-29T13:37:28Z</time>
      </trkpt>
      <trkpt lat="45.80981" lon="2.99377">
        <ele>813.4</ele>
        <time>2018-12-29T13:37:29Z</time>
      </trkpt>
      <trkpt lat="45.80966" lon="2.99374">
        <ele>813.4</ele>
        <time>2018-12-29T13:37:35Z</time>
      </trkpt>
      <trkpt lat="45.80964" lon="2.99374">
        <ele>813.8</ele>
        <time>2018-12-29T13:37:36Z</time>
      </trkpt>
      <trkpt lat="45.80962" lon="2.99373">
        <ele>814.2</ele>
        <time>2018-12-29T13:37:37Z</time>
      </trkpt>
      <trkpt lat="45.80961" lon="2.99372">
        <ele>814.6</ele>
        <time>2018-12-29T13:37:38Z</time>
      </trkpt>
      <trkpt lat="45.80959" lon="2.99372">
        <ele>815</ele>
        <time>2018-12-29T13:37:39Z</time>
      </trkpt>
      <trkpt lat="45.80959" lon="2.99372">
        <ele>815.4</ele>
        <time>2018-12-29T13:37:40Z</time>
      </trkpt>
      <trkpt lat="45.80959" lon="2.99371">
        <ele>815.4</ele>
        <time>2018-12-29T13:37:42Z</time>
      </trkpt>
      <trkpt lat="45.80956" lon="2.9937">
        <ele>815.4</ele>
        <time>2018-12-29T13:38:22Z</time>
      </trkpt>
      <trkpt lat="45.80954" lon="2.9937">
        <ele>815.4</ele>
        <time>2018-12-29T13:38:23Z</time>
      </trkpt>
      <trkpt lat="45.80949" lon="2.99369">
        <ele>815.4</ele>
        <time>2018-12-29T13:38:26Z</time>
      </trkpt>
      <trkpt lat="45.80945" lon="2.99367">
        <ele>815.4</ele>
        <time>2018-12-29T13:38:28Z</time>
      </trkpt>
      <trkpt lat="45.80931" lon="2.99362">
        <ele>815.4</ele>
        <time>2018-12-29T13:38:34Z</time>
      </trkpt>
      <trkpt lat="45.80923" lon="2.99359">
        <ele>815.8</ele>
        <time>2018-12-29T13:38:37Z</time>
      </trkpt>
      <trkpt lat="45.80921" lon="2.99359">
        <ele>816.4</ele>
        <time>2018-12-29T13:38:38Z</time>
      </trkpt>
      <trkpt lat="45.80918" lon="2.99359">
        <ele>816.8</ele>
        <time>2018-12-29T13:38:39Z</time>
      </trkpt>
      <trkpt lat="45.80916" lon="2.99359">
        <ele>817.2</ele>
        <time>2018-12-29T13:38:40Z</time>
      </trkpt>
      <trkpt lat="45.80913" lon="2.99359">
        <ele>817.6</ele>
        <time>2018-12-29T13:38:41Z</time>
      </trkpt>
      <trkpt lat="45.80901" lon="2.99356">
        <ele>817.6</ele>
        <time>2018-12-29T13:38:46Z</time>
      </trkpt>
      <trkpt lat="45.80885" lon="2.99355">
        <ele>817.6</ele>
        <time>2018-12-29T13:38:52Z</time>
      </trkpt>
      <trkpt lat="45.8088" lon="2.99354">
        <ele>818</ele>
        <time>2018-12-29T13:38:54Z</time>
      </trkpt>
      <trkpt lat="45.80877" lon="2.99355">
        <ele>818.6</ele>
        <time>2018-12-29T13:38:55Z</time>
      </trkpt>
      <trkpt lat="45.80875" lon="2.99355">
        <ele>819</ele>
        <time>2018-12-29T13:38:56Z</time>
      </trkpt>
      <trkpt lat="45.80873" lon="2.99356">
        <ele>819.4</ele>
        <time>2018-12-29T13:38:57Z</time>
      </trkpt>
      <trkpt lat="45.8087" lon="2.99357">
        <ele>819.8</ele>
        <time>2018-12-29T13:38:58Z</time>
      </trkpt>
      <trkpt lat="45.80858" lon="2.99359">
        <ele>819.8</ele>
        <time>2018-12-29T13:39:02Z</time>
      </trkpt>
      <trkpt lat="45.80843" lon="2.99363">
        <ele>819.8</ele>
        <time>2018-12-29T13:39:07Z</time>
      </trkpt>
      <trkpt lat="45.8084" lon="2.99364">
        <ele>820.2</ele>
        <time>2018-12-29T13:39:08Z</time>
      </trkpt>
      <trkpt lat="45.80837" lon="2.99364">
        <ele>820.6</ele>
        <time>2018-12-29T13:39:09Z</time>
      </trkpt>
      <trkpt lat="45.80834" lon="2.99365">
        <ele>821</ele>
        <time>2018-12-29T13:39:10Z</time>
      </trkpt>
      <trkpt lat="45.80831" lon="2.99366">
        <ele>821.4</ele>
        <time>2018-12-29T13:39:11Z</time>
      </trkpt>
      <trkpt lat="45.80828" lon="2.99366">
        <ele>821.8</ele>
        <time>2018-12-29T13:39:12Z</time>
      </trkpt>
      <trkpt lat="45.80812" lon="2.99371">
        <ele>821.8</ele>
        <time>2018-12-29T13:39:18Z</time>
      </trkpt>
      <trkpt lat="45.80805" lon="2.99373">
        <ele>822.2</ele>
        <time>2018-12-29T13:39:21Z</time>
      </trkpt>
      <trkpt lat="45.80803" lon="2.99373">
        <ele>822.6</ele>
        <time>2018-12-29T13:39:22Z</time>
      </trkpt>
      <trkpt lat="45.80801" lon="2.99374">
        <ele>823</ele>
        <time>2018-12-29T13:39:23Z</time>
      </trkpt>
      <trkpt lat="45.80799" lon="2.99374">
        <ele>823.4</ele>
        <time>2018-12-29T13:39:24Z</time>
      </trkpt>
      <trkpt lat="45.80796" lon="2.99374">
        <ele>823.8</ele>
        <time>2018-12-29T13:39:25Z</time>
      </trkpt>
      <trkpt lat="45.80787" lon="2.99376">
        <ele>823.8</ele>
        <time>2018-12-29T13:39:29Z</time>
      </trkpt>
      <trkpt lat="45.80779" lon="2.99378">
        <ele>824.2</ele>
        <time>2018-12-29T13:39:33Z</time>
      </trkpt>
      <trkpt lat="45.80777" lon="2.99378">
        <ele>824.6</ele>
        <time>2018-12-29T13:39:34Z</time>
      </trkpt>
      <trkpt lat="45.80774" lon="2.9938">
        <ele>825</ele>
        <time>2018-12-29T13:39:35Z</time>
      </trkpt>
      <trkpt lat="45.80772" lon="2.9938">
        <ele>825.4</ele>
        <time>2018-12-29T13:39:36Z</time>
      </trkpt>
      <trkpt lat="45.8077" lon="2.99381">
        <ele>826</ele>
        <time>2018-12-29T13:39:37Z</time>
      </trkpt>
      <trkpt lat="45.80768" lon="2.99381">
        <ele>826</ele>
        <time>2018-12-29T13:39:38Z</time>
      </trkpt>
      <trkpt lat="45.80758" lon="2.99384">
        <ele>826</ele>
        <time>2018-12-29T13:39:43Z</time>
      </trkpt>
      <trkpt lat="45.80747" lon="2.99388">
        <ele>826</ele>
        <time>2018-12-29T13:39:48Z</time>
      </trkpt>
      <trkpt lat="45.80744" lon="2.99389">
        <ele>826.4</ele>
        <time>2018-12-29T13:39:49Z</time>
      </trkpt>
      <trkpt lat="45.80742" lon="2.9939">
        <ele>826.8</ele>
        <time>2018-12-29T13:39:50Z</time>
      </trkpt>
      <trkpt lat="45.8074" lon="2.99391">
        <ele>827.6</ele>
        <time>2018-12-29T13:39:51Z</time>
      </trkpt>
      <trkpt lat="45.80737" lon="2.99391">
        <ele>828</ele>
        <time>2018-12-29T13:39:52Z</time>
      </trkpt>
      <trkpt lat="45.80735" lon="2.9939">
        <ele>828</ele>
        <time>2018-12-29T13:39:53Z</time>
      </trkpt>
      <trkpt lat="45.80731" lon="2.99389">
        <ele>828</ele>
        <time>2018-12-29T13:39:55Z</time>
      </trkpt>
      <trkpt lat="45.80719" lon="2.99389">
        <ele>828</ele>
        <time>2018-12-29T13:40:01Z</time>
      </trkpt>
      <trkpt lat="45.80707" lon="2.99388">
        <ele>828</ele>
        <time>2018-12-29T13:40:07Z</time>
      </trkpt>
      <trkpt lat="45.80694" lon="2.99383">
        <ele>828</ele>
        <time>2018-12-29T13:40:14Z</time>
      </trkpt>
      <trkpt lat="45.80683" lon="2.99379">
        <ele>828</ele>
        <time>2018-12-29T13:40:20Z</time>
      </trkpt>
      <trkpt lat="45.80681" lon="2.99378">
        <ele>828.4</ele>
        <time>2018-12-29T13:40:21Z</time>
      </trkpt>
      <trkpt lat="45.80679" lon="2.99377">
        <ele>828.8</ele>
        <time>2018-12-29T13:40:22Z</time>
      </trkpt>
      <trkpt lat="45.80677" lon="2.99376">
        <ele>829.2</ele>
        <time>2018-12-29T13:40:23Z</time>
      </trkpt>
      <trkpt lat="45.80675" lon="2.99375">
        <ele>829.6</ele>
        <time>2018-12-29T13:40:24Z</time>
      </trkpt>
      <trkpt lat="45.80673" lon="2.99373">
        <ele>830</ele>
        <time>2018-12-29T13:40:25Z</time>
      </trkpt>
      <trkpt lat="45.80668" lon="2.99369">
        <ele>830</ele>
        <time>2018-12-29T13:40:27Z</time>
      </trkpt>
      <trkpt lat="45.80658" lon="2.99359">
        <ele>830</ele>
        <time>2018-12-29T13:40:33Z</time>
      </trkpt>
      <trkpt lat="45.80646" lon="2.99346">
        <ele>830</ele>
        <time>2018-12-29T13:40:39Z</time>
      </trkpt>
      <trkpt lat="45.80641" lon="2.99341">
        <ele>830.6</ele>
        <time>2018-12-29T13:40:42Z</time>
      </trkpt>
      <trkpt lat="45.8064" lon="2.99339">
        <ele>831</ele>
        <time>2018-12-29T13:40:43Z</time>
      </trkpt>
      <trkpt lat="45.80638" lon="2.99338">
        <ele>831.4</ele>
        <time>2018-12-29T13:40:44Z</time>
      </trkpt>
      <trkpt lat="45.80636" lon="2.99336">
        <ele>831.8</ele>
        <time>2018-12-29T13:40:45Z</time>
      </trkpt>
      <trkpt lat="45.80634" lon="2.99334">
        <ele>832.2</ele>
        <time>2018-12-29T13:40:46Z</time>
      </trkpt>
      <trkpt lat="45.80634" lon="2.9933">
        <ele>832.2</ele>
        <time>2018-12-29T13:40:47Z</time>
      </trkpt>
      <trkpt lat="45.8063" lon="2.99325">
        <ele>832.2</ele>
        <time>2018-12-29T13:40:49Z</time>
      </trkpt>
      <trkpt lat="45.80622" lon="2.99311">
        <ele>832.6</ele>
        <time>2018-12-29T13:40:55Z</time>
      </trkpt>
      <trkpt lat="45.80621" lon="2.9931">
        <ele>833</ele>
        <time>2018-12-29T13:40:56Z</time>
      </trkpt>
      <trkpt lat="45.80619" lon="2.99308">
        <ele>833.4</ele>
        <time>2018-12-29T13:40:57Z</time>
      </trkpt>
      <trkpt lat="45.80618" lon="2.99306">
        <ele>833.8</ele>
        <time>2018-12-29T13:40:58Z</time>
      </trkpt>
      <trkpt lat="45.80616" lon="2.99304">
        <ele>834.2</ele>
        <time>2018-12-29T13:40:59Z</time>
      </trkpt>
      <trkpt lat="45.80614" lon="2.99302">
        <ele>834.2</ele>
        <time>2018-12-29T13:41:00Z</time>
      </trkpt>
      <trkpt lat="45.80602" lon="2.99293">
        <ele>834.2</ele>
        <time>2018-12-29T13:41:06Z</time>
      </trkpt>
      <trkpt lat="45.80588" lon="2.99282">
        <ele>834.2</ele>
        <time>2018-12-29T13:41:13Z</time>
      </trkpt>
      <trkpt lat="45.80582" lon="2.99277">
        <ele>834.6</ele>
        <time>2018-12-29T13:41:16Z</time>
      </trkpt>
      <trkpt lat="45.8058" lon="2.99276">
        <ele>835</ele>
        <time>2018-12-29T13:41:17Z</time>
      </trkpt>
      <trkpt lat="45.80578" lon="2.99274">
        <ele>835.4</ele>
        <time>2018-12-29T13:41:18Z</time>
      </trkpt>
      <trkpt lat="45.80576" lon="2.99273">
        <ele>835.8</ele>
        <time>2018-12-29T13:41:19Z</time>
      </trkpt>
      <trkpt lat="45.80573" lon="2.99272">
        <ele>836.4</ele>
        <time>2018-12-29T13:41:20Z</time>
      </trkpt>
      <trkpt lat="45.80559" lon="2.99262">
        <ele>836.4</ele>
        <time>2018-12-29T13:41:26Z</time>
      </trkpt>
      <trkpt lat="45.80545" lon="2.99248">
        <ele>836.8</ele>
        <time>2018-12-29T13:41:33Z</time>
      </trkpt>
      <trkpt lat="45.80543" lon="2.99246">
        <ele>837.2</ele>
        <time>2018-12-29T13:41:34Z</time>
      </trkpt>
      <trkpt lat="45.80541" lon="2.99244">
        <ele>837.6</ele>
        <time>2018-12-29T13:41:35Z</time>
      </trkpt>
      <trkpt lat="45.80539" lon="2.99241">
        <ele>838</ele>
        <time>2018-12-29T13:41:36Z</time>
      </trkpt>
      <trkpt lat="45.80536" lon="2.99239">
        <ele>838.4</ele>
        <time>2018-12-29T13:41:37Z</time>
      </trkpt>
      <trkpt lat="45.80532" lon="2.99237">
        <ele>838.4</ele>
        <time>2018-12-29T13:41:39Z</time>
      </trkpt>
      <trkpt lat="45.8052" lon="2.99227">
        <ele>838.4</ele>
        <time>2018-12-29T13:41:44Z</time>
      </trkpt>
      <trkpt lat="45.80507" lon="2.99214">
        <ele>838.4</ele>
        <time>2018-12-29T13:41:49Z</time>
      </trkpt>
      <trkpt lat="45.80496" lon="2.99202">
        <ele>838.8</ele>
        <time>2018-12-29T13:41:53Z</time>
      </trkpt>
      <trkpt lat="45.80493" lon="2.99199">
        <ele>839.2</ele>
        <time>2018-12-29T13:41:54Z</time>
      </trkpt>
      <trkpt lat="45.80492" lon="2.99197">
        <ele>840</ele>
        <time>2018-12-29T13:41:55Z</time>
      </trkpt>
      <trkpt lat="45.8049" lon="2.99194">
        <ele>840.4</ele>
        <time>2018-12-29T13:41:56Z</time>
      </trkpt>
      <trkpt lat="45.8048" lon="2.99176">
        <ele>840.4</ele>
        <time>2018-12-29T13:42:02Z</time>
      </trkpt>
      <trkpt lat="45.80477" lon="2.99169">
        <ele>840.4</ele>
        <time>2018-12-29T13:42:05Z</time>
      </trkpt>
      <trkpt lat="45.80477" lon="2.9917">
        <ele>840.4</ele>
        <time>2018-12-29T13:42:06Z</time>
      </trkpt>
      <trkpt lat="45.80475" lon="2.9917">
        <ele>840.4</ele>
        <time>2018-12-29T13:43:59Z</time>
      </trkpt>
      <trkpt lat="45.80468" lon="2.99158">
        <ele>840.4</ele>
        <time>2018-12-29T13:44:03Z</time>
      </trkpt>
      <trkpt lat="45.8046" lon="2.99142">
        <ele>840.4</ele>
        <time>2018-12-29T13:44:08Z</time>
      </trkpt>
      <trkpt lat="45.80459" lon="2.99139">
        <ele>840.4</ele>
        <time>2018-12-29T13:44:09Z</time>
      </trkpt>
      <trkpt lat="45.80458" lon="2.99137">
        <ele>840.4</ele>
        <time>2018-12-29T13:44:12Z</time>
      </trkpt>
      <trkpt lat="45.80457" lon="2.99134">
        <ele>840.4</ele>
        <time>2018-12-29T13:49:50Z</time>
      </trkpt>
      <trkpt lat="45.80446" lon="2.99122">
        <ele>840.4</ele>
        <time>2018-12-29T13:49:55Z</time>
      </trkpt>
      <trkpt lat="45.80435" lon="2.99105">
        <ele>840</ele>
        <time>2018-12-29T13:50:00Z</time>
      </trkpt>
      <trkpt lat="45.80433" lon="2.991">
        <ele>839.6</ele>
        <time>2018-12-29T13:50:01Z</time>
      </trkpt>
      <trkpt lat="45.80431" lon="2.99095">
        <ele>839.2</ele>
        <time>2018-12-29T13:50:02Z</time>
      </trkpt>
      <trkpt lat="45.8043" lon="2.9909">
        <ele>838.8</ele>
        <time>2018-12-29T13:50:03Z</time>
      </trkpt>
      <trkpt lat="45.8043" lon="2.99085">
        <ele>838.4</ele>
        <time>2018-12-29T13:50:04Z</time>
      </trkpt>
      <trkpt lat="45.8043" lon="2.99079">
        <ele>838.4</ele>
        <time>2018-12-29T13:50:05Z</time>
      </trkpt>
      <trkpt lat="45.80425" lon="2.99042">
        <ele>838.4</ele>
        <time>2018-12-29T13:50:11Z</time>
      </trkpt>
      <trkpt lat="45.80424" lon="2.99036">
        <ele>838.4</ele>
        <time>2018-12-29T13:50:12Z</time>
      </trkpt>
      <trkpt lat="45.80421" lon="2.99011">
        <ele>838.4</ele>
        <time>2018-12-29T13:50:16Z</time>
      </trkpt>
      <trkpt lat="45.8042" lon="2.99005">
        <ele>838</ele>
        <time>2018-12-29T13:50:17Z</time>
      </trkpt>
      <trkpt lat="45.80419" lon="2.98999">
        <ele>837.6</ele>
        <time>2018-12-29T13:50:18Z</time>
      </trkpt>
      <trkpt lat="45.80417" lon="2.98994">
        <ele>837.2</ele>
        <time>2018-12-29T13:50:19Z</time>
      </trkpt>
      <trkpt lat="45.80416" lon="2.98988">
        <ele>836.8</ele>
        <time>2018-12-29T13:50:20Z</time>
      </trkpt>
      <trkpt lat="45.80414" lon="2.98984">
        <ele>836.4</ele>
        <time>2018-12-29T13:50:21Z</time>
      </trkpt>
      <trkpt lat="45.80413" lon="2.98979">
        <ele>836.4</ele>
        <time>2018-12-29T13:50:22Z</time>
      </trkpt>
      <trkpt lat="45.80409" lon="2.98955">
        <ele>836.4</ele>
        <time>2018-12-29T13:50:27Z</time>
      </trkpt>
      <trkpt lat="45.80399" lon="2.9893">
        <ele>836.4</ele>
        <time>2018-12-29T13:50:33Z</time>
      </trkpt>
      <trkpt lat="45.80392" lon="2.98922">
        <ele>836.4</ele>
        <time>2018-12-29T13:50:37Z</time>
      </trkpt>
      <trkpt lat="45.80386" lon="2.98919">
        <ele>836.4</ele>
        <time>2018-12-29T13:50:43Z</time>
      </trkpt>
      <trkpt lat="45.80383" lon="2.98917">
        <ele>836.4</ele>
        <time>2018-12-29T13:50:47Z</time>
      </trkpt>
      <trkpt lat="45.80381" lon="2.98916">
        <ele>836.4</ele>
        <time>2018-12-29T13:50:49Z</time>
      </trkpt>
      <trkpt lat="45.8038" lon="2.98915">
        <ele>836.4</ele>
        <time>2018-12-29T13:50:51Z</time>
      </trkpt>
      <trkpt lat="45.80375" lon="2.98913">
        <ele>836.4</ele>
        <time>2018-12-29T13:50:55Z</time>
      </trkpt>
      <trkpt lat="45.80376" lon="2.9891">
        <ele>836.4</ele>
        <time>2018-12-29T13:50:59Z</time>
      </trkpt>
      <trkpt lat="45.80381" lon="2.98913">
        <ele>836.4</ele>
        <time>2018-12-29T13:51:05Z</time>
      </trkpt>
      <trkpt lat="45.80382" lon="2.98907">
        <ele>836.4</ele>
        <time>2018-12-29T13:51:09Z</time>
      </trkpt>
      <trkpt lat="45.80378" lon="2.98901">
        <ele>836.4</ele>
        <time>2018-12-29T13:51:13Z</time>
      </trkpt>
      <trkpt lat="45.80377" lon="2.989">
        <ele>836.8</ele>
        <time>2018-12-29T13:51:14Z</time>
      </trkpt>
      <trkpt lat="45.80376" lon="2.98898">
        <ele>837.2</ele>
        <time>2018-12-29T13:51:15Z</time>
      </trkpt>
      <trkpt lat="45.80374" lon="2.98896">
        <ele>837.8</ele>
        <time>2018-12-29T13:51:16Z</time>
      </trkpt>
      <trkpt lat="45.80373" lon="2.98893">
        <ele>838.2</ele>
        <time>2018-12-29T13:51:17Z</time>
      </trkpt>
      <trkpt lat="45.80372" lon="2.98891">
        <ele>838.6</ele>
        <time>2018-12-29T13:51:18Z</time>
      </trkpt>
      <trkpt lat="45.80371" lon="2.98889">
        <ele>838.6</ele>
        <time>2018-12-29T13:51:19Z</time>
      </trkpt>
      <trkpt lat="45.8037" lon="2.98888">
        <ele>839</ele>
        <time>2018-12-29T13:51:20Z</time>
      </trkpt>
      <trkpt lat="45.80368" lon="2.98886">
        <ele>839.4</ele>
        <time>2018-12-29T13:51:21Z</time>
      </trkpt>
      <trkpt lat="45.80367" lon="2.98883">
        <ele>839.8</ele>
        <time>2018-12-29T13:51:22Z</time>
      </trkpt>
      <trkpt lat="45.80367" lon="2.98881">
        <ele>840.6</ele>
        <time>2018-12-29T13:51:23Z</time>
      </trkpt>
      <trkpt lat="45.8037" lon="2.98872">
        <ele>840.6</ele>
        <time>2018-12-29T13:51:26Z</time>
      </trkpt>
      <trkpt lat="45.80372" lon="2.98856">
        <ele>840.6</ele>
        <time>2018-12-29T13:51:30Z</time>
      </trkpt>
      <trkpt lat="45.80373" lon="2.98851">
        <ele>840.6</ele>
        <time>2018-12-29T13:51:31Z</time>
      </trkpt>
      <trkpt lat="45.80374" lon="2.98848">
        <ele>840.6</ele>
        <time>2018-12-29T13:51:32Z</time>
      </trkpt>
      <trkpt lat="45.80379" lon="2.98831">
        <ele>840.6</ele>
        <time>2018-12-29T13:51:36Z</time>
      </trkpt>
      <trkpt lat="45.80376" lon="2.98817">
        <ele>840.6</ele>
        <time>2018-12-29T13:51:39Z</time>
      </trkpt>
      <trkpt lat="45.8037" lon="2.988">
        <ele>840.6</ele>
        <time>2018-12-29T13:51:43Z</time>
      </trkpt>
      <trkpt lat="45.80365" lon="2.98791">
        <ele>840.6</ele>
        <time>2018-12-29T13:51:45Z</time>
      </trkpt>
      <trkpt lat="45.8036" lon="2.9878">
        <ele>840.6</ele>
        <time>2018-12-29T13:51:47Z</time>
      </trkpt>
      <trkpt lat="45.80358" lon="2.98768">
        <ele>840.6</ele>
        <time>2018-12-29T13:51:50Z</time>
      </trkpt>
      <trkpt lat="45.80358" lon="2.98765">
        <ele>840.6</ele>
        <time>2018-12-29T13:51:51Z</time>
      </trkpt>
      <trkpt lat="45.80365" lon="2.98751">
        <ele>840.6</ele>
        <time>2018-12-29T13:51:56Z</time>
      </trkpt>
      <trkpt lat="45.80378" lon="2.98741">
        <ele>840.6</ele>
        <time>2018-12-29T13:52:02Z</time>
      </trkpt>
      <trkpt lat="45.8038" lon="2.98739">
        <ele>840.6</ele>
        <time>2018-12-29T13:52:03Z</time>
      </trkpt>
      <trkpt lat="45.8038" lon="2.98731">
        <ele>840.6</ele>
        <time>2018-12-29T13:52:05Z</time>
      </trkpt>
      <trkpt lat="45.80374" lon="2.98718">
        <ele>840.6</ele>
        <time>2018-12-29T13:52:08Z</time>
      </trkpt>
      <trkpt lat="45.80372" lon="2.98712">
        <ele>840.6</ele>
        <time>2018-12-29T13:52:09Z</time>
      </trkpt>
      <trkpt lat="45.80371" lon="2.98706">
        <ele>840.6</ele>
        <time>2018-12-29T13:52:10Z</time>
      </trkpt>
      <trkpt lat="45.80368" lon="2.98688">
        <ele>840.2</ele>
        <time>2018-12-29T13:52:13Z</time>
      </trkpt>
      <trkpt lat="45.80367" lon="2.98683">
        <ele>839.8</ele>
        <time>2018-12-29T13:52:14Z</time>
      </trkpt>
      <trkpt lat="45.80365" lon="2.98678">
        <ele>839.4</ele>
        <time>2018-12-29T13:52:15Z</time>
      </trkpt>
      <trkpt lat="45.80363" lon="2.98673">
        <ele>839</ele>
        <time>2018-12-29T13:52:16Z</time>
      </trkpt>
      <trkpt lat="45.8036" lon="2.98668">
        <ele>838.6</ele>
        <time>2018-12-29T13:52:17Z</time>
      </trkpt>
      <trkpt lat="45.80352" lon="2.98654">
        <ele>838.6</ele>
        <time>2018-12-29T13:52:20Z</time>
      </trkpt>
      <trkpt lat="45.80342" lon="2.98633">
        <ele>838.6</ele>
        <time>2018-12-29T13:52:25Z</time>
      </trkpt>
      <trkpt lat="45.8034" lon="2.98626">
        <ele>838.6</ele>
        <time>2018-12-29T13:52:26Z</time>
      </trkpt>
      <trkpt lat="45.8034" lon="2.9861">
        <ele>838.6</ele>
        <time>2018-12-29T13:52:28Z</time>
      </trkpt>
      <trkpt lat="45.80344" lon="2.98592">
        <ele>838.6</ele>
        <time>2018-12-29T13:52:31Z</time>
      </trkpt>
      <trkpt lat="45.80349" lon="2.98583">
        <ele>838.6</ele>
        <time>2018-12-29T13:52:33Z</time>
      </trkpt>
      <trkpt lat="45.80351" lon="2.98573">
        <ele>838.6</ele>
        <time>2018-12-29T13:52:35Z</time>
      </trkpt>
      <trkpt lat="45.80359" lon="2.98551">
        <ele>838.6</ele>
        <time>2018-12-29T13:52:40Z</time>
      </trkpt>
      <trkpt lat="45.80359" lon="2.98543">
        <ele>838.6</ele>
        <time>2018-12-29T13:52:42Z</time>
      </trkpt>
      <trkpt lat="45.80357" lon="2.98539">
        <ele>838.6</ele>
        <time>2018-12-29T13:52:43Z</time>
      </trkpt>
      <trkpt lat="45.80338" lon="2.98516">
        <ele>838.6</ele>
        <time>2018-12-29T13:52:49Z</time>
      </trkpt>
      <trkpt lat="45.80328" lon="2.98506">
        <ele>838.6</ele>
        <time>2018-12-29T13:52:52Z</time>
      </trkpt>
      <trkpt lat="45.80324" lon="2.98502">
        <ele>838.6</ele>
        <time>2018-12-29T13:52:53Z</time>
      </trkpt>
      <trkpt lat="45.80316" lon="2.98495">
        <ele>838.6</ele>
        <time>2018-12-29T13:52:55Z</time>
      </trkpt>
      <trkpt lat="45.80305" lon="2.98489">
        <ele>838.6</ele>
        <time>2018-12-29T13:52:58Z</time>
      </trkpt>
      <trkpt lat="45.80299" lon="2.98484">
        <ele>839</ele>
        <time>2018-12-29T13:53:00Z</time>
      </trkpt>
      <trkpt lat="45.80296" lon="2.98483">
        <ele>839.6</ele>
        <time>2018-12-29T13:53:01Z</time>
      </trkpt>
      <trkpt lat="45.80292" lon="2.98483">
        <ele>840.4</ele>
        <time>2018-12-29T13:53:02Z</time>
      </trkpt>
      <trkpt lat="45.80289" lon="2.98481">
        <ele>840.8</ele>
        <time>2018-12-29T13:53:03Z</time>
      </trkpt>
      <trkpt lat="45.80273" lon="2.98477">
        <ele>840.8</ele>
        <time>2018-12-29T13:53:07Z</time>
      </trkpt>
      <trkpt lat="45.80268" lon="2.98476">
        <ele>840.8</ele>
        <time>2018-12-29T13:53:08Z</time>
      </trkpt>
      <trkpt lat="45.8026" lon="2.98473">
        <ele>840.8</ele>
        <time>2018-12-29T13:53:10Z</time>
      </trkpt>
      <trkpt lat="45.80256" lon="2.98471">
        <ele>841.4</ele>
        <time>2018-12-29T13:53:11Z</time>
      </trkpt>
      <trkpt lat="45.80253" lon="2.9847">
        <ele>841.8</ele>
        <time>2018-12-29T13:53:12Z</time>
      </trkpt>
      <trkpt lat="45.8025" lon="2.9847">
        <ele>842.2</ele>
        <time>2018-12-29T13:53:13Z</time>
      </trkpt>
      <trkpt lat="45.80248" lon="2.98468">
        <ele>842.6</ele>
        <time>2018-12-29T13:53:14Z</time>
      </trkpt>
      <trkpt lat="45.80245" lon="2.98467">
        <ele>843.2</ele>
        <time>2018-12-29T13:53:15Z</time>
      </trkpt>
      <trkpt lat="45.8024" lon="2.9846">
        <ele>843.2</ele>
        <time>2018-12-29T13:53:17Z</time>
      </trkpt>
      <trkpt lat="45.80231" lon="2.98445">
        <ele>843.2</ele>
        <time>2018-12-29T13:53:20Z</time>
      </trkpt>
      <trkpt lat="45.80228" lon="2.98438">
        <ele>843.2</ele>
        <time>2018-12-29T13:53:21Z</time>
      </trkpt>
      <trkpt lat="45.80221" lon="2.98424">
        <ele>843.2</ele>
        <time>2018-12-29T13:53:23Z</time>
      </trkpt>
      <trkpt lat="45.80217" lon="2.98418">
        <ele>842.6</ele>
        <time>2018-12-29T13:53:24Z</time>
      </trkpt>
      <trkpt lat="45.80211" lon="2.98412">
        <ele>842.2</ele>
        <time>2018-12-29T13:53:25Z</time>
      </trkpt>
      <trkpt lat="45.80206" lon="2.98406">
        <ele>841.8</ele>
        <time>2018-12-29T13:53:26Z</time>
      </trkpt>
      <trkpt lat="45.80202" lon="2.984">
        <ele>840.8</ele>
        <time>2018-12-29T13:53:27Z</time>
      </trkpt>
      <trkpt lat="45.80197" lon="2.98395">
        <ele>840.2</ele>
        <time>2018-12-29T13:53:28Z</time>
      </trkpt>
      <trkpt lat="45.80191" lon="2.98392">
        <ele>839.6</ele>
        <time>2018-12-29T13:53:29Z</time>
      </trkpt>
      <trkpt lat="45.80186" lon="2.98391">
        <ele>839</ele>
        <time>2018-12-29T13:53:30Z</time>
      </trkpt>
      <trkpt lat="45.80181" lon="2.98389">
        <ele>838.2</ele>
        <time>2018-12-29T13:53:31Z</time>
      </trkpt>
      <trkpt lat="45.80176" lon="2.98388">
        <ele>837.6</ele>
        <time>2018-12-29T13:53:32Z</time>
      </trkpt>
      <trkpt lat="45.8017" lon="2.98387">
        <ele>837</ele>
        <time>2018-12-29T13:53:33Z</time>
      </trkpt>
      <trkpt lat="45.80165" lon="2.98388">
        <ele>836.4</ele>
        <time>2018-12-29T13:53:34Z</time>
      </trkpt>
      <trkpt lat="45.80159" lon="2.98388">
        <ele>835.6</ele>
        <time>2018-12-29T13:53:35Z</time>
      </trkpt>
      <trkpt lat="45.80153" lon="2.98389">
        <ele>835</ele>
        <time>2018-12-29T13:53:36Z</time>
      </trkpt>
      <trkpt lat="45.80148" lon="2.98389">
        <ele>834.4</ele>
        <time>2018-12-29T13:53:37Z</time>
      </trkpt>
      <trkpt lat="45.80143" lon="2.98389">
        <ele>833.8</ele>
        <time>2018-12-29T13:53:38Z</time>
      </trkpt>
      <trkpt lat="45.80124" lon="2.98384">
        <ele>833.4</ele>
        <time>2018-12-29T13:53:41Z</time>
      </trkpt>
      <trkpt lat="45.80117" lon="2.98383">
        <ele>832.8</ele>
        <time>2018-12-29T13:53:42Z</time>
      </trkpt>
      <trkpt lat="45.8011" lon="2.98382">
        <ele>832.2</ele>
        <time>2018-12-29T13:53:43Z</time>
      </trkpt>
      <trkpt lat="45.80104" lon="2.98381">
        <ele>831.8</ele>
        <time>2018-12-29T13:53:44Z</time>
      </trkpt>
      <trkpt lat="45.80098" lon="2.98382">
        <ele>831.2</ele>
        <time>2018-12-29T13:53:45Z</time>
      </trkpt>
      <trkpt lat="45.8009" lon="2.98382">
        <ele>831.2</ele>
        <time>2018-12-29T13:53:46Z</time>
      </trkpt>
      <trkpt lat="45.80082" lon="2.98381">
        <ele>831.2</ele>
        <time>2018-12-29T13:53:47Z</time>
      </trkpt>
      <trkpt lat="45.80075" lon="2.9838">
        <ele>830.8</ele>
        <time>2018-12-29T13:53:48Z</time>
      </trkpt>
      <trkpt lat="45.80068" lon="2.98379">
        <ele>830.4</ele>
        <time>2018-12-29T13:53:49Z</time>
      </trkpt>
      <trkpt lat="45.80061" lon="2.98376">
        <ele>830</ele>
        <time>2018-12-29T13:53:50Z</time>
      </trkpt>
      <trkpt lat="45.80054" lon="2.98373">
        <ele>829.4</ele>
        <time>2018-12-29T13:53:51Z</time>
      </trkpt>
      <trkpt lat="45.80048" lon="2.9837">
        <ele>829</ele>
        <time>2018-12-29T13:53:52Z</time>
      </trkpt>
      <trkpt lat="45.80029" lon="2.98361">
        <ele>829</ele>
        <time>2018-12-29T13:53:55Z</time>
      </trkpt>
      <trkpt lat="45.80017" lon="2.98358">
        <ele>829</ele>
        <time>2018-12-29T13:53:57Z</time>
      </trkpt>
      <trkpt lat="45.80001" lon="2.98352">
        <ele>829</ele>
        <time>2018-12-29T13:54:00Z</time>
      </trkpt>
      <trkpt lat="45.79992" lon="2.98351">
        <ele>829</ele>
        <time>2018-12-29T13:54:02Z</time>
      </trkpt>
      <trkpt lat="45.79964" lon="2.98352">
        <ele>829</ele>
        <time>2018-12-29T13:54:08Z</time>
      </trkpt>
      <trkpt lat="45.79942" lon="2.98354">
        <ele>829</ele>
        <time>2018-12-29T13:54:13Z</time>
      </trkpt>
      <trkpt lat="45.79931" lon="2.98354">
        <ele>829</ele>
        <time>2018-12-29T13:54:17Z</time>
      </trkpt>
      <trkpt lat="45.7993" lon="2.98354">
        <ele>829</ele>
        <time>2018-12-29T13:54:19Z</time>
      </trkpt>
      <trkpt lat="45.79928" lon="2.98355">
        <ele>829</ele>
        <time>2018-12-29T13:55:26Z</time>
      </trkpt>
      <trkpt lat="45.79926" lon="2.98356">
        <ele>829</ele>
        <time>2018-12-29T13:55:27Z</time>
      </trkpt>
      <trkpt lat="45.79925" lon="2.98356">
        <ele>829</ele>
        <time>2018-12-29T13:55:28Z</time>
      </trkpt>
      <trkpt lat="45.79921" lon="2.98355">
        <ele>829</ele>
        <time>2018-12-29T13:55:32Z</time>
      </trkpt>
      <trkpt lat="45.7992" lon="2.98356">
        <ele>829</ele>
        <time>2018-12-29T13:55:33Z</time>
      </trkpt>
      <trkpt lat="45.79913" lon="2.98358">
        <ele>829</ele>
        <time>2018-12-29T13:55:37Z</time>
      </trkpt>
      <trkpt lat="45.79911" lon="2.98358">
        <ele>829.4</ele>
        <time>2018-12-29T13:55:38Z</time>
      </trkpt>
      <trkpt lat="45.79909" lon="2.98357">
        <ele>829.8</ele>
        <time>2018-12-29T13:55:39Z</time>
      </trkpt>
      <trkpt lat="45.79907" lon="2.98357">
        <ele>830.2</ele>
        <time>2018-12-29T13:55:40Z</time>
      </trkpt>
      <trkpt lat="45.79905" lon="2.98356">
        <ele>830.6</ele>
        <time>2018-12-29T13:55:41Z</time>
      </trkpt>
      <trkpt lat="45.79905" lon="2.98356">
        <ele>831</ele>
        <time>2018-12-29T13:55:42Z</time>
      </trkpt>
      <trkpt lat="45.79896" lon="2.98354">
        <ele>831</ele>
        <time>2018-12-29T13:55:47Z</time>
      </trkpt>
      <trkpt lat="45.7989" lon="2.98352">
        <ele>831</ele>
        <time>2018-12-29T13:55:50Z</time>
      </trkpt>
      <trkpt lat="45.79882" lon="2.98348">
        <ele>831</ele>
        <time>2018-12-29T13:55:52Z</time>
      </trkpt>
      <trkpt lat="45.79878" lon="2.98347">
        <ele>831</ele>
        <time>2018-12-29T13:55:53Z</time>
      </trkpt>
      <trkpt lat="45.7987" lon="2.98344">
        <ele>831</ele>
        <time>2018-12-29T13:55:55Z</time>
      </trkpt>
      <trkpt lat="45.79856" lon="2.98341">
        <ele>831</ele>
        <time>2018-12-29T13:55:59Z</time>
      </trkpt>
      <trkpt lat="45.79836" lon="2.98337">
        <ele>831</ele>
        <time>2018-12-29T13:56:03Z</time>
      </trkpt>
      <trkpt lat="45.79817" lon="2.98326">
        <ele>831</ele>
        <time>2018-12-29T13:56:07Z</time>
      </trkpt>
      <trkpt lat="45.79796" lon="2.98314">
        <ele>831</ele>
        <time>2018-12-29T13:56:13Z</time>
      </trkpt>
      <trkpt lat="45.79781" lon="2.98301">
        <ele>831</ele>
        <time>2018-12-29T13:56:18Z</time>
      </trkpt>
      <trkpt lat="45.79767" lon="2.98297">
        <ele>831</ele>
        <time>2018-12-29T13:56:23Z</time>
      </trkpt>
      <trkpt lat="45.79759" lon="2.98296">
        <ele>831</ele>
        <time>2018-12-29T13:56:25Z</time>
      </trkpt>
      <trkpt lat="45.79748" lon="2.98291">
        <ele>831</ele>
        <time>2018-12-29T13:56:28Z</time>
      </trkpt>
      <trkpt lat="45.79724" lon="2.98281">
        <ele>831</ele>
        <time>2018-12-29T13:56:33Z</time>
      </trkpt>
      <trkpt lat="45.79708" lon="2.98276">
        <ele>831</ele>
        <time>2018-12-29T13:56:37Z</time>
      </trkpt>
      <trkpt lat="45.79701" lon="2.98275">
        <ele>831</ele>
        <time>2018-12-29T13:56:39Z</time>
      </trkpt>
      <trkpt lat="45.79693" lon="2.98277">
        <ele>831</ele>
        <time>2018-12-29T13:56:41Z</time>
      </trkpt>
      <trkpt lat="45.79675" lon="2.98279">
        <ele>831</ele>
        <time>2018-12-29T13:56:45Z</time>
      </trkpt>
      <trkpt lat="45.79666" lon="2.98277">
        <ele>830.6</ele>
        <time>2018-12-29T13:56:47Z</time>
      </trkpt>
      <trkpt lat="45.7966" lon="2.98276">
        <ele>830.2</ele>
        <time>2018-12-29T13:56:48Z</time>
      </trkpt>
      <trkpt lat="45.79655" lon="2.98276">
        <ele>829.8</ele>
        <time>2018-12-29T13:56:49Z</time>
      </trkpt>
      <trkpt lat="45.7965" lon="2.98275">
        <ele>829.4</ele>
        <time>2018-12-29T13:56:50Z</time>
      </trkpt>
      <trkpt lat="45.79645" lon="2.98276">
        <ele>829</ele>
        <time>2018-12-29T13:56:51Z</time>
      </trkpt>
      <trkpt lat="45.79631" lon="2.98269">
        <ele>829</ele>
        <time>2018-12-29T13:56:54Z</time>
      </trkpt>
      <trkpt lat="45.79619" lon="2.98263">
        <ele>829</ele>
        <time>2018-12-29T13:56:56Z</time>
      </trkpt>
      <trkpt lat="45.79606" lon="2.98248">
        <ele>829</ele>
        <time>2018-12-29T13:56:59Z</time>
      </trkpt>
      <trkpt lat="45.79584" lon="2.98226">
        <ele>829</ele>
        <time>2018-12-29T13:57:04Z</time>
      </trkpt>
      <trkpt lat="45.79573" lon="2.98216">
        <ele>829</ele>
        <time>2018-12-29T13:57:07Z</time>
      </trkpt>
      <trkpt lat="45.79569" lon="2.98212">
        <ele>829</ele>
        <time>2018-12-29T13:57:08Z</time>
      </trkpt>
      <trkpt lat="45.79566" lon="2.98207">
        <ele>829.8</ele>
        <time>2018-12-29T13:57:09Z</time>
      </trkpt>
      <trkpt lat="45.79562" lon="2.98202">
        <ele>830.4</ele>
        <time>2018-12-29T13:57:10Z</time>
      </trkpt>
      <trkpt lat="45.79559" lon="2.98198">
        <ele>830.8</ele>
        <time>2018-12-29T13:57:11Z</time>
      </trkpt>
      <trkpt lat="45.79555" lon="2.98194">
        <ele>831.2</ele>
        <time>2018-12-29T13:57:12Z</time>
      </trkpt>
      <trkpt lat="45.79541" lon="2.9818">
        <ele>831.6</ele>
        <time>2018-12-29T13:57:16Z</time>
      </trkpt>
      <trkpt lat="45.79537" lon="2.98177">
        <ele>832</ele>
        <time>2018-12-29T13:57:17Z</time>
      </trkpt>
      <trkpt lat="45.79533" lon="2.98174">
        <ele>832.6</ele>
        <time>2018-12-29T13:57:18Z</time>
      </trkpt>
      <trkpt lat="45.7953" lon="2.9817">
        <ele>833</ele>
        <time>2018-12-29T13:57:19Z</time>
      </trkpt>
      <trkpt lat="45.79527" lon="2.98167">
        <ele>833.4</ele>
        <time>2018-12-29T13:57:20Z</time>
      </trkpt>
      <trkpt lat="45.79524" lon="2.98164">
        <ele>833.4</ele>
        <time>2018-12-29T13:57:21Z</time>
      </trkpt>
      <trkpt lat="45.79509" lon="2.98143">
        <ele>833.8</ele>
        <time>2018-12-29T13:57:27Z</time>
      </trkpt>
      <trkpt lat="45.79506" lon="2.98139">
        <ele>834.2</ele>
        <time>2018-12-29T13:57:28Z</time>
      </trkpt>
      <trkpt lat="45.79503" lon="2.98135">
        <ele>834.6</ele>
        <time>2018-12-29T13:57:29Z</time>
      </trkpt>
      <trkpt lat="45.79501" lon="2.98132">
        <ele>835</ele>
        <time>2018-12-29T13:57:30Z</time>
      </trkpt>
      <trkpt lat="45.79498" lon="2.98128">
        <ele>835.4</ele>
        <time>2018-12-29T13:57:31Z</time>
      </trkpt>
      <trkpt lat="45.79487" lon="2.98115">
        <ele>835.4</ele>
        <time>2018-12-29T13:57:35Z</time>
      </trkpt>
      <trkpt lat="45.79474" lon="2.98099">
        <ele>835.4</ele>
        <time>2018-12-29T13:57:40Z</time>
      </trkpt>
      <trkpt lat="45.79462" lon="2.98086">
        <ele>835.4</ele>
        <time>2018-12-29T13:57:44Z</time>
      </trkpt>
      <trkpt lat="45.79458" lon="2.98083">
        <ele>835.4</ele>
        <time>2018-12-29T13:57:45Z</time>
      </trkpt>
      <trkpt lat="45.7945" lon="2.9807">
        <ele>835.4</ele>
        <time>2018-12-29T13:57:48Z</time>
      </trkpt>
      <trkpt lat="45.79442" lon="2.98053">
        <ele>835.4</ele>
        <time>2018-12-29T13:57:53Z</time>
      </trkpt>
      <trkpt lat="45.79432" lon="2.98036">
        <ele>835.4</ele>
        <time>2018-12-29T13:57:58Z</time>
      </trkpt>
      <trkpt lat="45.79429" lon="2.98029">
        <ele>836</ele>
        <time>2018-12-29T13:58:00Z</time>
      </trkpt>
      <trkpt lat="45.79427" lon="2.98026">
        <ele>836.4</ele>
        <time>2018-12-29T13:58:01Z</time>
      </trkpt>
      <trkpt lat="45.79426" lon="2.98021">
        <ele>836.8</ele>
        <time>2018-12-29T13:58:02Z</time>
      </trkpt>
      <trkpt lat="45.79424" lon="2.98016">
        <ele>837.2</ele>
        <time>2018-12-29T13:58:03Z</time>
      </trkpt>
      <trkpt lat="45.79422" lon="2.98012">
        <ele>837.6</ele>
        <time>2018-12-29T13:58:04Z</time>
      </trkpt>
      <trkpt lat="45.79418" lon="2.98004">
        <ele>837.6</ele>
        <time>2018-12-29T13:58:06Z</time>
      </trkpt>
      <trkpt lat="45.7941" lon="2.97992">
        <ele>837.6</ele>
        <time>2018-12-29T13:58:10Z</time>
      </trkpt>
      <trkpt lat="45.79409" lon="2.97989">
        <ele>837.6</ele>
        <time>2018-12-29T13:58:11Z</time>
      </trkpt>
      <trkpt lat="45.79402" lon="2.97976">
        <ele>837.6</ele>
        <time>2018-12-29T13:58:15Z</time>
      </trkpt>
      <trkpt lat="45.794" lon="2.97972">
        <ele>838</ele>
        <time>2018-12-29T13:58:16Z</time>
      </trkpt>
      <trkpt lat="45.79398" lon="2.97968">
        <ele>838.4</ele>
        <time>2018-12-29T13:58:17Z</time>
      </trkpt>
      <trkpt lat="45.79396" lon="2.97962">
        <ele>838.8</ele>
        <time>2018-12-29T13:58:18Z</time>
      </trkpt>
      <trkpt lat="45.79395" lon="2.97957">
        <ele>839.4</ele>
        <time>2018-12-29T13:58:19Z</time>
      </trkpt>
      <trkpt lat="45.79393" lon="2.97952">
        <ele>839.8</ele>
        <time>2018-12-29T13:58:20Z</time>
      </trkpt>
      <trkpt lat="45.79383" lon="2.97932">
        <ele>839.8</ele>
        <time>2018-12-29T13:58:25Z</time>
      </trkpt>
      <trkpt lat="45.79379" lon="2.97926">
        <ele>840.2</ele>
        <time>2018-12-29T13:58:27Z</time>
      </trkpt>
      <trkpt lat="45.79376" lon="2.97923">
        <ele>840.6</ele>
        <time>2018-12-29T13:58:28Z</time>
      </trkpt>
      <trkpt lat="45.79374" lon="2.97919">
        <ele>841</ele>
        <time>2018-12-29T13:58:29Z</time>
      </trkpt>
      <trkpt lat="45.79372" lon="2.97915">
        <ele>841.4</ele>
        <time>2018-12-29T13:58:30Z</time>
      </trkpt>
      <trkpt lat="45.79369" lon="2.97912">
        <ele>841.8</ele>
        <time>2018-12-29T13:58:31Z</time>
      </trkpt>
      <trkpt lat="45.79367" lon="2.97909">
        <ele>841.8</ele>
        <time>2018-12-29T13:58:32Z</time>
      </trkpt>
      <trkpt lat="45.79363" lon="2.97898">
        <ele>841.8</ele>
        <time>2018-12-29T13:58:35Z</time>
      </trkpt>
      <trkpt lat="45.79356" lon="2.97883">
        <ele>841.8</ele>
        <time>2018-12-29T13:58:39Z</time>
      </trkpt>
      <trkpt lat="45.79354" lon="2.9788">
        <ele>842.2</ele>
        <time>2018-12-29T13:58:40Z</time>
      </trkpt>
      <trkpt lat="45.79353" lon="2.97878">
        <ele>842.8</ele>
        <time>2018-12-29T13:58:41Z</time>
      </trkpt>
      <trkpt lat="45.79352" lon="2.97875">
        <ele>843.2</ele>
        <time>2018-12-29T13:58:42Z</time>
      </trkpt>
      <trkpt lat="45.79351" lon="2.97872">
        <ele>843.8</ele>
        <time>2018-12-29T13:58:43Z</time>
      </trkpt>
      <trkpt lat="45.79349" lon="2.97869">
        <ele>844.2</ele>
        <time>2018-12-29T13:58:44Z</time>
      </trkpt>
      <trkpt lat="45.79348" lon="2.97867">
        <ele>844.2</ele>
        <time>2018-12-29T13:58:45Z</time>
      </trkpt>
      <trkpt lat="45.79347" lon="2.97865">
        <ele>844.2</ele>
        <time>2018-12-29T13:58:46Z</time>
      </trkpt>
      <trkpt lat="45.79345" lon="2.97863">
        <ele>844.2</ele>
        <time>2018-12-29T13:58:47Z</time>
      </trkpt>
      <trkpt lat="45.79339" lon="2.97854">
        <ele>844.2</ele>
        <time>2018-12-29T13:58:50Z</time>
      </trkpt>
      <trkpt lat="45.79328" lon="2.97838">
        <ele>844.2</ele>
        <time>2018-12-29T13:58:54Z</time>
      </trkpt>
      <trkpt lat="45.79324" lon="2.97833">
        <ele>844.2</ele>
        <time>2018-12-29T13:58:55Z</time>
      </trkpt>
      <trkpt lat="45.79312" lon="2.97819">
        <ele>844.2</ele>
        <time>2018-12-29T13:58:58Z</time>
      </trkpt>
      <trkpt lat="45.79308" lon="2.97814">
        <ele>844.2</ele>
        <time>2018-12-29T13:58:59Z</time>
      </trkpt>
      <trkpt lat="45.79294" lon="2.97797">
        <ele>843.8</ele>
        <time>2018-12-29T13:59:02Z</time>
      </trkpt>
      <trkpt lat="45.79289" lon="2.97793">
        <ele>843.2</ele>
        <time>2018-12-29T13:59:03Z</time>
      </trkpt>
      <trkpt lat="45.79284" lon="2.97789">
        <ele>842.8</ele>
        <time>2018-12-29T13:59:04Z</time>
      </trkpt>
      <trkpt lat="45.79281" lon="2.97785">
        <ele>842.4</ele>
        <time>2018-12-29T13:59:05Z</time>
      </trkpt>
      <trkpt lat="45.79277" lon="2.97781">
        <ele>841.8</ele>
        <time>2018-12-29T13:59:06Z</time>
      </trkpt>
      <trkpt lat="45.79275" lon="2.97779">
        <ele>841.8</ele>
        <time>2018-12-29T13:59:07Z</time>
      </trkpt>
      <trkpt lat="45.79274" lon="2.97777">
        <ele>841.8</ele>
        <time>2018-12-29T13:59:09Z</time>
      </trkpt>
      <trkpt lat="45.79272" lon="2.97776">
        <ele>841.8</ele>
        <time>2018-12-29T13:59:52Z</time>
      </trkpt>
      <trkpt lat="45.7926" lon="2.97777">
        <ele>841.8</ele>
        <time>2018-12-29T13:59:56Z</time>
      </trkpt>
      <trkpt lat="45.79252" lon="2.97778">
        <ele>841.4</ele>
        <time>2018-12-29T13:59:58Z</time>
      </trkpt>
      <trkpt lat="45.79247" lon="2.97778">
        <ele>840.8</ele>
        <time>2018-12-29T13:59:59Z</time>
      </trkpt>
      <trkpt lat="45.79242" lon="2.97779">
        <ele>840.4</ele>
        <time>2018-12-29T14:00:00Z</time>
      </trkpt>
      <trkpt lat="45.79237" lon="2.97779">
        <ele>840</ele>
        <time>2018-12-29T14:00:01Z</time>
      </trkpt>
      <trkpt lat="45.79232" lon="2.9778">
        <ele>838.8</ele>
        <time>2018-12-29T14:00:02Z</time>
      </trkpt>
      <trkpt lat="45.79228" lon="2.9778">
        <ele>838.4</ele>
        <time>2018-12-29T14:00:03Z</time>
      </trkpt>
      <trkpt lat="45.79224" lon="2.97781">
        <ele>837.8</ele>
        <time>2018-12-29T14:00:04Z</time>
      </trkpt>
      <trkpt lat="45.7922" lon="2.97782">
        <ele>837.4</ele>
        <time>2018-12-29T14:00:05Z</time>
      </trkpt>
      <trkpt lat="45.79216" lon="2.97783">
        <ele>837.4</ele>
        <time>2018-12-29T14:00:06Z</time>
      </trkpt>
      <trkpt lat="45.79212" lon="2.97785">
        <ele>837.4</ele>
        <time>2018-12-29T14:00:07Z</time>
      </trkpt>
      <trkpt lat="45.79202" lon="2.97799">
        <ele>836.8</ele>
        <time>2018-12-29T14:00:10Z</time>
      </trkpt>
      <trkpt lat="45.79199" lon="2.97804">
        <ele>836.4</ele>
        <time>2018-12-29T14:00:11Z</time>
      </trkpt>
      <trkpt lat="45.79195" lon="2.97811">
        <ele>835.8</ele>
        <time>2018-12-29T14:00:12Z</time>
      </trkpt>
      <trkpt lat="45.79192" lon="2.97818">
        <ele>835.4</ele>
        <time>2018-12-29T14:00:13Z</time>
      </trkpt>
      <trkpt lat="45.79188" lon="2.97826">
        <ele>834.8</ele>
        <time>2018-12-29T14:00:14Z</time>
      </trkpt>
      <trkpt lat="45.79183" lon="2.97833">
        <ele>834</ele>
        <time>2018-12-29T14:00:15Z</time>
      </trkpt>
      <trkpt lat="45.79179" lon="2.97841">
        <ele>833.4</ele>
        <time>2018-12-29T14:00:16Z</time>
      </trkpt>
      <trkpt lat="45.79174" lon="2.97848">
        <ele>832.6</ele>
        <time>2018-12-29T14:00:17Z</time>
      </trkpt>
      <trkpt lat="45.79169" lon="2.97856">
        <ele>832</ele>
        <time>2018-12-29T14:00:18Z</time>
      </trkpt>
      <trkpt lat="45.79164" lon="2.97864">
        <ele>831.4</ele>
        <time>2018-12-29T14:00:19Z</time>
      </trkpt>
      <trkpt lat="45.7916" lon="2.97873">
        <ele>830.6</ele>
        <time>2018-12-29T14:00:20Z</time>
      </trkpt>
      <trkpt lat="45.79156" lon="2.97881">
        <ele>830</ele>
        <time>2018-12-29T14:00:21Z</time>
      </trkpt>
      <trkpt lat="45.79152" lon="2.97888">
        <ele>829.4</ele>
        <time>2018-12-29T14:00:22Z</time>
      </trkpt>
      <trkpt lat="45.79148" lon="2.97892">
        <ele>828.8</ele>
        <time>2018-12-29T14:00:23Z</time>
      </trkpt>
      <trkpt lat="45.79145" lon="2.97897">
        <ele>828.2</ele>
        <time>2018-12-29T14:00:24Z</time>
      </trkpt>
      <trkpt lat="45.79142" lon="2.97902">
        <ele>827.4</ele>
        <time>2018-12-29T14:00:25Z</time>
      </trkpt>
      <trkpt lat="45.79138" lon="2.97907">
        <ele>827.4</ele>
        <time>2018-12-29T14:00:26Z</time>
      </trkpt>
      <trkpt lat="45.7913" lon="2.97917">
        <ele>827</ele>
        <time>2018-12-29T14:00:28Z</time>
      </trkpt>
      <trkpt lat="45.79125" lon="2.97923">
        <ele>826.6</ele>
        <time>2018-12-29T14:00:29Z</time>
      </trkpt>
      <trkpt lat="45.79121" lon="2.97929">
        <ele>826.2</ele>
        <time>2018-12-29T14:00:30Z</time>
      </trkpt>
      <trkpt lat="45.79117" lon="2.97936">
        <ele>825.6</ele>
        <time>2018-12-29T14:00:31Z</time>
      </trkpt>
      <trkpt lat="45.79113" lon="2.97942">
        <ele>825</ele>
        <time>2018-12-29T14:00:32Z</time>
      </trkpt>
      <trkpt lat="45.79108" lon="2.97947">
        <ele>824.2</ele>
        <time>2018-12-29T14:00:33Z</time>
      </trkpt>
      <trkpt lat="45.79103" lon="2.97952">
        <ele>823.6</ele>
        <time>2018-12-29T14:00:34Z</time>
      </trkpt>
      <trkpt lat="45.79097" lon="2.97956">
        <ele>823</ele>
        <time>2018-12-29T14:00:35Z</time>
      </trkpt>
      <trkpt lat="45.7909" lon="2.9796">
        <ele>822.6</ele>
        <time>2018-12-29T14:00:36Z</time>
      </trkpt>
      <trkpt lat="45.79084" lon="2.97965">
        <ele>822</ele>
        <time>2018-12-29T14:00:37Z</time>
      </trkpt>
      <trkpt lat="45.79078" lon="2.9797">
        <ele>821.6</ele>
        <time>2018-12-29T14:00:38Z</time>
      </trkpt>
      <trkpt lat="45.79073" lon="2.97978">
        <ele>821.2</ele>
        <time>2018-12-29T14:00:39Z</time>
      </trkpt>
      <trkpt lat="45.79068" lon="2.97987">
        <ele>820.4</ele>
        <time>2018-12-29T14:00:40Z</time>
      </trkpt>
      <trkpt lat="45.79063" lon="2.97995">
        <ele>819.8</ele>
        <time>2018-12-29T14:00:41Z</time>
      </trkpt>
      <trkpt lat="45.79056" lon="2.98005">
        <ele>819</ele>
        <time>2018-12-29T14:00:42Z</time>
      </trkpt>
      <trkpt lat="45.7905" lon="2.98014">
        <ele>818.2</ele>
        <time>2018-12-29T14:00:43Z</time>
      </trkpt>
      <trkpt lat="45.79044" lon="2.98023">
        <ele>817.2</ele>
        <time>2018-12-29T14:00:44Z</time>
      </trkpt>
      <trkpt lat="45.79039" lon="2.98033">
        <ele>816.2</ele>
        <time>2018-12-29T14:00:45Z</time>
      </trkpt>
      <trkpt lat="45.79033" lon="2.98043">
        <ele>815</ele>
        <time>2018-12-29T14:00:46Z</time>
      </trkpt>
      <trkpt lat="45.79028" lon="2.98054">
        <ele>814</ele>
        <time>2018-12-29T14:00:47Z</time>
      </trkpt>
      <trkpt lat="45.79022" lon="2.98065">
        <ele>813</ele>
        <time>2018-12-29T14:00:48Z</time>
      </trkpt>
      <trkpt lat="45.79016" lon="2.98076">
        <ele>812</ele>
        <time>2018-12-29T14:00:49Z</time>
      </trkpt>
      <trkpt lat="45.79011" lon="2.98088">
        <ele>811.2</ele>
        <time>2018-12-29T14:00:50Z</time>
      </trkpt>
      <trkpt lat="45.79006" lon="2.98097">
        <ele>809.4</ele>
        <time>2018-12-29T14:00:51Z</time>
      </trkpt>
      <trkpt lat="45.79" lon="2.98106">
        <ele>808.4</ele>
        <time>2018-12-29T14:00:52Z</time>
      </trkpt>
      <trkpt lat="45.7898" lon="2.9814">
        <ele>808</ele>
        <time>2018-12-29T14:00:56Z</time>
      </trkpt>
      <trkpt lat="45.78976" lon="2.98148">
        <ele>807.6</ele>
        <time>2018-12-29T14:00:57Z</time>
      </trkpt>
      <trkpt lat="45.78972" lon="2.98156">
        <ele>807.2</ele>
        <time>2018-12-29T14:00:58Z</time>
      </trkpt>
      <trkpt lat="45.78968" lon="2.98163">
        <ele>806.8</ele>
        <time>2018-12-29T14:00:59Z</time>
      </trkpt>
      <trkpt lat="45.78963" lon="2.98169">
        <ele>806.4</ele>
        <time>2018-12-29T14:01:00Z</time>
      </trkpt>
      <trkpt lat="45.78957" lon="2.98174">
        <ele>806.4</ele>
        <time>2018-12-29T14:01:01Z</time>
      </trkpt>
      <trkpt lat="45.78943" lon="2.9819">
        <ele>806.4</ele>
        <time>2018-12-29T14:01:04Z</time>
      </trkpt>
      <trkpt lat="45.78935" lon="2.98202">
        <ele>806.4</ele>
        <time>2018-12-29T14:01:06Z</time>
      </trkpt>
      <trkpt lat="45.78931" lon="2.98207">
        <ele>806.4</ele>
        <time>2018-12-29T14:01:07Z</time>
      </trkpt>
      <trkpt lat="45.78917" lon="2.98231">
        <ele>806</ele>
        <time>2018-12-29T14:01:11Z</time>
      </trkpt>
      <trkpt lat="45.78914" lon="2.98236">
        <ele>805.6</ele>
        <time>2018-12-29T14:01:12Z</time>
      </trkpt>
      <trkpt lat="45.78909" lon="2.98242">
        <ele>805.2</ele>
        <time>2018-12-29T14:01:13Z</time>
      </trkpt>
      <trkpt lat="45.78905" lon="2.98248">
        <ele>804.8</ele>
        <time>2018-12-29T14:01:14Z</time>
      </trkpt>
      <trkpt lat="45.78902" lon="2.98253">
        <ele>804.2</ele>
        <time>2018-12-29T14:01:15Z</time>
      </trkpt>
      <trkpt lat="45.78898" lon="2.98258">
        <ele>804.2</ele>
        <time>2018-12-29T14:01:16Z</time>
      </trkpt>
      <trkpt lat="45.78873" lon="2.9829">
        <ele>803.8</ele>
        <time>2018-12-29T14:01:23Z</time>
      </trkpt>
      <trkpt lat="45.78869" lon="2.98295">
        <ele>803.4</ele>
        <time>2018-12-29T14:01:24Z</time>
      </trkpt>
      <trkpt lat="45.78866" lon="2.983">
        <ele>803</ele>
        <time>2018-12-29T14:01:25Z</time>
      </trkpt>
      <trkpt lat="45.78863" lon="2.98304">
        <ele>802.6</ele>
        <time>2018-12-29T14:01:26Z</time>
      </trkpt>
      <trkpt lat="45.7886" lon="2.98309">
        <ele>802.2</ele>
        <time>2018-12-29T14:01:27Z</time>
      </trkpt>
      <trkpt lat="45.7885" lon="2.98321">
        <ele>802.2</ele>
        <time>2018-12-29T14:01:30Z</time>
      </trkpt>
      <trkpt lat="45.78842" lon="2.98334">
        <ele>802.2</ele>
        <time>2018-12-29T14:01:33Z</time>
      </trkpt>
      <trkpt lat="45.78837" lon="2.98342">
        <ele>802.2</ele>
        <time>2018-12-29T14:01:35Z</time>
      </trkpt>
      <trkpt lat="45.78832" lon="2.98351">
        <ele>802.2</ele>
        <time>2018-12-29T14:01:37Z</time>
      </trkpt>
      <trkpt lat="45.78828" lon="2.98367">
        <ele>801.8</ele>
        <time>2018-12-29T14:01:40Z</time>
      </trkpt>
      <trkpt lat="45.78829" lon="2.98372">
        <ele>801.2</ele>
        <time>2018-12-29T14:01:41Z</time>
      </trkpt>
      <trkpt lat="45.7883" lon="2.98378">
        <ele>800.8</ele>
        <time>2018-12-29T14:01:42Z</time>
      </trkpt>
      <trkpt lat="45.7883" lon="2.98384">
        <ele>800.4</ele>
        <time>2018-12-29T14:01:43Z</time>
      </trkpt>
      <trkpt lat="45.7883" lon="2.98389">
        <ele>800</ele>
        <time>2018-12-29T14:01:44Z</time>
      </trkpt>
      <trkpt lat="45.78828" lon="2.98402">
        <ele>800</ele>
        <time>2018-12-29T14:01:47Z</time>
      </trkpt>
      <trkpt lat="45.78824" lon="2.98408">
        <ele>800</ele>
        <time>2018-12-29T14:01:49Z</time>
      </trkpt>
      <trkpt lat="45.78812" lon="2.98415">
        <ele>800</ele>
        <time>2018-12-29T14:01:53Z</time>
      </trkpt>
      <trkpt lat="45.78805" lon="2.98414">
        <ele>800</ele>
        <time>2018-12-29T14:01:55Z</time>
      </trkpt>
      <trkpt lat="45.78795" lon="2.98415">
        <ele>800</ele>
        <time>2018-12-29T14:01:58Z</time>
      </trkpt>
      <trkpt lat="45.78774" lon="2.98414">
        <ele>800</ele>
        <time>2018-12-29T14:02:04Z</time>
      </trkpt>
      <trkpt lat="45.78751" lon="2.98411">
        <ele>800</ele>
        <time>2018-12-29T14:02:11Z</time>
      </trkpt>
      <trkpt lat="45.78739" lon="2.98409">
        <ele>800</ele>
        <time>2018-12-29T14:02:15Z</time>
      </trkpt>
      <trkpt lat="45.78724" lon="2.98414">
        <ele>800</ele>
        <time>2018-12-29T14:02:20Z</time>
      </trkpt>
      <trkpt lat="45.78706" lon="2.98421">
        <ele>800</ele>
        <time>2018-12-29T14:02:25Z</time>
      </trkpt>
      <trkpt lat="45.78685" lon="2.98424">
        <ele>800</ele>
        <time>2018-12-29T14:02:31Z</time>
      </trkpt>
      <trkpt lat="45.78658" lon="2.98423">
        <ele>800</ele>
        <time>2018-12-29T14:02:38Z</time>
      </trkpt>
      <trkpt lat="45.78641" lon="2.98421">
        <ele>800</ele>
        <time>2018-12-29T14:02:42Z</time>
      </trkpt>
      <trkpt lat="45.78633" lon="2.98422">
        <ele>800</ele>
        <time>2018-12-29T14:02:44Z</time>
      </trkpt>
      <trkpt lat="45.78613" lon="2.9843">
        <ele>800</ele>
        <time>2018-12-29T14:02:49Z</time>
      </trkpt>
      <trkpt lat="45.78594" lon="2.98434">
        <ele>800</ele>
        <time>2018-12-29T14:02:54Z</time>
      </trkpt>
      <trkpt lat="45.7859" lon="2.98434">
        <ele>800</ele>
        <time>2018-12-29T14:02:55Z</time>
      </trkpt>
      <trkpt lat="45.78572" lon="2.98437">
        <ele>800</ele>
        <time>2018-12-29T14:02:59Z</time>
      </trkpt>
      <trkpt lat="45.78568" lon="2.98438">
        <ele>799.6</ele>
        <time>2018-12-29T14:03:00Z</time>
      </trkpt>
      <trkpt lat="45.78563" lon="2.98439">
        <ele>799.2</ele>
        <time>2018-12-29T14:03:01Z</time>
      </trkpt>
      <trkpt lat="45.78559" lon="2.98441">
        <ele>798.6</ele>
        <time>2018-12-29T14:03:02Z</time>
      </trkpt>
      <trkpt lat="45.78555" lon="2.98443">
        <ele>798.2</ele>
        <time>2018-12-29T14:03:03Z</time>
      </trkpt>
      <trkpt lat="45.7855" lon="2.98446">
        <ele>797.8</ele>
        <time>2018-12-29T14:03:04Z</time>
      </trkpt>
      <trkpt lat="45.78528" lon="2.98458">
        <ele>797.8</ele>
        <time>2018-12-29T14:03:09Z</time>
      </trkpt>
      <trkpt lat="45.78514" lon="2.98468">
        <ele>797.4</ele>
        <time>2018-12-29T14:03:12Z</time>
      </trkpt>
      <trkpt lat="45.78509" lon="2.98471">
        <ele>797</ele>
        <time>2018-12-29T14:03:13Z</time>
      </trkpt>
      <trkpt lat="45.78503" lon="2.98474">
        <ele>796.6</ele>
        <time>2018-12-29T14:03:14Z</time>
      </trkpt>
      <trkpt lat="45.78498" lon="2.98477">
        <ele>796</ele>
        <time>2018-12-29T14:03:15Z</time>
      </trkpt>
      <trkpt lat="45.78493" lon="2.9848">
        <ele>795.6</ele>
        <time>2018-12-29T14:03:16Z</time>
      </trkpt>
      <trkpt lat="45.78482" lon="2.98487">
        <ele>795.6</ele>
        <time>2018-12-29T14:03:18Z</time>
      </trkpt>
      <trkpt lat="45.78467" lon="2.98499">
        <ele>795.6</ele>
        <time>2018-12-29T14:03:21Z</time>
      </trkpt>
      <trkpt lat="45.78456" lon="2.98506">
        <ele>795.6</ele>
        <time>2018-12-29T14:03:23Z</time>
      </trkpt>
      <trkpt lat="45.78439" lon="2.98514">
        <ele>795.2</ele>
        <time>2018-12-29T14:03:26Z</time>
      </trkpt>
      <trkpt lat="45.78433" lon="2.98516">
        <ele>794.8</ele>
        <time>2018-12-29T14:03:27Z</time>
      </trkpt>
      <trkpt lat="45.78427" lon="2.98518">
        <ele>794.4</ele>
        <time>2018-12-29T14:03:28Z</time>
      </trkpt>
      <trkpt lat="45.78423" lon="2.9852">
        <ele>794</ele>
        <time>2018-12-29T14:03:29Z</time>
      </trkpt>
      <trkpt lat="45.78418" lon="2.98522">
        <ele>793.6</ele>
        <time>2018-12-29T14:03:30Z</time>
      </trkpt>
      <trkpt lat="45.78413" lon="2.98523">
        <ele>793.6</ele>
        <time>2018-12-29T14:03:31Z</time>
      </trkpt>
      <trkpt lat="45.78388" lon="2.98529">
        <ele>793.2</ele>
        <time>2018-12-29T14:03:36Z</time>
      </trkpt>
      <trkpt lat="45.78382" lon="2.9853">
        <ele>792.8</ele>
        <time>2018-12-29T14:03:37Z</time>
      </trkpt>
      <trkpt lat="45.78375" lon="2.98531">
        <ele>792.4</ele>
        <time>2018-12-29T14:03:38Z</time>
      </trkpt>
      <trkpt lat="45.78368" lon="2.98532">
        <ele>791.8</ele>
        <time>2018-12-29T14:03:39Z</time>
      </trkpt>
      <trkpt lat="45.78362" lon="2.98533">
        <ele>791.4</ele>
        <time>2018-12-29T14:03:40Z</time>
      </trkpt>
      <trkpt lat="45.78351" lon="2.98536">
        <ele>791.4</ele>
        <time>2018-12-29T14:03:42Z</time>
      </trkpt>
      <trkpt lat="45.78327" lon="2.98544">
        <ele>791.4</ele>
        <time>2018-12-29T14:03:46Z</time>
      </trkpt>
      <trkpt lat="45.78311" lon="2.98547">
        <ele>791.4</ele>
        <time>2018-12-29T14:03:48Z</time>
      </trkpt>
      <trkpt lat="45.78298" lon="2.9855">
        <ele>791</ele>
        <time>2018-12-29T14:03:50Z</time>
      </trkpt>
      <trkpt lat="45.78291" lon="2.9855">
        <ele>790.6</ele>
        <time>2018-12-29T14:03:51Z</time>
      </trkpt>
      <trkpt lat="45.78284" lon="2.98552">
        <ele>790.2</ele>
        <time>2018-12-29T14:03:52Z</time>
      </trkpt>
      <trkpt lat="45.78278" lon="2.98554">
        <ele>789.6</ele>
        <time>2018-12-29T14:03:53Z</time>
      </trkpt>
      <trkpt lat="45.78272" lon="2.98556">
        <ele>789.2</ele>
        <time>2018-12-29T14:03:54Z</time>
      </trkpt>
      <trkpt lat="45.7824" lon="2.98567">
        <ele>789.2</ele>
        <time>2018-12-29T14:04:00Z</time>
      </trkpt>
      <trkpt lat="45.78235" lon="2.98568">
        <ele>789.2</ele>
        <time>2018-12-29T14:04:01Z</time>
      </trkpt>
      <trkpt lat="45.78211" lon="2.98574">
        <ele>789.2</ele>
        <time>2018-12-29T14:04:06Z</time>
      </trkpt>
      <trkpt lat="45.782" lon="2.98576">
        <ele>789.2</ele>
        <time>2018-12-29T14:04:08Z</time>
      </trkpt>
      <trkpt lat="45.78192" lon="2.98577">
        <ele>789.2</ele>
        <time>2018-12-29T14:04:10Z</time>
      </trkpt>
      <trkpt lat="45.78175" lon="2.9858">
        <ele>789.2</ele>
        <time>2018-12-29T14:04:15Z</time>
      </trkpt>
      <trkpt lat="45.78165" lon="2.9858">
        <ele>788.8</ele>
        <time>2018-12-29T14:04:17Z</time>
      </trkpt>
      <trkpt lat="45.7816" lon="2.9858">
        <ele>788.4</ele>
        <time>2018-12-29T14:04:18Z</time>
      </trkpt>
      <trkpt lat="45.78154" lon="2.98579">
        <ele>788</ele>
        <time>2018-12-29T14:04:19Z</time>
      </trkpt>
      <trkpt lat="45.78148" lon="2.98578">
        <ele>787.6</ele>
        <time>2018-12-29T14:04:20Z</time>
      </trkpt>
      <trkpt lat="45.78142" lon="2.98576">
        <ele>787.2</ele>
        <time>2018-12-29T14:04:21Z</time>
      </trkpt>
      <trkpt lat="45.78136" lon="2.98573">
        <ele>787.2</ele>
        <time>2018-12-29T14:04:23Z</time>
      </trkpt>
      <trkpt lat="45.78133" lon="2.98583">
        <ele>787.2</ele>
        <time>2018-12-29T14:04:26Z</time>
      </trkpt>
      <trkpt lat="45.78136" lon="2.98581">
        <ele>787.2</ele>
        <time>2018-12-29T14:04:29Z</time>
      </trkpt>
      <trkpt lat="45.78133" lon="2.98577">
        <ele>787.2</ele>
        <time>2018-12-29T14:04:32Z</time>
      </trkpt>
      <trkpt lat="45.78131" lon="2.98576">
        <ele>787.2</ele>
        <time>2018-12-29T14:04:34Z</time>
      </trkpt>
      <trkpt lat="45.78131" lon="2.98574">
        <ele>787.2</ele>
        <time>2018-12-29T14:04:36Z</time>
      </trkpt>
      <trkpt lat="45.7813" lon="2.98574">
        <ele>787.2</ele>
        <time>2018-12-29T14:05:49Z</time>
      </trkpt>
      <trkpt lat="45.78129" lon="2.98575">
        <ele>787.2</ele>
        <time>2018-12-29T14:05:51Z</time>
      </trkpt>
      <trkpt lat="45.7812" lon="2.98584">
        <ele>787.2</ele>
        <time>2018-12-29T14:05:55Z</time>
      </trkpt>
      <trkpt lat="45.78101" lon="2.98586">
        <ele>787.2</ele>
        <time>2018-12-29T14:06:00Z</time>
      </trkpt>
      <trkpt lat="45.7808" lon="2.98584">
        <ele>787.2</ele>
        <time>2018-12-29T14:06:05Z</time>
      </trkpt>
      <trkpt lat="45.78071" lon="2.98586">
        <ele>787.2</ele>
        <time>2018-12-29T14:06:07Z</time>
      </trkpt>
      <trkpt lat="45.78059" lon="2.98587">
        <ele>787.2</ele>
        <time>2018-12-29T14:06:10Z</time>
      </trkpt>
      <trkpt lat="45.78049" lon="2.98588">
        <ele>787.2</ele>
        <time>2018-12-29T14:06:14Z</time>
      </trkpt>
      <trkpt lat="45.78039" lon="2.98587">
        <ele>787.2</ele>
        <time>2018-12-29T14:06:19Z</time>
      </trkpt>
      <trkpt lat="45.78022" lon="2.98581">
        <ele>787.2</ele>
        <time>2018-12-29T14:06:25Z</time>
      </trkpt>
      <trkpt lat="45.77999" lon="2.98578">
        <ele>787.2</ele>
        <time>2018-12-29T14:06:30Z</time>
      </trkpt>
      <trkpt lat="45.77979" lon="2.98572">
        <ele>787.2</ele>
        <time>2018-12-29T14:06:35Z</time>
      </trkpt>
      <trkpt lat="45.7797" lon="2.9857">
        <ele>787.2</ele>
        <time>2018-12-29T14:06:37Z</time>
      </trkpt>
      <trkpt lat="45.77946" lon="2.98562">
        <ele>787.2</ele>
        <time>2018-12-29T14:06:43Z</time>
      </trkpt>
      <trkpt lat="45.77928" lon="2.98558">
        <ele>787.2</ele>
        <time>2018-12-29T14:06:47Z</time>
      </trkpt>
      <trkpt lat="45.77924" lon="2.98557">
        <ele>787.2</ele>
        <time>2018-12-29T14:06:48Z</time>
      </trkpt>
      <trkpt lat="45.77921" lon="2.98556">
        <ele>787.2</ele>
        <time>2018-12-29T14:06:49Z</time>
      </trkpt>
      <trkpt lat="45.77913" lon="2.98554">
        <ele>787.2</ele>
        <time>2018-12-29T14:06:51Z</time>
      </trkpt>
      <trkpt lat="45.77904" lon="2.98547">
        <ele>787.2</ele>
        <time>2018-12-29T14:06:53Z</time>
      </trkpt>
      <trkpt lat="45.77877" lon="2.98528">
        <ele>787.2</ele>
        <time>2018-12-29T14:06:59Z</time>
      </trkpt>
      <trkpt lat="45.77851" lon="2.98509">
        <ele>787.2</ele>
        <time>2018-12-29T14:07:05Z</time>
      </trkpt>
      <trkpt lat="45.77828" lon="2.98494">
        <ele>787.2</ele>
        <time>2018-12-29T14:07:10Z</time>
      </trkpt>
      <trkpt lat="45.77793" lon="2.98474">
        <ele>787.2</ele>
        <time>2018-12-29T14:07:17Z</time>
      </trkpt>
      <trkpt lat="45.77754" lon="2.98451">
        <ele>787.2</ele>
        <time>2018-12-29T14:07:24Z</time>
      </trkpt>
      <trkpt lat="45.77738" lon="2.98442">
        <ele>786.2</ele>
        <time>2018-12-29T14:07:27Z</time>
      </trkpt>
      <trkpt lat="45.77732" lon="2.98439">
        <ele>785.8</ele>
        <time>2018-12-29T14:07:28Z</time>
      </trkpt>
      <trkpt lat="45.77725" lon="2.98437">
        <ele>785.4</ele>
        <time>2018-12-29T14:07:29Z</time>
      </trkpt>
      <trkpt lat="45.77719" lon="2.98435">
        <ele>785</ele>
        <time>2018-12-29T14:07:30Z</time>
      </trkpt>
      <trkpt lat="45.77713" lon="2.98431">
        <ele>785</ele>
        <time>2018-12-29T14:07:31Z</time>
      </trkpt>
      <trkpt lat="45.77678" lon="2.98412">
        <ele>785</ele>
        <time>2018-12-29T14:07:37Z</time>
      </trkpt>
      <trkpt lat="45.7765" lon="2.98396">
        <ele>784.6</ele>
        <time>2018-12-29T14:07:42Z</time>
      </trkpt>
      <trkpt lat="45.77645" lon="2.98393">
        <ele>784.2</ele>
        <time>2018-12-29T14:07:43Z</time>
      </trkpt>
      <trkpt lat="45.77639" lon="2.9839">
        <ele>783.8</ele>
        <time>2018-12-29T14:07:44Z</time>
      </trkpt>
      <trkpt lat="45.77634" lon="2.98385">
        <ele>783.4</ele>
        <time>2018-12-29T14:07:45Z</time>
      </trkpt>
      <trkpt lat="45.77628" lon="2.98381">
        <ele>783</ele>
        <time>2018-12-29T14:07:46Z</time>
      </trkpt>
      <trkpt lat="45.77612" lon="2.98366">
        <ele>783</ele>
        <time>2018-12-29T14:07:49Z</time>
      </trkpt>
      <trkpt lat="45.77601" lon="2.98357">
        <ele>782.4</ele>
        <time>2018-12-29T14:07:51Z</time>
      </trkpt>
      <trkpt lat="45.77595" lon="2.98352">
        <ele>782</ele>
        <time>2018-12-29T14:07:52Z</time>
      </trkpt>
      <trkpt lat="45.7759" lon="2.98346">
        <ele>781.6</ele>
        <time>2018-12-29T14:07:53Z</time>
      </trkpt>
      <trkpt lat="45.77584" lon="2.98341">
        <ele>781</ele>
        <time>2018-12-29T14:07:54Z</time>
      </trkpt>
      <trkpt lat="45.77578" lon="2.98336">
        <ele>780.6</ele>
        <time>2018-12-29T14:07:55Z</time>
      </trkpt>
      <trkpt lat="45.77573" lon="2.98332">
        <ele>780.2</ele>
        <time>2018-12-29T14:07:56Z</time>
      </trkpt>
      <trkpt lat="45.77567" lon="2.98328">
        <ele>779.8</ele>
        <time>2018-12-29T14:07:57Z</time>
      </trkpt>
      <trkpt lat="45.77562" lon="2.98325">
        <ele>779.4</ele>
        <time>2018-12-29T14:07:58Z</time>
      </trkpt>
      <trkpt lat="45.77556" lon="2.98321">
        <ele>779</ele>
        <time>2018-12-29T14:07:59Z</time>
      </trkpt>
      <trkpt lat="45.7755" lon="2.98318">
        <ele>778.6</ele>
        <time>2018-12-29T14:08:00Z</time>
      </trkpt>
      <trkpt lat="45.77509" lon="2.98298">
        <ele>778.6</ele>
        <time>2018-12-29T14:08:07Z</time>
      </trkpt>
      <trkpt lat="45.77478" lon="2.98278">
        <ele>778.6</ele>
        <time>2018-12-29T14:08:13Z</time>
      </trkpt>
      <trkpt lat="45.77455" lon="2.98267">
        <ele>778.6</ele>
        <time>2018-12-29T14:08:17Z</time>
      </trkpt>
      <trkpt lat="45.7745" lon="2.98265">
        <ele>778.6</ele>
        <time>2018-12-29T14:08:18Z</time>
      </trkpt>
      <trkpt lat="45.77445" lon="2.98265">
        <ele>778.6</ele>
        <time>2018-12-29T14:08:19Z</time>
      </trkpt>
      <trkpt lat="45.7743" lon="2.98263">
        <ele>778.6</ele>
        <time>2018-12-29T14:08:22Z</time>
      </trkpt>
      <trkpt lat="45.77412" lon="2.98259">
        <ele>778.6</ele>
        <time>2018-12-29T14:08:25Z</time>
      </trkpt>
      <trkpt lat="45.77406" lon="2.98256">
        <ele>778.6</ele>
        <time>2018-12-29T14:08:26Z</time>
      </trkpt>
      <trkpt lat="45.77394" lon="2.9825">
        <ele>778.6</ele>
        <time>2018-12-29T14:08:28Z</time>
      </trkpt>
      <trkpt lat="45.77377" lon="2.9824">
        <ele>778.6</ele>
        <time>2018-12-29T14:08:31Z</time>
      </trkpt>
      <trkpt lat="45.77372" lon="2.98237">
        <ele>778.6</ele>
        <time>2018-12-29T14:08:32Z</time>
      </trkpt>
      <trkpt lat="45.77358" lon="2.98228">
        <ele>778.6</ele>
        <time>2018-12-29T14:08:35Z</time>
      </trkpt>
      <trkpt lat="45.77333" lon="2.98211">
        <ele>778.6</ele>
        <time>2018-12-29T14:08:40Z</time>
      </trkpt>
      <trkpt lat="45.77307" lon="2.98195">
        <ele>778.6</ele>
        <time>2018-12-29T14:08:44Z</time>
      </trkpt>
      <trkpt lat="45.77277" lon="2.98178">
        <ele>778.6</ele>
        <time>2018-12-29T14:08:49Z</time>
      </trkpt>
      <trkpt lat="45.77249" lon="2.98163">
        <ele>778.6</ele>
        <time>2018-12-29T14:08:54Z</time>
      </trkpt>
      <trkpt lat="45.7724" lon="2.98156">
        <ele>778.6</ele>
        <time>2018-12-29T14:08:56Z</time>
      </trkpt>
      <trkpt lat="45.77236" lon="2.98153">
        <ele>779</ele>
        <time>2018-12-29T14:08:57Z</time>
      </trkpt>
      <trkpt lat="45.77232" lon="2.98151">
        <ele>779.4</ele>
        <time>2018-12-29T14:08:58Z</time>
      </trkpt>
      <trkpt lat="45.77227" lon="2.98148">
        <ele>779.8</ele>
        <time>2018-12-29T14:08:59Z</time>
      </trkpt>
      <trkpt lat="45.77223" lon="2.98145">
        <ele>780.2</ele>
        <time>2018-12-29T14:09:00Z</time>
      </trkpt>
      <trkpt lat="45.77218" lon="2.98142">
        <ele>780.6</ele>
        <time>2018-12-29T14:09:01Z</time>
      </trkpt>
      <trkpt lat="45.77214" lon="2.98138">
        <ele>780.6</ele>
        <time>2018-12-29T14:09:02Z</time>
      </trkpt>
      <trkpt lat="45.7721" lon="2.98135">
        <ele>780.6</ele>
        <time>2018-12-29T14:09:03Z</time>
      </trkpt>
      <trkpt lat="45.77197" lon="2.98123">
        <ele>780.6</ele>
        <time>2018-12-29T14:09:06Z</time>
      </trkpt>
      <trkpt lat="45.77191" lon="2.98118">
        <ele>780.6</ele>
        <time>2018-12-29T14:09:07Z</time>
      </trkpt>
      <trkpt lat="45.77174" lon="2.98105">
        <ele>780.6</ele>
        <time>2018-12-29T14:09:10Z</time>
      </trkpt>
      <trkpt lat="45.77156" lon="2.98092">
        <ele>780.6</ele>
        <time>2018-12-29T14:09:13Z</time>
      </trkpt>
      <trkpt lat="45.77144" lon="2.98083">
        <ele>781</ele>
        <time>2018-12-29T14:09:15Z</time>
      </trkpt>
      <trkpt lat="45.77139" lon="2.98078">
        <ele>781.6</ele>
        <time>2018-12-29T14:09:16Z</time>
      </trkpt>
      <trkpt lat="45.77133" lon="2.98073">
        <ele>782</ele>
        <time>2018-12-29T14:09:17Z</time>
      </trkpt>
      <trkpt lat="45.77128" lon="2.98069">
        <ele>782.4</ele>
        <time>2018-12-29T14:09:18Z</time>
      </trkpt>
      <trkpt lat="45.77123" lon="2.98065">
        <ele>782.8</ele>
        <time>2018-12-29T14:09:19Z</time>
      </trkpt>
      <trkpt lat="45.77118" lon="2.98062">
        <ele>783.4</ele>
        <time>2018-12-29T14:09:20Z</time>
      </trkpt>
      <trkpt lat="45.77114" lon="2.98059">
        <ele>784</ele>
        <time>2018-12-29T14:09:21Z</time>
      </trkpt>
      <trkpt lat="45.7711" lon="2.98055">
        <ele>784.6</ele>
        <time>2018-12-29T14:09:22Z</time>
      </trkpt>
      <trkpt lat="45.77106" lon="2.98052">
        <ele>785.2</ele>
        <time>2018-12-29T14:09:23Z</time>
      </trkpt>
      <trkpt lat="45.77102" lon="2.98049">
        <ele>785.8</ele>
        <time>2018-12-29T14:09:24Z</time>
      </trkpt>
      <trkpt lat="45.77099" lon="2.98049">
        <ele>786.6</ele>
        <time>2018-12-29T14:09:25Z</time>
      </trkpt>
      <trkpt lat="45.77095" lon="2.98048">
        <ele>787.2</ele>
        <time>2018-12-29T14:09:26Z</time>
      </trkpt>
      <trkpt lat="45.77092" lon="2.98046">
        <ele>787.2</ele>
        <time>2018-12-29T14:09:27Z</time>
      </trkpt>
      <trkpt lat="45.77077" lon="2.98035">
        <ele>787.2</ele>
        <time>2018-12-29T14:09:32Z</time>
      </trkpt>
      <trkpt lat="45.77074" lon="2.98033">
        <ele>787.6</ele>
        <time>2018-12-29T14:09:33Z</time>
      </trkpt>
      <trkpt lat="45.77072" lon="2.98032">
        <ele>788</ele>
        <time>2018-12-29T14:09:34Z</time>
      </trkpt>
      <trkpt lat="45.77069" lon="2.9803">
        <ele>788.4</ele>
        <time>2018-12-29T14:09:35Z</time>
      </trkpt>
      <trkpt lat="45.77067" lon="2.98028">
        <ele>788.8</ele>
        <time>2018-12-29T14:09:36Z</time>
      </trkpt>
      <trkpt lat="45.77064" lon="2.98027">
        <ele>789.2</ele>
        <time>2018-12-29T14:09:37Z</time>
      </trkpt>
      <trkpt lat="45.77061" lon="2.98024">
        <ele>789.2</ele>
        <time>2018-12-29T14:09:38Z</time>
      </trkpt>
      <trkpt lat="45.77045" lon="2.98013">
        <ele>789.2</ele>
        <time>2018-12-29T14:09:44Z</time>
      </trkpt>
      <trkpt lat="45.7703" lon="2.98005">
        <ele>789.2</ele>
        <time>2018-12-29T14:09:50Z</time>
      </trkpt>
      <trkpt lat="45.7702" lon="2.97992">
        <ele>789.2</ele>
        <time>2018-12-29T14:09:57Z</time>
      </trkpt>
      <trkpt lat="45.77007" lon="2.97983">
        <ele>789.2</ele>
        <time>2018-12-29T14:10:04Z</time>
      </trkpt>
      <trkpt lat="45.77001" lon="2.97976">
        <ele>789.2</ele>
        <time>2018-12-29T14:10:10Z</time>
      </trkpt>
      <trkpt lat="45.76992" lon="2.97972">
        <ele>789.2</ele>
        <time>2018-12-29T14:10:16Z</time>
      </trkpt>
      <trkpt lat="45.76981" lon="2.97968">
        <ele>789.2</ele>
        <time>2018-12-29T14:10:22Z</time>
      </trkpt>
      <trkpt lat="45.76969" lon="2.97968">
        <ele>789.2</ele>
        <time>2018-12-29T14:10:27Z</time>
      </trkpt>
      <trkpt lat="45.7696" lon="2.97958">
        <ele>789.2</ele>
        <time>2018-12-29T14:10:31Z</time>
      </trkpt>
      <trkpt lat="45.76958" lon="2.97956">
        <ele>789.6</ele>
        <time>2018-12-29T14:10:32Z</time>
      </trkpt>
      <trkpt lat="45.76954" lon="2.97955">
        <ele>790</ele>
        <time>2018-12-29T14:10:33Z</time>
      </trkpt>
      <trkpt lat="45.76951" lon="2.97954">
        <ele>790.4</ele>
        <time>2018-12-29T14:10:34Z</time>
      </trkpt>
      <trkpt lat="45.76947" lon="2.97953">
        <ele>790.8</ele>
        <time>2018-12-29T14:10:35Z</time>
      </trkpt>
      <trkpt lat="45.76943" lon="2.97952">
        <ele>791.2</ele>
        <time>2018-12-29T14:10:36Z</time>
      </trkpt>
      <trkpt lat="45.76923" lon="2.97955">
        <ele>791.2</ele>
        <time>2018-12-29T14:10:41Z</time>
      </trkpt>
      <trkpt lat="45.769" lon="2.97952">
        <ele>791.2</ele>
        <time>2018-12-29T14:10:47Z</time>
      </trkpt>
      <trkpt lat="45.76886" lon="2.97949">
        <ele>791.2</ele>
        <time>2018-12-29T14:10:52Z</time>
      </trkpt>
      <trkpt lat="45.76881" lon="2.97949">
        <ele>791.2</ele>
        <time>2018-12-29T14:10:53Z</time>
      </trkpt>
      <trkpt lat="45.76861" lon="2.97944">
        <ele>791.2</ele>
        <time>2018-12-29T14:10:57Z</time>
      </trkpt>
      <trkpt lat="45.76851" lon="2.97942">
        <ele>791.2</ele>
        <time>2018-12-29T14:10:59Z</time>
      </trkpt>
      <trkpt lat="45.76835" lon="2.97939">
        <ele>791.2</ele>
        <time>2018-12-29T14:11:02Z</time>
      </trkpt>
      <trkpt lat="45.76811" lon="2.97932">
        <ele>791.2</ele>
        <time>2018-12-29T14:11:07Z</time>
      </trkpt>
      <trkpt lat="45.76806" lon="2.97931">
        <ele>791.2</ele>
        <time>2018-12-29T14:11:08Z</time>
      </trkpt>
      <trkpt lat="45.76791" lon="2.97928">
        <ele>791.2</ele>
        <time>2018-12-29T14:11:11Z</time>
      </trkpt>
      <trkpt lat="45.7678" lon="2.97924">
        <ele>791.2</ele>
        <time>2018-12-29T14:11:13Z</time>
      </trkpt>
      <trkpt lat="45.76764" lon="2.97919">
        <ele>791.2</ele>
        <time>2018-12-29T14:11:17Z</time>
      </trkpt>
      <trkpt lat="45.76756" lon="2.97915">
        <ele>791.2</ele>
        <time>2018-12-29T14:11:19Z</time>
      </trkpt>
      <trkpt lat="45.76747" lon="2.97909">
        <ele>791.2</ele>
        <time>2018-12-29T14:11:21Z</time>
      </trkpt>
      <trkpt lat="45.76727" lon="2.97904">
        <ele>791.2</ele>
        <time>2018-12-29T14:11:26Z</time>
      </trkpt>
      <trkpt lat="45.76714" lon="2.97896">
        <ele>791.2</ele>
        <time>2018-12-29T14:11:30Z</time>
      </trkpt>
      <trkpt lat="45.76699" lon="2.97888">
        <ele>791.2</ele>
        <time>2018-12-29T14:11:35Z</time>
      </trkpt>
      <trkpt lat="45.7669" lon="2.97883">
        <ele>791.2</ele>
        <time>2018-12-29T14:11:38Z</time>
      </trkpt>
      <trkpt lat="45.76688" lon="2.97883">
        <ele>791.2</ele>
        <time>2018-12-29T14:11:39Z</time>
      </trkpt>
      <trkpt lat="45.76682" lon="2.97881">
        <ele>791.2</ele>
        <time>2018-12-29T14:11:41Z</time>
      </trkpt>
      <trkpt lat="45.76674" lon="2.97878">
        <ele>791.2</ele>
        <time>2018-12-29T14:11:43Z</time>
      </trkpt>
      <trkpt lat="45.76655" lon="2.97881">
        <ele>791.2</ele>
        <time>2018-12-29T14:11:48Z</time>
      </trkpt>
      <trkpt lat="45.7665" lon="2.97881">
        <ele>791.2</ele>
        <time>2018-12-29T14:11:49Z</time>
      </trkpt>
      <trkpt lat="45.76644" lon="2.97878">
        <ele>791.2</ele>
        <time>2018-12-29T14:11:51Z</time>
      </trkpt>
      <trkpt lat="45.76642" lon="2.97879">
        <ele>791.2</ele>
        <time>2018-12-29T14:11:52Z</time>
      </trkpt>
      <trkpt lat="45.76638" lon="2.97882">
        <ele>791.2</ele>
        <time>2018-12-29T14:11:54Z</time>
      </trkpt>
      <trkpt lat="45.76631" lon="2.97884">
        <ele>790.8</ele>
        <time>2018-12-29T14:11:56Z</time>
      </trkpt>
      <trkpt lat="45.76627" lon="2.97884">
        <ele>789.8</ele>
        <time>2018-12-29T14:11:57Z</time>
      </trkpt>
      <trkpt lat="45.76624" lon="2.97883">
        <ele>789.2</ele>
        <time>2018-12-29T14:11:58Z</time>
      </trkpt>
      <trkpt lat="45.7662" lon="2.97883">
        <ele>788.8</ele>
        <time>2018-12-29T14:11:59Z</time>
      </trkpt>
      <trkpt lat="45.76605" lon="2.97882">
        <ele>788.4</ele>
        <time>2018-12-29T14:12:03Z</time>
      </trkpt>
      <trkpt lat="45.766" lon="2.97884">
        <ele>788</ele>
        <time>2018-12-29T14:12:04Z</time>
      </trkpt>
      <trkpt lat="45.76595" lon="2.97884">
        <ele>787.6</ele>
        <time>2018-12-29T14:12:05Z</time>
      </trkpt>
      <trkpt lat="45.7659" lon="2.97883">
        <ele>787.2</ele>
        <time>2018-12-29T14:12:06Z</time>
      </trkpt>
      <trkpt lat="45.76584" lon="2.97882">
        <ele>786.8</ele>
        <time>2018-12-29T14:12:07Z</time>
      </trkpt>
      <trkpt lat="45.76565" lon="2.97881">
        <ele>786.8</ele>
        <time>2018-12-29T14:12:10Z</time>
      </trkpt>
      <trkpt lat="45.76554" lon="2.97877">
        <ele>786.8</ele>
        <time>2018-12-29T14:12:12Z</time>
      </trkpt>
      <trkpt lat="45.76549" lon="2.97874">
        <ele>786.8</ele>
        <time>2018-12-29T14:12:13Z</time>
      </trkpt>
      <trkpt lat="45.76531" lon="2.97863">
        <ele>786.8</ele>
        <time>2018-12-29T14:12:17Z</time>
      </trkpt>
      <trkpt lat="45.76526" lon="2.97861">
        <ele>786.8</ele>
        <time>2018-12-29T14:12:18Z</time>
      </trkpt>
      <trkpt lat="45.76521" lon="2.97858">
        <ele>786.4</ele>
        <time>2018-12-29T14:12:19Z</time>
      </trkpt>
      <trkpt lat="45.76516" lon="2.97856">
        <ele>786</ele>
        <time>2018-12-29T14:12:20Z</time>
      </trkpt>
      <trkpt lat="45.76511" lon="2.97854">
        <ele>785.2</ele>
        <time>2018-12-29T14:12:21Z</time>
      </trkpt>
      <trkpt lat="45.76506" lon="2.97851">
        <ele>784.8</ele>
        <time>2018-12-29T14:12:22Z</time>
      </trkpt>
      <trkpt lat="45.76472" lon="2.9783">
        <ele>784.8</ele>
        <time>2018-12-29T14:12:30Z</time>
      </trkpt>
      <trkpt lat="45.76456" lon="2.9782">
        <ele>784.8</ele>
        <time>2018-12-29T14:12:34Z</time>
      </trkpt>
      <trkpt lat="45.76431" lon="2.97805">
        <ele>784.8</ele>
        <time>2018-12-29T14:12:40Z</time>
      </trkpt>
      <trkpt lat="45.76427" lon="2.97803">
        <ele>784.8</ele>
        <time>2018-12-29T14:12:41Z</time>
      </trkpt>
      <trkpt lat="45.76423" lon="2.97801">
        <ele>784.8</ele>
        <time>2018-12-29T14:12:43Z</time>
      </trkpt>
      <trkpt lat="45.76411" lon="2.97791">
        <ele>784.8</ele>
        <time>2018-12-29T14:12:47Z</time>
      </trkpt>
      <trkpt lat="45.76398" lon="2.97773">
        <ele>784.8</ele>
        <time>2018-12-29T14:12:51Z</time>
      </trkpt>
      <trkpt lat="45.76394" lon="2.97769">
        <ele>784.8</ele>
        <time>2018-12-29T14:12:52Z</time>
      </trkpt>
      <trkpt lat="45.76384" lon="2.97758">
        <ele>784.8</ele>
        <time>2018-12-29T14:12:55Z</time>
      </trkpt>
      <trkpt lat="45.76372" lon="2.97749">
        <ele>784.8</ele>
        <time>2018-12-29T14:12:58Z</time>
      </trkpt>
      <trkpt lat="45.76364" lon="2.9774">
        <ele>784.8</ele>
        <time>2018-12-29T14:13:00Z</time>
      </trkpt>
      <trkpt lat="45.76345" lon="2.97726">
        <ele>784.8</ele>
        <time>2018-12-29T14:13:04Z</time>
      </trkpt>
      <trkpt lat="45.76326" lon="2.97712">
        <ele>784.8</ele>
        <time>2018-12-29T14:13:09Z</time>
      </trkpt>
      <trkpt lat="45.76311" lon="2.97701">
        <ele>784.8</ele>
        <time>2018-12-29T14:13:14Z</time>
      </trkpt>
      <trkpt lat="45.76298" lon="2.97686">
        <ele>784.8</ele>
        <time>2018-12-29T14:13:18Z</time>
      </trkpt>
      <trkpt lat="45.76278" lon="2.97671">
        <ele>784.8</ele>
        <time>2018-12-29T14:13:23Z</time>
      </trkpt>
      <trkpt lat="45.76263" lon="2.97658">
        <ele>784.8</ele>
        <time>2018-12-29T14:13:27Z</time>
      </trkpt>
      <trkpt lat="45.76258" lon="2.97655">
        <ele>784.8</ele>
        <time>2018-12-29T14:13:28Z</time>
      </trkpt>
      <trkpt lat="45.76253" lon="2.9765">
        <ele>784.8</ele>
        <time>2018-12-29T14:13:30Z</time>
      </trkpt>
      <trkpt lat="45.76253" lon="2.97648">
        <ele>784.8</ele>
        <time>2018-12-29T14:13:31Z</time>
      </trkpt>
      <trkpt lat="45.76254" lon="2.97643">
        <ele>784.8</ele>
        <time>2018-12-29T14:13:33Z</time>
      </trkpt>
      <trkpt lat="45.76255" lon="2.97634">
        <ele>784.8</ele>
        <time>2018-12-29T14:13:37Z</time>
      </trkpt>
      <trkpt lat="45.76254" lon="2.97621">
        <ele>785.2</ele>
        <time>2018-12-29T14:13:42Z</time>
      </trkpt>
      <trkpt lat="45.76253" lon="2.9762">
        <ele>785.6</ele>
        <time>2018-12-29T14:13:43Z</time>
      </trkpt>
      <trkpt lat="45.76253" lon="2.97617">
        <ele>786</ele>
        <time>2018-12-29T14:13:44Z</time>
      </trkpt>
      <trkpt lat="45.76252" lon="2.97613">
        <ele>786.4</ele>
        <time>2018-12-29T14:13:45Z</time>
      </trkpt>
      <trkpt lat="45.76251" lon="2.97608">
        <ele>786.8</ele>
        <time>2018-12-29T14:13:46Z</time>
      </trkpt>
      <trkpt lat="45.7625" lon="2.976">
        <ele>786.8</ele>
        <time>2018-12-29T14:13:48Z</time>
      </trkpt>
      <trkpt lat="45.76248" lon="2.97586">
        <ele>786.8</ele>
        <time>2018-12-29T14:13:52Z</time>
      </trkpt>
      <trkpt lat="45.76248" lon="2.97583">
        <ele>786.8</ele>
        <time>2018-12-29T14:13:53Z</time>
      </trkpt>
      <trkpt lat="45.76247" lon="2.97579">
        <ele>786.8</ele>
        <time>2018-12-29T14:13:55Z</time>
      </trkpt>
      <trkpt lat="45.76245" lon="2.97572">
        <ele>786.8</ele>
        <time>2018-12-29T14:13:57Z</time>
      </trkpt>
      <trkpt lat="45.76245" lon="2.97564">
        <ele>787.2</ele>
        <time>2018-12-29T14:14:00Z</time>
      </trkpt>
      <trkpt lat="45.76245" lon="2.9756">
        <ele>787.6</ele>
        <time>2018-12-29T14:14:01Z</time>
      </trkpt>
      <trkpt lat="45.76244" lon="2.97557">
        <ele>788.2</ele>
        <time>2018-12-29T14:14:02Z</time>
      </trkpt>
      <trkpt lat="45.76243" lon="2.97554">
        <ele>788.6</ele>
        <time>2018-12-29T14:14:03Z</time>
      </trkpt>
      <trkpt lat="45.76242" lon="2.97552">
        <ele>789</ele>
        <time>2018-12-29T14:14:04Z</time>
      </trkpt>
      <trkpt lat="45.76243" lon="2.97541">
        <ele>789</ele>
        <time>2018-12-29T14:14:07Z</time>
      </trkpt>
      <trkpt lat="45.76241" lon="2.97525">
        <ele>789</ele>
        <time>2018-12-29T14:14:11Z</time>
      </trkpt>
      <trkpt lat="45.76241" lon="2.9752">
        <ele>789.4</ele>
        <time>2018-12-29T14:14:13Z</time>
      </trkpt>
      <trkpt lat="45.76241" lon="2.97518">
        <ele>789.8</ele>
        <time>2018-12-29T14:14:14Z</time>
      </trkpt>
      <trkpt lat="45.76241" lon="2.97514">
        <ele>790.2</ele>
        <time>2018-12-29T14:14:15Z</time>
      </trkpt>
      <trkpt lat="45.76241" lon="2.9751">
        <ele>790.6</ele>
        <time>2018-12-29T14:14:16Z</time>
      </trkpt>
      <trkpt lat="45.76241" lon="2.97508">
        <ele>791</ele>
        <time>2018-12-29T14:14:17Z</time>
      </trkpt>
      <trkpt lat="45.76239" lon="2.97496">
        <ele>791</ele>
        <time>2018-12-29T14:14:21Z</time>
      </trkpt>
      <trkpt lat="45.76239" lon="2.97494">
        <ele>791</ele>
        <time>2018-12-29T14:14:22Z</time>
      </trkpt>
      <trkpt lat="45.76237" lon="2.97482">
        <ele>791.4</ele>
        <time>2018-12-29T14:14:26Z</time>
      </trkpt>
      <trkpt lat="45.76237" lon="2.9748">
        <ele>791.8</ele>
        <time>2018-12-29T14:14:27Z</time>
      </trkpt>
      <trkpt lat="45.76237" lon="2.97477">
        <ele>792.4</ele>
        <time>2018-12-29T14:14:28Z</time>
      </trkpt>
      <trkpt lat="45.76237" lon="2.97473">
        <ele>792.8</ele>
        <time>2018-12-29T14:14:29Z</time>
      </trkpt>
      <trkpt lat="45.76236" lon="2.97469">
        <ele>793.2</ele>
        <time>2018-12-29T14:14:30Z</time>
      </trkpt>
      <trkpt lat="45.76236" lon="2.97466">
        <ele>793.2</ele>
        <time>2018-12-29T14:14:31Z</time>
      </trkpt>
      <trkpt lat="45.76236" lon="2.97459">
        <ele>793.2</ele>
        <time>2018-12-29T14:14:33Z</time>
      </trkpt>
      <trkpt lat="45.76237" lon="2.97448">
        <ele>793.2</ele>
        <time>2018-12-29T14:14:37Z</time>
      </trkpt>
      <trkpt lat="45.76239" lon="2.97433">
        <ele>793.2</ele>
        <time>2018-12-29T14:14:41Z</time>
      </trkpt>
      <trkpt lat="45.76241" lon="2.97427">
        <ele>793.6</ele>
        <time>2018-12-29T14:14:43Z</time>
      </trkpt>
      <trkpt lat="45.76242" lon="2.97425">
        <ele>794</ele>
        <time>2018-12-29T14:14:44Z</time>
      </trkpt>
      <trkpt lat="45.76243" lon="2.97421">
        <ele>794.4</ele>
        <time>2018-12-29T14:14:45Z</time>
      </trkpt>
      <trkpt lat="45.76242" lon="2.97418">
        <ele>794.8</ele>
        <time>2018-12-29T14:14:46Z</time>
      </trkpt>
      <trkpt lat="45.76241" lon="2.97416">
        <ele>795.2</ele>
        <time>2018-12-29T14:14:47Z</time>
      </trkpt>
      <trkpt lat="45.7624" lon="2.97412">
        <ele>795.2</ele>
        <time>2018-12-29T14:14:49Z</time>
      </trkpt>
      <trkpt lat="45.7624" lon="2.97398">
        <ele>795.2</ele>
        <time>2018-12-29T14:14:54Z</time>
      </trkpt>
      <trkpt lat="45.7624" lon="2.97395">
        <ele>795.2</ele>
        <time>2018-12-29T14:14:55Z</time>
      </trkpt>
      <trkpt lat="45.76234" lon="2.9736">
        <ele>797.2</ele>
        <time>2018-12-29T14:15:04Z</time>
      </trkpt>
      <trkpt lat="45.76233" lon="2.97346">
        <ele>797.2</ele>
        <time>2018-12-29T14:15:09Z</time>
      </trkpt>
      <trkpt lat="45.76229" lon="2.97326">
        <ele>797.2</ele>
        <time>2018-12-29T14:15:15Z</time>
      </trkpt>
      <trkpt lat="45.76227" lon="2.97315">
        <ele>797.6</ele>
        <time>2018-12-29T14:15:18Z</time>
      </trkpt>
      <trkpt lat="45.76226" lon="2.97313">
        <ele>798</ele>
        <time>2018-12-29T14:15:19Z</time>
      </trkpt>
      <trkpt lat="45.76225" lon="2.97309">
        <ele>798.4</ele>
        <time>2018-12-29T14:15:20Z</time>
      </trkpt>
      <trkpt lat="45.76225" lon="2.97305">
        <ele>798.8</ele>
        <time>2018-12-29T14:15:21Z</time>
      </trkpt>
      <trkpt lat="45.76224" lon="2.97303">
        <ele>799.4</ele>
        <time>2018-12-29T14:15:22Z</time>
      </trkpt>
      <trkpt lat="45.76223" lon="2.97296">
        <ele>799.4</ele>
        <time>2018-12-29T14:15:24Z</time>
      </trkpt>
      <trkpt lat="45.76223" lon="2.97293">
        <ele>799.4</ele>
        <time>2018-12-29T14:15:25Z</time>
      </trkpt>
      <trkpt lat="45.76221" lon="2.97281">
        <ele>799.4</ele>
        <time>2018-12-29T14:15:30Z</time>
      </trkpt>
      <trkpt lat="45.76219" lon="2.97274">
        <ele>799.4</ele>
        <time>2018-12-29T14:15:32Z</time>
      </trkpt>
      <trkpt lat="45.76218" lon="2.97268">
        <ele>799.8</ele>
        <time>2018-12-29T14:15:34Z</time>
      </trkpt>
      <trkpt lat="45.76218" lon="2.97264">
        <ele>800.2</ele>
        <time>2018-12-29T14:15:35Z</time>
      </trkpt>
      <trkpt lat="45.76216" lon="2.97261">
        <ele>800.6</ele>
        <time>2018-12-29T14:15:36Z</time>
      </trkpt>
      <trkpt lat="45.76215" lon="2.97257">
        <ele>801</ele>
        <time>2018-12-29T14:15:37Z</time>
      </trkpt>
      <trkpt lat="45.76215" lon="2.97254">
        <ele>801.4</ele>
        <time>2018-12-29T14:15:38Z</time>
      </trkpt>
      <trkpt lat="45.76215" lon="2.9725">
        <ele>801.4</ele>
        <time>2018-12-29T14:15:39Z</time>
      </trkpt>
      <trkpt lat="45.76215" lon="2.9724">
        <ele>801.4</ele>
        <time>2018-12-29T14:15:42Z</time>
      </trkpt>
      <trkpt lat="45.76213" lon="2.97234">
        <ele>801.4</ele>
        <time>2018-12-29T14:15:44Z</time>
      </trkpt>
      <trkpt lat="45.76209" lon="2.97223">
        <ele>801.4</ele>
        <time>2018-12-29T14:15:48Z</time>
      </trkpt>
      <trkpt lat="45.76209" lon="2.97219">
        <ele>801.4</ele>
        <time>2018-12-29T14:15:49Z</time>
      </trkpt>
      <trkpt lat="45.76209" lon="2.97213">
        <ele>801.4</ele>
        <time>2018-12-29T14:15:51Z</time>
      </trkpt>
      <trkpt lat="45.76209" lon="2.9721">
        <ele>801.8</ele>
        <time>2018-12-29T14:15:52Z</time>
      </trkpt>
      <trkpt lat="45.76209" lon="2.97207">
        <ele>802.2</ele>
        <time>2018-12-29T14:15:53Z</time>
      </trkpt>
      <trkpt lat="45.76209" lon="2.97204">
        <ele>802.8</ele>
        <time>2018-12-29T14:15:54Z</time>
      </trkpt>
      <trkpt lat="45.76208" lon="2.97201">
        <ele>803.2</ele>
        <time>2018-12-29T14:15:55Z</time>
      </trkpt>
      <trkpt lat="45.76208" lon="2.97199">
        <ele>803.6</ele>
        <time>2018-12-29T14:15:56Z</time>
      </trkpt>
      <trkpt lat="45.76211" lon="2.97194">
        <ele>803.6</ele>
        <time>2018-12-29T14:15:59Z</time>
      </trkpt>
      <trkpt lat="45.76212" lon="2.97183">
        <ele>803.6</ele>
        <time>2018-12-29T14:16:04Z</time>
      </trkpt>
      <trkpt lat="45.76211" lon="2.97179">
        <ele>803.6</ele>
        <time>2018-12-29T14:16:05Z</time>
      </trkpt>
      <trkpt lat="45.76211" lon="2.97173">
        <ele>803.6</ele>
        <time>2018-12-29T14:16:08Z</time>
      </trkpt>
      <trkpt lat="45.76211" lon="2.97168">
        <ele>804</ele>
        <time>2018-12-29T14:16:09Z</time>
      </trkpt>
      <trkpt lat="45.76212" lon="2.97165">
        <ele>804.4</ele>
        <time>2018-12-29T14:16:10Z</time>
      </trkpt>
      <trkpt lat="45.76211" lon="2.97163">
        <ele>804.8</ele>
        <time>2018-12-29T14:16:11Z</time>
      </trkpt>
      <trkpt lat="45.76211" lon="2.97158">
        <ele>805.2</ele>
        <time>2018-12-29T14:16:12Z</time>
      </trkpt>
      <trkpt lat="45.76211" lon="2.97154">
        <ele>805.6</ele>
        <time>2018-12-29T14:16:13Z</time>
      </trkpt>
      <trkpt lat="45.76211" lon="2.9715">
        <ele>805.6</ele>
        <time>2018-12-29T14:16:14Z</time>
      </trkpt>
      <trkpt lat="45.76211" lon="2.97142">
        <ele>805.6</ele>
        <time>2018-12-29T14:16:17Z</time>
      </trkpt>
      <trkpt lat="45.76209" lon="2.9713">
        <ele>805.6</ele>
        <time>2018-12-29T14:16:21Z</time>
      </trkpt>
      <trkpt lat="45.76208" lon="2.97128">
        <ele>805.6</ele>
        <time>2018-12-29T14:16:22Z</time>
      </trkpt>
      <trkpt lat="45.76208" lon="2.9712">
        <ele>805.6</ele>
        <time>2018-12-29T14:16:25Z</time>
      </trkpt>
      <trkpt lat="45.76209" lon="2.97114">
        <ele>806</ele>
        <time>2018-12-29T14:16:27Z</time>
      </trkpt>
      <trkpt lat="45.76209" lon="2.97112">
        <ele>806.4</ele>
        <time>2018-12-29T14:16:28Z</time>
      </trkpt>
      <trkpt lat="45.7621" lon="2.97109">
        <ele>807.2</ele>
        <time>2018-12-29T14:16:29Z</time>
      </trkpt>
      <trkpt lat="45.76209" lon="2.97104">
        <ele>807.8</ele>
        <time>2018-12-29T14:16:30Z</time>
      </trkpt>
      <trkpt lat="45.76207" lon="2.97095">
        <ele>807.8</ele>
        <time>2018-12-29T14:16:33Z</time>
      </trkpt>
      <trkpt lat="45.76203" lon="2.97079">
        <ele>807.8</ele>
        <time>2018-12-29T14:16:38Z</time>
      </trkpt>
      <trkpt lat="45.76203" lon="2.97076">
        <ele>807.8</ele>
        <time>2018-12-29T14:16:39Z</time>
      </trkpt>
      <trkpt lat="45.76201" lon="2.97058">
        <ele>807.8</ele>
        <time>2018-12-29T14:16:43Z</time>
      </trkpt>
      <trkpt lat="45.76195" lon="2.97041">
        <ele>808.2</ele>
        <time>2018-12-29T14:16:48Z</time>
      </trkpt>
      <trkpt lat="45.76194" lon="2.97037">
        <ele>808.6</ele>
        <time>2018-12-29T14:16:49Z</time>
      </trkpt>
      <trkpt lat="45.76194" lon="2.97034">
        <ele>809</ele>
        <time>2018-12-29T14:16:50Z</time>
      </trkpt>
      <trkpt lat="45.76193" lon="2.9703">
        <ele>809.4</ele>
        <time>2018-12-29T14:16:51Z</time>
      </trkpt>
      <trkpt lat="45.76192" lon="2.97025">
        <ele>809.8</ele>
        <time>2018-12-29T14:16:52Z</time>
      </trkpt>
      <trkpt lat="45.76191" lon="2.97021">
        <ele>809.8</ele>
        <time>2018-12-29T14:16:53Z</time>
      </trkpt>
      <trkpt lat="45.76186" lon="2.97007">
        <ele>809.8</ele>
        <time>2018-12-29T14:16:56Z</time>
      </trkpt>
      <trkpt lat="45.76183" lon="2.96992">
        <ele>809.8</ele>
        <time>2018-12-29T14:17:01Z</time>
      </trkpt>
      <trkpt lat="45.7618" lon="2.96975">
        <ele>809.8</ele>
        <time>2018-12-29T14:17:06Z</time>
      </trkpt>
      <trkpt lat="45.76181" lon="2.9697">
        <ele>810.2</ele>
        <time>2018-12-29T14:17:07Z</time>
      </trkpt>
      <trkpt lat="45.76183" lon="2.96965">
        <ele>810.6</ele>
        <time>2018-12-29T14:17:08Z</time>
      </trkpt>
      <trkpt lat="45.76183" lon="2.96962">
        <ele>811</ele>
        <time>2018-12-29T14:17:09Z</time>
      </trkpt>
      <trkpt lat="45.76184" lon="2.9696">
        <ele>811.4</ele>
        <time>2018-12-29T14:17:10Z</time>
      </trkpt>
      <trkpt lat="45.76184" lon="2.96957">
        <ele>811.8</ele>
        <time>2018-12-29T14:17:11Z</time>
      </trkpt>
      <trkpt lat="45.76185" lon="2.96954">
        <ele>811.8</ele>
        <time>2018-12-29T14:17:12Z</time>
      </trkpt>
      <trkpt lat="45.76186" lon="2.9695">
        <ele>811.8</ele>
        <time>2018-12-29T14:17:13Z</time>
      </trkpt>
      <trkpt lat="45.76189" lon="2.96934">
        <ele>812.4</ele>
        <time>2018-12-29T14:17:18Z</time>
      </trkpt>
      <trkpt lat="45.76191" lon="2.96931">
        <ele>812.8</ele>
        <time>2018-12-29T14:17:19Z</time>
      </trkpt>
      <trkpt lat="45.76192" lon="2.96929">
        <ele>813.2</ele>
        <time>2018-12-29T14:17:20Z</time>
      </trkpt>
      <trkpt lat="45.76193" lon="2.96925">
        <ele>813.6</ele>
        <time>2018-12-29T14:17:21Z</time>
      </trkpt>
      <trkpt lat="45.76194" lon="2.96922">
        <ele>814</ele>
        <time>2018-12-29T14:17:22Z</time>
      </trkpt>
      <trkpt lat="45.76194" lon="2.96919">
        <ele>814</ele>
        <time>2018-12-29T14:17:23Z</time>
      </trkpt>
      <trkpt lat="45.76196" lon="2.96906">
        <ele>814</ele>
        <time>2018-12-29T14:17:28Z</time>
      </trkpt>
      <trkpt lat="45.76198" lon="2.96888">
        <ele>814</ele>
        <time>2018-12-29T14:17:33Z</time>
      </trkpt>
      <trkpt lat="45.76197" lon="2.96885">
        <ele>814</ele>
        <time>2018-12-29T14:17:34Z</time>
      </trkpt>
      <trkpt lat="45.76196" lon="2.96877">
        <ele>814</ele>
        <time>2018-12-29T14:17:37Z</time>
      </trkpt>
      <trkpt lat="45.76196" lon="2.96872">
        <ele>814.4</ele>
        <time>2018-12-29T14:17:38Z</time>
      </trkpt>
      <trkpt lat="45.76195" lon="2.96867">
        <ele>814.8</ele>
        <time>2018-12-29T14:17:39Z</time>
      </trkpt>
      <trkpt lat="45.76196" lon="2.96864">
        <ele>815.2</ele>
        <time>2018-12-29T14:17:40Z</time>
      </trkpt>
      <trkpt lat="45.76197" lon="2.96859">
        <ele>815.6</ele>
        <time>2018-12-29T14:17:41Z</time>
      </trkpt>
      <trkpt lat="45.76197" lon="2.96855">
        <ele>816</ele>
        <time>2018-12-29T14:17:42Z</time>
      </trkpt>
      <trkpt lat="45.762" lon="2.96845">
        <ele>816</ele>
        <time>2018-12-29T14:17:46Z</time>
      </trkpt>
      <trkpt lat="45.762" lon="2.96843">
        <ele>816</ele>
        <time>2018-12-29T14:17:47Z</time>
      </trkpt>
      <trkpt lat="45.76201" lon="2.96839">
        <ele>816</ele>
        <time>2018-12-29T14:17:49Z</time>
      </trkpt>
      <trkpt lat="45.762" lon="2.96834">
        <ele>816</ele>
        <time>2018-12-29T14:17:51Z</time>
      </trkpt>
      <trkpt lat="45.76198" lon="2.96828">
        <ele>816</ele>
        <time>2018-12-29T14:17:54Z</time>
      </trkpt>
      <trkpt lat="45.76197" lon="2.96826">
        <ele>816</ele>
        <time>2018-12-29T14:17:55Z</time>
      </trkpt>
      <trkpt lat="45.76195" lon="2.96819">
        <ele>816.4</ele>
        <time>2018-12-29T14:17:58Z</time>
      </trkpt>
      <trkpt lat="45.76195" lon="2.96815">
        <ele>816.8</ele>
        <time>2018-12-29T14:17:59Z</time>
      </trkpt>
      <trkpt lat="45.76196" lon="2.96813">
        <ele>817.2</ele>
        <time>2018-12-29T14:18:00Z</time>
      </trkpt>
      <trkpt lat="45.76196" lon="2.96812">
        <ele>817.6</ele>
        <time>2018-12-29T14:18:01Z</time>
      </trkpt>
      <trkpt lat="45.76195" lon="2.96811">
        <ele>818</ele>
        <time>2018-12-29T14:18:02Z</time>
      </trkpt>
      <trkpt lat="45.76195" lon="2.96807">
        <ele>818</ele>
        <time>2018-12-29T14:18:04Z</time>
      </trkpt>
      <trkpt lat="45.76196" lon="2.96805">
        <ele>818</ele>
        <time>2018-12-29T14:18:05Z</time>
      </trkpt>
      <trkpt lat="45.76195" lon="2.96772">
        <ele>819.2</ele>
        <time>2018-12-29T14:18:16Z</time>
      </trkpt>
      <trkpt lat="45.76195" lon="2.96768">
        <ele>819.6</ele>
        <time>2018-12-29T14:18:17Z</time>
      </trkpt>
      <trkpt lat="45.76195" lon="2.96764">
        <ele>820</ele>
        <time>2018-12-29T14:18:18Z</time>
      </trkpt>
      <trkpt lat="45.76197" lon="2.96755">
        <ele>820</ele>
        <time>2018-12-29T14:18:20Z</time>
      </trkpt>
      <trkpt lat="45.76197" lon="2.96751">
        <ele>820</ele>
        <time>2018-12-29T14:18:21Z</time>
      </trkpt>
      <trkpt lat="45.76196" lon="2.96741">
        <ele>820</ele>
        <time>2018-12-29T14:18:25Z</time>
      </trkpt>
      <trkpt lat="45.76195" lon="2.96736">
        <ele>820</ele>
        <time>2018-12-29T14:18:27Z</time>
      </trkpt>
      <trkpt lat="45.76196" lon="2.96734">
        <ele>820.6</ele>
        <time>2018-12-29T14:18:28Z</time>
      </trkpt>
      <trkpt lat="45.76195" lon="2.96732">
        <ele>821</ele>
        <time>2018-12-29T14:18:29Z</time>
      </trkpt>
      <trkpt lat="45.76196" lon="2.9673">
        <ele>821.4</ele>
        <time>2018-12-29T14:18:30Z</time>
      </trkpt>
      <trkpt lat="45.76196" lon="2.96729">
        <ele>821.8</ele>
        <time>2018-12-29T14:18:31Z</time>
      </trkpt>
      <trkpt lat="45.76196" lon="2.96727">
        <ele>822.2</ele>
        <time>2018-12-29T14:18:32Z</time>
      </trkpt>
      <trkpt lat="45.76196" lon="2.96723">
        <ele>822.2</ele>
        <time>2018-12-29T14:18:33Z</time>
      </trkpt>
      <trkpt lat="45.76195" lon="2.96717">
        <ele>822.2</ele>
        <time>2018-12-29T14:18:35Z</time>
      </trkpt>
      <trkpt lat="45.76193" lon="2.96707">
        <ele>822.2</ele>
        <time>2018-12-29T14:18:38Z</time>
      </trkpt>
      <trkpt lat="45.76192" lon="2.96702">
        <ele>822.6</ele>
        <time>2018-12-29T14:18:40Z</time>
      </trkpt>
      <trkpt lat="45.76192" lon="2.967">
        <ele>823</ele>
        <time>2018-12-29T14:18:41Z</time>
      </trkpt>
      <trkpt lat="45.76192" lon="2.96699">
        <ele>823.4</ele>
        <time>2018-12-29T14:18:42Z</time>
      </trkpt>
      <trkpt lat="45.76192" lon="2.96697">
        <ele>824</ele>
        <time>2018-12-29T14:18:43Z</time>
      </trkpt>
      <trkpt lat="45.76193" lon="2.96694">
        <ele>824.4</ele>
        <time>2018-12-29T14:18:44Z</time>
      </trkpt>
      <trkpt lat="45.76193" lon="2.96687">
        <ele>824.4</ele>
        <time>2018-12-29T14:18:47Z</time>
      </trkpt>
      <trkpt lat="45.7619" lon="2.96678">
        <ele>824.4</ele>
        <time>2018-12-29T14:18:51Z</time>
      </trkpt>
      <trkpt lat="45.76186" lon="2.96661">
        <ele>824.4</ele>
        <time>2018-12-29T14:18:56Z</time>
      </trkpt>
      <trkpt lat="45.76185" lon="2.96657">
        <ele>824.8</ele>
        <time>2018-12-29T14:18:57Z</time>
      </trkpt>
      <trkpt lat="45.76185" lon="2.96655">
        <ele>825.2</ele>
        <time>2018-12-29T14:18:58Z</time>
      </trkpt>
      <trkpt lat="45.76185" lon="2.96652">
        <ele>825.6</ele>
        <time>2018-12-29T14:18:59Z</time>
      </trkpt>
      <trkpt lat="45.76185" lon="2.9665">
        <ele>826</ele>
        <time>2018-12-29T14:19:00Z</time>
      </trkpt>
      <trkpt lat="45.76185" lon="2.96648">
        <ele>826.4</ele>
        <time>2018-12-29T14:19:01Z</time>
      </trkpt>
      <trkpt lat="45.76184" lon="2.96645">
        <ele>826.4</ele>
        <time>2018-12-29T14:19:02Z</time>
      </trkpt>
      <trkpt lat="45.7618" lon="2.96624">
        <ele>826.4</ele>
        <time>2018-12-29T14:19:10Z</time>
      </trkpt>
      <trkpt lat="45.76181" lon="2.96612">
        <ele>826.4</ele>
        <time>2018-12-29T14:19:16Z</time>
      </trkpt>
      <trkpt lat="45.76182" lon="2.96611">
        <ele>827</ele>
        <time>2018-12-29T14:19:18Z</time>
      </trkpt>
      <trkpt lat="45.76183" lon="2.96611">
        <ele>827.4</ele>
        <time>2018-12-29T14:19:19Z</time>
      </trkpt>
      <trkpt lat="45.76183" lon="2.96611">
        <ele>827.8</ele>
        <time>2018-12-29T14:19:20Z</time>
      </trkpt>
      <trkpt lat="45.76189" lon="2.96606">
        <ele>828.6</ele>
        <time>2018-12-29T14:21:47Z</time>
      </trkpt>
      <trkpt lat="45.76195" lon="2.96596">
        <ele>828.6</ele>
        <time>2018-12-29T14:21:52Z</time>
      </trkpt>
      <trkpt lat="45.76197" lon="2.96593">
        <ele>828.6</ele>
        <time>2018-12-29T14:21:54Z</time>
      </trkpt>
      <trkpt lat="45.76203" lon="2.96586">
        <ele>829</ele>
        <time>2018-12-29T14:21:58Z</time>
      </trkpt>
      <trkpt lat="45.76204" lon="2.96584">
        <ele>829.4</ele>
        <time>2018-12-29T14:21:59Z</time>
      </trkpt>
      <trkpt lat="45.76206" lon="2.96582">
        <ele>829.8</ele>
        <time>2018-12-29T14:22:00Z</time>
      </trkpt>
      <trkpt lat="45.76208" lon="2.96579">
        <ele>830.4</ele>
        <time>2018-12-29T14:22:01Z</time>
      </trkpt>
      <trkpt lat="45.76209" lon="2.96577">
        <ele>830.8</ele>
        <time>2018-12-29T14:22:02Z</time>
      </trkpt>
      <trkpt lat="45.76211" lon="2.96574">
        <ele>830.8</ele>
        <time>2018-12-29T14:22:04Z</time>
      </trkpt>
      <trkpt lat="45.76212" lon="2.96572">
        <ele>830.8</ele>
        <time>2018-12-29T14:22:05Z</time>
      </trkpt>
      <trkpt lat="45.7622" lon="2.96561">
        <ele>831.2</ele>
        <time>2018-12-29T14:22:11Z</time>
      </trkpt>
      <trkpt lat="45.76222" lon="2.96558">
        <ele>831.6</ele>
        <time>2018-12-29T14:22:12Z</time>
      </trkpt>
      <trkpt lat="45.76223" lon="2.96557">
        <ele>832.2</ele>
        <time>2018-12-29T14:22:13Z</time>
      </trkpt>
      <trkpt lat="45.76224" lon="2.96557">
        <ele>833</ele>
        <time>2018-12-29T14:22:14Z</time>
      </trkpt>
      <trkpt lat="45.76229" lon="2.96553">
        <ele>833</ele>
        <time>2018-12-29T14:22:17Z</time>
      </trkpt>
      <trkpt lat="45.7623" lon="2.96551">
        <ele>833.4</ele>
        <time>2018-12-29T14:22:19Z</time>
      </trkpt>
      <trkpt lat="45.76232" lon="2.96549">
        <ele>833.8</ele>
        <time>2018-12-29T14:22:20Z</time>
      </trkpt>
      <trkpt lat="45.76234" lon="2.96547">
        <ele>834.2</ele>
        <time>2018-12-29T14:22:21Z</time>
      </trkpt>
      <trkpt lat="45.76235" lon="2.96545">
        <ele>834.6</ele>
        <time>2018-12-29T14:22:22Z</time>
      </trkpt>
      <trkpt lat="45.76236" lon="2.96544">
        <ele>835</ele>
        <time>2018-12-29T14:22:23Z</time>
      </trkpt>
      <trkpt lat="45.76244" lon="2.96537">
        <ele>835</ele>
        <time>2018-12-29T14:22:29Z</time>
      </trkpt>
      <trkpt lat="45.76247" lon="2.96533">
        <ele>835</ele>
        <time>2018-12-29T14:22:31Z</time>
      </trkpt>
      <trkpt lat="45.76251" lon="2.96529">
        <ele>835.4</ele>
        <time>2018-12-29T14:22:33Z</time>
      </trkpt>
      <trkpt lat="45.76252" lon="2.96527">
        <ele>835.8</ele>
        <time>2018-12-29T14:22:34Z</time>
      </trkpt>
      <trkpt lat="45.76253" lon="2.96524">
        <ele>836.4</ele>
        <time>2018-12-29T14:22:35Z</time>
      </trkpt>
      <trkpt lat="45.76255" lon="2.96522">
        <ele>836.8</ele>
        <time>2018-12-29T14:22:36Z</time>
      </trkpt>
      <trkpt lat="45.76257" lon="2.9652">
        <ele>837.2</ele>
        <time>2018-12-29T14:22:37Z</time>
      </trkpt>
      <trkpt lat="45.76259" lon="2.96517">
        <ele>837.6</ele>
        <time>2018-12-29T14:22:40Z</time>
      </trkpt>
      <trkpt lat="45.7626" lon="2.96516">
        <ele>838</ele>
        <time>2018-12-29T14:22:41Z</time>
      </trkpt>
      <trkpt lat="45.76262" lon="2.96514">
        <ele>838.6</ele>
        <time>2018-12-29T14:22:42Z</time>
      </trkpt>
      <trkpt lat="45.76262" lon="2.96514">
        <ele>839</ele>
        <time>2018-12-29T14:22:43Z</time>
      </trkpt>
      <trkpt lat="45.76265" lon="2.96513">
        <ele>839.4</ele>
        <time>2018-12-29T14:22:44Z</time>
      </trkpt>
      <trkpt lat="45.76268" lon="2.96512">
        <ele>839.4</ele>
        <time>2018-12-29T14:22:47Z</time>
      </trkpt>
      <trkpt lat="45.76272" lon="2.9651">
        <ele>839.8</ele>
        <time>2018-12-29T14:22:49Z</time>
      </trkpt>
      <trkpt lat="45.76273" lon="2.96509">
        <ele>840.4</ele>
        <time>2018-12-29T14:22:50Z</time>
      </trkpt>
      <trkpt lat="45.76276" lon="2.96507">
        <ele>840.8</ele>
        <time>2018-12-29T14:22:51Z</time>
      </trkpt>
      <trkpt lat="45.76278" lon="2.96505">
        <ele>841.2</ele>
        <time>2018-12-29T14:22:52Z</time>
      </trkpt>
      <trkpt lat="45.7628" lon="2.96504">
        <ele>841.6</ele>
        <time>2018-12-29T14:22:53Z</time>
      </trkpt>
      <trkpt lat="45.76287" lon="2.96499">
        <ele>842.2</ele>
        <time>2018-12-29T14:22:57Z</time>
      </trkpt>
      <trkpt lat="45.76289" lon="2.96498">
        <ele>842.6</ele>
        <time>2018-12-29T14:22:58Z</time>
      </trkpt>
      <trkpt lat="45.7629" lon="2.96497">
        <ele>843</ele>
        <time>2018-12-29T14:22:59Z</time>
      </trkpt>
      <trkpt lat="45.76291" lon="2.96494">
        <ele>843.4</ele>
        <time>2018-12-29T14:23:00Z</time>
      </trkpt>
      <trkpt lat="45.76293" lon="2.96492">
        <ele>843.8</ele>
        <time>2018-12-29T14:23:01Z</time>
      </trkpt>
      <trkpt lat="45.76293" lon="2.96492">
        <ele>843.8</ele>
        <time>2018-12-29T14:23:02Z</time>
      </trkpt>
      <trkpt lat="45.76293" lon="2.9649">
        <ele>843.8</ele>
        <time>2018-12-29T14:23:03Z</time>
      </trkpt>
      <trkpt lat="45.76294" lon="2.96485">
        <ele>843.8</ele>
        <time>2018-12-29T14:23:05Z</time>
      </trkpt>
      <trkpt lat="45.76295" lon="2.96477">
        <ele>843.8</ele>
        <time>2018-12-29T14:23:08Z</time>
      </trkpt>
      <trkpt lat="45.76295" lon="2.96472">
        <ele>844.2</ele>
        <time>2018-12-29T14:23:11Z</time>
      </trkpt>
      <trkpt lat="45.76295" lon="2.96469">
        <ele>844.6</ele>
        <time>2018-12-29T14:23:12Z</time>
      </trkpt>
      <trkpt lat="45.76296" lon="2.96466">
        <ele>845.2</ele>
        <time>2018-12-29T14:23:13Z</time>
      </trkpt>
      <trkpt lat="45.76296" lon="2.96464">
        <ele>845.6</ele>
        <time>2018-12-29T14:23:14Z</time>
      </trkpt>
      <trkpt lat="45.76296" lon="2.96462">
        <ele>846</ele>
        <time>2018-12-29T14:23:15Z</time>
      </trkpt>
      <trkpt lat="45.76298" lon="2.96449">
        <ele>846</ele>
        <time>2018-12-29T14:23:20Z</time>
      </trkpt>
      <trkpt lat="45.76298" lon="2.96438">
        <ele>846</ele>
        <time>2018-12-29T14:23:24Z</time>
      </trkpt>
      <trkpt lat="45.76298" lon="2.96437">
        <ele>846</ele>
        <time>2018-12-29T14:23:25Z</time>
      </trkpt>
      <trkpt lat="45.76299" lon="2.96434">
        <ele>846</ele>
        <time>2018-12-29T14:23:26Z</time>
      </trkpt>
      <trkpt lat="45.76298" lon="2.96429">
        <ele>846.4</ele>
        <time>2018-12-29T14:23:28Z</time>
      </trkpt>
      <trkpt lat="45.76299" lon="2.96428">
        <ele>846.8</ele>
        <time>2018-12-29T14:23:29Z</time>
      </trkpt>
      <trkpt lat="45.76299" lon="2.96427">
        <ele>847.2</ele>
        <time>2018-12-29T14:23:30Z</time>
      </trkpt>
      <trkpt lat="45.76299" lon="2.96426">
        <ele>847.6</ele>
        <time>2018-12-29T14:23:31Z</time>
      </trkpt>
      <trkpt lat="45.763" lon="2.96413">
        <ele>848</ele>
        <time>2018-12-29T14:23:37Z</time>
      </trkpt>
      <trkpt lat="45.76301" lon="2.9641">
        <ele>848</ele>
        <time>2018-12-29T14:23:38Z</time>
      </trkpt>
      <trkpt lat="45.76303" lon="2.96401">
        <ele>848</ele>
        <time>2018-12-29T14:23:41Z</time>
      </trkpt>
      <trkpt lat="45.76303" lon="2.96395">
        <ele>848</ele>
        <time>2018-12-29T14:23:43Z</time>
      </trkpt>
      <trkpt lat="45.76303" lon="2.96389">
        <ele>848</ele>
        <time>2018-12-29T14:23:45Z</time>
      </trkpt>
      <trkpt lat="45.76303" lon="2.96386">
        <ele>848.4</ele>
        <time>2018-12-29T14:23:46Z</time>
      </trkpt>
      <trkpt lat="45.76303" lon="2.96383">
        <ele>848.8</ele>
        <time>2018-12-29T14:23:47Z</time>
      </trkpt>
      <trkpt lat="45.76304" lon="2.9638">
        <ele>849.4</ele>
        <time>2018-12-29T14:23:48Z</time>
      </trkpt>
      <trkpt lat="45.76305" lon="2.96378">
        <ele>849.8</ele>
        <time>2018-12-29T14:23:49Z</time>
      </trkpt>
      <trkpt lat="45.76306" lon="2.96377">
        <ele>850.2</ele>
        <time>2018-12-29T14:23:50Z</time>
      </trkpt>
      <trkpt lat="45.7631" lon="2.96359">
        <ele>850.2</ele>
        <time>2018-12-29T14:23:57Z</time>
      </trkpt>
      <trkpt lat="45.76311" lon="2.9635">
        <ele>850.6</ele>
        <time>2018-12-29T14:24:02Z</time>
      </trkpt>
      <trkpt lat="45.76312" lon="2.96347">
        <ele>851</ele>
        <time>2018-12-29T14:24:03Z</time>
      </trkpt>
      <trkpt lat="45.76313" lon="2.96345">
        <ele>851.4</ele>
        <time>2018-12-29T14:24:04Z</time>
      </trkpt>
      <trkpt lat="45.76313" lon="2.96342">
        <ele>851.8</ele>
        <time>2018-12-29T14:24:05Z</time>
      </trkpt>
      <trkpt lat="45.76313" lon="2.96338">
        <ele>852.2</ele>
        <time>2018-12-29T14:24:06Z</time>
      </trkpt>
      <trkpt lat="45.76313" lon="2.96335">
        <ele>852.2</ele>
        <time>2018-12-29T14:24:08Z</time>
      </trkpt>
      <trkpt lat="45.76317" lon="2.96319">
        <ele>852.6</ele>
        <time>2018-12-29T14:24:14Z</time>
      </trkpt>
      <trkpt lat="45.76318" lon="2.96316">
        <ele>853</ele>
        <time>2018-12-29T14:24:15Z</time>
      </trkpt>
      <trkpt lat="45.76319" lon="2.96313">
        <ele>853.4</ele>
        <time>2018-12-29T14:24:16Z</time>
      </trkpt>
      <trkpt lat="45.7632" lon="2.96311">
        <ele>854</ele>
        <time>2018-12-29T14:24:17Z</time>
      </trkpt>
      <trkpt lat="45.7632" lon="2.96308">
        <ele>854.4</ele>
        <time>2018-12-29T14:24:18Z</time>
      </trkpt>
      <trkpt lat="45.76322" lon="2.96303">
        <ele>854.4</ele>
        <time>2018-12-29T14:24:20Z</time>
      </trkpt>
      <trkpt lat="45.76324" lon="2.96297">
        <ele>854.8</ele>
        <time>2018-12-29T14:24:23Z</time>
      </trkpt>
      <trkpt lat="45.76324" lon="2.96297">
        <ele>855.2</ele>
        <time>2018-12-29T14:24:24Z</time>
      </trkpt>
      <trkpt lat="45.76325" lon="2.96288">
        <ele>856.4</ele>
        <time>2018-12-29T14:24:28Z</time>
      </trkpt>
      <trkpt lat="45.76326" lon="2.96277">
        <ele>856.4</ele>
        <time>2018-12-29T14:24:32Z</time>
      </trkpt>
      <trkpt lat="45.76327" lon="2.96272">
        <ele>856.4</ele>
        <time>2018-12-29T14:24:34Z</time>
      </trkpt>
      <trkpt lat="45.76328" lon="2.96268">
        <ele>856.8</ele>
        <time>2018-12-29T14:24:36Z</time>
      </trkpt>
      <trkpt lat="45.76328" lon="2.96265">
        <ele>857.2</ele>
        <time>2018-12-29T14:24:37Z</time>
      </trkpt>
      <trkpt lat="45.76328" lon="2.96263">
        <ele>857.6</ele>
        <time>2018-12-29T14:24:38Z</time>
      </trkpt>
      <trkpt lat="45.76327" lon="2.96262">
        <ele>858</ele>
        <time>2018-12-29T14:24:39Z</time>
      </trkpt>
      <trkpt lat="45.76327" lon="2.96257">
        <ele>858.4</ele>
        <time>2018-12-29T14:24:40Z</time>
      </trkpt>
      <trkpt lat="45.76328" lon="2.96256">
        <ele>858.4</ele>
        <time>2018-12-29T14:24:41Z</time>
      </trkpt>
      <trkpt lat="45.76328" lon="2.96246">
        <ele>858.4</ele>
        <time>2018-12-29T14:24:46Z</time>
      </trkpt>
      <trkpt lat="45.76328" lon="2.96241">
        <ele>858.4</ele>
        <time>2018-12-29T14:24:47Z</time>
      </trkpt>
      <trkpt lat="45.76329" lon="2.96236">
        <ele>858.4</ele>
        <time>2018-12-29T14:24:49Z</time>
      </trkpt>
      <trkpt lat="45.7633" lon="2.96232">
        <ele>858.8</ele>
        <time>2018-12-29T14:24:51Z</time>
      </trkpt>
      <trkpt lat="45.76329" lon="2.96233">
        <ele>859.4</ele>
        <time>2018-12-29T14:24:52Z</time>
      </trkpt>
      <trkpt lat="45.76329" lon="2.96231">
        <ele>859.8</ele>
        <time>2018-12-29T14:24:53Z</time>
      </trkpt>
      <trkpt lat="45.76329" lon="2.9623">
        <ele>860.2</ele>
        <time>2018-12-29T14:24:54Z</time>
      </trkpt>
      <trkpt lat="45.76329" lon="2.96225">
        <ele>860.6</ele>
        <time>2018-12-29T14:24:55Z</time>
      </trkpt>
      <trkpt lat="45.7633" lon="2.96219">
        <ele>860.6</ele>
        <time>2018-12-29T14:24:58Z</time>
      </trkpt>
      <trkpt lat="45.76329" lon="2.96218">
        <ele>860.6</ele>
        <time>2018-12-29T14:24:59Z</time>
      </trkpt>
      <trkpt lat="45.76328" lon="2.96206">
        <ele>862.8</ele>
        <time>2018-12-29T14:25:06Z</time>
      </trkpt>
      <trkpt lat="45.76329" lon="2.96201">
        <ele>862.8</ele>
        <time>2018-12-29T14:25:08Z</time>
      </trkpt>
      <trkpt lat="45.7633" lon="2.9619">
        <ele>863.2</ele>
        <time>2018-12-29T14:25:11Z</time>
      </trkpt>
      <trkpt lat="45.76331" lon="2.96188">
        <ele>863.6</ele>
        <time>2018-12-29T14:25:12Z</time>
      </trkpt>
      <trkpt lat="45.76331" lon="2.96186">
        <ele>864.2</ele>
        <time>2018-12-29T14:25:13Z</time>
      </trkpt>
      <trkpt lat="45.76331" lon="2.96185">
        <ele>864.6</ele>
        <time>2018-12-29T14:25:14Z</time>
      </trkpt>
      <trkpt lat="45.76332" lon="2.96183">
        <ele>865</ele>
        <time>2018-12-29T14:25:15Z</time>
      </trkpt>
      <trkpt lat="45.76334" lon="2.96171">
        <ele>865</ele>
        <time>2018-12-29T14:25:21Z</time>
      </trkpt>
      <trkpt lat="45.76334" lon="2.96169">
        <ele>865.4</ele>
        <time>2018-12-29T14:25:22Z</time>
      </trkpt>
      <trkpt lat="45.76332" lon="2.96167">
        <ele>865.8</ele>
        <time>2018-12-29T14:25:23Z</time>
      </trkpt>
      <trkpt lat="45.76332" lon="2.96165">
        <ele>866.2</ele>
        <time>2018-12-29T14:25:24Z</time>
      </trkpt>
      <trkpt lat="45.76332" lon="2.96162">
        <ele>866.8</ele>
        <time>2018-12-29T14:25:25Z</time>
      </trkpt>
      <trkpt lat="45.7633" lon="2.9616">
        <ele>867.2</ele>
        <time>2018-12-29T14:25:26Z</time>
      </trkpt>
      <trkpt lat="45.7633" lon="2.96159">
        <ele>867.2</ele>
        <time>2018-12-29T14:25:27Z</time>
      </trkpt>
      <trkpt lat="45.76333" lon="2.96131">
        <ele>869.6</ele>
        <time>2018-12-29T14:25:43Z</time>
      </trkpt>
      <trkpt lat="45.76333" lon="2.96128">
        <ele>870.2</ele>
        <time>2018-12-29T14:25:44Z</time>
      </trkpt>
      <trkpt lat="45.76334" lon="2.96126">
        <ele>870.6</ele>
        <time>2018-12-29T14:25:45Z</time>
      </trkpt>
      <trkpt lat="45.76334" lon="2.96124">
        <ele>871</ele>
        <time>2018-12-29T14:25:46Z</time>
      </trkpt>
      <trkpt lat="45.76334" lon="2.96123">
        <ele>871.4</ele>
        <time>2018-12-29T14:25:47Z</time>
      </trkpt>
      <trkpt lat="45.76336" lon="2.96112">
        <ele>871.4</ele>
        <time>2018-12-29T14:25:52Z</time>
      </trkpt>
      <trkpt lat="45.76337" lon="2.96109">
        <ele>871.8</ele>
        <time>2018-12-29T14:25:54Z</time>
      </trkpt>
      <trkpt lat="45.76338" lon="2.96107">
        <ele>872.2</ele>
        <time>2018-12-29T14:25:55Z</time>
      </trkpt>
      <trkpt lat="45.76339" lon="2.96105">
        <ele>872.6</ele>
        <time>2018-12-29T14:25:56Z</time>
      </trkpt>
      <trkpt lat="45.76339" lon="2.96104">
        <ele>873.4</ele>
        <time>2018-12-29T14:25:57Z</time>
      </trkpt>
      <trkpt lat="45.7634" lon="2.96102">
        <ele>873.4</ele>
        <time>2018-12-29T14:25:59Z</time>
      </trkpt>
      <trkpt lat="45.76342" lon="2.96094">
        <ele>873.8</ele>
        <time>2018-12-29T14:26:04Z</time>
      </trkpt>
      <trkpt lat="45.76342" lon="2.96093">
        <ele>874.2</ele>
        <time>2018-12-29T14:26:05Z</time>
      </trkpt>
      <trkpt lat="45.76342" lon="2.96092">
        <ele>874.8</ele>
        <time>2018-12-29T14:26:06Z</time>
      </trkpt>
      <trkpt lat="45.76342" lon="2.9609">
        <ele>875.2</ele>
        <time>2018-12-29T14:26:07Z</time>
      </trkpt>
      <trkpt lat="45.76342" lon="2.96089">
        <ele>875.6</ele>
        <time>2018-12-29T14:26:08Z</time>
      </trkpt>
      <trkpt lat="45.76342" lon="2.96085">
        <ele>875.6</ele>
        <time>2018-12-29T14:26:11Z</time>
      </trkpt>
      <trkpt lat="45.76343" lon="2.96076">
        <ele>875.6</ele>
        <time>2018-12-29T14:26:17Z</time>
      </trkpt>
      <trkpt lat="45.76342" lon="2.96069">
        <ele>876</ele>
        <time>2018-12-29T14:26:22Z</time>
      </trkpt>
      <trkpt lat="45.76342" lon="2.96067">
        <ele>876.4</ele>
        <time>2018-12-29T14:26:23Z</time>
      </trkpt>
      <trkpt lat="45.76342" lon="2.96066">
        <ele>876.8</ele>
        <time>2018-12-29T14:26:24Z</time>
      </trkpt>
      <trkpt lat="45.76343" lon="2.96064">
        <ele>877.4</ele>
        <time>2018-12-29T14:26:25Z</time>
      </trkpt>
      <trkpt lat="45.76343" lon="2.96063">
        <ele>877.8</ele>
        <time>2018-12-29T14:26:26Z</time>
      </trkpt>
      <trkpt lat="45.76343" lon="2.9606">
        <ele>877.8</ele>
        <time>2018-12-29T14:26:28Z</time>
      </trkpt>
      <trkpt lat="45.76344" lon="2.96055">
        <ele>877.8</ele>
        <time>2018-12-29T14:26:32Z</time>
      </trkpt>
      <trkpt lat="45.76349" lon="2.96001">
        <ele>885</ele>
        <time>2018-12-29T14:27:43Z</time>
      </trkpt>
      <trkpt lat="45.76348" lon="2.95999">
        <ele>885.4</ele>
        <time>2018-12-29T14:27:44Z</time>
      </trkpt>
      <trkpt lat="45.76348" lon="2.95997">
        <ele>885.8</ele>
        <time>2018-12-29T14:27:45Z</time>
      </trkpt>
      <trkpt lat="45.76347" lon="2.95995">
        <ele>886.2</ele>
        <time>2018-12-29T14:27:46Z</time>
      </trkpt>
      <trkpt lat="45.76349" lon="2.9598">
        <ele>886.2</ele>
        <time>2018-12-29T14:27:52Z</time>
      </trkpt>
      <trkpt lat="45.76349" lon="2.95975">
        <ele>886.6</ele>
        <time>2018-12-29T14:27:54Z</time>
      </trkpt>
      <trkpt lat="45.76349" lon="2.95974">
        <ele>887</ele>
        <time>2018-12-29T14:27:55Z</time>
      </trkpt>
      <trkpt lat="45.76348" lon="2.95972">
        <ele>887.4</ele>
        <time>2018-12-29T14:27:56Z</time>
      </trkpt>
      <trkpt lat="45.76347" lon="2.95971">
        <ele>887.8</ele>
        <time>2018-12-29T14:27:57Z</time>
      </trkpt>
      <trkpt lat="45.76347" lon="2.9597">
        <ele>888.2</ele>
        <time>2018-12-29T14:27:58Z</time>
      </trkpt>
      <trkpt lat="45.76347" lon="2.95956">
        <ele>890.4</ele>
        <time>2018-12-29T14:28:06Z</time>
      </trkpt>
      <trkpt lat="45.76347" lon="2.95953">
        <ele>890.4</ele>
        <time>2018-12-29T14:28:07Z</time>
      </trkpt>
      <trkpt lat="45.76347" lon="2.95949">
        <ele>890.4</ele>
        <time>2018-12-29T14:28:09Z</time>
      </trkpt>
      <trkpt lat="45.76347" lon="2.95947">
        <ele>890.8</ele>
        <time>2018-12-29T14:28:10Z</time>
      </trkpt>
      <trkpt lat="45.76348" lon="2.95945">
        <ele>891.2</ele>
        <time>2018-12-29T14:28:11Z</time>
      </trkpt>
      <trkpt lat="45.76348" lon="2.95943">
        <ele>891.6</ele>
        <time>2018-12-29T14:28:12Z</time>
      </trkpt>
      <trkpt lat="45.76348" lon="2.95941">
        <ele>892</ele>
        <time>2018-12-29T14:28:13Z</time>
      </trkpt>
      <trkpt lat="45.76348" lon="2.95939">
        <ele>892.4</ele>
        <time>2018-12-29T14:28:14Z</time>
      </trkpt>
      <trkpt lat="45.76349" lon="2.95935">
        <ele>892.4</ele>
        <time>2018-12-29T14:28:16Z</time>
      </trkpt>
      <trkpt lat="45.76349" lon="2.95933">
        <ele>892.8</ele>
        <time>2018-12-29T14:28:17Z</time>
      </trkpt>
      <trkpt lat="45.7635" lon="2.95931">
        <ele>893.2</ele>
        <time>2018-12-29T14:28:18Z</time>
      </trkpt>
      <trkpt lat="45.7635" lon="2.9593">
        <ele>893.8</ele>
        <time>2018-12-29T14:28:19Z</time>
      </trkpt>
      <trkpt lat="45.7635" lon="2.95929">
        <ele>894.2</ele>
        <time>2018-12-29T14:28:20Z</time>
      </trkpt>
      <trkpt lat="45.7635" lon="2.95928">
        <ele>894.6</ele>
        <time>2018-12-29T14:28:21Z</time>
      </trkpt>
      <trkpt lat="45.7635" lon="2.95921">
        <ele>895</ele>
        <time>2018-12-29T14:28:25Z</time>
      </trkpt>
      <trkpt lat="45.7635" lon="2.95919">
        <ele>895.6</ele>
        <time>2018-12-29T14:28:26Z</time>
      </trkpt>
      <trkpt lat="45.7635" lon="2.95917">
        <ele>896</ele>
        <time>2018-12-29T14:28:27Z</time>
      </trkpt>
      <trkpt lat="45.7635" lon="2.95916">
        <ele>896.4</ele>
        <time>2018-12-29T14:28:28Z</time>
      </trkpt>
      <trkpt lat="45.7635" lon="2.95914">
        <ele>896.8</ele>
        <time>2018-12-29T14:28:29Z</time>
      </trkpt>
      <trkpt lat="45.7635" lon="2.95911">
        <ele>896.8</ele>
        <time>2018-12-29T14:28:31Z</time>
      </trkpt>
      <trkpt lat="45.76349" lon="2.95906">
        <ele>897.2</ele>
        <time>2018-12-29T14:28:34Z</time>
      </trkpt>
      <trkpt lat="45.76349" lon="2.95904">
        <ele>897.8</ele>
        <time>2018-12-29T14:28:35Z</time>
      </trkpt>
      <trkpt lat="45.76349" lon="2.95902">
        <ele>898.2</ele>
        <time>2018-12-29T14:28:36Z</time>
      </trkpt>
      <trkpt lat="45.76349" lon="2.95901">
        <ele>898.6</ele>
        <time>2018-12-29T14:28:37Z</time>
      </trkpt>
      <trkpt lat="45.76349" lon="2.95899">
        <ele>899</ele>
        <time>2018-12-29T14:28:38Z</time>
      </trkpt>
      <trkpt lat="45.76348" lon="2.95898">
        <ele>899</ele>
        <time>2018-12-29T14:28:39Z</time>
      </trkpt>
      <trkpt lat="45.76349" lon="2.95885">
        <ele>901.2</ele>
        <time>2018-12-29T14:28:45Z</time>
      </trkpt>
      <trkpt lat="45.76349" lon="2.95883">
        <ele>901.2</ele>
        <time>2018-12-29T14:28:46Z</time>
      </trkpt>
      <trkpt lat="45.7635" lon="2.9588">
        <ele>901.2</ele>
        <time>2018-12-29T14:28:47Z</time>
      </trkpt>
      <trkpt lat="45.7635" lon="2.95878">
        <ele>901.6</ele>
        <time>2018-12-29T14:28:48Z</time>
      </trkpt>
      <trkpt lat="45.7635" lon="2.95877">
        <ele>902.4</ele>
        <time>2018-12-29T14:28:49Z</time>
      </trkpt>
      <trkpt lat="45.76351" lon="2.95876">
        <ele>903</ele>
        <time>2018-12-29T14:28:50Z</time>
      </trkpt>
      <trkpt lat="45.76351" lon="2.95874">
        <ele>903.4</ele>
        <time>2018-12-29T14:28:51Z</time>
      </trkpt>
      <trkpt lat="45.76355" lon="2.958">
        <ele>915.6</ele>
        <time>2018-12-29T14:31:38Z</time>
      </trkpt>
      <trkpt lat="45.76356" lon="2.95798">
        <ele>916</ele>
        <time>2018-12-29T14:31:40Z</time>
      </trkpt>
      <trkpt lat="45.76357" lon="2.95795">
        <ele>916.4</ele>
        <time>2018-12-29T14:31:41Z</time>
      </trkpt>
      <trkpt lat="45.76358" lon="2.95793">
        <ele>916.8</ele>
        <time>2018-12-29T14:31:42Z</time>
      </trkpt>
      <trkpt lat="45.76358" lon="2.95789">
        <ele>917.4</ele>
        <time>2018-12-29T14:31:43Z</time>
      </trkpt>
      <trkpt lat="45.76358" lon="2.95788">
        <ele>917.8</ele>
        <time>2018-12-29T14:31:44Z</time>
      </trkpt>
      <trkpt lat="45.76359" lon="2.9578">
        <ele>917.8</ele>
        <time>2018-12-29T14:31:47Z</time>
      </trkpt>
      <trkpt lat="45.76359" lon="2.95777">
        <ele>918.2</ele>
        <time>2018-12-29T14:31:50Z</time>
      </trkpt>
      <trkpt lat="45.76358" lon="2.95774">
        <ele>918.6</ele>
        <time>2018-12-29T14:31:51Z</time>
      </trkpt>
      <trkpt lat="45.76357" lon="2.95773">
        <ele>919</ele>
        <time>2018-12-29T14:31:52Z</time>
      </trkpt>
      <trkpt lat="45.76357" lon="2.95771">
        <ele>919.4</ele>
        <time>2018-12-29T14:31:53Z</time>
      </trkpt>
      <trkpt lat="45.76356" lon="2.95769">
        <ele>919.8</ele>
        <time>2018-12-29T14:31:54Z</time>
      </trkpt>
      <trkpt lat="45.76357" lon="2.95763">
        <ele>919.8</ele>
        <time>2018-12-29T14:31:57Z</time>
      </trkpt>
      <trkpt lat="45.76359" lon="2.9576">
        <ele>919.8</ele>
        <time>2018-12-29T14:31:59Z</time>
      </trkpt>
      <trkpt lat="45.7636" lon="2.95759">
        <ele>920.2</ele>
        <time>2018-12-29T14:32:00Z</time>
      </trkpt>
      <trkpt lat="45.76362" lon="2.95758">
        <ele>920.6</ele>
        <time>2018-12-29T14:32:01Z</time>
      </trkpt>
      <trkpt lat="45.76364" lon="2.95758">
        <ele>921</ele>
        <time>2018-12-29T14:32:02Z</time>
      </trkpt>
      <trkpt lat="45.76365" lon="2.95757">
        <ele>921.4</ele>
        <time>2018-12-29T14:32:03Z</time>
      </trkpt>
      <trkpt lat="45.76367" lon="2.95757">
        <ele>921.8</ele>
        <time>2018-12-29T14:32:04Z</time>
      </trkpt>
      <trkpt lat="45.76368" lon="2.95755">
        <ele>921.8</ele>
        <time>2018-12-29T14:32:05Z</time>
      </trkpt>
      <trkpt lat="45.76369" lon="2.95752">
        <ele>921.8</ele>
        <time>2018-12-29T14:32:06Z</time>
      </trkpt>
      <trkpt lat="45.7637" lon="2.95748">
        <ele>921.8</ele>
        <time>2018-12-29T14:32:08Z</time>
      </trkpt>
      <trkpt lat="45.7637" lon="2.95745">
        <ele>922.2</ele>
        <time>2018-12-29T14:32:10Z</time>
      </trkpt>
      <trkpt lat="45.76369" lon="2.95743">
        <ele>922.6</ele>
        <time>2018-12-29T14:32:11Z</time>
      </trkpt>
      <trkpt lat="45.76368" lon="2.95742">
        <ele>923.2</ele>
        <time>2018-12-29T14:32:12Z</time>
      </trkpt>
      <trkpt lat="45.76368" lon="2.95742">
        <ele>923.6</ele>
        <time>2018-12-29T14:32:13Z</time>
      </trkpt>
      <trkpt lat="45.76368" lon="2.9574">
        <ele>924</ele>
        <time>2018-12-29T14:32:14Z</time>
      </trkpt>
      <trkpt lat="45.76367" lon="2.95738">
        <ele>924</ele>
        <time>2018-12-29T14:32:15Z</time>
      </trkpt>
      <trkpt lat="45.7636" lon="2.95728">
        <ele>924</ele>
        <time>2018-12-29T14:32:21Z</time>
      </trkpt>
      <trkpt lat="45.76357" lon="2.95722">
        <ele>924.4</ele>
        <time>2018-12-29T14:32:25Z</time>
      </trkpt>
      <trkpt lat="45.76356" lon="2.95721">
        <ele>924.8</ele>
        <time>2018-12-29T14:32:26Z</time>
      </trkpt>
      <trkpt lat="45.76354" lon="2.95719">
        <ele>925.2</ele>
        <time>2018-12-29T14:32:27Z</time>
      </trkpt>
      <trkpt lat="45.76353" lon="2.95717">
        <ele>925.6</ele>
        <time>2018-12-29T14:32:28Z</time>
      </trkpt>
      <trkpt lat="45.76352" lon="2.95716">
        <ele>926</ele>
        <time>2018-12-29T14:32:29Z</time>
      </trkpt>
      <trkpt lat="45.76348" lon="2.95711">
        <ele>926</ele>
        <time>2018-12-29T14:32:32Z</time>
      </trkpt>
      <trkpt lat="45.76341" lon="2.95699">
        <ele>926</ele>
        <time>2018-12-29T14:32:38Z</time>
      </trkpt>
      <trkpt lat="45.76339" lon="2.95695">
        <ele>926.4</ele>
        <time>2018-12-29T14:32:40Z</time>
      </trkpt>
      <trkpt lat="45.76338" lon="2.95693">
        <ele>926.8</ele>
        <time>2018-12-29T14:32:41Z</time>
      </trkpt>
      <trkpt lat="45.76338" lon="2.95691">
        <ele>927.2</ele>
        <time>2018-12-29T14:32:42Z</time>
      </trkpt>
      <trkpt lat="45.76337" lon="2.95689">
        <ele>928</ele>
        <time>2018-12-29T14:32:43Z</time>
      </trkpt>
      <trkpt lat="45.76336" lon="2.95679">
        <ele>928</ele>
        <time>2018-12-29T14:32:47Z</time>
      </trkpt>
      <trkpt lat="45.76336" lon="2.95672">
        <ele>928</ele>
        <time>2018-12-29T14:32:50Z</time>
      </trkpt>
      <trkpt lat="45.76336" lon="2.95668">
        <ele>928.4</ele>
        <time>2018-12-29T14:32:52Z</time>
      </trkpt>
      <trkpt lat="45.76337" lon="2.95665">
        <ele>928.8</ele>
        <time>2018-12-29T14:32:53Z</time>
      </trkpt>
      <trkpt lat="45.76338" lon="2.95664">
        <ele>929.2</ele>
        <time>2018-12-29T14:32:54Z</time>
      </trkpt>
      <trkpt lat="45.76339" lon="2.95661">
        <ele>929.6</ele>
        <time>2018-12-29T14:32:55Z</time>
      </trkpt>
      <trkpt lat="45.76339" lon="2.95659">
        <ele>930</ele>
        <time>2018-12-29T14:32:56Z</time>
      </trkpt>
      <trkpt lat="45.76345" lon="2.95648">
        <ele>930</ele>
        <time>2018-12-29T14:33:02Z</time>
      </trkpt>
      <trkpt lat="45.7635" lon="2.95643">
        <ele>930.4</ele>
        <time>2018-12-29T14:33:06Z</time>
      </trkpt>
      <trkpt lat="45.76352" lon="2.95642">
        <ele>930.8</ele>
        <time>2018-12-29T14:33:07Z</time>
      </trkpt>
      <trkpt lat="45.76353" lon="2.95641">
        <ele>931.8</ele>
        <time>2018-12-29T14:33:08Z</time>
      </trkpt>
      <trkpt lat="45.76355" lon="2.9564">
        <ele>932.2</ele>
        <time>2018-12-29T14:33:09Z</time>
      </trkpt>
      <trkpt lat="45.76363" lon="2.95638">
        <ele>932.2</ele>
        <time>2018-12-29T14:33:14Z</time>
      </trkpt>
      <trkpt lat="45.76365" lon="2.95637">
        <ele>932.2</ele>
        <time>2018-12-29T14:33:16Z</time>
      </trkpt>
      <trkpt lat="45.76369" lon="2.95637">
        <ele>932.2</ele>
        <time>2018-12-29T14:33:19Z</time>
      </trkpt>
      <trkpt lat="45.76372" lon="2.95636">
        <ele>932.6</ele>
        <time>2018-12-29T14:33:22Z</time>
      </trkpt>
      <trkpt lat="45.76373" lon="2.95635">
        <ele>933</ele>
        <time>2018-12-29T14:33:23Z</time>
      </trkpt>
      <trkpt lat="45.76374" lon="2.95634">
        <ele>933.4</ele>
        <time>2018-12-29T14:33:24Z</time>
      </trkpt>
      <trkpt lat="45.76376" lon="2.95634">
        <ele>933.8</ele>
        <time>2018-12-29T14:33:25Z</time>
      </trkpt>
      <trkpt lat="45.76377" lon="2.95633">
        <ele>934.4</ele>
        <time>2018-12-29T14:33:26Z</time>
      </trkpt>
      <trkpt lat="45.7638" lon="2.95627">
        <ele>934.4</ele>
        <time>2018-12-29T14:33:31Z</time>
      </trkpt>
      <trkpt lat="45.76381" lon="2.95626">
        <ele>934.4</ele>
        <time>2018-12-29T14:33:32Z</time>
      </trkpt>
      <trkpt lat="45.76385" lon="2.95619">
        <ele>934.4</ele>
        <time>2018-12-29T14:33:37Z</time>
      </trkpt>
      <trkpt lat="45.76385" lon="2.95618">
        <ele>934.8</ele>
        <time>2018-12-29T14:33:38Z</time>
      </trkpt>
      <trkpt lat="45.76386" lon="2.95616">
        <ele>935.2</ele>
        <time>2018-12-29T14:33:39Z</time>
      </trkpt>
      <trkpt lat="45.76387" lon="2.95614">
        <ele>935.6</ele>
        <time>2018-12-29T14:33:40Z</time>
      </trkpt>
      <trkpt lat="45.76387" lon="2.95612">
        <ele>936</ele>
        <time>2018-12-29T14:33:41Z</time>
      </trkpt>
      <trkpt lat="45.76388" lon="2.9561">
        <ele>936.4</ele>
        <time>2018-12-29T14:33:42Z</time>
      </trkpt>
      <trkpt lat="45.76388" lon="2.95607">
        <ele>936.4</ele>
        <time>2018-12-29T14:33:44Z</time>
      </trkpt>
      <trkpt lat="45.76393" lon="2.95594">
        <ele>936.4</ele>
        <time>2018-12-29T14:33:51Z</time>
      </trkpt>
      <trkpt lat="45.76392" lon="2.95592">
        <ele>936.4</ele>
        <time>2018-12-29T14:33:52Z</time>
      </trkpt>
      <trkpt lat="45.76394" lon="2.95585">
        <ele>936.4</ele>
        <time>2018-12-29T14:33:55Z</time>
      </trkpt>
      <trkpt lat="45.76395" lon="2.95579">
        <ele>936.8</ele>
        <time>2018-12-29T14:33:58Z</time>
      </trkpt>
      <trkpt lat="45.76396" lon="2.95576">
        <ele>937.2</ele>
        <time>2018-12-29T14:33:59Z</time>
      </trkpt>
      <trkpt lat="45.76397" lon="2.95574">
        <ele>937.6</ele>
        <time>2018-12-29T14:34:00Z</time>
      </trkpt>
      <trkpt lat="45.76397" lon="2.95572">
        <ele>938</ele>
        <time>2018-12-29T14:34:01Z</time>
      </trkpt>
      <trkpt lat="45.76398" lon="2.9557">
        <ele>938.4</ele>
        <time>2018-12-29T14:34:02Z</time>
      </trkpt>
      <trkpt lat="45.76398" lon="2.95561">
        <ele>938.4</ele>
        <time>2018-12-29T14:34:07Z</time>
      </trkpt>
      <trkpt lat="45.76398" lon="2.95559">
        <ele>938.4</ele>
        <time>2018-12-29T14:34:08Z</time>
      </trkpt>
      <trkpt lat="45.76399" lon="2.95555">
        <ele>938.4</ele>
        <time>2018-12-29T14:34:10Z</time>
      </trkpt>
      <trkpt lat="45.76402" lon="2.95548">
        <ele>938.4</ele>
        <time>2018-12-29T14:34:14Z</time>
      </trkpt>
      <trkpt lat="45.76406" lon="2.95548">
        <ele>938.4</ele>
        <time>2018-12-29T14:34:17Z</time>
      </trkpt>
      <trkpt lat="45.76409" lon="2.95547">
        <ele>938.8</ele>
        <time>2018-12-29T14:34:20Z</time>
      </trkpt>
      <trkpt lat="45.76411" lon="2.95547">
        <ele>939.6</ele>
        <time>2018-12-29T14:34:21Z</time>
      </trkpt>
      <trkpt lat="45.76412" lon="2.95547">
        <ele>940</ele>
        <time>2018-12-29T14:34:22Z</time>
      </trkpt>
      <trkpt lat="45.76413" lon="2.95547">
        <ele>940.4</ele>
        <time>2018-12-29T14:34:23Z</time>
      </trkpt>
      <trkpt lat="45.76414" lon="2.95546">
        <ele>940.4</ele>
        <time>2018-12-29T14:34:24Z</time>
      </trkpt>
      <trkpt lat="45.76415" lon="2.95545">
        <ele>940.4</ele>
        <time>2018-12-29T14:34:26Z</time>
      </trkpt>
      <trkpt lat="45.76416" lon="2.95545">
        <ele>940.4</ele>
        <time>2018-12-29T14:34:27Z</time>
      </trkpt>
      <trkpt lat="45.76446" lon="2.95549">
        <ele>942.6</ele>
        <time>2018-12-29T14:41:31Z</time>
      </trkpt>
      <trkpt lat="45.76443" lon="2.95545">
        <ele>942.6</ele>
        <time>2018-12-29T14:41:33Z</time>
      </trkpt>
      <trkpt lat="45.76442" lon="2.9554">
        <ele>942.6</ele>
        <time>2018-12-29T14:41:35Z</time>
      </trkpt>
      <trkpt lat="45.76442" lon="2.95537">
        <ele>942.6</ele>
        <time>2018-12-29T14:41:36Z</time>
      </trkpt>
      <trkpt lat="45.76443" lon="2.95535">
        <ele>942.6</ele>
        <time>2018-12-29T14:41:37Z</time>
      </trkpt>
      <trkpt lat="45.76445" lon="2.95534">
        <ele>942.2</ele>
        <time>2018-12-29T14:41:38Z</time>
      </trkpt>
      <trkpt lat="45.76447" lon="2.95533">
        <ele>941.8</ele>
        <time>2018-12-29T14:41:39Z</time>
      </trkpt>
      <trkpt lat="45.7645" lon="2.95534">
        <ele>941.4</ele>
        <time>2018-12-29T14:41:40Z</time>
      </trkpt>
      <trkpt lat="45.76453" lon="2.95533">
        <ele>940.8</ele>
        <time>2018-12-29T14:41:41Z</time>
      </trkpt>
      <trkpt lat="45.76456" lon="2.95532">
        <ele>940.4</ele>
        <time>2018-12-29T14:41:42Z</time>
      </trkpt>
      <trkpt lat="45.76464" lon="2.95528">
        <ele>940</ele>
        <time>2018-12-29T14:41:44Z</time>
      </trkpt>
      <trkpt lat="45.76469" lon="2.95528">
        <ele>939.2</ele>
        <time>2018-12-29T14:41:45Z</time>
      </trkpt>
      <trkpt lat="45.76474" lon="2.95526">
        <ele>938.8</ele>
        <time>2018-12-29T14:41:46Z</time>
      </trkpt>
      <trkpt lat="45.76479" lon="2.95525">
        <ele>938.2</ele>
        <time>2018-12-29T14:41:47Z</time>
      </trkpt>
      <trkpt lat="45.76484" lon="2.95522">
        <ele>937.8</ele>
        <time>2018-12-29T14:41:48Z</time>
      </trkpt>
      <trkpt lat="45.76488" lon="2.9552">
        <ele>937.4</ele>
        <time>2018-12-29T14:41:49Z</time>
      </trkpt>
      <trkpt lat="45.76492" lon="2.95519">
        <ele>937</ele>
        <time>2018-12-29T14:41:50Z</time>
      </trkpt>
      <trkpt lat="45.76496" lon="2.95518">
        <ele>936.6</ele>
        <time>2018-12-29T14:41:51Z</time>
      </trkpt>
      <trkpt lat="45.765" lon="2.95516">
        <ele>936.2</ele>
        <time>2018-12-29T14:41:52Z</time>
      </trkpt>
      <trkpt lat="45.76512" lon="2.9551">
        <ele>936.2</ele>
        <time>2018-12-29T14:41:55Z</time>
      </trkpt>
      <trkpt lat="45.76522" lon="2.95505">
        <ele>936.2</ele>
        <time>2018-12-29T14:41:59Z</time>
      </trkpt>
      <trkpt lat="45.76532" lon="2.95502">
        <ele>936.2</ele>
        <time>2018-12-29T14:42:03Z</time>
      </trkpt>
      <trkpt lat="45.76542" lon="2.95501">
        <ele>936.2</ele>
        <time>2018-12-29T14:42:07Z</time>
      </trkpt>
      <trkpt lat="45.76544" lon="2.95501">
        <ele>936.2</ele>
        <time>2018-12-29T14:42:08Z</time>
      </trkpt>
      <trkpt lat="45.76547" lon="2.955">
        <ele>936.2</ele>
        <time>2018-12-29T14:42:09Z</time>
      </trkpt>
      <trkpt lat="45.76554" lon="2.95499">
        <ele>936.2</ele>
        <time>2018-12-29T14:42:12Z</time>
      </trkpt>
      <trkpt lat="45.76557" lon="2.95498">
        <ele>936.6</ele>
        <time>2018-12-29T14:42:13Z</time>
      </trkpt>
      <trkpt lat="45.76559" lon="2.95497">
        <ele>937.2</ele>
        <time>2018-12-29T14:42:14Z</time>
      </trkpt>
      <trkpt lat="45.76562" lon="2.95495">
        <ele>937.6</ele>
        <time>2018-12-29T14:42:15Z</time>
      </trkpt>
      <trkpt lat="45.76563" lon="2.95493">
        <ele>938</ele>
        <time>2018-12-29T14:42:16Z</time>
      </trkpt>
      <trkpt lat="45.76564" lon="2.95493">
        <ele>938.4</ele>
        <time>2018-12-29T14:42:17Z</time>
      </trkpt>
      <trkpt lat="45.76568" lon="2.95491">
        <ele>938.4</ele>
        <time>2018-12-29T14:42:19Z</time>
      </trkpt>
      <trkpt lat="45.76576" lon="2.95487">
        <ele>938.4</ele>
        <time>2018-12-29T14:42:21Z</time>
      </trkpt>
      <trkpt lat="45.76584" lon="2.95482">
        <ele>938.4</ele>
        <time>2018-12-29T14:42:25Z</time>
      </trkpt>
      <trkpt lat="45.76588" lon="2.95475">
        <ele>938.4</ele>
        <time>2018-12-29T14:42:28Z</time>
      </trkpt>
      <trkpt lat="45.7659" lon="2.95472">
        <ele>938.4</ele>
        <time>2018-12-29T14:42:29Z</time>
      </trkpt>
      <trkpt lat="45.76604" lon="2.95458">
        <ele>938.4</ele>
        <time>2018-12-29T14:42:32Z</time>
      </trkpt>
      <trkpt lat="45.76609" lon="2.95454">
        <ele>937.8</ele>
        <time>2018-12-29T14:42:33Z</time>
      </trkpt>
      <trkpt lat="45.76616" lon="2.95449">
        <ele>936.8</ele>
        <time>2018-12-29T14:42:34Z</time>
      </trkpt>
      <trkpt lat="45.76621" lon="2.95445">
        <ele>936.2</ele>
        <time>2018-12-29T14:42:35Z</time>
      </trkpt>
      <trkpt lat="45.76627" lon="2.95441">
        <ele>935.6</ele>
        <time>2018-12-29T14:42:36Z</time>
      </trkpt>
      <trkpt lat="45.76633" lon="2.95436">
        <ele>934.8</ele>
        <time>2018-12-29T14:42:37Z</time>
      </trkpt>
      <trkpt lat="45.76639" lon="2.95433">
        <ele>934.2</ele>
        <time>2018-12-29T14:42:38Z</time>
      </trkpt>
      <trkpt lat="45.76645" lon="2.9543">
        <ele>933.6</ele>
        <time>2018-12-29T14:42:39Z</time>
      </trkpt>
      <trkpt lat="45.76663" lon="2.95423">
        <ele>933.6</ele>
        <time>2018-12-29T14:42:42Z</time>
      </trkpt>
      <trkpt lat="45.76673" lon="2.95421">
        <ele>933.6</ele>
        <time>2018-12-29T14:42:44Z</time>
      </trkpt>
      <trkpt lat="45.76681" lon="2.9542">
        <ele>933.6</ele>
        <time>2018-12-29T14:42:46Z</time>
      </trkpt>
      <trkpt lat="45.76694" lon="2.95417">
        <ele>934.2</ele>
        <time>2018-12-29T14:42:49Z</time>
      </trkpt>
      <trkpt lat="45.76697" lon="2.95416">
        <ele>934.6</ele>
        <time>2018-12-29T14:42:50Z</time>
      </trkpt>
      <trkpt lat="45.767" lon="2.95415">
        <ele>935</ele>
        <time>2018-12-29T14:42:51Z</time>
      </trkpt>
      <trkpt lat="45.76703" lon="2.95414">
        <ele>935.6</ele>
        <time>2018-12-29T14:42:52Z</time>
      </trkpt>
      <trkpt lat="45.76709" lon="2.95413">
        <ele>936</ele>
        <time>2018-12-29T14:42:53Z</time>
      </trkpt>
      <trkpt lat="45.76721" lon="2.9541">
        <ele>936</ele>
        <time>2018-12-29T14:42:56Z</time>
      </trkpt>
      <trkpt lat="45.76735" lon="2.95406">
        <ele>936</ele>
        <time>2018-12-29T14:43:00Z</time>
      </trkpt>
      <trkpt lat="45.76757" lon="2.95403">
        <ele>936</ele>
        <time>2018-12-29T14:43:07Z</time>
      </trkpt>
      <trkpt lat="45.7677" lon="2.95406">
        <ele>936.4</ele>
        <time>2018-12-29T14:43:11Z</time>
      </trkpt>
      <trkpt lat="45.7677" lon="2.95406">
        <ele>936.8</ele>
        <time>2018-12-29T14:43:12Z</time>
      </trkpt>
      <trkpt lat="45.76771" lon="2.95407">
        <ele>937.2</ele>
        <time>2018-12-29T14:43:13Z</time>
      </trkpt>
      <trkpt lat="45.76783" lon="2.95406">
        <ele>938.8</ele>
        <time>2018-12-29T14:43:18Z</time>
      </trkpt>
      <trkpt lat="45.76785" lon="2.95405">
        <ele>939.2</ele>
        <time>2018-12-29T14:43:19Z</time>
      </trkpt>
      <trkpt lat="45.76788" lon="2.95404">
        <ele>939.6</ele>
        <time>2018-12-29T14:43:20Z</time>
      </trkpt>
      <trkpt lat="45.76791" lon="2.95402">
        <ele>940</ele>
        <time>2018-12-29T14:43:21Z</time>
      </trkpt>
      <trkpt lat="45.76796" lon="2.95399">
        <ele>940</ele>
        <time>2018-12-29T14:43:23Z</time>
      </trkpt>
      <trkpt lat="45.76797" lon="2.95398">
        <ele>940</ele>
        <time>2018-12-29T14:43:24Z</time>
      </trkpt>
      <trkpt lat="45.76802" lon="2.95397">
        <ele>940</ele>
        <time>2018-12-29T14:43:26Z</time>
      </trkpt>
      <trkpt lat="45.76805" lon="2.95396">
        <ele>940</ele>
        <time>2018-12-29T14:43:27Z</time>
      </trkpt>
      <trkpt lat="45.76816" lon="2.95389">
        <ele>940</ele>
        <time>2018-12-29T14:43:32Z</time>
      </trkpt>
      <trkpt lat="45.76835" lon="2.95383">
        <ele>940</ele>
        <time>2018-12-29T14:43:39Z</time>
      </trkpt>
      <trkpt lat="45.76849" lon="2.95379">
        <ele>940</ele>
        <time>2018-12-29T14:43:45Z</time>
      </trkpt>
      <trkpt lat="45.76868" lon="2.95373">
        <ele>940</ele>
        <time>2018-12-29T14:43:50Z</time>
      </trkpt>
      <trkpt lat="45.7688" lon="2.95367">
        <ele>940</ele>
        <time>2018-12-29T14:43:54Z</time>
      </trkpt>
      <trkpt lat="45.76904" lon="2.95356">
        <ele>940</ele>
        <time>2018-12-29T14:44:01Z</time>
      </trkpt>
      <trkpt lat="45.76911" lon="2.95351">
        <ele>940.4</ele>
        <time>2018-12-29T14:44:04Z</time>
      </trkpt>
      <trkpt lat="45.76914" lon="2.95349">
        <ele>940.8</ele>
        <time>2018-12-29T14:44:05Z</time>
      </trkpt>
      <trkpt lat="45.76916" lon="2.95348">
        <ele>941.2</ele>
        <time>2018-12-29T14:44:06Z</time>
      </trkpt>
      <trkpt lat="45.76918" lon="2.95347">
        <ele>941.6</ele>
        <time>2018-12-29T14:44:07Z</time>
      </trkpt>
      <trkpt lat="45.7692" lon="2.95346">
        <ele>942</ele>
        <time>2018-12-29T14:44:08Z</time>
      </trkpt>
      <trkpt lat="45.76926" lon="2.95341">
        <ele>942</ele>
        <time>2018-12-29T14:44:11Z</time>
      </trkpt>
      <trkpt lat="45.76937" lon="2.95336">
        <ele>942</ele>
        <time>2018-12-29T14:44:15Z</time>
      </trkpt>
      <trkpt lat="45.76943" lon="2.95332">
        <ele>942.4</ele>
        <time>2018-12-29T14:44:17Z</time>
      </trkpt>
      <trkpt lat="45.76946" lon="2.95331">
        <ele>942.8</ele>
        <time>2018-12-29T14:44:18Z</time>
      </trkpt>
      <trkpt lat="45.76948" lon="2.9533">
        <ele>943.4</ele>
        <time>2018-12-29T14:44:19Z</time>
      </trkpt>
      <trkpt lat="45.7695" lon="2.9533">
        <ele>943.8</ele>
        <time>2018-12-29T14:44:20Z</time>
      </trkpt>
      <trkpt lat="45.76952" lon="2.95328">
        <ele>944.2</ele>
        <time>2018-12-29T14:44:21Z</time>
      </trkpt>
      <trkpt lat="45.7696" lon="2.95325">
        <ele>944.2</ele>
        <time>2018-12-29T14:44:25Z</time>
      </trkpt>
      <trkpt lat="45.76962" lon="2.95323">
        <ele>944.6</ele>
        <time>2018-12-29T14:44:26Z</time>
      </trkpt>
      <trkpt lat="45.76964" lon="2.95322">
        <ele>945</ele>
        <time>2018-12-29T14:44:27Z</time>
      </trkpt>
      <trkpt lat="45.76967" lon="2.95322">
        <ele>946.4</ele>
        <time>2018-12-29T14:44:30Z</time>
      </trkpt>
      <trkpt lat="45.76968" lon="2.95321">
        <ele>946.4</ele>
        <time>2018-12-29T14:44:31Z</time>
      </trkpt>
      <trkpt lat="45.76978" lon="2.95318">
        <ele>946.8</ele>
        <time>2018-12-29T14:44:34Z</time>
      </trkpt>
      <trkpt lat="45.7698" lon="2.95317">
        <ele>947.2</ele>
        <time>2018-12-29T14:44:35Z</time>
      </trkpt>
      <trkpt lat="45.76983" lon="2.95316">
        <ele>947.6</ele>
        <time>2018-12-29T14:44:36Z</time>
      </trkpt>
      <trkpt lat="45.76986" lon="2.95316">
        <ele>948.4</ele>
        <time>2018-12-29T14:44:37Z</time>
      </trkpt>
      <trkpt lat="45.76996" lon="2.95313">
        <ele>948.4</ele>
        <time>2018-12-29T14:44:41Z</time>
      </trkpt>
      <trkpt lat="45.77007" lon="2.95305">
        <ele>948.4</ele>
        <time>2018-12-29T14:44:44Z</time>
      </trkpt>
      <trkpt lat="45.77029" lon="2.95294">
        <ele>948.4</ele>
        <time>2018-12-29T14:44:49Z</time>
      </trkpt>
      <trkpt lat="45.77042" lon="2.95292">
        <ele>948.4</ele>
        <time>2018-12-29T14:44:53Z</time>
      </trkpt>
      <trkpt lat="45.77057" lon="2.95284">
        <ele>948.4</ele>
        <time>2018-12-29T14:44:57Z</time>
      </trkpt>
      <trkpt lat="45.77062" lon="2.95281">
        <ele>948.4</ele>
        <time>2018-12-29T14:44:58Z</time>
      </trkpt>
      <trkpt lat="45.77067" lon="2.95278">
        <ele>948</ele>
        <time>2018-12-29T14:44:59Z</time>
      </trkpt>
      <trkpt lat="45.77072" lon="2.95274">
        <ele>947.4</ele>
        <time>2018-12-29T14:45:00Z</time>
      </trkpt>
      <trkpt lat="45.77078" lon="2.95269">
        <ele>946.6</ele>
        <time>2018-12-29T14:45:01Z</time>
      </trkpt>
      <trkpt lat="45.77084" lon="2.95264">
        <ele>945</ele>
        <time>2018-12-29T14:45:02Z</time>
      </trkpt>
      <trkpt lat="45.7709" lon="2.9526">
        <ele>944.2</ele>
        <time>2018-12-29T14:45:03Z</time>
      </trkpt>
      <trkpt lat="45.77095" lon="2.95256">
        <ele>943.4</ele>
        <time>2018-12-29T14:45:04Z</time>
      </trkpt>
      <trkpt lat="45.77106" lon="2.95248">
        <ele>943</ele>
        <time>2018-12-29T14:45:06Z</time>
      </trkpt>
      <trkpt lat="45.77113" lon="2.95245">
        <ele>942.6</ele>
        <time>2018-12-29T14:45:07Z</time>
      </trkpt>
      <trkpt lat="45.7712" lon="2.95241">
        <ele>942</ele>
        <time>2018-12-29T14:45:08Z</time>
      </trkpt>
      <trkpt lat="45.77126" lon="2.95238">
        <ele>941.2</ele>
        <time>2018-12-29T14:45:09Z</time>
      </trkpt>
      <trkpt lat="45.77131" lon="2.95236">
        <ele>940.6</ele>
        <time>2018-12-29T14:45:10Z</time>
      </trkpt>
      <trkpt lat="45.77136" lon="2.95235">
        <ele>940</ele>
        <time>2018-12-29T14:45:11Z</time>
      </trkpt>
      <trkpt lat="45.77142" lon="2.95234">
        <ele>939.4</ele>
        <time>2018-12-29T14:45:12Z</time>
      </trkpt>
      <trkpt lat="45.77147" lon="2.95233">
        <ele>939</ele>
        <time>2018-12-29T14:45:13Z</time>
      </trkpt>
      <trkpt lat="45.77153" lon="2.95231">
        <ele>938.6</ele>
        <time>2018-12-29T14:45:14Z</time>
      </trkpt>
      <trkpt lat="45.77159" lon="2.95228">
        <ele>938.2</ele>
        <time>2018-12-29T14:45:15Z</time>
      </trkpt>
      <trkpt lat="45.77165" lon="2.95227">
        <ele>937.4</ele>
        <time>2018-12-29T14:45:16Z</time>
      </trkpt>
      <trkpt lat="45.77171" lon="2.95225">
        <ele>936.6</ele>
        <time>2018-12-29T14:45:17Z</time>
      </trkpt>
      <trkpt lat="45.77177" lon="2.95224">
        <ele>935.8</ele>
        <time>2018-12-29T14:45:18Z</time>
      </trkpt>
      <trkpt lat="45.77185" lon="2.95221">
        <ele>935.2</ele>
        <time>2018-12-29T14:45:19Z</time>
      </trkpt>
      <trkpt lat="45.77192" lon="2.95218">
        <ele>934.4</ele>
        <time>2018-12-29T14:45:20Z</time>
      </trkpt>
      <trkpt lat="45.772" lon="2.95215">
        <ele>933.6</ele>
        <time>2018-12-29T14:45:21Z</time>
      </trkpt>
      <trkpt lat="45.77207" lon="2.95212">
        <ele>932.8</ele>
        <time>2018-12-29T14:45:22Z</time>
      </trkpt>
      <trkpt lat="45.77214" lon="2.95208">
        <ele>932</ele>
        <time>2018-12-29T14:45:23Z</time>
      </trkpt>
      <trkpt lat="45.77221" lon="2.95205">
        <ele>931.6</ele>
        <time>2018-12-29T14:45:24Z</time>
      </trkpt>
      <trkpt lat="45.77228" lon="2.95203">
        <ele>931.2</ele>
        <time>2018-12-29T14:45:25Z</time>
      </trkpt>
      <trkpt lat="45.77236" lon="2.95201">
        <ele>930.8</ele>
        <time>2018-12-29T14:45:26Z</time>
      </trkpt>
      <trkpt lat="45.77245" lon="2.952">
        <ele>929.8</ele>
        <time>2018-12-29T14:45:27Z</time>
      </trkpt>
      <trkpt lat="45.77253" lon="2.95199">
        <ele>929.2</ele>
        <time>2018-12-29T14:45:28Z</time>
      </trkpt>
      <trkpt lat="45.77261" lon="2.95197">
        <ele>928.4</ele>
        <time>2018-12-29T14:45:29Z</time>
      </trkpt>
      <trkpt lat="45.7727" lon="2.95195">
        <ele>927.6</ele>
        <time>2018-12-29T14:45:30Z</time>
      </trkpt>
      <trkpt lat="45.7728" lon="2.95193">
        <ele>926.8</ele>
        <time>2018-12-29T14:45:31Z</time>
      </trkpt>
      <trkpt lat="45.7729" lon="2.95191">
        <ele>926.2</ele>
        <time>2018-12-29T14:45:32Z</time>
      </trkpt>
      <trkpt lat="45.773" lon="2.9519">
        <ele>925.4</ele>
        <time>2018-12-29T14:45:33Z</time>
      </trkpt>
      <trkpt lat="45.77309" lon="2.9519">
        <ele>924.6</ele>
        <time>2018-12-29T14:45:34Z</time>
      </trkpt>
      <trkpt lat="45.77319" lon="2.9519">
        <ele>923.8</ele>
        <time>2018-12-29T14:45:35Z</time>
      </trkpt>
      <trkpt lat="45.77328" lon="2.9519">
        <ele>923</ele>
        <time>2018-12-29T14:45:36Z</time>
      </trkpt>
      <trkpt lat="45.77338" lon="2.95189">
        <ele>923</ele>
        <time>2018-12-29T14:45:37Z</time>
      </trkpt>
      <trkpt lat="45.77347" lon="2.95188">
        <ele>922.6</ele>
        <time>2018-12-29T14:45:38Z</time>
      </trkpt>
      <trkpt lat="45.77356" lon="2.95186">
        <ele>922.2</ele>
        <time>2018-12-29T14:45:39Z</time>
      </trkpt>
      <trkpt lat="45.77365" lon="2.95184">
        <ele>921.8</ele>
        <time>2018-12-29T14:45:40Z</time>
      </trkpt>
      <trkpt lat="45.77373" lon="2.95183">
        <ele>921.2</ele>
        <time>2018-12-29T14:45:41Z</time>
      </trkpt>
      <trkpt lat="45.77381" lon="2.95184">
        <ele>920.8</ele>
        <time>2018-12-29T14:45:42Z</time>
      </trkpt>
      <trkpt lat="45.77395" lon="2.95188">
        <ele>920.4</ele>
        <time>2018-12-29T14:45:44Z</time>
      </trkpt>
      <trkpt lat="45.77402" lon="2.9519">
        <ele>920</ele>
        <time>2018-12-29T14:45:45Z</time>
      </trkpt>
      <trkpt lat="45.77409" lon="2.95192">
        <ele>919.4</ele>
        <time>2018-12-29T14:45:46Z</time>
      </trkpt>
      <trkpt lat="45.77417" lon="2.95195">
        <ele>918.8</ele>
        <time>2018-12-29T14:45:47Z</time>
      </trkpt>
      <trkpt lat="45.77423" lon="2.95198">
        <ele>918.2</ele>
        <time>2018-12-29T14:45:48Z</time>
      </trkpt>
      <trkpt lat="45.7743" lon="2.95201">
        <ele>917.6</ele>
        <time>2018-12-29T14:45:49Z</time>
      </trkpt>
      <trkpt lat="45.77437" lon="2.95203">
        <ele>917</ele>
        <time>2018-12-29T14:45:50Z</time>
      </trkpt>
      <trkpt lat="45.77445" lon="2.95206">
        <ele>916.4</ele>
        <time>2018-12-29T14:45:51Z</time>
      </trkpt>
      <trkpt lat="45.77452" lon="2.95208">
        <ele>915.2</ele>
        <time>2018-12-29T14:45:52Z</time>
      </trkpt>
      <trkpt lat="45.77462" lon="2.9521">
        <ele>914.6</ele>
        <time>2018-12-29T14:45:53Z</time>
      </trkpt>
      <trkpt lat="45.77471" lon="2.95213">
        <ele>914</ele>
        <time>2018-12-29T14:45:54Z</time>
      </trkpt>
      <trkpt lat="45.77481" lon="2.95215">
        <ele>914</ele>
        <time>2018-12-29T14:45:55Z</time>
      </trkpt>
      <trkpt lat="45.77502" lon="2.95221">
        <ele>914</ele>
        <time>2018-12-29T14:45:57Z</time>
      </trkpt>
      <trkpt lat="45.77519" lon="2.95225">
        <ele>914</ele>
        <time>2018-12-29T14:45:59Z</time>
      </trkpt>
      <trkpt lat="45.77535" lon="2.95239">
        <ele>914</ele>
        <time>2018-12-29T14:46:02Z</time>
      </trkpt>
      <trkpt lat="45.77539" lon="2.95243">
        <ele>914</ele>
        <time>2018-12-29T14:46:03Z</time>
      </trkpt>
      <trkpt lat="45.77542" lon="2.95248">
        <ele>914.6</ele>
        <time>2018-12-29T14:46:04Z</time>
      </trkpt>
      <trkpt lat="45.77546" lon="2.95251">
        <ele>915</ele>
        <time>2018-12-29T14:46:05Z</time>
      </trkpt>
      <trkpt lat="45.77547" lon="2.95255">
        <ele>915.4</ele>
        <time>2018-12-29T14:46:06Z</time>
      </trkpt>
      <trkpt lat="45.77548" lon="2.95259">
        <ele>916</ele>
        <time>2018-12-29T14:46:07Z</time>
      </trkpt>
      <trkpt lat="45.7755" lon="2.95263">
        <ele>916.4</ele>
        <time>2018-12-29T14:46:08Z</time>
      </trkpt>
      <trkpt lat="45.77552" lon="2.95267">
        <ele>916.4</ele>
        <time>2018-12-29T14:46:09Z</time>
      </trkpt>
      <trkpt lat="45.77555" lon="2.95273">
        <ele>916.4</ele>
        <time>2018-12-29T14:46:11Z</time>
      </trkpt>
      <trkpt lat="45.77557" lon="2.95276">
        <ele>916.4</ele>
        <time>2018-12-29T14:46:12Z</time>
      </trkpt>
      <trkpt lat="45.77565" lon="2.95281">
        <ele>916.8</ele>
        <time>2018-12-29T14:46:15Z</time>
      </trkpt>
      <trkpt lat="45.77567" lon="2.95283">
        <ele>917.8</ele>
        <time>2018-12-29T14:46:16Z</time>
      </trkpt>
      <trkpt lat="45.77569" lon="2.95285">
        <ele>918.2</ele>
        <time>2018-12-29T14:46:17Z</time>
      </trkpt>
      <trkpt lat="45.77571" lon="2.95286">
        <ele>918.6</ele>
        <time>2018-12-29T14:46:18Z</time>
      </trkpt>
      <trkpt lat="45.77574" lon="2.95287">
        <ele>918.6</ele>
        <time>2018-12-29T14:46:19Z</time>
      </trkpt>
      <trkpt lat="45.77577" lon="2.95287">
        <ele>919</ele>
        <time>2018-12-29T14:46:20Z</time>
      </trkpt>
      <trkpt lat="45.77578" lon="2.95286">
        <ele>919.4</ele>
        <time>2018-12-29T14:46:21Z</time>
      </trkpt>
      <trkpt lat="45.7758" lon="2.95286">
        <ele>919.8</ele>
        <time>2018-12-29T14:46:22Z</time>
      </trkpt>
      <trkpt lat="45.77582" lon="2.95285">
        <ele>920.2</ele>
        <time>2018-12-29T14:46:23Z</time>
      </trkpt>
      <trkpt lat="45.77583" lon="2.95284">
        <ele>920.8</ele>
        <time>2018-12-29T14:46:24Z</time>
      </trkpt>
      <trkpt lat="45.77586" lon="2.95282">
        <ele>920.8</ele>
        <time>2018-12-29T14:46:26Z</time>
      </trkpt>
      <trkpt lat="45.77594" lon="2.95276">
        <ele>920.8</ele>
        <time>2018-12-29T14:46:30Z</time>
      </trkpt>
      <trkpt lat="45.77598" lon="2.95275">
        <ele>921.2</ele>
        <time>2018-12-29T14:46:32Z</time>
      </trkpt>
      <trkpt lat="45.77599" lon="2.95275">
        <ele>921.6</ele>
        <time>2018-12-29T14:46:33Z</time>
      </trkpt>
      <trkpt lat="45.77601" lon="2.95274">
        <ele>922</ele>
        <time>2018-12-29T14:46:34Z</time>
      </trkpt>
      <trkpt lat="45.77602" lon="2.95273">
        <ele>922.4</ele>
        <time>2018-12-29T14:46:35Z</time>
      </trkpt>
      <trkpt lat="45.77603" lon="2.95273">
        <ele>922.8</ele>
        <time>2018-12-29T14:46:36Z</time>
      </trkpt>
      <trkpt lat="45.77608" lon="2.95271">
        <ele>922.8</ele>
        <time>2018-12-29T14:46:38Z</time>
      </trkpt>
      <trkpt lat="45.77613" lon="2.9527">
        <ele>922.8</ele>
        <time>2018-12-29T14:46:41Z</time>
      </trkpt>
      <trkpt lat="45.7762" lon="2.95268">
        <ele>923.2</ele>
        <time>2018-12-29T14:46:45Z</time>
      </trkpt>
      <trkpt lat="45.77622" lon="2.95267">
        <ele>923.6</ele>
        <time>2018-12-29T14:46:46Z</time>
      </trkpt>
      <trkpt lat="45.77624" lon="2.95266">
        <ele>924.2</ele>
        <time>2018-12-29T14:46:47Z</time>
      </trkpt>
      <trkpt lat="45.77626" lon="2.95265">
        <ele>924.6</ele>
        <time>2018-12-29T14:46:48Z</time>
      </trkpt>
      <trkpt lat="45.77627" lon="2.95264">
        <ele>925</ele>
        <time>2018-12-29T14:46:49Z</time>
      </trkpt>
      <trkpt lat="45.77631" lon="2.95262">
        <ele>925</ele>
        <time>2018-12-29T14:46:51Z</time>
      </trkpt>
      <trkpt lat="45.77633" lon="2.95261">
        <ele>925</ele>
        <time>2018-12-29T14:46:52Z</time>
      </trkpt>
      <trkpt lat="45.77638" lon="2.95259">
        <ele>925.4</ele>
        <time>2018-12-29T14:46:56Z</time>
      </trkpt>
      <trkpt lat="45.77643" lon="2.95258">
        <ele>926.2</ele>
        <time>2018-12-29T14:46:58Z</time>
      </trkpt>
      <trkpt lat="45.77645" lon="2.95257">
        <ele>926.6</ele>
        <time>2018-12-29T14:46:59Z</time>
      </trkpt>
      <trkpt lat="45.77647" lon="2.95256">
        <ele>927</ele>
        <time>2018-12-29T14:47:00Z</time>
      </trkpt>
      <trkpt lat="45.77648" lon="2.95255">
        <ele>927</ele>
        <time>2018-12-29T14:47:01Z</time>
      </trkpt>
      <trkpt lat="45.77654" lon="2.9525">
        <ele>927</ele>
        <time>2018-12-29T14:47:04Z</time>
      </trkpt>
      <trkpt lat="45.77658" lon="2.95247">
        <ele>927.4</ele>
        <time>2018-12-29T14:47:07Z</time>
      </trkpt>
      <trkpt lat="45.7766" lon="2.95247">
        <ele>927.8</ele>
        <time>2018-12-29T14:47:08Z</time>
      </trkpt>
      <trkpt lat="45.77662" lon="2.95246">
        <ele>928.2</ele>
        <time>2018-12-29T14:47:09Z</time>
      </trkpt>
      <trkpt lat="45.77663" lon="2.95245">
        <ele>928.6</ele>
        <time>2018-12-29T14:47:10Z</time>
      </trkpt>
      <trkpt lat="45.77665" lon="2.95245">
        <ele>929.2</ele>
        <time>2018-12-29T14:47:11Z</time>
      </trkpt>
      <trkpt lat="45.77669" lon="2.95243">
        <ele>929.2</ele>
        <time>2018-12-29T14:47:13Z</time>
      </trkpt>
      <trkpt lat="45.77676" lon="2.95241">
        <ele>929.2</ele>
        <time>2018-12-29T14:47:16Z</time>
      </trkpt>
      <trkpt lat="45.77678" lon="2.9524">
        <ele>929.2</ele>
        <time>2018-12-29T14:47:17Z</time>
      </trkpt>
      <trkpt lat="45.77693" lon="2.95236">
        <ele>929.2</ele>
        <time>2018-12-29T14:47:23Z</time>
      </trkpt>
      <trkpt lat="45.77698" lon="2.95235">
        <ele>929.6</ele>
        <time>2018-12-29T14:47:25Z</time>
      </trkpt>
      <trkpt lat="45.77701" lon="2.95235">
        <ele>930</ele>
        <time>2018-12-29T14:47:26Z</time>
      </trkpt>
      <trkpt lat="45.77703" lon="2.95234">
        <ele>930.4</ele>
        <time>2018-12-29T14:47:27Z</time>
      </trkpt>
      <trkpt lat="45.77706" lon="2.95233">
        <ele>930.8</ele>
        <time>2018-12-29T14:47:28Z</time>
      </trkpt>
      <trkpt lat="45.77708" lon="2.95232">
        <ele>931.4</ele>
        <time>2018-12-29T14:47:29Z</time>
      </trkpt>
      <trkpt lat="45.77715" lon="2.95231">
        <ele>931.4</ele>
        <time>2018-12-29T14:47:33Z</time>
      </trkpt>
      <trkpt lat="45.77718" lon="2.95231">
        <ele>931.4</ele>
        <time>2018-12-29T14:47:36Z</time>
      </trkpt>
      <trkpt lat="45.7772" lon="2.95233">
        <ele>931.4</ele>
        <time>2018-12-29T14:47:38Z</time>
      </trkpt>
      <trkpt lat="45.77724" lon="2.95234">
        <ele>931.4</ele>
        <time>2018-12-29T14:47:40Z</time>
      </trkpt>
      <trkpt lat="45.77746" lon="2.95244">
        <ele>931.4</ele>
        <time>2018-12-29T14:48:05Z</time>
      </trkpt>
      <trkpt lat="45.77751" lon="2.95245">
        <ele>931.4</ele>
        <time>2018-12-29T14:48:07Z</time>
      </trkpt>
      <trkpt lat="45.77757" lon="2.9525">
        <ele>931.4</ele>
        <time>2018-12-29T14:48:13Z</time>
      </trkpt>
      <trkpt lat="45.77763" lon="2.95252">
        <ele>930.8</ele>
        <time>2018-12-29T14:48:17Z</time>
      </trkpt>
      <trkpt lat="45.77773" lon="2.95254">
        <ele>929.2</ele>
        <time>2018-12-29T14:48:27Z</time>
      </trkpt>
      <trkpt lat="45.7778" lon="2.95255">
        <ele>929.2</ele>
        <time>2018-12-29T14:48:32Z</time>
      </trkpt>
      <trkpt lat="45.77783" lon="2.95256">
        <ele>929.2</ele>
        <time>2018-12-29T14:48:34Z</time>
      </trkpt>
      <trkpt lat="45.7779" lon="2.95258">
        <ele>929.2</ele>
        <time>2018-12-29T14:48:36Z</time>
      </trkpt>
      <trkpt lat="45.77796" lon="2.95258">
        <ele>928.8</ele>
        <time>2018-12-29T14:48:38Z</time>
      </trkpt>
      <trkpt lat="45.77799" lon="2.95258">
        <ele>928.2</ele>
        <time>2018-12-29T14:48:39Z</time>
      </trkpt>
      <trkpt lat="45.77802" lon="2.95259">
        <ele>927.8</ele>
        <time>2018-12-29T14:48:40Z</time>
      </trkpt>
      <trkpt lat="45.77805" lon="2.9526">
        <ele>927.4</ele>
        <time>2018-12-29T14:48:41Z</time>
      </trkpt>
      <trkpt lat="45.77807" lon="2.95261">
        <ele>927</ele>
        <time>2018-12-29T14:48:42Z</time>
      </trkpt>
      <trkpt lat="45.77815" lon="2.95264">
        <ele>927</ele>
        <time>2018-12-29T14:48:45Z</time>
      </trkpt>
      <trkpt lat="45.77821" lon="2.95266">
        <ele>926.4</ele>
        <time>2018-12-29T14:48:47Z</time>
      </trkpt>
      <trkpt lat="45.77825" lon="2.95267">
        <ele>926</ele>
        <time>2018-12-29T14:48:48Z</time>
      </trkpt>
      <trkpt lat="45.77828" lon="2.95268">
        <ele>925.6</ele>
        <time>2018-12-29T14:48:49Z</time>
      </trkpt>
      <trkpt lat="45.77832" lon="2.9527">
        <ele>925.2</ele>
        <time>2018-12-29T14:48:50Z</time>
      </trkpt>
      <trkpt lat="45.77835" lon="2.95271">
        <ele>924.6</ele>
        <time>2018-12-29T14:48:51Z</time>
      </trkpt>
      <trkpt lat="45.77845" lon="2.95273">
        <ele>924.6</ele>
        <time>2018-12-29T14:48:53Z</time>
      </trkpt>
      <trkpt lat="45.77856" lon="2.95276">
        <ele>924.6</ele>
        <time>2018-12-29T14:48:55Z</time>
      </trkpt>
      <trkpt lat="45.77861" lon="2.95277">
        <ele>924.6</ele>
        <time>2018-12-29T14:48:56Z</time>
      </trkpt>
      <trkpt lat="45.7787" lon="2.95282">
        <ele>924.2</ele>
        <time>2018-12-29T14:48:58Z</time>
      </trkpt>
      <trkpt lat="45.77873" lon="2.95286">
        <ele>923.6</ele>
        <time>2018-12-29T14:48:59Z</time>
      </trkpt>
      <trkpt lat="45.77878" lon="2.9529">
        <ele>923.2</ele>
        <time>2018-12-29T14:49:00Z</time>
      </trkpt>
      <trkpt lat="45.77883" lon="2.95293">
        <ele>922.6</ele>
        <time>2018-12-29T14:49:01Z</time>
      </trkpt>
      <trkpt lat="45.77888" lon="2.95295">
        <ele>922.2</ele>
        <time>2018-12-29T14:49:02Z</time>
      </trkpt>
      <trkpt lat="45.77905" lon="2.95301">
        <ele>922.2</ele>
        <time>2018-12-29T14:49:05Z</time>
      </trkpt>
      <trkpt lat="45.77924" lon="2.95314">
        <ele>922.2</ele>
        <time>2018-12-29T14:49:10Z</time>
      </trkpt>
      <trkpt lat="45.77939" lon="2.95327">
        <ele>922.2</ele>
        <time>2018-12-29T14:49:14Z</time>
      </trkpt>
      <trkpt lat="45.77949" lon="2.95333">
        <ele>922.2</ele>
        <time>2018-12-29T14:49:18Z</time>
      </trkpt>
      <trkpt lat="45.77958" lon="2.95338">
        <ele>922.2</ele>
        <time>2018-12-29T14:49:22Z</time>
      </trkpt>
      <trkpt lat="45.77962" lon="2.95339">
        <ele>922.2</ele>
        <time>2018-12-29T14:49:24Z</time>
      </trkpt>
      <trkpt lat="45.77976" lon="2.95345">
        <ele>922.2</ele>
        <time>2018-12-29T14:49:30Z</time>
      </trkpt>
      <trkpt lat="45.7798" lon="2.95349">
        <ele>922.2</ele>
        <time>2018-12-29T14:49:33Z</time>
      </trkpt>
      <trkpt lat="45.77984" lon="2.95348">
        <ele>922.2</ele>
        <time>2018-12-29T14:49:35Z</time>
      </trkpt>
      <trkpt lat="45.77987" lon="2.95346">
        <ele>922.6</ele>
        <time>2018-12-29T14:49:37Z</time>
      </trkpt>
      <trkpt lat="45.77989" lon="2.95347">
        <ele>923</ele>
        <time>2018-12-29T14:49:38Z</time>
      </trkpt>
      <trkpt lat="45.77991" lon="2.95348">
        <ele>923.4</ele>
        <time>2018-12-29T14:49:39Z</time>
      </trkpt>
      <trkpt lat="45.77993" lon="2.95348">
        <ele>923.8</ele>
        <time>2018-12-29T14:49:40Z</time>
      </trkpt>
      <trkpt lat="45.77995" lon="2.95348">
        <ele>924.2</ele>
        <time>2018-12-29T14:49:41Z</time>
      </trkpt>
      <trkpt lat="45.78005" lon="2.95355">
        <ele>924.2</ele>
        <time>2018-12-29T14:49:45Z</time>
      </trkpt>
      <trkpt lat="45.78008" lon="2.95358">
        <ele>924.6</ele>
        <time>2018-12-29T14:49:46Z</time>
      </trkpt>
      <trkpt lat="45.7801" lon="2.9536">
        <ele>925.2</ele>
        <time>2018-12-29T14:49:47Z</time>
      </trkpt>
      <trkpt lat="45.78012" lon="2.95363">
        <ele>925.6</ele>
        <time>2018-12-29T14:49:48Z</time>
      </trkpt>
      <trkpt lat="45.78014" lon="2.95365">
        <ele>926</ele>
        <time>2018-12-29T14:49:49Z</time>
      </trkpt>
      <trkpt lat="45.78016" lon="2.95368">
        <ele>926.6</ele>
        <time>2018-12-29T14:49:50Z</time>
      </trkpt>
      <trkpt lat="45.78018" lon="2.9537">
        <ele>927</ele>
        <time>2018-12-29T14:49:51Z</time>
      </trkpt>
      <trkpt lat="45.7802" lon="2.95373">
        <ele>927.4</ele>
        <time>2018-12-29T14:49:52Z</time>
      </trkpt>
      <trkpt lat="45.78022" lon="2.95376">
        <ele>927.8</ele>
        <time>2018-12-29T14:49:53Z</time>
      </trkpt>
      <trkpt lat="45.78023" lon="2.95379">
        <ele>928.2</ele>
        <time>2018-12-29T14:49:54Z</time>
      </trkpt>
      <trkpt lat="45.78024" lon="2.95382">
        <ele>928.6</ele>
        <time>2018-12-29T14:49:55Z</time>
      </trkpt>
      <trkpt lat="45.78025" lon="2.95388">
        <ele>929</ele>
        <time>2018-12-29T14:49:58Z</time>
      </trkpt>
      <trkpt lat="45.78024" lon="2.95391">
        <ele>929.8</ele>
        <time>2018-12-29T14:49:59Z</time>
      </trkpt>
      <trkpt lat="45.78025" lon="2.95393">
        <ele>930.2</ele>
        <time>2018-12-29T14:50:00Z</time>
      </trkpt>
      <trkpt lat="45.78025" lon="2.95396">
        <ele>930.6</ele>
        <time>2018-12-29T14:50:01Z</time>
      </trkpt>
      <trkpt lat="45.78026" lon="2.95399">
        <ele>930.6</ele>
        <time>2018-12-29T14:50:02Z</time>
      </trkpt>
      <trkpt lat="45.78029" lon="2.95409">
        <ele>930.6</ele>
        <time>2018-12-29T14:50:05Z</time>
      </trkpt>
      <trkpt lat="45.7803" lon="2.95411">
        <ele>930.6</ele>
        <time>2018-12-29T14:50:06Z</time>
      </trkpt>
      <trkpt lat="45.78032" lon="2.95417">
        <ele>930.6</ele>
        <time>2018-12-29T14:50:09Z</time>
      </trkpt>
      <trkpt lat="45.78033" lon="2.95418">
        <ele>930.6</ele>
        <time>2018-12-29T14:50:10Z</time>
      </trkpt>
      <trkpt lat="45.78034" lon="2.95425">
        <ele>930.6</ele>
        <time>2018-12-29T14:50:13Z</time>
      </trkpt>
      <trkpt lat="45.78037" lon="2.95429">
        <ele>930.6</ele>
        <time>2018-12-29T14:50:15Z</time>
      </trkpt>
      <trkpt lat="45.7804" lon="2.95438">
        <ele>931</ele>
        <time>2018-12-29T14:50:18Z</time>
      </trkpt>
      <trkpt lat="45.78039" lon="2.95441">
        <ele>931.4</ele>
        <time>2018-12-29T14:50:19Z</time>
      </trkpt>
      <trkpt lat="45.78039" lon="2.95445">
        <ele>931.8</ele>
        <time>2018-12-29T14:50:20Z</time>
      </trkpt>
      <trkpt lat="45.78038" lon="2.95447">
        <ele>932.2</ele>
        <time>2018-12-29T14:50:21Z</time>
      </trkpt>
      <trkpt lat="45.78037" lon="2.9545">
        <ele>932.6</ele>
        <time>2018-12-29T14:50:22Z</time>
      </trkpt>
      <trkpt lat="45.78037" lon="2.95463">
        <ele>932.6</ele>
        <time>2018-12-29T14:50:27Z</time>
      </trkpt>
      <trkpt lat="45.78039" lon="2.95471">
        <ele>932.6</ele>
        <time>2018-12-29T14:50:30Z</time>
      </trkpt>
      <trkpt lat="45.78039" lon="2.95473">
        <ele>932.6</ele>
        <time>2018-12-29T14:50:31Z</time>
      </trkpt>
      <trkpt lat="45.78044" lon="2.95485">
        <ele>932.6</ele>
        <time>2018-12-29T14:50:35Z</time>
      </trkpt>
      <trkpt lat="45.78049" lon="2.95498">
        <ele>932.6</ele>
        <time>2018-12-29T14:50:39Z</time>
      </trkpt>
      <trkpt lat="45.78052" lon="2.9551">
        <ele>933</ele>
        <time>2018-12-29T14:50:43Z</time>
      </trkpt>
      <trkpt lat="45.78053" lon="2.95514">
        <ele>933.4</ele>
        <time>2018-12-29T14:50:44Z</time>
      </trkpt>
      <trkpt lat="45.78055" lon="2.95517">
        <ele>933.8</ele>
        <time>2018-12-29T14:50:45Z</time>
      </trkpt>
      <trkpt lat="45.78056" lon="2.95521">
        <ele>934.2</ele>
        <time>2018-12-29T14:50:46Z</time>
      </trkpt>
      <trkpt lat="45.78059" lon="2.95524">
        <ele>934.6</ele>
        <time>2018-12-29T14:50:47Z</time>
      </trkpt>
      <trkpt lat="45.78062" lon="2.95526">
        <ele>934.6</ele>
        <time>2018-12-29T14:50:48Z</time>
      </trkpt>
      <trkpt lat="45.78066" lon="2.95529">
        <ele>934.6</ele>
        <time>2018-12-29T14:50:51Z</time>
      </trkpt>
      <trkpt lat="45.78069" lon="2.95535">
        <ele>934.6</ele>
        <time>2018-12-29T14:50:55Z</time>
      </trkpt>
      <trkpt lat="45.78073" lon="2.95544">
        <ele>934.6</ele>
        <time>2018-12-29T14:50:59Z</time>
      </trkpt>
      <trkpt lat="45.78077" lon="2.95549">
        <ele>934.6</ele>
        <time>2018-12-29T14:51:00Z</time>
      </trkpt>
      <trkpt lat="45.78085" lon="2.95563">
        <ele>934.6</ele>
        <time>2018-12-29T14:51:04Z</time>
      </trkpt>
      <trkpt lat="45.78085" lon="2.95567">
        <ele>934.6</ele>
        <time>2018-12-29T14:51:05Z</time>
      </trkpt>
      <trkpt lat="45.78087" lon="2.95582">
        <ele>934.6</ele>
        <time>2018-12-29T14:51:10Z</time>
      </trkpt>
      <trkpt lat="45.78089" lon="2.95586">
        <ele>934.6</ele>
        <time>2018-12-29T14:51:11Z</time>
      </trkpt>
      <trkpt lat="45.78098" lon="2.95594">
        <ele>934.6</ele>
        <time>2018-12-29T14:51:13Z</time>
      </trkpt>
      <trkpt lat="45.78102" lon="2.95602">
        <ele>934.6</ele>
        <time>2018-12-29T14:51:15Z</time>
      </trkpt>
      <trkpt lat="45.78102" lon="2.95605">
        <ele>934.6</ele>
        <time>2018-12-29T14:51:16Z</time>
      </trkpt>
      <trkpt lat="45.78104" lon="2.95613">
        <ele>934.2</ele>
        <time>2018-12-29T14:51:18Z</time>
      </trkpt>
      <trkpt lat="45.78106" lon="2.95619">
        <ele>933.8</ele>
        <time>2018-12-29T14:51:19Z</time>
      </trkpt>
      <trkpt lat="45.78109" lon="2.95625">
        <ele>933.4</ele>
        <time>2018-12-29T14:51:20Z</time>
      </trkpt>
      <trkpt lat="45.78114" lon="2.9563">
        <ele>933</ele>
        <time>2018-12-29T14:51:21Z</time>
      </trkpt>
      <trkpt lat="45.7812" lon="2.95636">
        <ele>932.6</ele>
        <time>2018-12-29T14:51:22Z</time>
      </trkpt>
      <trkpt lat="45.78125" lon="2.95642">
        <ele>932</ele>
        <time>2018-12-29T14:51:23Z</time>
      </trkpt>
      <trkpt lat="45.78128" lon="2.95649">
        <ele>931.6</ele>
        <time>2018-12-29T14:51:24Z</time>
      </trkpt>
      <trkpt lat="45.78132" lon="2.95656">
        <ele>931.2</ele>
        <time>2018-12-29T14:51:25Z</time>
      </trkpt>
      <trkpt lat="45.78135" lon="2.95663">
        <ele>930.8</ele>
        <time>2018-12-29T14:51:26Z</time>
      </trkpt>
      <trkpt lat="45.78137" lon="2.9567">
        <ele>930.2</ele>
        <time>2018-12-29T14:51:27Z</time>
      </trkpt>
      <trkpt lat="45.78141" lon="2.95685">
        <ele>930.2</ele>
        <time>2018-12-29T14:51:29Z</time>
      </trkpt>
      <trkpt lat="45.78143" lon="2.95693">
        <ele>930.2</ele>
        <time>2018-12-29T14:51:30Z</time>
      </trkpt>
      <trkpt lat="45.78146" lon="2.957">
        <ele>929.8</ele>
        <time>2018-12-29T14:51:31Z</time>
      </trkpt>
      <trkpt lat="45.78148" lon="2.95708">
        <ele>929.4</ele>
        <time>2018-12-29T14:51:32Z</time>
      </trkpt>
      <trkpt lat="45.7815" lon="2.95715">
        <ele>929</ele>
        <time>2018-12-29T14:51:33Z</time>
      </trkpt>
      <trkpt lat="45.78152" lon="2.95722">
        <ele>928.6</ele>
        <time>2018-12-29T14:51:34Z</time>
      </trkpt>
      <trkpt lat="45.78154" lon="2.95727">
        <ele>928.2</ele>
        <time>2018-12-29T14:51:35Z</time>
      </trkpt>
      <trkpt lat="45.78155" lon="2.95733">
        <ele>928.2</ele>
        <time>2018-12-29T14:51:36Z</time>
      </trkpt>
      <trkpt lat="45.78169" lon="2.95755">
        <ele>928.2</ele>
        <time>2018-12-29T14:51:41Z</time>
      </trkpt>
      <trkpt lat="45.78186" lon="2.95776">
        <ele>928.2</ele>
        <time>2018-12-29T14:51:48Z</time>
      </trkpt>
      <trkpt lat="45.78197" lon="2.95795">
        <ele>928.2</ele>
        <time>2018-12-29T14:51:55Z</time>
      </trkpt>
      <trkpt lat="45.78206" lon="2.95808">
        <ele>928.6</ele>
        <time>2018-12-29T14:52:03Z</time>
      </trkpt>
      <trkpt lat="45.78207" lon="2.95808">
        <ele>929</ele>
        <time>2018-12-29T14:52:04Z</time>
      </trkpt>
      <trkpt lat="45.78208" lon="2.95809">
        <ele>930.2</ele>
        <time>2018-12-29T14:52:43Z</time>
      </trkpt>
      <trkpt lat="45.78212" lon="2.95811">
        <ele>930.2</ele>
        <time>2018-12-29T14:52:45Z</time>
      </trkpt>
      <trkpt lat="45.78225" lon="2.95817">
        <ele>930.2</ele>
        <time>2018-12-29T14:52:50Z</time>
      </trkpt>
      <trkpt lat="45.78246" lon="2.95827">
        <ele>930.2</ele>
        <time>2018-12-29T14:52:56Z</time>
      </trkpt>
      <trkpt lat="45.7828" lon="2.95838">
        <ele>930.2</ele>
        <time>2018-12-29T14:53:05Z</time>
      </trkpt>
      <trkpt lat="45.78303" lon="2.95845">
        <ele>930.2</ele>
        <time>2018-12-29T14:53:11Z</time>
      </trkpt>
      <trkpt lat="45.78321" lon="2.95851">
        <ele>930.2</ele>
        <time>2018-12-29T14:53:16Z</time>
      </trkpt>
      <trkpt lat="45.78337" lon="2.95854">
        <ele>930.2</ele>
        <time>2018-12-29T14:53:21Z</time>
      </trkpt>
      <trkpt lat="45.78362" lon="2.95857">
        <ele>930.2</ele>
        <time>2018-12-29T14:53:28Z</time>
      </trkpt>
      <trkpt lat="45.78394" lon="2.95857">
        <ele>930.2</ele>
        <time>2018-12-29T14:53:36Z</time>
      </trkpt>
      <trkpt lat="45.78412" lon="2.95854">
        <ele>930.2</ele>
        <time>2018-12-29T14:53:41Z</time>
      </trkpt>
      <trkpt lat="45.78433" lon="2.95854">
        <ele>930.2</ele>
        <time>2018-12-29T14:53:47Z</time>
      </trkpt>
      <trkpt lat="45.78453" lon="2.95855">
        <ele>930.2</ele>
        <time>2018-12-29T14:53:52Z</time>
      </trkpt>
      <trkpt lat="45.78457" lon="2.95856">
        <ele>930.2</ele>
        <time>2018-12-29T14:53:53Z</time>
      </trkpt>
      <trkpt lat="45.78467" lon="2.95855">
        <ele>930.2</ele>
        <time>2018-12-29T14:53:56Z</time>
      </trkpt>
      <trkpt lat="45.78475" lon="2.95855">
        <ele>930.2</ele>
        <time>2018-12-29T14:53:58Z</time>
      </trkpt>
      <trkpt lat="45.78501" lon="2.95853">
        <ele>930.2</ele>
        <time>2018-12-29T14:54:05Z</time>
      </trkpt>
      <trkpt lat="45.78528" lon="2.95849">
        <ele>930.2</ele>
        <time>2018-12-29T14:54:12Z</time>
      </trkpt>
      <trkpt lat="45.78549" lon="2.95849">
        <ele>930.2</ele>
        <time>2018-12-29T14:54:18Z</time>
      </trkpt>
      <trkpt lat="45.78566" lon="2.95844">
        <ele>930.2</ele>
        <time>2018-12-29T14:54:23Z</time>
      </trkpt>
      <trkpt lat="45.78575" lon="2.95847">
        <ele>930.2</ele>
        <time>2018-12-29T14:54:27Z</time>
      </trkpt>
      <trkpt lat="45.78582" lon="2.9585">
        <ele>930.2</ele>
        <time>2018-12-29T14:54:31Z</time>
      </trkpt>
      <trkpt lat="45.78589" lon="2.95843">
        <ele>930.2</ele>
        <time>2018-12-29T14:54:36Z</time>
      </trkpt>
      <trkpt lat="45.78588" lon="2.95833">
        <ele>930.2</ele>
        <time>2018-12-29T14:54:40Z</time>
      </trkpt>
      <trkpt lat="45.78588" lon="2.95831">
        <ele>930.2</ele>
        <time>2018-12-29T14:54:41Z</time>
      </trkpt>
      <trkpt lat="45.78587" lon="2.95828">
        <ele>930.2</ele>
        <time>2018-12-29T14:54:42Z</time>
      </trkpt>
      <trkpt lat="45.78587" lon="2.95816">
        <ele>930.2</ele>
        <time>2018-12-29T14:54:46Z</time>
      </trkpt>
      <trkpt lat="45.78587" lon="2.95812">
        <ele>930.2</ele>
        <time>2018-12-29T14:54:47Z</time>
      </trkpt>
      <trkpt lat="45.78585" lon="2.95793">
        <ele>929.8</ele>
        <time>2018-12-29T14:54:51Z</time>
      </trkpt>
      <trkpt lat="45.78585" lon="2.95788">
        <ele>929.2</ele>
        <time>2018-12-29T14:54:52Z</time>
      </trkpt>
      <trkpt lat="45.78585" lon="2.95783">
        <ele>928.8</ele>
        <time>2018-12-29T14:54:53Z</time>
      </trkpt>
      <trkpt lat="45.78586" lon="2.95777">
        <ele>928.4</ele>
        <time>2018-12-29T14:54:54Z</time>
      </trkpt>
      <trkpt lat="45.78586" lon="2.95772">
        <ele>928</ele>
        <time>2018-12-29T14:54:55Z</time>
      </trkpt>
      <trkpt lat="45.78586" lon="2.95766">
        <ele>928</ele>
        <time>2018-12-29T14:54:56Z</time>
      </trkpt>
      <trkpt lat="45.78586" lon="2.95761">
        <ele>927.6</ele>
        <time>2018-12-29T14:54:57Z</time>
      </trkpt>
      <trkpt lat="45.78587" lon="2.95756">
        <ele>927.2</ele>
        <time>2018-12-29T14:54:58Z</time>
      </trkpt>
      <trkpt lat="45.78587" lon="2.95751">
        <ele>926.8</ele>
        <time>2018-12-29T14:54:59Z</time>
      </trkpt>
      <trkpt lat="45.78587" lon="2.95747">
        <ele>926.4</ele>
        <time>2018-12-29T14:55:00Z</time>
      </trkpt>
      <trkpt lat="45.78587" lon="2.95741">
        <ele>926</ele>
        <time>2018-12-29T14:55:01Z</time>
      </trkpt>
      <trkpt lat="45.78586" lon="2.95721">
        <ele>926</ele>
        <time>2018-12-29T14:55:04Z</time>
      </trkpt>
      <trkpt lat="45.78585" lon="2.95705">
        <ele>925.6</ele>
        <time>2018-12-29T14:55:06Z</time>
      </trkpt>
      <trkpt lat="45.78584" lon="2.95698">
        <ele>925.2</ele>
        <time>2018-12-29T14:55:07Z</time>
      </trkpt>
      <trkpt lat="45.78583" lon="2.9569">
        <ele>924.8</ele>
        <time>2018-12-29T14:55:08Z</time>
      </trkpt>
      <trkpt lat="45.78582" lon="2.95683">
        <ele>924.2</ele>
        <time>2018-12-29T14:55:09Z</time>
      </trkpt>
      <trkpt lat="45.78582" lon="2.95675">
        <ele>923.8</ele>
        <time>2018-12-29T14:55:10Z</time>
      </trkpt>
      <trkpt lat="45.78581" lon="2.95651">
        <ele>923.4</ele>
        <time>2018-12-29T14:55:13Z</time>
      </trkpt>
      <trkpt lat="45.78581" lon="2.95643">
        <ele>923</ele>
        <time>2018-12-29T14:55:14Z</time>
      </trkpt>
      <trkpt lat="45.78581" lon="2.95635">
        <ele>922.6</ele>
        <time>2018-12-29T14:55:15Z</time>
      </trkpt>
      <trkpt lat="45.78582" lon="2.95627">
        <ele>922.2</ele>
        <time>2018-12-29T14:55:16Z</time>
      </trkpt>
      <trkpt lat="45.78584" lon="2.9562">
        <ele>921.8</ele>
        <time>2018-12-29T14:55:17Z</time>
      </trkpt>
      <trkpt lat="45.78586" lon="2.95607">
        <ele>921.8</ele>
        <time>2018-12-29T14:55:19Z</time>
      </trkpt>
      <trkpt lat="45.78588" lon="2.95592">
        <ele>921.4</ele>
        <time>2018-12-29T14:55:21Z</time>
      </trkpt>
      <trkpt lat="45.78589" lon="2.95586">
        <ele>921</ele>
        <time>2018-12-29T14:55:22Z</time>
      </trkpt>
      <trkpt lat="45.7859" lon="2.9558">
        <ele>920.6</ele>
        <time>2018-12-29T14:55:23Z</time>
      </trkpt>
      <trkpt lat="45.7859" lon="2.95574">
        <ele>920.2</ele>
        <time>2018-12-29T14:55:24Z</time>
      </trkpt>
      <trkpt lat="45.78591" lon="2.95568">
        <ele>919.8</ele>
        <time>2018-12-29T14:55:25Z</time>
      </trkpt>
      <trkpt lat="45.78593" lon="2.95537">
        <ele>919.8</ele>
        <time>2018-12-29T14:55:30Z</time>
      </trkpt>
      <trkpt lat="45.78591" lon="2.95518">
        <ele>919.8</ele>
        <time>2018-12-29T14:55:33Z</time>
      </trkpt>
      <trkpt lat="45.78591" lon="2.9551">
        <ele>919.8</ele>
        <time>2018-12-29T14:55:34Z</time>
      </trkpt>
      <trkpt lat="45.78591" lon="2.95491">
        <ele>919.8</ele>
        <time>2018-12-29T14:55:37Z</time>
      </trkpt>
      <trkpt lat="45.78592" lon="2.9547">
        <ele>919.4</ele>
        <time>2018-12-29T14:55:41Z</time>
      </trkpt>
      <trkpt lat="45.78592" lon="2.95465">
        <ele>919</ele>
        <time>2018-12-29T14:55:42Z</time>
      </trkpt>
      <trkpt lat="45.78593" lon="2.95461">
        <ele>918.2</ele>
        <time>2018-12-29T14:55:43Z</time>
      </trkpt>
      <trkpt lat="45.78594" lon="2.95456">
        <ele>917.8</ele>
        <time>2018-12-29T14:55:44Z</time>
      </trkpt>
      <trkpt lat="45.786" lon="2.95436">
        <ele>917.8</ele>
        <time>2018-12-29T14:55:48Z</time>
      </trkpt>
      <trkpt lat="45.78602" lon="2.9543">
        <ele>917.8</ele>
        <time>2018-12-29T14:55:50Z</time>
      </trkpt>
      <trkpt lat="45.78605" lon="2.95423">
        <ele>917.8</ele>
        <time>2018-12-29T14:55:53Z</time>
      </trkpt>
      <trkpt lat="45.78607" lon="2.95416">
        <ele>917.8</ele>
        <time>2018-12-29T14:55:56Z</time>
      </trkpt>
      <trkpt lat="45.78608" lon="2.95409">
        <ele>917.8</ele>
        <time>2018-12-29T14:55:59Z</time>
      </trkpt>
      <trkpt lat="45.78608" lon="2.95405">
        <ele>917.8</ele>
        <time>2018-12-29T14:56:01Z</time>
      </trkpt>
      <trkpt lat="45.78609" lon="2.95399">
        <ele>917.8</ele>
        <time>2018-12-29T14:56:05Z</time>
      </trkpt>
      <trkpt lat="45.78609" lon="2.95396">
        <ele>917.8</ele>
        <time>2018-12-29T14:56:06Z</time>
      </trkpt>
      <trkpt lat="45.78611" lon="2.95386">
        <ele>917.8</ele>
        <time>2018-12-29T14:56:09Z</time>
      </trkpt>
      <trkpt lat="45.78611" lon="2.95381">
        <ele>917.8</ele>
        <time>2018-12-29T14:56:12Z</time>
      </trkpt>
      <trkpt lat="45.78611" lon="2.95375">
        <ele>918.2</ele>
        <time>2018-12-29T14:56:15Z</time>
      </trkpt>
      <trkpt lat="45.78612" lon="2.95372">
        <ele>918.6</ele>
        <time>2018-12-29T14:56:16Z</time>
      </trkpt>
      <trkpt lat="45.78612" lon="2.95369">
        <ele>919</ele>
        <time>2018-12-29T14:56:17Z</time>
      </trkpt>
      <trkpt lat="45.78613" lon="2.95366">
        <ele>919.4</ele>
        <time>2018-12-29T14:56:18Z</time>
      </trkpt>
      <trkpt lat="45.78614" lon="2.95363">
        <ele>919.8</ele>
        <time>2018-12-29T14:56:19Z</time>
      </trkpt>
      <trkpt lat="45.78614" lon="2.95359">
        <ele>919.8</ele>
        <time>2018-12-29T14:56:20Z</time>
      </trkpt>
      <trkpt lat="45.78614" lon="2.95346">
        <ele>919.8</ele>
        <time>2018-12-29T14:56:23Z</time>
      </trkpt>
      <trkpt lat="45.78615" lon="2.95342">
        <ele>919.8</ele>
        <time>2018-12-29T14:56:24Z</time>
      </trkpt>
      <trkpt lat="45.78615" lon="2.95329">
        <ele>919.8</ele>
        <time>2018-12-29T14:56:28Z</time>
      </trkpt>
      <trkpt lat="45.78616" lon="2.95322">
        <ele>919.8</ele>
        <time>2018-12-29T14:56:30Z</time>
      </trkpt>
      <trkpt lat="45.78618" lon="2.95313">
        <ele>919.8</ele>
        <time>2018-12-29T14:56:33Z</time>
      </trkpt>
      <trkpt lat="45.78619" lon="2.95308">
        <ele>920.2</ele>
        <time>2018-12-29T14:56:34Z</time>
      </trkpt>
      <trkpt lat="45.78619" lon="2.95303">
        <ele>920.8</ele>
        <time>2018-12-29T14:56:35Z</time>
      </trkpt>
      <trkpt lat="45.78621" lon="2.95299">
        <ele>921.2</ele>
        <time>2018-12-29T14:56:36Z</time>
      </trkpt>
      <trkpt lat="45.78622" lon="2.95295">
        <ele>921.6</ele>
        <time>2018-12-29T14:56:37Z</time>
      </trkpt>
      <trkpt lat="45.78622" lon="2.95291">
        <ele>922</ele>
        <time>2018-12-29T14:56:38Z</time>
      </trkpt>
      <trkpt lat="45.78624" lon="2.95282">
        <ele>922</ele>
        <time>2018-12-29T14:56:40Z</time>
      </trkpt>
      <trkpt lat="45.78625" lon="2.95277">
        <ele>922</ele>
        <time>2018-12-29T14:56:41Z</time>
      </trkpt>
      <trkpt lat="45.78626" lon="2.95272">
        <ele>922.6</ele>
        <time>2018-12-29T14:56:42Z</time>
      </trkpt>
      <trkpt lat="45.78626" lon="2.95267">
        <ele>923</ele>
        <time>2018-12-29T14:56:43Z</time>
      </trkpt>
      <trkpt lat="45.78627" lon="2.95262">
        <ele>923.4</ele>
        <time>2018-12-29T14:56:44Z</time>
      </trkpt>
      <trkpt lat="45.78627" lon="2.95257">
        <ele>923.8</ele>
        <time>2018-12-29T14:56:45Z</time>
      </trkpt>
      <trkpt lat="45.78627" lon="2.95253">
        <ele>924.2</ele>
        <time>2018-12-29T14:56:46Z</time>
      </trkpt>
      <trkpt lat="45.78628" lon="2.95248">
        <ele>924.2</ele>
        <time>2018-12-29T14:56:47Z</time>
      </trkpt>
      <trkpt lat="45.7863" lon="2.95229">
        <ele>924.2</ele>
        <time>2018-12-29T14:56:50Z</time>
      </trkpt>
      <trkpt lat="45.78632" lon="2.95211">
        <ele>924.2</ele>
        <time>2018-12-29T14:56:52Z</time>
      </trkpt>
      <trkpt lat="45.78633" lon="2.95203">
        <ele>924.2</ele>
        <time>2018-12-29T14:56:53Z</time>
      </trkpt>
      <trkpt lat="45.78634" lon="2.95196">
        <ele>923.6</ele>
        <time>2018-12-29T14:56:54Z</time>
      </trkpt>
      <trkpt lat="45.78634" lon="2.95188">
        <ele>923.2</ele>
        <time>2018-12-29T14:56:55Z</time>
      </trkpt>
      <trkpt lat="45.78635" lon="2.95179">
        <ele>922.6</ele>
        <time>2018-12-29T14:56:56Z</time>
      </trkpt>
      <trkpt lat="45.78634" lon="2.9517">
        <ele>922</ele>
        <time>2018-12-29T14:56:57Z</time>
      </trkpt>
      <trkpt lat="45.78634" lon="2.95161">
        <ele>920.6</ele>
        <time>2018-12-29T14:56:58Z</time>
      </trkpt>
      <trkpt lat="45.78634" lon="2.95151">
        <ele>920</ele>
        <time>2018-12-29T14:56:59Z</time>
      </trkpt>
      <trkpt lat="45.78634" lon="2.9514">
        <ele>919.4</ele>
        <time>2018-12-29T14:57:00Z</time>
      </trkpt>
      <trkpt lat="45.78633" lon="2.95129">
        <ele>918.8</ele>
        <time>2018-12-29T14:57:01Z</time>
      </trkpt>
      <trkpt lat="45.78632" lon="2.95118">
        <ele>918.2</ele>
        <time>2018-12-29T14:57:02Z</time>
      </trkpt>
      <trkpt lat="45.78632" lon="2.95108">
        <ele>917.6</ele>
        <time>2018-12-29T14:57:03Z</time>
      </trkpt>
      <trkpt lat="45.78632" lon="2.95097">
        <ele>917</ele>
        <time>2018-12-29T14:57:04Z</time>
      </trkpt>
      <trkpt lat="45.7863" lon="2.95085">
        <ele>916.4</ele>
        <time>2018-12-29T14:57:05Z</time>
      </trkpt>
      <trkpt lat="45.78629" lon="2.95075">
        <ele>916</ele>
        <time>2018-12-29T14:57:06Z</time>
      </trkpt>
      <trkpt lat="45.78628" lon="2.95065">
        <ele>915.4</ele>
        <time>2018-12-29T14:57:07Z</time>
      </trkpt>
      <trkpt lat="45.78627" lon="2.95054">
        <ele>914.8</ele>
        <time>2018-12-29T14:57:08Z</time>
      </trkpt>
      <trkpt lat="45.78626" lon="2.95043">
        <ele>914.4</ele>
        <time>2018-12-29T14:57:09Z</time>
      </trkpt>
      <trkpt lat="45.78627" lon="2.95032">
        <ele>913.8</ele>
        <time>2018-12-29T14:57:10Z</time>
      </trkpt>
      <trkpt lat="45.78628" lon="2.95021">
        <ele>913.2</ele>
        <time>2018-12-29T14:57:11Z</time>
      </trkpt>
      <trkpt lat="45.78629" lon="2.9501">
        <ele>912.8</ele>
        <time>2018-12-29T14:57:12Z</time>
      </trkpt>
      <trkpt lat="45.78632" lon="2.95">
        <ele>912.2</ele>
        <time>2018-12-29T14:57:13Z</time>
      </trkpt>
      <trkpt lat="45.78634" lon="2.94989">
        <ele>911.8</ele>
        <time>2018-12-29T14:57:14Z</time>
      </trkpt>
      <trkpt lat="45.78637" lon="2.94978">
        <ele>911.2</ele>
        <time>2018-12-29T14:57:15Z</time>
      </trkpt>
      <trkpt lat="45.78639" lon="2.94971">
        <ele>910.8</ele>
        <time>2018-12-29T14:57:16Z</time>
      </trkpt>
      <trkpt lat="45.78641" lon="2.94964">
        <ele>910.4</ele>
        <time>2018-12-29T14:57:17Z</time>
      </trkpt>
      <trkpt lat="45.78642" lon="2.94957">
        <ele>909.8</ele>
        <time>2018-12-29T14:57:18Z</time>
      </trkpt>
      <trkpt lat="45.78644" lon="2.9494">
        <ele>909.8</ele>
        <time>2018-12-29T14:57:21Z</time>
      </trkpt>
      <trkpt lat="45.78644" lon="2.94936">
        <ele>909.8</ele>
        <time>2018-12-29T14:57:22Z</time>
      </trkpt>
      <trkpt lat="45.78641" lon="2.94927">
        <ele>909.4</ele>
        <time>2018-12-29T14:57:24Z</time>
      </trkpt>
      <trkpt lat="45.7864" lon="2.9492">
        <ele>909</ele>
        <time>2018-12-29T14:57:25Z</time>
      </trkpt>
      <trkpt lat="45.78638" lon="2.94912">
        <ele>908.6</ele>
        <time>2018-12-29T14:57:26Z</time>
      </trkpt>
      <trkpt lat="45.78637" lon="2.94903">
        <ele>908.2</ele>
        <time>2018-12-29T14:57:27Z</time>
      </trkpt>
      <trkpt lat="45.78636" lon="2.94894">
        <ele>907.8</ele>
        <time>2018-12-29T14:57:28Z</time>
      </trkpt>
      <trkpt lat="45.78635" lon="2.94886">
        <ele>907.4</ele>
        <time>2018-12-29T14:57:29Z</time>
      </trkpt>
      <trkpt lat="45.78634" lon="2.94876">
        <ele>906.8</ele>
        <time>2018-12-29T14:57:30Z</time>
      </trkpt>
      <trkpt lat="45.78633" lon="2.94866">
        <ele>906.4</ele>
        <time>2018-12-29T14:57:31Z</time>
      </trkpt>
      <trkpt lat="45.78633" lon="2.94856">
        <ele>905.8</ele>
        <time>2018-12-29T14:57:32Z</time>
      </trkpt>
      <trkpt lat="45.78632" lon="2.94848">
        <ele>905.2</ele>
        <time>2018-12-29T14:57:33Z</time>
      </trkpt>
      <trkpt lat="45.7863" lon="2.9484">
        <ele>904.8</ele>
        <time>2018-12-29T14:57:34Z</time>
      </trkpt>
      <trkpt lat="45.78627" lon="2.94832">
        <ele>904.2</ele>
        <time>2018-12-29T14:57:35Z</time>
      </trkpt>
      <trkpt lat="45.78625" lon="2.94824">
        <ele>903.8</ele>
        <time>2018-12-29T14:57:36Z</time>
      </trkpt>
      <trkpt lat="45.78622" lon="2.94815">
        <ele>903.2</ele>
        <time>2018-12-29T14:57:37Z</time>
      </trkpt>
      <trkpt lat="45.78619" lon="2.94806">
        <ele>902.8</ele>
        <time>2018-12-29T14:57:38Z</time>
      </trkpt>
      <trkpt lat="45.78616" lon="2.94796">
        <ele>902.4</ele>
        <time>2018-12-29T14:57:39Z</time>
      </trkpt>
      <trkpt lat="45.78614" lon="2.94786">
        <ele>901.8</ele>
        <time>2018-12-29T14:57:40Z</time>
      </trkpt>
      <trkpt lat="45.78611" lon="2.94776">
        <ele>901.4</ele>
        <time>2018-12-29T14:57:41Z</time>
      </trkpt>
      <trkpt lat="45.78609" lon="2.94768">
        <ele>900.8</ele>
        <time>2018-12-29T14:57:42Z</time>
      </trkpt>
      <trkpt lat="45.78608" lon="2.94759">
        <ele>900.4</ele>
        <time>2018-12-29T14:57:43Z</time>
      </trkpt>
      <trkpt lat="45.78606" lon="2.9475">
        <ele>899.8</ele>
        <time>2018-12-29T14:57:44Z</time>
      </trkpt>
      <trkpt lat="45.78604" lon="2.94741">
        <ele>899.4</ele>
        <time>2018-12-29T14:57:45Z</time>
      </trkpt>
      <trkpt lat="45.78605" lon="2.9473">
        <ele>898.8</ele>
        <time>2018-12-29T14:57:46Z</time>
      </trkpt>
      <trkpt lat="45.78606" lon="2.9472">
        <ele>897.8</ele>
        <time>2018-12-29T14:57:47Z</time>
      </trkpt>
      <trkpt lat="45.78605" lon="2.94709">
        <ele>897.2</ele>
        <time>2018-12-29T14:57:48Z</time>
      </trkpt>
      <trkpt lat="45.78604" lon="2.94699">
        <ele>896.8</ele>
        <time>2018-12-29T14:57:49Z</time>
      </trkpt>
      <trkpt lat="45.78604" lon="2.94688">
        <ele>896.4</ele>
        <time>2018-12-29T14:57:50Z</time>
      </trkpt>
      <trkpt lat="45.78602" lon="2.94678">
        <ele>896</ele>
        <time>2018-12-29T14:57:51Z</time>
      </trkpt>
      <trkpt lat="45.78602" lon="2.94668">
        <ele>895.6</ele>
        <time>2018-12-29T14:57:52Z</time>
      </trkpt>
      <trkpt lat="45.78603" lon="2.94659">
        <ele>895</ele>
        <time>2018-12-29T14:57:53Z</time>
      </trkpt>
      <trkpt lat="45.78603" lon="2.94651">
        <ele>895</ele>
        <time>2018-12-29T14:57:54Z</time>
      </trkpt>
      <trkpt lat="45.78604" lon="2.94641">
        <ele>894.6</ele>
        <time>2018-12-29T14:57:55Z</time>
      </trkpt>
      <trkpt lat="45.78604" lon="2.94631">
        <ele>894.2</ele>
        <time>2018-12-29T14:57:56Z</time>
      </trkpt>
      <trkpt lat="45.78606" lon="2.9462">
        <ele>893.8</ele>
        <time>2018-12-29T14:57:57Z</time>
      </trkpt>
      <trkpt lat="45.78609" lon="2.9461">
        <ele>893.4</ele>
        <time>2018-12-29T14:57:58Z</time>
      </trkpt>
      <trkpt lat="45.78612" lon="2.94601">
        <ele>893</ele>
        <time>2018-12-29T14:57:59Z</time>
      </trkpt>
      <trkpt lat="45.7862" lon="2.94575">
        <ele>893</ele>
        <time>2018-12-29T14:58:02Z</time>
      </trkpt>
      <trkpt lat="45.78621" lon="2.94552">
        <ele>893</ele>
        <time>2018-12-29T14:58:05Z</time>
      </trkpt>
      <trkpt lat="45.78626" lon="2.94528">
        <ele>892.6</ele>
        <time>2018-12-29T14:58:08Z</time>
      </trkpt>
      <trkpt lat="45.78627" lon="2.94521">
        <ele>892.2</ele>
        <time>2018-12-29T14:58:09Z</time>
      </trkpt>
      <trkpt lat="45.78628" lon="2.94515">
        <ele>891.8</ele>
        <time>2018-12-29T14:58:10Z</time>
      </trkpt>
      <trkpt lat="45.78629" lon="2.94508">
        <ele>891</ele>
        <time>2018-12-29T14:58:11Z</time>
      </trkpt>
      <trkpt lat="45.7863" lon="2.94501">
        <ele>891</ele>
        <time>2018-12-29T14:58:12Z</time>
      </trkpt>
      <trkpt lat="45.78631" lon="2.94479">
        <ele>891</ele>
        <time>2018-12-29T14:58:15Z</time>
      </trkpt>
      <trkpt lat="45.78629" lon="2.9445">
        <ele>891</ele>
        <time>2018-12-29T14:58:20Z</time>
      </trkpt>
      <trkpt lat="45.78631" lon="2.94424">
        <ele>891</ele>
        <time>2018-12-29T14:58:26Z</time>
      </trkpt>
      <trkpt lat="45.78631" lon="2.94422">
        <ele>891</ele>
        <time>2018-12-29T14:58:28Z</time>
      </trkpt>
      <trkpt lat="45.78633" lon="2.94421">
        <ele>891</ele>
        <time>2018-12-29T14:59:51Z</time>
      </trkpt>
      <trkpt lat="45.78636" lon="2.9442">
        <ele>891</ele>
        <time>2018-12-29T14:59:53Z</time>
      </trkpt>
      <trkpt lat="45.78642" lon="2.94421">
        <ele>891</ele>
        <time>2018-12-29T14:59:56Z</time>
      </trkpt>
      <trkpt lat="45.78645" lon="2.94422">
        <ele>891</ele>
        <time>2018-12-29T14:59:57Z</time>
      </trkpt>
      <trkpt lat="45.78653" lon="2.94422">
        <ele>891</ele>
        <time>2018-12-29T15:00:00Z</time>
      </trkpt>
      <trkpt lat="45.7867" lon="2.94425">
        <ele>891</ele>
        <time>2018-12-29T15:00:05Z</time>
      </trkpt>
      <trkpt lat="45.78689" lon="2.94429">
        <ele>891</ele>
        <time>2018-12-29T15:00:11Z</time>
      </trkpt>
      <trkpt lat="45.78706" lon="2.94437">
        <ele>891</ele>
        <time>2018-12-29T15:00:17Z</time>
      </trkpt>
      <trkpt lat="45.78724" lon="2.94444">
        <ele>891</ele>
        <time>2018-12-29T15:00:23Z</time>
      </trkpt>
      <trkpt lat="45.78737" lon="2.94448">
        <ele>891</ele>
        <time>2018-12-29T15:00:28Z</time>
      </trkpt>
      <trkpt lat="45.78747" lon="2.94453">
        <ele>891</ele>
        <time>2018-12-29T15:00:32Z</time>
      </trkpt>
      <trkpt lat="45.78749" lon="2.94453">
        <ele>891</ele>
        <time>2018-12-29T15:00:33Z</time>
      </trkpt>
      <trkpt lat="45.78754" lon="2.94453">
        <ele>891.4</ele>
        <time>2018-12-29T15:00:35Z</time>
      </trkpt>
      <trkpt lat="45.78756" lon="2.94453">
        <ele>891.8</ele>
        <time>2018-12-29T15:00:36Z</time>
      </trkpt>
      <trkpt lat="45.78757" lon="2.94454">
        <ele>892.2</ele>
        <time>2018-12-29T15:00:37Z</time>
      </trkpt>
      <trkpt lat="45.7876" lon="2.94454">
        <ele>892.6</ele>
        <time>2018-12-29T15:00:38Z</time>
      </trkpt>
      <trkpt lat="45.78762" lon="2.94453">
        <ele>893</ele>
        <time>2018-12-29T15:00:39Z</time>
      </trkpt>
      <trkpt lat="45.78764" lon="2.94453">
        <ele>893</ele>
        <time>2018-12-29T15:00:40Z</time>
      </trkpt>
      <trkpt lat="45.7877" lon="2.94452">
        <ele>893</ele>
        <time>2018-12-29T15:00:44Z</time>
      </trkpt>
      <trkpt lat="45.78774" lon="2.94451">
        <ele>893.6</ele>
        <time>2018-12-29T15:00:47Z</time>
      </trkpt>
      <trkpt lat="45.78775" lon="2.9445">
        <ele>894</ele>
        <time>2018-12-29T15:00:48Z</time>
      </trkpt>
      <trkpt lat="45.78778" lon="2.9445">
        <ele>894.4</ele>
        <time>2018-12-29T15:00:49Z</time>
      </trkpt>
      <trkpt lat="45.7878" lon="2.94449">
        <ele>894.8</ele>
        <time>2018-12-29T15:00:50Z</time>
      </trkpt>
      <trkpt lat="45.78783" lon="2.94448">
        <ele>895.2</ele>
        <time>2018-12-29T15:00:51Z</time>
      </trkpt>
      <trkpt lat="45.78785" lon="2.94448">
        <ele>895.2</ele>
        <time>2018-12-29T15:00:52Z</time>
      </trkpt>
      <trkpt lat="45.78789" lon="2.9445">
        <ele>895.2</ele>
        <time>2018-12-29T15:00:54Z</time>
      </trkpt>
      <trkpt lat="45.78791" lon="2.94449">
        <ele>895.2</ele>
        <time>2018-12-29T15:00:55Z</time>
      </trkpt>
      <trkpt lat="45.78796" lon="2.94447">
        <ele>895.2</ele>
        <time>2018-12-29T15:00:58Z</time>
      </trkpt>
      <trkpt lat="45.78798" lon="2.94446">
        <ele>895.2</ele>
        <time>2018-12-29T15:00:59Z</time>
      </trkpt>
      <trkpt lat="45.78805" lon="2.94444">
        <ele>895.2</ele>
        <time>2018-12-29T15:01:03Z</time>
      </trkpt>
      <trkpt lat="45.78809" lon="2.94441">
        <ele>895.2</ele>
        <time>2018-12-29T15:01:05Z</time>
      </trkpt>
      <trkpt lat="45.78811" lon="2.94439">
        <ele>895.6</ele>
        <time>2018-12-29T15:01:06Z</time>
      </trkpt>
      <trkpt lat="45.78814" lon="2.94438">
        <ele>896</ele>
        <time>2018-12-29T15:01:07Z</time>
      </trkpt>
      <trkpt lat="45.78816" lon="2.94436">
        <ele>896.4</ele>
        <time>2018-12-29T15:01:08Z</time>
      </trkpt>
      <trkpt lat="45.78819" lon="2.94434">
        <ele>897</ele>
        <time>2018-12-29T15:01:09Z</time>
      </trkpt>
      <trkpt lat="45.78819" lon="2.94432">
        <ele>897.4</ele>
        <time>2018-12-29T15:01:10Z</time>
      </trkpt>
      <trkpt lat="45.7882" lon="2.9443">
        <ele>897.4</ele>
        <time>2018-12-29T15:01:11Z</time>
      </trkpt>
      <trkpt lat="45.78829" lon="2.94422">
        <ele>897.4</ele>
        <time>2018-12-29T15:01:15Z</time>
      </trkpt>
      <trkpt lat="45.78843" lon="2.94416">
        <ele>897.4</ele>
        <time>2018-12-29T15:01:19Z</time>
      </trkpt>
      <trkpt lat="45.78846" lon="2.94415">
        <ele>897.4</ele>
        <time>2018-12-29T15:01:20Z</time>
      </trkpt>
      <trkpt lat="45.78848" lon="2.94414">
        <ele>897.8</ele>
        <time>2018-12-29T15:01:21Z</time>
      </trkpt>
      <trkpt lat="45.78851" lon="2.94414">
        <ele>898.2</ele>
        <time>2018-12-29T15:01:22Z</time>
      </trkpt>
      <trkpt lat="45.78853" lon="2.94413">
        <ele>898.6</ele>
        <time>2018-12-29T15:01:23Z</time>
      </trkpt>
      <trkpt lat="45.78855" lon="2.94413">
        <ele>899</ele>
        <time>2018-12-29T15:01:24Z</time>
      </trkpt>
      <trkpt lat="45.78857" lon="2.94412">
        <ele>899.4</ele>
        <time>2018-12-29T15:01:25Z</time>
      </trkpt>
      <trkpt lat="45.78862" lon="2.94411">
        <ele>899.4</ele>
        <time>2018-12-29T15:01:27Z</time>
      </trkpt>
      <trkpt lat="45.78868" lon="2.94409">
        <ele>899.4</ele>
        <time>2018-12-29T15:01:31Z</time>
      </trkpt>
      <trkpt lat="45.78868" lon="2.94409">
        <ele>899.4</ele>
        <time>2018-12-29T15:01:32Z</time>
      </trkpt>
      <trkpt lat="45.7887" lon="2.94408">
        <ele>899.4</ele>
        <time>2018-12-29T15:01:33Z</time>
      </trkpt>
      <trkpt lat="45.78875" lon="2.94405">
        <ele>900.6</ele>
        <time>2018-12-29T15:01:36Z</time>
      </trkpt>
      <trkpt lat="45.78877" lon="2.94405">
        <ele>901</ele>
        <time>2018-12-29T15:01:37Z</time>
      </trkpt>
      <trkpt lat="45.7888" lon="2.94405">
        <ele>901.4</ele>
        <time>2018-12-29T15:01:38Z</time>
      </trkpt>
      <trkpt lat="45.78895" lon="2.94409">
        <ele>901.4</ele>
        <time>2018-12-29T15:01:43Z</time>
      </trkpt>
      <trkpt lat="45.78904" lon="2.9441">
        <ele>901.4</ele>
        <time>2018-12-29T15:01:46Z</time>
      </trkpt>
      <trkpt lat="45.78906" lon="2.94411">
        <ele>901.4</ele>
        <time>2018-12-29T15:01:47Z</time>
      </trkpt>
      <trkpt lat="45.78921" lon="2.94412">
        <ele>901.4</ele>
        <time>2018-12-29T15:01:52Z</time>
      </trkpt>
      <trkpt lat="45.78934" lon="2.94412">
        <ele>901.4</ele>
        <time>2018-12-29T15:01:56Z</time>
      </trkpt>
      <trkpt lat="45.78937" lon="2.94411">
        <ele>901.4</ele>
        <time>2018-12-29T15:01:57Z</time>
      </trkpt>
      <trkpt lat="45.78952" lon="2.94407">
        <ele>901.4</ele>
        <time>2018-12-29T15:02:01Z</time>
      </trkpt>
      <trkpt lat="45.78958" lon="2.94405">
        <ele>901.4</ele>
        <time>2018-12-29T15:02:02Z</time>
      </trkpt>
      <trkpt lat="45.78963" lon="2.94404">
        <ele>901</ele>
        <time>2018-12-29T15:02:03Z</time>
      </trkpt>
      <trkpt lat="45.78967" lon="2.94405">
        <ele>900.6</ele>
        <time>2018-12-29T15:02:04Z</time>
      </trkpt>
      <trkpt lat="45.78971" lon="2.94406">
        <ele>900</ele>
        <time>2018-12-29T15:02:05Z</time>
      </trkpt>
      <trkpt lat="45.78975" lon="2.94407">
        <ele>899.6</ele>
        <time>2018-12-29T15:02:06Z</time>
      </trkpt>
      <trkpt lat="45.78979" lon="2.94407">
        <ele>899.2</ele>
        <time>2018-12-29T15:02:07Z</time>
      </trkpt>
      <trkpt lat="45.78984" lon="2.94406">
        <ele>899.2</ele>
        <time>2018-12-29T15:02:08Z</time>
      </trkpt>
      <trkpt lat="45.79001" lon="2.94404">
        <ele>899.2</ele>
        <time>2018-12-29T15:02:11Z</time>
      </trkpt>
      <trkpt lat="45.79006" lon="2.94405">
        <ele>898.8</ele>
        <time>2018-12-29T15:02:12Z</time>
      </trkpt>
      <trkpt lat="45.79011" lon="2.94407">
        <ele>898.2</ele>
        <time>2018-12-29T15:02:13Z</time>
      </trkpt>
      <trkpt lat="45.79015" lon="2.94408">
        <ele>897.8</ele>
        <time>2018-12-29T15:02:14Z</time>
      </trkpt>
      <trkpt lat="45.79018" lon="2.94407">
        <ele>897.4</ele>
        <time>2018-12-29T15:02:15Z</time>
      </trkpt>
      <trkpt lat="45.7902" lon="2.94407">
        <ele>897</ele>
        <time>2018-12-29T15:02:16Z</time>
      </trkpt>
      <trkpt lat="45.79023" lon="2.94409">
        <ele>897</ele>
        <time>2018-12-29T15:02:17Z</time>
      </trkpt>
      <trkpt lat="45.79029" lon="2.94412">
        <ele>897</ele>
        <time>2018-12-29T15:02:19Z</time>
      </trkpt>
      <trkpt lat="45.79039" lon="2.94414">
        <ele>897</ele>
        <time>2018-12-29T15:02:21Z</time>
      </trkpt>
      <trkpt lat="45.7905" lon="2.94414">
        <ele>897</ele>
        <time>2018-12-29T15:02:23Z</time>
      </trkpt>
      <trkpt lat="45.79059" lon="2.94417">
        <ele>897</ele>
        <time>2018-12-29T15:02:27Z</time>
      </trkpt>
      <trkpt lat="45.79064" lon="2.9442">
        <ele>896.6</ele>
        <time>2018-12-29T15:02:29Z</time>
      </trkpt>
      <trkpt lat="45.79066" lon="2.94421">
        <ele>896.2</ele>
        <time>2018-12-29T15:02:30Z</time>
      </trkpt>
      <trkpt lat="45.79068" lon="2.94421">
        <ele>895.6</ele>
        <time>2018-12-29T15:02:31Z</time>
      </trkpt>
      <trkpt lat="45.79071" lon="2.94423">
        <ele>895.2</ele>
        <time>2018-12-29T15:02:32Z</time>
      </trkpt>
      <trkpt lat="45.79073" lon="2.94424">
        <ele>894.8</ele>
        <time>2018-12-29T15:02:33Z</time>
      </trkpt>
      <trkpt lat="45.79077" lon="2.94426">
        <ele>894.8</ele>
        <time>2018-12-29T15:02:35Z</time>
      </trkpt>
      <trkpt lat="45.79086" lon="2.94426">
        <ele>894.4</ele>
        <time>2018-12-29T15:02:38Z</time>
      </trkpt>
      <trkpt lat="45.7909" lon="2.94428">
        <ele>894</ele>
        <time>2018-12-29T15:02:39Z</time>
      </trkpt>
      <trkpt lat="45.79095" lon="2.94428">
        <ele>893.6</ele>
        <time>2018-12-29T15:02:40Z</time>
      </trkpt>
      <trkpt lat="45.79099" lon="2.94428">
        <ele>893.2</ele>
        <time>2018-12-29T15:02:41Z</time>
      </trkpt>
      <trkpt lat="45.79105" lon="2.9443">
        <ele>892.6</ele>
        <time>2018-12-29T15:02:42Z</time>
      </trkpt>
      <trkpt lat="45.79111" lon="2.94432">
        <ele>892.6</ele>
        <time>2018-12-29T15:02:43Z</time>
      </trkpt>
      <trkpt lat="45.79127" lon="2.94438">
        <ele>892.2</ele>
        <time>2018-12-29T15:02:46Z</time>
      </trkpt>
      <trkpt lat="45.79133" lon="2.94441">
        <ele>891.8</ele>
        <time>2018-12-29T15:02:47Z</time>
      </trkpt>
      <trkpt lat="45.79137" lon="2.94444">
        <ele>891.4</ele>
        <time>2018-12-29T15:02:48Z</time>
      </trkpt>
      <trkpt lat="45.79143" lon="2.94448">
        <ele>891</ele>
        <time>2018-12-29T15:02:49Z</time>
      </trkpt>
      <trkpt lat="45.79148" lon="2.94452">
        <ele>890.4</ele>
        <time>2018-12-29T15:02:50Z</time>
      </trkpt>
      <trkpt lat="45.79152" lon="2.94456">
        <ele>890.4</ele>
        <time>2018-12-29T15:02:51Z</time>
      </trkpt>
      <trkpt lat="45.79156" lon="2.94459">
        <ele>890.4</ele>
        <time>2018-12-29T15:02:52Z</time>
      </trkpt>
      <trkpt lat="45.79171" lon="2.94475">
        <ele>890</ele>
        <time>2018-12-29T15:02:55Z</time>
      </trkpt>
      <trkpt lat="45.79176" lon="2.9448">
        <ele>889.6</ele>
        <time>2018-12-29T15:02:56Z</time>
      </trkpt>
      <trkpt lat="45.79179" lon="2.94486">
        <ele>889.2</ele>
        <time>2018-12-29T15:02:57Z</time>
      </trkpt>
      <trkpt lat="45.79183" lon="2.94491">
        <ele>888.8</ele>
        <time>2018-12-29T15:02:58Z</time>
      </trkpt>
      <trkpt lat="45.79188" lon="2.94496">
        <ele>888.2</ele>
        <time>2018-12-29T15:02:59Z</time>
      </trkpt>
      <trkpt lat="45.79196" lon="2.94512">
        <ele>888.2</ele>
        <time>2018-12-29T15:03:01Z</time>
      </trkpt>
      <trkpt lat="45.79208" lon="2.94532">
        <ele>888.2</ele>
        <time>2018-12-29T15:03:04Z</time>
      </trkpt>
      <trkpt lat="45.79211" lon="2.94538">
        <ele>888.2</ele>
        <time>2018-12-29T15:03:05Z</time>
      </trkpt>
      <trkpt lat="45.79214" lon="2.94544">
        <ele>887.8</ele>
        <time>2018-12-29T15:03:06Z</time>
      </trkpt>
      <trkpt lat="45.79218" lon="2.94549">
        <ele>887.4</ele>
        <time>2018-12-29T15:03:07Z</time>
      </trkpt>
      <trkpt lat="45.79222" lon="2.94554">
        <ele>886.4</ele>
        <time>2018-12-29T15:03:08Z</time>
      </trkpt>
      <trkpt lat="45.79226" lon="2.94558">
        <ele>886</ele>
        <time>2018-12-29T15:03:09Z</time>
      </trkpt>
      <trkpt lat="45.79233" lon="2.94563">
        <ele>886</ele>
        <time>2018-12-29T15:03:10Z</time>
      </trkpt>
      <trkpt lat="45.79247" lon="2.94581">
        <ele>886</ele>
        <time>2018-12-29T15:03:13Z</time>
      </trkpt>
      <trkpt lat="45.79258" lon="2.9459">
        <ele>886</ele>
        <time>2018-12-29T15:03:15Z</time>
      </trkpt>
      <trkpt lat="45.7927" lon="2.94597">
        <ele>886</ele>
        <time>2018-12-29T15:03:17Z</time>
      </trkpt>
      <trkpt lat="45.7928" lon="2.94608">
        <ele>886</ele>
        <time>2018-12-29T15:03:19Z</time>
      </trkpt>
      <trkpt lat="45.79284" lon="2.94614">
        <ele>886</ele>
        <time>2018-12-29T15:03:20Z</time>
      </trkpt>
      <trkpt lat="45.79288" lon="2.9462">
        <ele>886</ele>
        <time>2018-12-29T15:03:21Z</time>
      </trkpt>
      <trkpt lat="45.79291" lon="2.94626">
        <ele>885.6</ele>
        <time>2018-12-29T15:03:22Z</time>
      </trkpt>
      <trkpt lat="45.79295" lon="2.94631">
        <ele>885.2</ele>
        <time>2018-12-29T15:03:23Z</time>
      </trkpt>
      <trkpt lat="45.79299" lon="2.94634">
        <ele>884.8</ele>
        <time>2018-12-29T15:03:24Z</time>
      </trkpt>
      <trkpt lat="45.79301" lon="2.94638">
        <ele>884.4</ele>
        <time>2018-12-29T15:03:25Z</time>
      </trkpt>
      <trkpt lat="45.79305" lon="2.94641">
        <ele>884</ele>
        <time>2018-12-29T15:03:26Z</time>
      </trkpt>
      <trkpt lat="45.79312" lon="2.94655">
        <ele>884</ele>
        <time>2018-12-29T15:03:30Z</time>
      </trkpt>
      <trkpt lat="45.7932" lon="2.94676">
        <ele>884</ele>
        <time>2018-12-29T15:03:35Z</time>
      </trkpt>
      <trkpt lat="45.79324" lon="2.94685">
        <ele>884</ele>
        <time>2018-12-29T15:03:37Z</time>
      </trkpt>
      <trkpt lat="45.79332" lon="2.94696">
        <ele>884</ele>
        <time>2018-12-29T15:03:40Z</time>
      </trkpt>
      <trkpt lat="45.79341" lon="2.94708">
        <ele>884</ele>
        <time>2018-12-29T15:03:44Z</time>
      </trkpt>
      <trkpt lat="45.79356" lon="2.94728">
        <ele>883.6</ele>
        <time>2018-12-29T15:03:49Z</time>
      </trkpt>
      <trkpt lat="45.79359" lon="2.94731">
        <ele>883.2</ele>
        <time>2018-12-29T15:03:50Z</time>
      </trkpt>
      <trkpt lat="45.79363" lon="2.94735">
        <ele>882.8</ele>
        <time>2018-12-29T15:03:51Z</time>
      </trkpt>
      <trkpt lat="45.79366" lon="2.94738">
        <ele>882.4</ele>
        <time>2018-12-29T15:03:52Z</time>
      </trkpt>
      <trkpt lat="45.7937" lon="2.94742">
        <ele>881.8</ele>
        <time>2018-12-29T15:03:53Z</time>
      </trkpt>
      <trkpt lat="45.79377" lon="2.94749">
        <ele>881.8</ele>
        <time>2018-12-29T15:03:55Z</time>
      </trkpt>
      <trkpt lat="45.7938" lon="2.94753">
        <ele>881.8</ele>
        <time>2018-12-29T15:03:56Z</time>
      </trkpt>
      <trkpt lat="45.79388" lon="2.94765">
        <ele>881.8</ele>
        <time>2018-12-29T15:03:59Z</time>
      </trkpt>
      <trkpt lat="45.79391" lon="2.9477">
        <ele>881.8</ele>
        <time>2018-12-29T15:04:00Z</time>
      </trkpt>
      <trkpt lat="45.79399" lon="2.94785">
        <ele>881.4</ele>
        <time>2018-12-29T15:04:03Z</time>
      </trkpt>
      <trkpt lat="45.79402" lon="2.9479">
        <ele>881</ele>
        <time>2018-12-29T15:04:04Z</time>
      </trkpt>
      <trkpt lat="45.79406" lon="2.94796">
        <ele>880.4</ele>
        <time>2018-12-29T15:04:05Z</time>
      </trkpt>
      <trkpt lat="45.79409" lon="2.94802">
        <ele>880</ele>
        <time>2018-12-29T15:04:06Z</time>
      </trkpt>
      <trkpt lat="45.79413" lon="2.94806">
        <ele>879.6</ele>
        <time>2018-12-29T15:04:07Z</time>
      </trkpt>
      <trkpt lat="45.79424" lon="2.94819">
        <ele>879.6</ele>
        <time>2018-12-29T15:04:10Z</time>
      </trkpt>
      <trkpt lat="45.79427" lon="2.94823">
        <ele>879</ele>
        <time>2018-12-29T15:04:11Z</time>
      </trkpt>
      <trkpt lat="45.79431" lon="2.94829">
        <ele>878.6</ele>
        <time>2018-12-29T15:04:12Z</time>
      </trkpt>
      <trkpt lat="45.79436" lon="2.94837">
        <ele>878.2</ele>
        <time>2018-12-29T15:04:13Z</time>
      </trkpt>
      <trkpt lat="45.7944" lon="2.94842">
        <ele>877.6</ele>
        <time>2018-12-29T15:04:14Z</time>
      </trkpt>
      <trkpt lat="45.79443" lon="2.94847">
        <ele>877.2</ele>
        <time>2018-12-29T15:04:15Z</time>
      </trkpt>
      <trkpt lat="45.79445" lon="2.9485">
        <ele>877.2</ele>
        <time>2018-12-29T15:04:16Z</time>
      </trkpt>
      <trkpt lat="45.79459" lon="2.94869">
        <ele>877.2</ele>
        <time>2018-12-29T15:04:22Z</time>
      </trkpt>
      <trkpt lat="45.79461" lon="2.94872">
        <ele>876.8</ele>
        <time>2018-12-29T15:04:23Z</time>
      </trkpt>
      <trkpt lat="45.79465" lon="2.94874">
        <ele>876.4</ele>
        <time>2018-12-29T15:04:24Z</time>
      </trkpt>
      <trkpt lat="45.7947" lon="2.94876">
        <ele>876</ele>
        <time>2018-12-29T15:04:25Z</time>
      </trkpt>
      <trkpt lat="45.79474" lon="2.94878">
        <ele>875.6</ele>
        <time>2018-12-29T15:04:26Z</time>
      </trkpt>
      <trkpt lat="45.79477" lon="2.9488">
        <ele>875.2</ele>
        <time>2018-12-29T15:04:27Z</time>
      </trkpt>
      <trkpt lat="45.7948" lon="2.94886">
        <ele>875.2</ele>
        <time>2018-12-29T15:04:29Z</time>
      </trkpt>
      <trkpt lat="45.79481" lon="2.94888">
        <ele>874.8</ele>
        <time>2018-12-29T15:04:30Z</time>
      </trkpt>
      <trkpt lat="45.79483" lon="2.94889">
        <ele>874.4</ele>
        <time>2018-12-29T15:04:31Z</time>
      </trkpt>
      <trkpt lat="45.79484" lon="2.9489">
        <ele>874</ele>
        <time>2018-12-29T15:04:32Z</time>
      </trkpt>
      <trkpt lat="45.79486" lon="2.94894">
        <ele>873.2</ele>
        <time>2018-12-29T15:04:42Z</time>
      </trkpt>
      <trkpt lat="45.79487" lon="2.94896">
        <ele>873.2</ele>
        <time>2018-12-29T15:04:43Z</time>
      </trkpt>
      <trkpt lat="45.79489" lon="2.94902">
        <ele>873.2</ele>
        <time>2018-12-29T15:04:45Z</time>
      </trkpt>
      <trkpt lat="45.79493" lon="2.94911">
        <ele>873.2</ele>
        <time>2018-12-29T15:04:47Z</time>
      </trkpt>
      <trkpt lat="45.795" lon="2.9493">
        <ele>872.8</ele>
        <time>2018-12-29T15:04:51Z</time>
      </trkpt>
      <trkpt lat="45.79502" lon="2.94935">
        <ele>872.2</ele>
        <time>2018-12-29T15:04:52Z</time>
      </trkpt>
      <trkpt lat="45.79505" lon="2.94942">
        <ele>871.8</ele>
        <time>2018-12-29T15:04:53Z</time>
      </trkpt>
      <trkpt lat="45.79506" lon="2.94947">
        <ele>871.4</ele>
        <time>2018-12-29T15:04:54Z</time>
      </trkpt>
      <trkpt lat="45.79508" lon="2.94952">
        <ele>871</ele>
        <time>2018-12-29T15:04:55Z</time>
      </trkpt>
      <trkpt lat="45.79511" lon="2.94958">
        <ele>871</ele>
        <time>2018-12-29T15:04:56Z</time>
      </trkpt>
      <trkpt lat="45.79516" lon="2.9497">
        <ele>871</ele>
        <time>2018-12-29T15:04:59Z</time>
      </trkpt>
      <trkpt lat="45.79522" lon="2.94984">
        <ele>870.6</ele>
        <time>2018-12-29T15:05:02Z</time>
      </trkpt>
      <trkpt lat="45.79525" lon="2.94987">
        <ele>870.2</ele>
        <time>2018-12-29T15:05:03Z</time>
      </trkpt>
      <trkpt lat="45.79527" lon="2.94992">
        <ele>869.8</ele>
        <time>2018-12-29T15:05:04Z</time>
      </trkpt>
      <trkpt lat="45.79528" lon="2.94995">
        <ele>869.4</ele>
        <time>2018-12-29T15:05:05Z</time>
      </trkpt>
      <trkpt lat="45.7953" lon="2.95">
        <ele>869</ele>
        <time>2018-12-29T15:05:06Z</time>
      </trkpt>
      <trkpt lat="45.79534" lon="2.95015">
        <ele>869</ele>
        <time>2018-12-29T15:05:09Z</time>
      </trkpt>
      <trkpt lat="45.79535" lon="2.95021">
        <ele>869</ele>
        <time>2018-12-29T15:05:10Z</time>
      </trkpt>
      <trkpt lat="45.79542" lon="2.9503">
        <ele>869</ele>
        <time>2018-12-29T15:05:13Z</time>
      </trkpt>
      <trkpt lat="45.79548" lon="2.9504">
        <ele>869</ele>
        <time>2018-12-29T15:05:16Z</time>
      </trkpt>
      <trkpt lat="45.79551" lon="2.95045">
        <ele>868.6</ele>
        <time>2018-12-29T15:05:17Z</time>
      </trkpt>
      <trkpt lat="45.79555" lon="2.9505">
        <ele>868</ele>
        <time>2018-12-29T15:05:18Z</time>
      </trkpt>
      <trkpt lat="45.7956" lon="2.95057">
        <ele>867.6</ele>
        <time>2018-12-29T15:05:19Z</time>
      </trkpt>
      <trkpt lat="45.79565" lon="2.95062">
        <ele>867.2</ele>
        <time>2018-12-29T15:05:20Z</time>
      </trkpt>
      <trkpt lat="45.79569" lon="2.95064">
        <ele>866.8</ele>
        <time>2018-12-29T15:05:21Z</time>
      </trkpt>
      <trkpt lat="45.79577" lon="2.95069">
        <ele>866.8</ele>
        <time>2018-12-29T15:05:24Z</time>
      </trkpt>
      <trkpt lat="45.79583" lon="2.95067">
        <ele>866.8</ele>
        <time>2018-12-29T15:05:44Z</time>
      </trkpt>
      <trkpt lat="45.79591" lon="2.95063">
        <ele>866.8</ele>
        <time>2018-12-29T15:05:46Z</time>
      </trkpt>
      <trkpt lat="45.79596" lon="2.95057">
        <ele>866.4</ele>
        <time>2018-12-29T15:05:48Z</time>
      </trkpt>
      <trkpt lat="45.79599" lon="2.95055">
        <ele>866</ele>
        <time>2018-12-29T15:05:49Z</time>
      </trkpt>
      <trkpt lat="45.79602" lon="2.95052">
        <ele>865.6</ele>
        <time>2018-12-29T15:05:50Z</time>
      </trkpt>
      <trkpt lat="45.79605" lon="2.95051">
        <ele>865.2</ele>
        <time>2018-12-29T15:05:51Z</time>
      </trkpt>
      <trkpt lat="45.79607" lon="2.95052">
        <ele>864.8</ele>
        <time>2018-12-29T15:05:52Z</time>
      </trkpt>
      <trkpt lat="45.79614" lon="2.95052">
        <ele>864.8</ele>
        <time>2018-12-29T15:05:54Z</time>
      </trkpt>
      <trkpt lat="45.79631" lon="2.95046">
        <ele>864.8</ele>
        <time>2018-12-29T15:05:58Z</time>
      </trkpt>
      <trkpt lat="45.79639" lon="2.95044">
        <ele>864.8</ele>
        <time>2018-12-29T15:06:00Z</time>
      </trkpt>
      <trkpt lat="45.79643" lon="2.95043">
        <ele>864.8</ele>
        <time>2018-12-29T15:06:01Z</time>
      </trkpt>
      <trkpt lat="45.79651" lon="2.95041">
        <ele>864.8</ele>
        <time>2018-12-29T15:06:03Z</time>
      </trkpt>
      <trkpt lat="45.79672" lon="2.95039">
        <ele>864.4</ele>
        <time>2018-12-29T15:06:08Z</time>
      </trkpt>
      <trkpt lat="45.79675" lon="2.9504">
        <ele>864</ele>
        <time>2018-12-29T15:06:09Z</time>
      </trkpt>
      <trkpt lat="45.79678" lon="2.9504">
        <ele>863.6</ele>
        <time>2018-12-29T15:06:10Z</time>
      </trkpt>
      <trkpt lat="45.79682" lon="2.95041">
        <ele>863.2</ele>
        <time>2018-12-29T15:06:11Z</time>
      </trkpt>
      <trkpt lat="45.79686" lon="2.9504">
        <ele>862.8</ele>
        <time>2018-12-29T15:06:12Z</time>
      </trkpt>
      <trkpt lat="45.79707" lon="2.95037">
        <ele>862.8</ele>
        <time>2018-12-29T15:06:17Z</time>
      </trkpt>
      <trkpt lat="45.79716" lon="2.95033">
        <ele>862.8</ele>
        <time>2018-12-29T15:06:20Z</time>
      </trkpt>
      <trkpt lat="45.79727" lon="2.9503">
        <ele>862.8</ele>
        <time>2018-12-29T15:06:23Z</time>
      </trkpt>
      <trkpt lat="45.79733" lon="2.95028">
        <ele>862.8</ele>
        <time>2018-12-29T15:06:25Z</time>
      </trkpt>
      <trkpt lat="45.79753" lon="2.95027">
        <ele>863.2</ele>
        <time>2018-12-29T15:06:30Z</time>
      </trkpt>
      <trkpt lat="45.79758" lon="2.95029">
        <ele>863.6</ele>
        <time>2018-12-29T15:06:31Z</time>
      </trkpt>
      <trkpt lat="45.79763" lon="2.95031">
        <ele>864</ele>
        <time>2018-12-29T15:06:32Z</time>
      </trkpt>
      <trkpt lat="45.79809" lon="2.95028">
        <ele>864.4</ele>
        <time>2018-12-29T15:06:33Z</time>
      </trkpt>
      <trkpt lat="45.7981" lon="2.95029">
        <ele>864.8</ele>
        <time>2018-12-29T15:06:34Z</time>
      </trkpt>
      <trkpt lat="45.79815" lon="2.95029">
        <ele>864.8</ele>
        <time>2018-12-29T15:06:37Z</time>
      </trkpt>
      <trkpt lat="45.79819" lon="2.95025">
        <ele>864.8</ele>
        <time>2018-12-29T15:06:39Z</time>
      </trkpt>
      <trkpt lat="45.7983" lon="2.95007">
        <ele>865.4</ele>
        <time>2018-12-29T15:06:41Z</time>
      </trkpt>
      <trkpt lat="45.79836" lon="2.95004">
        <ele>865.8</ele>
        <time>2018-12-29T15:06:42Z</time>
      </trkpt>
      <trkpt lat="45.79838" lon="2.95001">
        <ele>866.4</ele>
        <time>2018-12-29T15:06:43Z</time>
      </trkpt>
      <trkpt lat="45.79841" lon="2.94998">
        <ele>866.8</ele>
        <time>2018-12-29T15:06:44Z</time>
      </trkpt>
      <trkpt lat="45.79843" lon="2.94996">
        <ele>867.4</ele>
        <time>2018-12-29T15:06:45Z</time>
      </trkpt>
      <trkpt lat="45.79851" lon="2.94996">
        <ele>867.4</ele>
        <time>2018-12-29T15:06:48Z</time>
      </trkpt>
      <trkpt lat="45.79854" lon="2.94996">
        <ele>867.4</ele>
        <time>2018-12-29T15:06:49Z</time>
      </trkpt>
      <trkpt lat="45.79866" lon="2.94994">
        <ele>867.4</ele>
        <time>2018-12-29T15:06:53Z</time>
      </trkpt>
      <trkpt lat="45.79874" lon="2.9499">
        <ele>867.4</ele>
        <time>2018-12-29T15:06:55Z</time>
      </trkpt>
      <trkpt lat="45.79882" lon="2.9499">
        <ele>867.4</ele>
        <time>2018-12-29T15:06:57Z</time>
      </trkpt>
      <trkpt lat="45.79888" lon="2.94989">
        <ele>867.4</ele>
        <time>2018-12-29T15:07:00Z</time>
      </trkpt>
      <trkpt lat="45.79894" lon="2.94993">
        <ele>867.4</ele>
        <time>2018-12-29T15:07:10Z</time>
      </trkpt>
      <trkpt lat="45.79895" lon="2.94995">
        <ele>867</ele>
        <time>2018-12-29T15:07:11Z</time>
      </trkpt>
      <trkpt lat="45.79897" lon="2.94996">
        <ele>866.4</ele>
        <time>2018-12-29T15:07:12Z</time>
      </trkpt>
      <trkpt lat="45.79899" lon="2.94998">
        <ele>866</ele>
        <time>2018-12-29T15:07:13Z</time>
      </trkpt>
      <trkpt lat="45.79901" lon="2.95002">
        <ele>865.2</ele>
        <time>2018-12-29T15:07:14Z</time>
      </trkpt>
      <trkpt lat="45.79903" lon="2.95005">
        <ele>865.2</ele>
        <time>2018-12-29T15:07:15Z</time>
      </trkpt>
      <trkpt lat="45.79905" lon="2.95007">
        <ele>864.6</ele>
        <time>2018-12-29T15:07:16Z</time>
      </trkpt>
      <trkpt lat="45.79908" lon="2.9501">
        <ele>864.2</ele>
        <time>2018-12-29T15:07:17Z</time>
      </trkpt>
      <trkpt lat="45.7991" lon="2.95015">
        <ele>863.6</ele>
        <time>2018-12-29T15:07:18Z</time>
      </trkpt>
      <trkpt lat="45.79913" lon="2.95017">
        <ele>863</ele>
        <time>2018-12-29T15:07:19Z</time>
      </trkpt>
      <trkpt lat="45.79916" lon="2.9502">
        <ele>862.4</ele>
        <time>2018-12-29T15:07:20Z</time>
      </trkpt>
      <trkpt lat="45.79919" lon="2.95023">
        <ele>861.8</ele>
        <time>2018-12-29T15:07:21Z</time>
      </trkpt>
      <trkpt lat="45.79922" lon="2.95029">
        <ele>861.2</ele>
        <time>2018-12-29T15:07:22Z</time>
      </trkpt>
      <trkpt lat="45.79925" lon="2.95035">
        <ele>860.6</ele>
        <time>2018-12-29T15:07:23Z</time>
      </trkpt>
      <trkpt lat="45.79929" lon="2.95039">
        <ele>860</ele>
        <time>2018-12-29T15:07:24Z</time>
      </trkpt>
      <trkpt lat="45.79933" lon="2.95045">
        <ele>859.4</ele>
        <time>2018-12-29T15:07:25Z</time>
      </trkpt>
      <trkpt lat="45.79937" lon="2.95049">
        <ele>859</ele>
        <time>2018-12-29T15:07:26Z</time>
      </trkpt>
      <trkpt lat="45.79941" lon="2.95053">
        <ele>858.4</ele>
        <time>2018-12-29T15:07:27Z</time>
      </trkpt>
      <trkpt lat="45.79954" lon="2.95065">
        <ele>858.4</ele>
        <time>2018-12-29T15:07:30Z</time>
      </trkpt>
      <trkpt lat="45.79959" lon="2.95072">
        <ele>858.4</ele>
        <time>2018-12-29T15:07:31Z</time>
      </trkpt>
      <trkpt lat="45.79964" lon="2.95074">
        <ele>858.4</ele>
        <time>2018-12-29T15:07:34Z</time>
      </trkpt>
      <trkpt lat="45.79966" lon="2.95074">
        <ele>858</ele>
        <time>2018-12-29T15:07:35Z</time>
      </trkpt>
      <trkpt lat="45.79968" lon="2.95075">
        <ele>857.6</ele>
        <time>2018-12-29T15:07:36Z</time>
      </trkpt>
      <trkpt lat="45.79971" lon="2.95077">
        <ele>857.2</ele>
        <time>2018-12-29T15:07:37Z</time>
      </trkpt>
      <trkpt lat="45.79973" lon="2.95078">
        <ele>856.8</ele>
        <time>2018-12-29T15:07:38Z</time>
      </trkpt>
      <trkpt lat="45.79977" lon="2.9508">
        <ele>856.4</ele>
        <time>2018-12-29T15:07:39Z</time>
      </trkpt>
      <trkpt lat="45.79981" lon="2.95081">
        <ele>855.8</ele>
        <time>2018-12-29T15:07:40Z</time>
      </trkpt>
      <trkpt lat="45.79984" lon="2.95083">
        <ele>855.4</ele>
        <time>2018-12-29T15:07:41Z</time>
      </trkpt>
      <trkpt lat="45.79989" lon="2.95084">
        <ele>855</ele>
        <time>2018-12-29T15:07:42Z</time>
      </trkpt>
      <trkpt lat="45.79993" lon="2.95085">
        <ele>854.4</ele>
        <time>2018-12-29T15:07:43Z</time>
      </trkpt>
      <trkpt lat="45.79997" lon="2.95084">
        <ele>854</ele>
        <time>2018-12-29T15:07:44Z</time>
      </trkpt>
      <trkpt lat="45.80003" lon="2.95081">
        <ele>853.4</ele>
        <time>2018-12-29T15:07:45Z</time>
      </trkpt>
      <trkpt lat="45.8001" lon="2.95081">
        <ele>852.8</ele>
        <time>2018-12-29T15:07:46Z</time>
      </trkpt>
      <trkpt lat="45.80014" lon="2.95082">
        <ele>852.4</ele>
        <time>2018-12-29T15:07:47Z</time>
      </trkpt>
      <trkpt lat="45.8002" lon="2.95085">
        <ele>851.8</ele>
        <time>2018-12-29T15:07:48Z</time>
      </trkpt>
      <trkpt lat="45.80025" lon="2.95088">
        <ele>851.8</ele>
        <time>2018-12-29T15:07:49Z</time>
      </trkpt>
      <trkpt lat="45.80029" lon="2.9509">
        <ele>851.4</ele>
        <time>2018-12-29T15:07:50Z</time>
      </trkpt>
      <trkpt lat="45.80034" lon="2.95092">
        <ele>851</ele>
        <time>2018-12-29T15:07:51Z</time>
      </trkpt>
      <trkpt lat="45.80039" lon="2.95096">
        <ele>850.6</ele>
        <time>2018-12-29T15:07:52Z</time>
      </trkpt>
      <trkpt lat="45.80043" lon="2.951">
        <ele>850</ele>
        <time>2018-12-29T15:07:53Z</time>
      </trkpt>
      <trkpt lat="45.80047" lon="2.95103">
        <ele>849.6</ele>
        <time>2018-12-29T15:07:54Z</time>
      </trkpt>
      <trkpt lat="45.80051" lon="2.95109">
        <ele>849.6</ele>
        <time>2018-12-29T15:07:55Z</time>
      </trkpt>
      <trkpt lat="45.80053" lon="2.95114">
        <ele>849.2</ele>
        <time>2018-12-29T15:07:56Z</time>
      </trkpt>
      <trkpt lat="45.80056" lon="2.95117">
        <ele>848.8</ele>
        <time>2018-12-29T15:07:57Z</time>
      </trkpt>
      <trkpt lat="45.80058" lon="2.95118">
        <ele>848.4</ele>
        <time>2018-12-29T15:07:58Z</time>
      </trkpt>
      <trkpt lat="45.8006" lon="2.95118">
        <ele>848</ele>
        <time>2018-12-29T15:07:59Z</time>
      </trkpt>
      <trkpt lat="45.80063" lon="2.95116">
        <ele>847.6</ele>
        <time>2018-12-29T15:08:00Z</time>
      </trkpt>
      <trkpt lat="45.80068" lon="2.95113">
        <ele>847.6</ele>
        <time>2018-12-29T15:08:02Z</time>
      </trkpt>
      <trkpt lat="45.80077" lon="2.95112">
        <ele>847.2</ele>
        <time>2018-12-29T15:08:04Z</time>
      </trkpt>
      <trkpt lat="45.80081" lon="2.95116">
        <ele>846.8</ele>
        <time>2018-12-29T15:08:05Z</time>
      </trkpt>
      <trkpt lat="45.80089" lon="2.95119">
        <ele>846.2</ele>
        <time>2018-12-29T15:08:06Z</time>
      </trkpt>
      <trkpt lat="45.80094" lon="2.95122">
        <ele>845.8</ele>
        <time>2018-12-29T15:08:07Z</time>
      </trkpt>
      <trkpt lat="45.801" lon="2.95124">
        <ele>845.4</ele>
        <time>2018-12-29T15:08:08Z</time>
      </trkpt>
      <trkpt lat="45.8011" lon="2.95126">
        <ele>845.4</ele>
        <time>2018-12-29T15:08:10Z</time>
      </trkpt>
      <trkpt lat="45.80115" lon="2.95126">
        <ele>845</ele>
        <time>2018-12-29T15:08:11Z</time>
      </trkpt>
      <trkpt lat="45.80121" lon="2.95126">
        <ele>844.6</ele>
        <time>2018-12-29T15:08:12Z</time>
      </trkpt>
      <trkpt lat="45.80128" lon="2.95125">
        <ele>844.2</ele>
        <time>2018-12-29T15:08:13Z</time>
      </trkpt>
      <trkpt lat="45.80135" lon="2.95125">
        <ele>843.8</ele>
        <time>2018-12-29T15:08:14Z</time>
      </trkpt>
      <trkpt lat="45.8014" lon="2.95124">
        <ele>843.4</ele>
        <time>2018-12-29T15:08:15Z</time>
      </trkpt>
      <trkpt lat="45.80153" lon="2.95122">
        <ele>842.8</ele>
        <time>2018-12-29T15:08:18Z</time>
      </trkpt>
      <trkpt lat="45.80157" lon="2.95122">
        <ele>842.4</ele>
        <time>2018-12-29T15:08:19Z</time>
      </trkpt>
      <trkpt lat="45.80162" lon="2.95122">
        <ele>842</ele>
        <time>2018-12-29T15:08:20Z</time>
      </trkpt>
      <trkpt lat="45.80167" lon="2.95123">
        <ele>841.6</ele>
        <time>2018-12-29T15:08:21Z</time>
      </trkpt>
      <trkpt lat="45.80169" lon="2.95124">
        <ele>841.2</ele>
        <time>2018-12-29T15:08:22Z</time>
      </trkpt>
      <trkpt lat="45.80175" lon="2.95127">
        <ele>840.8</ele>
        <time>2018-12-29T15:08:24Z</time>
      </trkpt>
      <trkpt lat="45.80177" lon="2.95127">
        <ele>840.4</ele>
        <time>2018-12-29T15:08:25Z</time>
      </trkpt>
      <trkpt lat="45.80179" lon="2.95127">
        <ele>840</ele>
        <time>2018-12-29T15:08:26Z</time>
      </trkpt>
      <trkpt lat="45.80183" lon="2.95126">
        <ele>839.6</ele>
        <time>2018-12-29T15:08:27Z</time>
      </trkpt>
      <trkpt lat="45.80188" lon="2.95126">
        <ele>839</ele>
        <time>2018-12-29T15:08:28Z</time>
      </trkpt>
      <trkpt lat="45.80195" lon="2.95126">
        <ele>837.8</ele>
        <time>2018-12-29T15:08:29Z</time>
      </trkpt>
      <trkpt lat="45.802" lon="2.95126">
        <ele>837</ele>
        <time>2018-12-29T15:08:30Z</time>
      </trkpt>
      <trkpt lat="45.80203" lon="2.95125">
        <ele>836.4</ele>
        <time>2018-12-29T15:08:31Z</time>
      </trkpt>
      <trkpt lat="45.80207" lon="2.95123">
        <ele>835.8</ele>
        <time>2018-12-29T15:08:32Z</time>
      </trkpt>
      <trkpt lat="45.80212" lon="2.95121">
        <ele>835.2</ele>
        <time>2018-12-29T15:08:33Z</time>
      </trkpt>
      <trkpt lat="45.80216" lon="2.95119">
        <ele>834.4</ele>
        <time>2018-12-29T15:08:34Z</time>
      </trkpt>
      <trkpt lat="45.80221" lon="2.95118">
        <ele>833.8</ele>
        <time>2018-12-29T15:08:35Z</time>
      </trkpt>
      <trkpt lat="45.80228" lon="2.95117">
        <ele>833.2</ele>
        <time>2018-12-29T15:08:36Z</time>
      </trkpt>
      <trkpt lat="45.80235" lon="2.95115">
        <ele>832.4</ele>
        <time>2018-12-29T15:08:37Z</time>
      </trkpt>
      <trkpt lat="45.8024" lon="2.95113">
        <ele>831.6</ele>
        <time>2018-12-29T15:08:38Z</time>
      </trkpt>
      <trkpt lat="45.80247" lon="2.95108">
        <ele>830.8</ele>
        <time>2018-12-29T15:08:39Z</time>
      </trkpt>
      <trkpt lat="45.80252" lon="2.95105">
        <ele>830</ele>
        <time>2018-12-29T15:08:40Z</time>
      </trkpt>
      <trkpt lat="45.80258" lon="2.95102">
        <ele>829.2</ele>
        <time>2018-12-29T15:08:41Z</time>
      </trkpt>
      <trkpt lat="45.80264" lon="2.95101">
        <ele>828.6</ele>
        <time>2018-12-29T15:08:42Z</time>
      </trkpt>
      <trkpt lat="45.80269" lon="2.95102">
        <ele>828</ele>
        <time>2018-12-29T15:08:43Z</time>
      </trkpt>
      <trkpt lat="45.80274" lon="2.95102">
        <ele>827.4</ele>
        <time>2018-12-29T15:08:44Z</time>
      </trkpt>
      <trkpt lat="45.80279" lon="2.95103">
        <ele>826.8</ele>
        <time>2018-12-29T15:08:45Z</time>
      </trkpt>
      <trkpt lat="45.80284" lon="2.95104">
        <ele>826.2</ele>
        <time>2018-12-29T15:08:46Z</time>
      </trkpt>
      <trkpt lat="45.80288" lon="2.95105">
        <ele>825.6</ele>
        <time>2018-12-29T15:08:47Z</time>
      </trkpt>
      <trkpt lat="45.80292" lon="2.95107">
        <ele>825.2</ele>
        <time>2018-12-29T15:08:48Z</time>
      </trkpt>
      <trkpt lat="45.80296" lon="2.95109">
        <ele>824.6</ele>
        <time>2018-12-29T15:08:49Z</time>
      </trkpt>
      <trkpt lat="45.80301" lon="2.95109">
        <ele>824.6</ele>
        <time>2018-12-29T15:08:50Z</time>
      </trkpt>
      <trkpt lat="45.80308" lon="2.95108">
        <ele>824.6</ele>
        <time>2018-12-29T15:08:51Z</time>
      </trkpt>
      <trkpt lat="45.80315" lon="2.95104">
        <ele>824.2</ele>
        <time>2018-12-29T15:08:52Z</time>
      </trkpt>
      <trkpt lat="45.80321" lon="2.951">
        <ele>823.4</ele>
        <time>2018-12-29T15:08:53Z</time>
      </trkpt>
      <trkpt lat="45.80326" lon="2.95096">
        <ele>823</ele>
        <time>2018-12-29T15:08:54Z</time>
      </trkpt>
      <trkpt lat="45.80331" lon="2.95091">
        <ele>822.6</ele>
        <time>2018-12-29T15:08:55Z</time>
      </trkpt>
      <trkpt lat="45.80341" lon="2.95078">
        <ele>822</ele>
        <time>2018-12-29T15:08:57Z</time>
      </trkpt>
      <trkpt lat="45.80348" lon="2.95071">
        <ele>821.6</ele>
        <time>2018-12-29T15:08:58Z</time>
      </trkpt>
      <trkpt lat="45.80354" lon="2.95066">
        <ele>821</ele>
        <time>2018-12-29T15:08:59Z</time>
      </trkpt>
      <trkpt lat="45.80361" lon="2.95061">
        <ele>820.6</ele>
        <time>2018-12-29T15:09:00Z</time>
      </trkpt>
      <trkpt lat="45.80368" lon="2.95057">
        <ele>820</ele>
        <time>2018-12-29T15:09:01Z</time>
      </trkpt>
      <trkpt lat="45.80375" lon="2.95053">
        <ele>819.6</ele>
        <time>2018-12-29T15:09:02Z</time>
      </trkpt>
      <trkpt lat="45.80382" lon="2.95049">
        <ele>819.2</ele>
        <time>2018-12-29T15:09:03Z</time>
      </trkpt>
      <trkpt lat="45.80389" lon="2.95046">
        <ele>818.8</ele>
        <time>2018-12-29T15:09:04Z</time>
      </trkpt>
      <trkpt lat="45.80397" lon="2.95043">
        <ele>818.4</ele>
        <time>2018-12-29T15:09:05Z</time>
      </trkpt>
      <trkpt lat="45.80404" lon="2.9504">
        <ele>818</ele>
        <time>2018-12-29T15:09:06Z</time>
      </trkpt>
      <trkpt lat="45.80436" lon="2.9503">
        <ele>818</ele>
        <time>2018-12-29T15:09:10Z</time>
      </trkpt>
      <trkpt lat="45.80451" lon="2.95024">
        <ele>817.4</ele>
        <time>2018-12-29T15:09:12Z</time>
      </trkpt>
      <trkpt lat="45.80459" lon="2.95021">
        <ele>817</ele>
        <time>2018-12-29T15:09:13Z</time>
      </trkpt>
      <trkpt lat="45.80467" lon="2.95016">
        <ele>816.6</ele>
        <time>2018-12-29T15:09:14Z</time>
      </trkpt>
      <trkpt lat="45.80474" lon="2.95012">
        <ele>816.2</ele>
        <time>2018-12-29T15:09:15Z</time>
      </trkpt>
      <trkpt lat="45.80482" lon="2.95007">
        <ele>815.6</ele>
        <time>2018-12-29T15:09:16Z</time>
      </trkpt>
      <trkpt lat="45.8049" lon="2.95002">
        <ele>815</ele>
        <time>2018-12-29T15:09:17Z</time>
      </trkpt>
      <trkpt lat="45.80498" lon="2.94998">
        <ele>814</ele>
        <time>2018-12-29T15:09:18Z</time>
      </trkpt>
      <trkpt lat="45.80505" lon="2.94995">
        <ele>813.4</ele>
        <time>2018-12-29T15:09:19Z</time>
      </trkpt>
      <trkpt lat="45.80513" lon="2.94994">
        <ele>813</ele>
        <time>2018-12-29T15:09:20Z</time>
      </trkpt>
      <trkpt lat="45.80519" lon="2.94996">
        <ele>812.4</ele>
        <time>2018-12-29T15:09:21Z</time>
      </trkpt>
      <trkpt lat="45.80526" lon="2.94998">
        <ele>811.8</ele>
        <time>2018-12-29T15:09:22Z</time>
      </trkpt>
      <trkpt lat="45.80531" lon="2.95">
        <ele>811.4</ele>
        <time>2018-12-29T15:09:23Z</time>
      </trkpt>
      <trkpt lat="45.80551" lon="2.95007">
        <ele>811</ele>
        <time>2018-12-29T15:09:26Z</time>
      </trkpt>
      <trkpt lat="45.80558" lon="2.95009">
        <ele>810.6</ele>
        <time>2018-12-29T15:09:27Z</time>
      </trkpt>
      <trkpt lat="45.80565" lon="2.95011">
        <ele>810.2</ele>
        <time>2018-12-29T15:09:28Z</time>
      </trkpt>
      <trkpt lat="45.80573" lon="2.95012">
        <ele>809.8</ele>
        <time>2018-12-29T15:09:29Z</time>
      </trkpt>
      <trkpt lat="45.80581" lon="2.95012">
        <ele>809.2</ele>
        <time>2018-12-29T15:09:30Z</time>
      </trkpt>
      <trkpt lat="45.80595" lon="2.95015">
        <ele>809.2</ele>
        <time>2018-12-29T15:09:32Z</time>
      </trkpt>
      <trkpt lat="45.80609" lon="2.95019">
        <ele>809.2</ele>
        <time>2018-12-29T15:09:34Z</time>
      </trkpt>
      <trkpt lat="45.80623" lon="2.95024">
        <ele>808.8</ele>
        <time>2018-12-29T15:09:36Z</time>
      </trkpt>
      <trkpt lat="45.8063" lon="2.95027">
        <ele>808.4</ele>
        <time>2018-12-29T15:09:37Z</time>
      </trkpt>
      <trkpt lat="45.80638" lon="2.95029">
        <ele>808</ele>
        <time>2018-12-29T15:09:38Z</time>
      </trkpt>
      <trkpt lat="45.80644" lon="2.95032">
        <ele>807.6</ele>
        <time>2018-12-29T15:09:39Z</time>
      </trkpt>
      <trkpt lat="45.8065" lon="2.95035">
        <ele>807.2</ele>
        <time>2018-12-29T15:09:40Z</time>
      </trkpt>
      <trkpt lat="45.80655" lon="2.95038">
        <ele>807.2</ele>
        <time>2018-12-29T15:09:41Z</time>
      </trkpt>
      <trkpt lat="45.80674" lon="2.95047">
        <ele>807.2</ele>
        <time>2018-12-29T15:09:45Z</time>
      </trkpt>
      <trkpt lat="45.80689" lon="2.95048">
        <ele>807.2</ele>
        <time>2018-12-29T15:09:48Z</time>
      </trkpt>
      <trkpt lat="45.80695" lon="2.95047">
        <ele>807.2</ele>
        <time>2018-12-29T15:09:50Z</time>
      </trkpt>
      <trkpt lat="45.80713" lon="2.95047">
        <ele>807.2</ele>
        <time>2018-12-29T15:09:56Z</time>
      </trkpt>
      <trkpt lat="45.80729" lon="2.95048">
        <ele>807.2</ele>
        <time>2018-12-29T15:10:01Z</time>
      </trkpt>
      <trkpt lat="45.80742" lon="2.95052">
        <ele>807.2</ele>
        <time>2018-12-29T15:10:06Z</time>
      </trkpt>
      <trkpt lat="45.80758" lon="2.95055">
        <ele>807.2</ele>
        <time>2018-12-29T15:10:12Z</time>
      </trkpt>
      <trkpt lat="45.80759" lon="2.95057">
        <ele>807.2</ele>
        <time>2018-12-29T15:10:13Z</time>
      </trkpt>
      <trkpt lat="45.80763" lon="2.9506">
        <ele>807.2</ele>
        <time>2018-12-29T15:10:16Z</time>
      </trkpt>
      <trkpt lat="45.80767" lon="2.9506">
        <ele>807.2</ele>
        <time>2018-12-29T15:10:19Z</time>
      </trkpt>
      <trkpt lat="45.80769" lon="2.95061">
        <ele>807.2</ele>
        <time>2018-12-29T15:10:21Z</time>
      </trkpt>
      <trkpt lat="45.80773" lon="2.95064">
        <ele>807.2</ele>
        <time>2018-12-29T15:10:25Z</time>
      </trkpt>
      <trkpt lat="45.80778" lon="2.95066">
        <ele>807.2</ele>
        <time>2018-12-29T15:10:27Z</time>
      </trkpt>
      <trkpt lat="45.80792" lon="2.9507">
        <ele>807.6</ele>
        <time>2018-12-29T15:10:32Z</time>
      </trkpt>
      <trkpt lat="45.80796" lon="2.9507">
        <ele>808</ele>
        <time>2018-12-29T15:10:33Z</time>
      </trkpt>
      <trkpt lat="45.808" lon="2.9507">
        <ele>808.4</ele>
        <time>2018-12-29T15:10:34Z</time>
      </trkpt>
      <trkpt lat="45.80804" lon="2.95071">
        <ele>808.8</ele>
        <time>2018-12-29T15:10:35Z</time>
      </trkpt>
      <trkpt lat="45.80807" lon="2.95072">
        <ele>809.2</ele>
        <time>2018-12-29T15:10:36Z</time>
      </trkpt>
      <trkpt lat="45.8081" lon="2.95073">
        <ele>809.2</ele>
        <time>2018-12-29T15:10:37Z</time>
      </trkpt>
      <trkpt lat="45.80828" lon="2.95081">
        <ele>809.2</ele>
        <time>2018-12-29T15:10:43Z</time>
      </trkpt>
      <trkpt lat="45.80843" lon="2.95085">
        <ele>809.2</ele>
        <time>2018-12-29T15:10:48Z</time>
      </trkpt>
      <trkpt lat="45.80859" lon="2.95091">
        <ele>809.2</ele>
        <time>2018-12-29T15:10:53Z</time>
      </trkpt>
      <trkpt lat="45.80877" lon="2.95096">
        <ele>809.2</ele>
        <time>2018-12-29T15:10:59Z</time>
      </trkpt>
      <trkpt lat="45.80895" lon="2.951">
        <ele>809.2</ele>
        <time>2018-12-29T15:11:04Z</time>
      </trkpt>
      <trkpt lat="45.80916" lon="2.95104">
        <ele>809.2</ele>
        <time>2018-12-29T15:11:09Z</time>
      </trkpt>
      <trkpt lat="45.80936" lon="2.95105">
        <ele>809.2</ele>
        <time>2018-12-29T15:11:14Z</time>
      </trkpt>
      <trkpt lat="45.80962" lon="2.95104">
        <ele>809.2</ele>
        <time>2018-12-29T15:11:20Z</time>
      </trkpt>
      <trkpt lat="45.80986" lon="2.95098">
        <ele>809.2</ele>
        <time>2018-12-29T15:11:25Z</time>
      </trkpt>
      <trkpt lat="45.8099" lon="2.95098">
        <ele>809.2</ele>
        <time>2018-12-29T15:11:26Z</time>
      </trkpt>
      <trkpt lat="45.81009" lon="2.95095">
        <ele>809.2</ele>
        <time>2018-12-29T15:11:31Z</time>
      </trkpt>
      <trkpt lat="45.81012" lon="2.95095">
        <ele>809.6</ele>
        <time>2018-12-29T15:11:32Z</time>
      </trkpt>
      <trkpt lat="45.81015" lon="2.95094">
        <ele>810</ele>
        <time>2018-12-29T15:11:33Z</time>
      </trkpt>
      <trkpt lat="45.81017" lon="2.95093">
        <ele>810.4</ele>
        <time>2018-12-29T15:11:34Z</time>
      </trkpt>
      <trkpt lat="45.8102" lon="2.95092">
        <ele>811</ele>
        <time>2018-12-29T15:11:35Z</time>
      </trkpt>
      <trkpt lat="45.81022" lon="2.95091">
        <ele>811.4</ele>
        <time>2018-12-29T15:11:36Z</time>
      </trkpt>
      <trkpt lat="45.81025" lon="2.95092">
        <ele>811.4</ele>
        <time>2018-12-29T15:11:37Z</time>
      </trkpt>
      <trkpt lat="45.81031" lon="2.95091">
        <ele>811.4</ele>
        <time>2018-12-29T15:11:40Z</time>
      </trkpt>
      <trkpt lat="45.81048" lon="2.95087">
        <ele>811.4</ele>
        <time>2018-12-29T15:11:46Z</time>
      </trkpt>
      <trkpt lat="45.8106" lon="2.95083">
        <ele>811.4</ele>
        <time>2018-12-29T15:11:49Z</time>
      </trkpt>
      <trkpt lat="45.81064" lon="2.95082">
        <ele>811.4</ele>
        <time>2018-12-29T15:11:50Z</time>
      </trkpt>
      <trkpt lat="45.81075" lon="2.95081">
        <ele>811.4</ele>
        <time>2018-12-29T15:11:52Z</time>
      </trkpt>
      <trkpt lat="45.8109" lon="2.9508">
        <ele>811.4</ele>
        <time>2018-12-29T15:11:55Z</time>
      </trkpt>
      <trkpt lat="45.81124" lon="2.95077">
        <ele>811.4</ele>
        <time>2018-12-29T15:12:01Z</time>
      </trkpt>
      <trkpt lat="45.81148" lon="2.95079">
        <ele>811.4</ele>
        <time>2018-12-29T15:12:05Z</time>
      </trkpt>
      <trkpt lat="45.81159" lon="2.95081">
        <ele>811.4</ele>
        <time>2018-12-29T15:12:07Z</time>
      </trkpt>
      <trkpt lat="45.81188" lon="2.95089">
        <ele>811.4</ele>
        <time>2018-12-29T15:12:12Z</time>
      </trkpt>
      <trkpt lat="45.81194" lon="2.95092">
        <ele>811.4</ele>
        <time>2018-12-29T15:12:13Z</time>
      </trkpt>
      <trkpt lat="45.81225" lon="2.95114">
        <ele>811.4</ele>
        <time>2018-12-29T15:12:19Z</time>
      </trkpt>
      <trkpt lat="45.81257" lon="2.95146">
        <ele>811.4</ele>
        <time>2018-12-29T15:12:26Z</time>
      </trkpt>
      <trkpt lat="45.81273" lon="2.95164">
        <ele>811.4</ele>
        <time>2018-12-29T15:12:30Z</time>
      </trkpt>
      <trkpt lat="45.81276" lon="2.95168">
        <ele>811.4</ele>
        <time>2018-12-29T15:12:31Z</time>
      </trkpt>
      <trkpt lat="45.81284" lon="2.95176">
        <ele>811.4</ele>
        <time>2018-12-29T15:12:34Z</time>
      </trkpt>
      <trkpt lat="45.81286" lon="2.95178">
        <ele>811.4</ele>
        <time>2018-12-29T15:12:35Z</time>
      </trkpt>
      <trkpt lat="45.81293" lon="2.95197">
        <ele>811.4</ele>
        <time>2018-12-29T15:12:39Z</time>
      </trkpt>
      <trkpt lat="45.81299" lon="2.95212">
        <ele>811.4</ele>
        <time>2018-12-29T15:12:42Z</time>
      </trkpt>
      <trkpt lat="45.81301" lon="2.95219">
        <ele>811.4</ele>
        <time>2018-12-29T15:12:43Z</time>
      </trkpt>
      <trkpt lat="45.81305" lon="2.9523">
        <ele>811.4</ele>
        <time>2018-12-29T15:12:45Z</time>
      </trkpt>
      <trkpt lat="45.81314" lon="2.95252">
        <ele>811.4</ele>
        <time>2018-12-29T15:12:49Z</time>
      </trkpt>
      <trkpt lat="45.81323" lon="2.95275">
        <ele>811.4</ele>
        <time>2018-12-29T15:12:53Z</time>
      </trkpt>
      <trkpt lat="45.81326" lon="2.95288">
        <ele>811.4</ele>
        <time>2018-12-29T15:12:55Z</time>
      </trkpt>
      <trkpt lat="45.81334" lon="2.9532">
        <ele>811.4</ele>
        <time>2018-12-29T15:13:00Z</time>
      </trkpt>
      <trkpt lat="45.81339" lon="2.9533">
        <ele>811.4</ele>
        <time>2018-12-29T15:13:02Z</time>
      </trkpt>
      <trkpt lat="45.81359" lon="2.95347">
        <ele>811.4</ele>
        <time>2018-12-29T15:13:07Z</time>
      </trkpt>
      <trkpt lat="45.81379" lon="2.95347">
        <ele>811.4</ele>
        <time>2018-12-29T15:13:11Z</time>
      </trkpt>
      <trkpt lat="45.81397" lon="2.95329">
        <ele>811.4</ele>
        <time>2018-12-29T15:13:15Z</time>
      </trkpt>
      <trkpt lat="45.81403" lon="2.95319">
        <ele>811.4</ele>
        <time>2018-12-29T15:13:17Z</time>
      </trkpt>
      <trkpt lat="45.81406" lon="2.95318">
        <ele>811.4</ele>
        <time>2018-12-29T15:13:18Z</time>
      </trkpt>
      <trkpt lat="45.8141" lon="2.95318">
        <ele>811.4</ele>
        <time>2018-12-29T15:13:19Z</time>
      </trkpt>
      <trkpt lat="45.81426" lon="2.95316">
        <ele>811.4</ele>
        <time>2018-12-29T15:13:23Z</time>
      </trkpt>
      <trkpt lat="45.81429" lon="2.95316">
        <ele>811</ele>
        <time>2018-12-29T15:13:24Z</time>
      </trkpt>
      <trkpt lat="45.81432" lon="2.95317">
        <ele>810</ele>
        <time>2018-12-29T15:13:25Z</time>
      </trkpt>
      <trkpt lat="45.81436" lon="2.95321">
        <ele>809.6</ele>
        <time>2018-12-29T15:13:26Z</time>
      </trkpt>
      <trkpt lat="45.8144" lon="2.95325">
        <ele>809.2</ele>
        <time>2018-12-29T15:13:27Z</time>
      </trkpt>
      <trkpt lat="45.81449" lon="2.95334">
        <ele>809.2</ele>
        <time>2018-12-29T15:13:30Z</time>
      </trkpt>
      <trkpt lat="45.81456" lon="2.95342">
        <ele>809.2</ele>
        <time>2018-12-29T15:13:32Z</time>
      </trkpt>
      <trkpt lat="45.81459" lon="2.95352">
        <ele>809.2</ele>
        <time>2018-12-29T15:13:34Z</time>
      </trkpt>
      <trkpt lat="45.81457" lon="2.95356">
        <ele>809.2</ele>
        <time>2018-12-29T15:13:35Z</time>
      </trkpt>
      <trkpt lat="45.81454" lon="2.95377">
        <ele>809.2</ele>
        <time>2018-12-29T15:13:40Z</time>
      </trkpt>
      <trkpt lat="45.81453" lon="2.95388">
        <ele>809.2</ele>
        <time>2018-12-29T15:13:42Z</time>
      </trkpt>
      <trkpt lat="45.81451" lon="2.95397">
        <ele>808.8</ele>
        <time>2018-12-29T15:13:44Z</time>
      </trkpt>
      <trkpt lat="45.81448" lon="2.95402">
        <ele>808.4</ele>
        <time>2018-12-29T15:13:45Z</time>
      </trkpt>
      <trkpt lat="45.81447" lon="2.95407">
        <ele>808</ele>
        <time>2018-12-29T15:13:46Z</time>
      </trkpt>
      <trkpt lat="45.81445" lon="2.95412">
        <ele>807.6</ele>
        <time>2018-12-29T15:13:47Z</time>
      </trkpt>
      <trkpt lat="45.81444" lon="2.95417">
        <ele>807.2</ele>
        <time>2018-12-29T15:13:48Z</time>
      </trkpt>
      <trkpt lat="45.81439" lon="2.95433">
        <ele>807.2</ele>
        <time>2018-12-29T15:13:51Z</time>
      </trkpt>
      <trkpt lat="45.81435" lon="2.9546">
        <ele>807.2</ele>
        <time>2018-12-29T15:13:56Z</time>
      </trkpt>
      <trkpt lat="45.81428" lon="2.95481">
        <ele>807.2</ele>
        <time>2018-12-29T15:14:00Z</time>
      </trkpt>
      <trkpt lat="45.81426" lon="2.95487">
        <ele>807.2</ele>
        <time>2018-12-29T15:14:01Z</time>
      </trkpt>
      <trkpt lat="45.81416" lon="2.95527">
        <ele>807.2</ele>
        <time>2018-12-29T15:14:08Z</time>
      </trkpt>
      <trkpt lat="45.81411" lon="2.95558">
        <ele>807.2</ele>
        <time>2018-12-29T15:14:14Z</time>
      </trkpt>
      <trkpt lat="45.8141" lon="2.95582">
        <ele>807.2</ele>
        <time>2018-12-29T15:14:19Z</time>
      </trkpt>
      <trkpt lat="45.8141" lon="2.95605">
        <ele>807.2</ele>
        <time>2018-12-29T15:14:24Z</time>
      </trkpt>
      <trkpt lat="45.8141" lon="2.95624">
        <ele>807.2</ele>
        <time>2018-12-29T15:14:28Z</time>
      </trkpt>
      <trkpt lat="45.81411" lon="2.9564">
        <ele>807.2</ele>
        <time>2018-12-29T15:14:33Z</time>
      </trkpt>
      <trkpt lat="45.81412" lon="2.95661">
        <ele>807.2</ele>
        <time>2018-12-29T15:14:38Z</time>
      </trkpt>
      <trkpt lat="45.81414" lon="2.95692">
        <ele>807.2</ele>
        <time>2018-12-29T15:14:44Z</time>
      </trkpt>
      <trkpt lat="45.81419" lon="2.95732">
        <ele>807.2</ele>
        <time>2018-12-29T15:14:52Z</time>
      </trkpt>
      <trkpt lat="45.81426" lon="2.95768">
        <ele>807.2</ele>
        <time>2018-12-29T15:15:00Z</time>
      </trkpt>
      <trkpt lat="45.81426" lon="2.95791">
        <ele>807.2</ele>
        <time>2018-12-29T15:15:06Z</time>
      </trkpt>
      <trkpt lat="45.81428" lon="2.95805">
        <ele>807.2</ele>
        <time>2018-12-29T15:15:11Z</time>
      </trkpt>
      <trkpt lat="45.81428" lon="2.95805">
        <ele>807.2</ele>
        <time>2018-12-29T15:15:13Z</time>
      </trkpt>
      <trkpt lat="45.81428" lon="2.95811">
        <ele>807.2</ele>
        <time>2018-12-29T15:15:18Z</time>
      </trkpt>
      <trkpt lat="45.81428" lon="2.9581">
        <ele>807.2</ele>
        <time>2018-12-29T15:15:19Z</time>
      </trkpt>
      <trkpt lat="45.81441" lon="2.95825">
        <ele>809.2</ele>
        <time>2018-12-29T15:19:21Z</time>
      </trkpt>
      <trkpt lat="45.81446" lon="2.9583">
        <ele>809.2</ele>
        <time>2018-12-29T15:19:24Z</time>
      </trkpt>
      <trkpt lat="45.81451" lon="2.95834">
        <ele>809.2</ele>
        <time>2018-12-29T15:19:26Z</time>
      </trkpt>
      <trkpt lat="45.81464" lon="2.95846">
        <ele>809.2</ele>
        <time>2018-12-29T15:19:30Z</time>
      </trkpt>
      <trkpt lat="45.81482" lon="2.95856">
        <ele>809.2</ele>
        <time>2018-12-29T15:19:36Z</time>
      </trkpt>
      <trkpt lat="45.81504" lon="2.95867">
        <ele>809.2</ele>
        <time>2018-12-29T15:19:42Z</time>
      </trkpt>
      <trkpt lat="45.81524" lon="2.9588">
        <ele>809.2</ele>
        <time>2018-12-29T15:19:47Z</time>
      </trkpt>
      <trkpt lat="45.81528" lon="2.95882">
        <ele>809.2</ele>
        <time>2018-12-29T15:19:48Z</time>
      </trkpt>
      <trkpt lat="45.81536" lon="2.95886">
        <ele>809.2</ele>
        <time>2018-12-29T15:19:50Z</time>
      </trkpt>
      <trkpt lat="45.81552" lon="2.95895">
        <ele>809.2</ele>
        <time>2018-12-29T15:19:54Z</time>
      </trkpt>
      <trkpt lat="45.81579" lon="2.95914">
        <ele>809.2</ele>
        <time>2018-12-29T15:20:01Z</time>
      </trkpt>
      <trkpt lat="45.81602" lon="2.95929">
        <ele>809.2</ele>
        <time>2018-12-29T15:20:06Z</time>
      </trkpt>
      <trkpt lat="45.81607" lon="2.95931">
        <ele>809.2</ele>
        <time>2018-12-29T15:20:07Z</time>
      </trkpt>
      <trkpt lat="45.81618" lon="2.95936">
        <ele>809.2</ele>
        <time>2018-12-29T15:20:09Z</time>
      </trkpt>
      <trkpt lat="45.81631" lon="2.95943">
        <ele>809.2</ele>
        <time>2018-12-29T15:20:12Z</time>
      </trkpt>
      <trkpt lat="45.8166" lon="2.95958">
        <ele>809.2</ele>
        <time>2018-12-29T15:20:18Z</time>
      </trkpt>
      <trkpt lat="45.81674" lon="2.95967">
        <ele>809.2</ele>
        <time>2018-12-29T15:20:21Z</time>
      </trkpt>
      <trkpt lat="45.81688" lon="2.95974">
        <ele>809.2</ele>
        <time>2018-12-29T15:20:24Z</time>
      </trkpt>
      <trkpt lat="45.81693" lon="2.95977">
        <ele>809.2</ele>
        <time>2018-12-29T15:20:25Z</time>
      </trkpt>
      <trkpt lat="45.81712" lon="2.95989">
        <ele>809.2</ele>
        <time>2018-12-29T15:20:29Z</time>
      </trkpt>
      <trkpt lat="45.81736" lon="2.96004">
        <ele>809.2</ele>
        <time>2018-12-29T15:20:34Z</time>
      </trkpt>
      <trkpt lat="45.81744" lon="2.9601">
        <ele>809.2</ele>
        <time>2018-12-29T15:20:36Z</time>
      </trkpt>
      <trkpt lat="45.81752" lon="2.96017">
        <ele>809.2</ele>
        <time>2018-12-29T15:20:38Z</time>
      </trkpt>
      <trkpt lat="45.81766" lon="2.96028">
        <ele>809.2</ele>
        <time>2018-12-29T15:20:41Z</time>
      </trkpt>
      <trkpt lat="45.81783" lon="2.96044">
        <ele>809.2</ele>
        <time>2018-12-29T15:20:45Z</time>
      </trkpt>
      <trkpt lat="45.81792" lon="2.96053">
        <ele>809.2</ele>
        <time>2018-12-29T15:20:47Z</time>
      </trkpt>
      <trkpt lat="45.81796" lon="2.96058">
        <ele>809.2</ele>
        <time>2018-12-29T15:20:48Z</time>
      </trkpt>
      <trkpt lat="45.81805" lon="2.96065">
        <ele>809.2</ele>
        <time>2018-12-29T15:20:50Z</time>
      </trkpt>
      <trkpt lat="45.81812" lon="2.96073">
        <ele>809.2</ele>
        <time>2018-12-29T15:20:52Z</time>
      </trkpt>
      <trkpt lat="45.81829" lon="2.96092">
        <ele>809.2</ele>
        <time>2018-12-29T15:20:57Z</time>
      </trkpt>
      <trkpt lat="45.81833" lon="2.96095">
        <ele>809.2</ele>
        <time>2018-12-29T15:20:58Z</time>
      </trkpt>
      <trkpt lat="45.81847" lon="2.96107">
        <ele>809.2</ele>
        <time>2018-12-29T15:21:02Z</time>
      </trkpt>
      <trkpt lat="45.81851" lon="2.96111">
        <ele>809.2</ele>
        <time>2018-12-29T15:21:03Z</time>
      </trkpt>
      <trkpt lat="45.81861" lon="2.96112">
        <ele>809.2</ele>
        <time>2018-12-29T15:21:05Z</time>
      </trkpt>
      <trkpt lat="45.81868" lon="2.96119">
        <ele>809.2</ele>
        <time>2018-12-29T15:21:07Z</time>
      </trkpt>
      <trkpt lat="45.81872" lon="2.96122">
        <ele>809.2</ele>
        <time>2018-12-29T15:21:08Z</time>
      </trkpt>
      <trkpt lat="45.81877" lon="2.96124">
        <ele>809.2</ele>
        <time>2018-12-29T15:21:09Z</time>
      </trkpt>
      <trkpt lat="45.81891" lon="2.96136">
        <ele>809.2</ele>
        <time>2018-12-29T15:21:12Z</time>
      </trkpt>
      <trkpt lat="45.81897" lon="2.9614">
        <ele>809.2</ele>
        <time>2018-12-29T15:21:13Z</time>
      </trkpt>
      <trkpt lat="45.81916" lon="2.96157">
        <ele>809.2</ele>
        <time>2018-12-29T15:21:17Z</time>
      </trkpt>
      <trkpt lat="45.81926" lon="2.96165">
        <ele>809.2</ele>
        <time>2018-12-29T15:21:19Z</time>
      </trkpt>
      <trkpt lat="45.81943" lon="2.96175">
        <ele>809.2</ele>
        <time>2018-12-29T15:21:22Z</time>
      </trkpt>
      <trkpt lat="45.81947" lon="2.96179">
        <ele>809.2</ele>
        <time>2018-12-29T15:21:23Z</time>
      </trkpt>
      <trkpt lat="45.81962" lon="2.96191">
        <ele>809.2</ele>
        <time>2018-12-29T15:21:26Z</time>
      </trkpt>
      <trkpt lat="45.81971" lon="2.96199">
        <ele>809.2</ele>
        <time>2018-12-29T15:21:28Z</time>
      </trkpt>
      <trkpt lat="45.81976" lon="2.96204">
        <ele>809.6</ele>
        <time>2018-12-29T15:21:29Z</time>
      </trkpt>
      <trkpt lat="45.81981" lon="2.96206">
        <ele>810</ele>
        <time>2018-12-29T15:21:30Z</time>
      </trkpt>
      <trkpt lat="45.81987" lon="2.9621">
        <ele>810.4</ele>
        <time>2018-12-29T15:21:31Z</time>
      </trkpt>
      <trkpt lat="45.81991" lon="2.96213">
        <ele>810.8</ele>
        <time>2018-12-29T15:21:32Z</time>
      </trkpt>
      <trkpt lat="45.81995" lon="2.96216">
        <ele>811.2</ele>
        <time>2018-12-29T15:21:33Z</time>
      </trkpt>
      <trkpt lat="45.82011" lon="2.96225">
        <ele>811.2</ele>
        <time>2018-12-29T15:21:36Z</time>
      </trkpt>
      <trkpt lat="45.82037" lon="2.96239">
        <ele>811.2</ele>
        <time>2018-12-29T15:21:41Z</time>
      </trkpt>
      <trkpt lat="45.82054" lon="2.96248">
        <ele>811.2</ele>
        <time>2018-12-29T15:21:45Z</time>
      </trkpt>
      <trkpt lat="45.82059" lon="2.9625">
        <ele>811.2</ele>
        <time>2018-12-29T15:21:46Z</time>
      </trkpt>
      <trkpt lat="45.82073" lon="2.96253">
        <ele>811.2</ele>
        <time>2018-12-29T15:21:49Z</time>
      </trkpt>
      <trkpt lat="45.82077" lon="2.96254">
        <ele>811.2</ele>
        <time>2018-12-29T15:21:50Z</time>
      </trkpt>
      <trkpt lat="45.82082" lon="2.96256">
        <ele>811.2</ele>
        <time>2018-12-29T15:21:51Z</time>
      </trkpt>
      <trkpt lat="45.821" lon="2.96257">
        <ele>811.6</ele>
        <time>2018-12-29T15:21:55Z</time>
      </trkpt>
      <trkpt lat="45.82104" lon="2.96259">
        <ele>812</ele>
        <time>2018-12-29T15:21:56Z</time>
      </trkpt>
      <trkpt lat="45.82109" lon="2.96261">
        <ele>812.4</ele>
        <time>2018-12-29T15:21:57Z</time>
      </trkpt>
      <trkpt lat="45.82113" lon="2.96263">
        <ele>812.8</ele>
        <time>2018-12-29T15:21:58Z</time>
      </trkpt>
      <trkpt lat="45.82118" lon="2.96266">
        <ele>813.4</ele>
        <time>2018-12-29T15:21:59Z</time>
      </trkpt>
      <trkpt lat="45.82143" lon="2.96275">
        <ele>813.4</ele>
        <time>2018-12-29T15:22:05Z</time>
      </trkpt>
      <trkpt lat="45.82147" lon="2.96275">
        <ele>813.8</ele>
        <time>2018-12-29T15:22:06Z</time>
      </trkpt>
      <trkpt lat="45.82149" lon="2.96275">
        <ele>814.2</ele>
        <time>2018-12-29T15:22:07Z</time>
      </trkpt>
      <trkpt lat="45.82152" lon="2.96277">
        <ele>814.6</ele>
        <time>2018-12-29T15:22:08Z</time>
      </trkpt>
      <trkpt lat="45.82155" lon="2.96277">
        <ele>815</ele>
        <time>2018-12-29T15:22:09Z</time>
      </trkpt>
      <trkpt lat="45.82157" lon="2.96278">
        <ele>815.4</ele>
        <time>2018-12-29T15:22:10Z</time>
      </trkpt>
      <trkpt lat="45.82172" lon="2.96283">
        <ele>815.4</ele>
        <time>2018-12-29T15:22:15Z</time>
      </trkpt>
      <trkpt lat="45.82191" lon="2.96284">
        <ele>815.4</ele>
        <time>2018-12-29T15:22:20Z</time>
      </trkpt>
      <trkpt lat="45.82214" lon="2.96286">
        <ele>815.8</ele>
        <time>2018-12-29T15:22:26Z</time>
      </trkpt>
      <trkpt lat="45.82217" lon="2.96287">
        <ele>816.2</ele>
        <time>2018-12-29T15:22:27Z</time>
      </trkpt>
      <trkpt lat="45.82221" lon="2.96288">
        <ele>817</ele>
        <time>2018-12-29T15:22:28Z</time>
      </trkpt>
      <trkpt lat="45.82224" lon="2.96288">
        <ele>817.4</ele>
        <time>2018-12-29T15:22:29Z</time>
      </trkpt>
      <trkpt lat="45.82236" lon="2.96289">
        <ele>817.4</ele>
        <time>2018-12-29T15:22:32Z</time>
      </trkpt>
      <trkpt lat="45.82259" lon="2.96292">
        <ele>817.4</ele>
        <time>2018-12-29T15:22:37Z</time>
      </trkpt>
      <trkpt lat="45.82264" lon="2.96293">
        <ele>817.8</ele>
        <time>2018-12-29T15:22:38Z</time>
      </trkpt>
      <trkpt lat="45.82267" lon="2.96294">
        <ele>818.2</ele>
        <time>2018-12-29T15:22:39Z</time>
      </trkpt>
      <trkpt lat="45.82271" lon="2.96296">
        <ele>818.8</ele>
        <time>2018-12-29T15:22:40Z</time>
      </trkpt>
      <trkpt lat="45.82273" lon="2.96301">
        <ele>819.2</ele>
        <time>2018-12-29T15:22:41Z</time>
      </trkpt>
      <trkpt lat="45.82276" lon="2.96304">
        <ele>819.6</ele>
        <time>2018-12-29T15:22:42Z</time>
      </trkpt>
      <trkpt lat="45.82289" lon="2.96313">
        <ele>819.6</ele>
        <time>2018-12-29T15:22:46Z</time>
      </trkpt>
      <trkpt lat="45.82292" lon="2.96315">
        <ele>819.6</ele>
        <time>2018-12-29T15:22:47Z</time>
      </trkpt>
      <trkpt lat="45.8231" lon="2.96317">
        <ele>820.4</ele>
        <time>2018-12-29T15:22:53Z</time>
      </trkpt>
      <trkpt lat="45.82313" lon="2.96317">
        <ele>820.8</ele>
        <time>2018-12-29T15:22:54Z</time>
      </trkpt>
      <trkpt lat="45.82316" lon="2.96317">
        <ele>821.2</ele>
        <time>2018-12-29T15:22:55Z</time>
      </trkpt>
      <trkpt lat="45.82318" lon="2.96317">
        <ele>821.6</ele>
        <time>2018-12-29T15:22:56Z</time>
      </trkpt>
      <trkpt lat="45.82329" lon="2.96315">
        <ele>821.6</ele>
        <time>2018-12-29T15:22:59Z</time>
      </trkpt>
      <trkpt lat="45.82343" lon="2.96317">
        <ele>821.6</ele>
        <time>2018-12-29T15:23:04Z</time>
      </trkpt>
      <trkpt lat="45.82361" lon="2.96318">
        <ele>822</ele>
        <time>2018-12-29T15:23:10Z</time>
      </trkpt>
      <trkpt lat="45.82364" lon="2.96318">
        <ele>822.4</ele>
        <time>2018-12-29T15:23:11Z</time>
      </trkpt>
      <trkpt lat="45.82367" lon="2.96318">
        <ele>822.8</ele>
        <time>2018-12-29T15:23:12Z</time>
      </trkpt>
      <trkpt lat="45.82371" lon="2.96317">
        <ele>823.2</ele>
        <time>2018-12-29T15:23:13Z</time>
      </trkpt>
      <trkpt lat="45.82373" lon="2.96318">
        <ele>823.8</ele>
        <time>2018-12-29T15:23:14Z</time>
      </trkpt>
      <trkpt lat="45.82377" lon="2.96318">
        <ele>823.8</ele>
        <time>2018-12-29T15:23:15Z</time>
      </trkpt>
      <trkpt lat="45.82397" lon="2.96319">
        <ele>823.8</ele>
        <time>2018-12-29T15:23:20Z</time>
      </trkpt>
      <trkpt lat="45.82405" lon="2.96319">
        <ele>824.2</ele>
        <time>2018-12-29T15:23:22Z</time>
      </trkpt>
      <trkpt lat="45.82408" lon="2.9632">
        <ele>824.6</ele>
        <time>2018-12-29T15:23:23Z</time>
      </trkpt>
      <trkpt lat="45.82413" lon="2.96321">
        <ele>825</ele>
        <time>2018-12-29T15:23:24Z</time>
      </trkpt>
      <trkpt lat="45.82416" lon="2.96321">
        <ele>825.6</ele>
        <time>2018-12-29T15:23:25Z</time>
      </trkpt>
      <trkpt lat="45.82418" lon="2.96321">
        <ele>826</ele>
        <time>2018-12-29T15:23:26Z</time>
      </trkpt>
      <trkpt lat="45.8243" lon="2.96318">
        <ele>826</ele>
        <time>2018-12-29T15:23:31Z</time>
      </trkpt>
      <trkpt lat="45.82437" lon="2.96316">
        <ele>826</ele>
        <time>2018-12-29T15:23:34Z</time>
      </trkpt>
      <trkpt lat="45.82439" lon="2.96316">
        <ele>826</ele>
        <time>2018-12-29T15:23:35Z</time>
      </trkpt>
      <trkpt lat="45.82447" lon="2.96313">
        <ele>826</ele>
        <time>2018-12-29T15:23:41Z</time>
      </trkpt>
      <trkpt lat="45.82448" lon="2.96314">
        <ele>826</ele>
        <time>2018-12-29T15:23:42Z</time>
      </trkpt>
      <trkpt lat="45.82448" lon="2.96317">
        <ele>826</ele>
        <time>2018-12-29T15:23:44Z</time>
      </trkpt>
      <trkpt lat="45.82447" lon="2.96317">
        <ele>826</ele>
        <time>2018-12-29T15:23:48Z</time>
      </trkpt>
      <trkpt lat="45.82446" lon="2.96319">
        <ele>826</ele>
        <time>2018-12-29T15:23:49Z</time>
      </trkpt>
      <trkpt lat="45.82445" lon="2.96327">
        <ele>826</ele>
        <time>2018-12-29T15:23:52Z</time>
      </trkpt>
      <trkpt lat="45.82447" lon="2.96328">
        <ele>826</ele>
        <time>2018-12-29T15:23:53Z</time>
      </trkpt>
      <trkpt lat="45.82454" lon="2.96329">
        <ele>826</ele>
        <time>2018-12-29T15:23:55Z</time>
      </trkpt>
      <trkpt lat="45.8246" lon="2.96333">
        <ele>826</ele>
        <time>2018-12-29T15:23:58Z</time>
      </trkpt>
      <trkpt lat="45.82463" lon="2.96336">
        <ele>826</ele>
        <time>2018-12-29T15:24:00Z</time>
      </trkpt>
      <trkpt lat="45.8248" lon="2.96338">
        <ele>826</ele>
        <time>2018-12-29T15:24:06Z</time>
      </trkpt>
      <trkpt lat="45.82487" lon="2.96343">
        <ele>826</ele>
        <time>2018-12-29T15:24:12Z</time>
      </trkpt>
      <trkpt lat="45.82494" lon="2.96344">
        <ele>826</ele>
        <time>2018-12-29T15:24:17Z</time>
      </trkpt>
      <trkpt lat="45.82495" lon="2.96345">
        <ele>826</ele>
        <time>2018-12-29T15:24:18Z</time>
      </trkpt>
      <trkpt lat="45.82497" lon="2.96351">
        <ele>826</ele>
        <time>2018-12-29T15:24:21Z</time>
      </trkpt>
      <trkpt lat="45.82502" lon="2.96354">
        <ele>826</ele>
        <time>2018-12-29T15:24:25Z</time>
      </trkpt>
      <trkpt lat="45.82505" lon="2.96354">
        <ele>826</ele>
        <time>2018-12-29T15:24:26Z</time>
      </trkpt>
      <trkpt lat="45.82514" lon="2.96354">
        <ele>826</ele>
        <time>2018-12-29T15:24:29Z</time>
      </trkpt>
      <trkpt lat="45.82518" lon="2.96353">
        <ele>826</ele>
        <time>2018-12-29T15:24:31Z</time>
      </trkpt>
      <trkpt lat="45.8252" lon="2.96352">
        <ele>826</ele>
        <time>2018-12-29T15:24:32Z</time>
      </trkpt>
      <trkpt lat="45.82529" lon="2.96357">
        <ele>826</ele>
        <time>2018-12-29T15:24:37Z</time>
      </trkpt>
      <trkpt lat="45.82533" lon="2.96359">
        <ele>826</ele>
        <time>2018-12-29T15:24:40Z</time>
      </trkpt>
      <trkpt lat="45.82536" lon="2.96361">
        <ele>826</ele>
        <time>2018-12-29T15:24:43Z</time>
      </trkpt>
      <trkpt lat="45.82544" lon="2.96366">
        <ele>826</ele>
        <time>2018-12-29T15:24:49Z</time>
      </trkpt>
      <trkpt lat="45.82546" lon="2.96367">
        <ele>826</ele>
        <time>2018-12-29T15:24:50Z</time>
      </trkpt>
      <trkpt lat="45.82547" lon="2.96369">
        <ele>826</ele>
        <time>2018-12-29T15:24:52Z</time>
      </trkpt>
      <trkpt lat="45.82585" lon="2.96401">
        <ele>823.8</ele>
        <time>2018-12-29T15:27:14Z</time>
      </trkpt>
      <trkpt lat="45.82597" lon="2.9641">
        <ele>823.8</ele>
        <time>2018-12-29T15:27:19Z</time>
      </trkpt>
      <trkpt lat="45.82609" lon="2.96418">
        <ele>823.8</ele>
        <time>2018-12-29T15:27:24Z</time>
      </trkpt>
      <trkpt lat="45.82613" lon="2.96424">
        <ele>823.8</ele>
        <time>2018-12-29T15:27:29Z</time>
      </trkpt>
      <trkpt lat="45.82615" lon="2.96425">
        <ele>823.4</ele>
        <time>2018-12-29T15:27:46Z</time>
      </trkpt>
      <trkpt lat="45.82617" lon="2.96425">
        <ele>823</ele>
        <time>2018-12-29T15:27:47Z</time>
      </trkpt>
      <trkpt lat="45.82619" lon="2.96426">
        <ele>822.6</ele>
        <time>2018-12-29T15:27:48Z</time>
      </trkpt>
      <trkpt lat="45.82621" lon="2.96426">
        <ele>821.6</ele>
        <time>2018-12-29T15:27:49Z</time>
      </trkpt>
      <trkpt lat="45.82624" lon="2.96426">
        <ele>821.6</ele>
        <time>2018-12-29T15:27:51Z</time>
      </trkpt>
      <trkpt lat="45.82634" lon="2.96426">
        <ele>821.6</ele>
        <time>2018-12-29T15:27:55Z</time>
      </trkpt>
      <trkpt lat="45.82638" lon="2.96428">
        <ele>821.6</ele>
        <time>2018-12-29T15:27:57Z</time>
      </trkpt>
      <trkpt lat="45.82642" lon="2.96431">
        <ele>821.6</ele>
        <time>2018-12-29T15:28:00Z</time>
      </trkpt>
      <trkpt lat="45.82643" lon="2.96432">
        <ele>821.6</ele>
        <time>2018-12-29T15:28:01Z</time>
      </trkpt>
      <trkpt lat="45.82649" lon="2.96438">
        <ele>821.6</ele>
        <time>2018-12-29T15:28:05Z</time>
      </trkpt>
      <trkpt lat="45.82661" lon="2.96446">
        <ele>821.6</ele>
        <time>2018-12-29T15:28:10Z</time>
      </trkpt>
      <trkpt lat="45.82663" lon="2.96449">
        <ele>821.2</ele>
        <time>2018-12-29T15:28:11Z</time>
      </trkpt>
      <trkpt lat="45.82666" lon="2.96451">
        <ele>820.8</ele>
        <time>2018-12-29T15:28:12Z</time>
      </trkpt>
      <trkpt lat="45.82669" lon="2.96453">
        <ele>820.4</ele>
        <time>2018-12-29T15:28:13Z</time>
      </trkpt>
      <trkpt lat="45.82672" lon="2.96455">
        <ele>819.4</ele>
        <time>2018-12-29T15:28:14Z</time>
      </trkpt>
      <trkpt lat="45.82678" lon="2.9646">
        <ele>819.4</ele>
        <time>2018-12-29T15:28:16Z</time>
      </trkpt>
      <trkpt lat="45.82687" lon="2.96469">
        <ele>819</ele>
        <time>2018-12-29T15:28:20Z</time>
      </trkpt>
      <trkpt lat="45.82689" lon="2.96472">
        <ele>818.6</ele>
        <time>2018-12-29T15:28:21Z</time>
      </trkpt>
      <trkpt lat="45.8269" lon="2.96474">
        <ele>818.2</ele>
        <time>2018-12-29T15:28:22Z</time>
      </trkpt>
      <trkpt lat="45.82692" lon="2.96475">
        <ele>817.8</ele>
        <time>2018-12-29T15:28:23Z</time>
      </trkpt>
      <trkpt lat="45.82694" lon="2.96477">
        <ele>817.4</ele>
        <time>2018-12-29T15:28:24Z</time>
      </trkpt>
      <trkpt lat="45.82697" lon="2.96481">
        <ele>817.4</ele>
        <time>2018-12-29T15:28:26Z</time>
      </trkpt>
      <trkpt lat="45.82706" lon="2.96489">
        <ele>817.4</ele>
        <time>2018-12-29T15:28:31Z</time>
      </trkpt>
      <trkpt lat="45.8271" lon="2.96493">
        <ele>817</ele>
        <time>2018-12-29T15:28:34Z</time>
      </trkpt>
      <trkpt lat="45.82711" lon="2.96495">
        <ele>816.6</ele>
        <time>2018-12-29T15:28:35Z</time>
      </trkpt>
      <trkpt lat="45.82712" lon="2.96496">
        <ele>816.2</ele>
        <time>2018-12-29T15:28:36Z</time>
      </trkpt>
      <trkpt lat="45.82714" lon="2.96497">
        <ele>815.8</ele>
        <time>2018-12-29T15:28:37Z</time>
      </trkpt>
      <trkpt lat="45.82716" lon="2.96498">
        <ele>815.4</ele>
        <time>2018-12-29T15:28:38Z</time>
      </trkpt>
      <trkpt lat="45.82721" lon="2.96504">
        <ele>815.4</ele>
        <time>2018-12-29T15:28:42Z</time>
      </trkpt>
      <trkpt lat="45.82728" lon="2.96511">
        <ele>815.4</ele>
        <time>2018-12-29T15:28:46Z</time>
      </trkpt>
      <trkpt lat="45.82733" lon="2.96518">
        <ele>814.8</ele>
        <time>2018-12-29T15:28:48Z</time>
      </trkpt>
      <trkpt lat="45.82736" lon="2.96521">
        <ele>814.4</ele>
        <time>2018-12-29T15:28:49Z</time>
      </trkpt>
      <trkpt lat="45.82738" lon="2.96524">
        <ele>814</ele>
        <time>2018-12-29T15:28:50Z</time>
      </trkpt>
      <trkpt lat="45.82741" lon="2.96528">
        <ele>813.6</ele>
        <time>2018-12-29T15:28:51Z</time>
      </trkpt>
      <trkpt lat="45.82743" lon="2.96532">
        <ele>813</ele>
        <time>2018-12-29T15:28:52Z</time>
      </trkpt>
      <trkpt lat="45.82751" lon="2.96544">
        <ele>813</ele>
        <time>2018-12-29T15:28:55Z</time>
      </trkpt>
      <trkpt lat="45.82756" lon="2.96552">
        <ele>812.6</ele>
        <time>2018-12-29T15:28:57Z</time>
      </trkpt>
      <trkpt lat="45.82757" lon="2.96557">
        <ele>812.2</ele>
        <time>2018-12-29T15:28:58Z</time>
      </trkpt>
      <trkpt lat="45.82759" lon="2.96562">
        <ele>811.8</ele>
        <time>2018-12-29T15:28:59Z</time>
      </trkpt>
      <trkpt lat="45.82762" lon="2.96566">
        <ele>811.4</ele>
        <time>2018-12-29T15:29:00Z</time>
      </trkpt>
      <trkpt lat="45.82764" lon="2.9657">
        <ele>811</ele>
        <time>2018-12-29T15:29:01Z</time>
      </trkpt>
      <trkpt lat="45.82772" lon="2.96585">
        <ele>811</ele>
        <time>2018-12-29T15:29:04Z</time>
      </trkpt>
      <trkpt lat="45.82786" lon="2.96611">
        <ele>811</ele>
        <time>2018-12-29T15:29:10Z</time>
      </trkpt>
      <trkpt lat="45.82801" lon="2.96639">
        <ele>811</ele>
        <time>2018-12-29T15:29:16Z</time>
      </trkpt>
      <trkpt lat="45.82802" lon="2.96642">
        <ele>810.6</ele>
        <time>2018-12-29T15:29:17Z</time>
      </trkpt>
      <trkpt lat="45.82804" lon="2.96645">
        <ele>810.2</ele>
        <time>2018-12-29T15:29:18Z</time>
      </trkpt>
      <trkpt lat="45.82806" lon="2.96648">
        <ele>809.8</ele>
        <time>2018-12-29T15:29:19Z</time>
      </trkpt>
      <trkpt lat="45.82808" lon="2.96651">
        <ele>809.4</ele>
        <time>2018-12-29T15:29:20Z</time>
      </trkpt>
      <trkpt lat="45.82809" lon="2.96653">
        <ele>809</ele>
        <time>2018-12-29T15:29:21Z</time>
      </trkpt>
      <trkpt lat="45.82812" lon="2.96658">
        <ele>809</ele>
        <time>2018-12-29T15:29:25Z</time>
      </trkpt>
      <trkpt lat="45.82813" lon="2.96659">
        <ele>809</ele>
        <time>2018-12-29T15:29:26Z</time>
      </trkpt>
      <trkpt lat="45.82818" lon="2.9667">
        <ele>809</ele>
        <time>2018-12-29T15:29:29Z</time>
      </trkpt>
      <trkpt lat="45.82824" lon="2.96685">
        <ele>809</ele>
        <time>2018-12-29T15:29:33Z</time>
      </trkpt>
      <trkpt lat="45.82829" lon="2.96697">
        <ele>809</ele>
        <time>2018-12-29T15:29:36Z</time>
      </trkpt>
      <trkpt lat="45.82832" lon="2.96706">
        <ele>809</ele>
        <time>2018-12-29T15:29:38Z</time>
      </trkpt>
      <trkpt lat="45.82841" lon="2.96724">
        <ele>809</ele>
        <time>2018-12-29T15:29:42Z</time>
      </trkpt>
      <trkpt lat="45.82843" lon="2.96728">
        <ele>808.6</ele>
        <time>2018-12-29T15:29:43Z</time>
      </trkpt>
      <trkpt lat="45.82845" lon="2.96734">
        <ele>808.2</ele>
        <time>2018-12-29T15:29:44Z</time>
      </trkpt>
      <trkpt lat="45.82847" lon="2.96739">
        <ele>807.8</ele>
        <time>2018-12-29T15:29:45Z</time>
      </trkpt>
      <trkpt lat="45.8285" lon="2.96744">
        <ele>807.4</ele>
        <time>2018-12-29T15:29:46Z</time>
      </trkpt>
      <trkpt lat="45.82852" lon="2.9675">
        <ele>806.8</ele>
        <time>2018-12-29T15:29:47Z</time>
      </trkpt>
      <trkpt lat="45.82861" lon="2.96772">
        <ele>806.4</ele>
        <time>2018-12-29T15:29:51Z</time>
      </trkpt>
      <trkpt lat="45.82863" lon="2.96778">
        <ele>806</ele>
        <time>2018-12-29T15:29:52Z</time>
      </trkpt>
      <trkpt lat="45.82865" lon="2.96785">
        <ele>805.2</ele>
        <time>2018-12-29T15:29:53Z</time>
      </trkpt>
      <trkpt lat="45.82868" lon="2.96791">
        <ele>804.8</ele>
        <time>2018-12-29T15:29:54Z</time>
      </trkpt>
      <trkpt lat="45.82878" lon="2.96816">
        <ele>804.4</ele>
        <time>2018-12-29T15:29:58Z</time>
      </trkpt>
      <trkpt lat="45.82881" lon="2.96821">
        <ele>804</ele>
        <time>2018-12-29T15:29:59Z</time>
      </trkpt>
      <trkpt lat="45.82885" lon="2.96826">
        <ele>803.6</ele>
        <time>2018-12-29T15:30:00Z</time>
      </trkpt>
      <trkpt lat="45.82888" lon="2.9683">
        <ele>803</ele>
        <time>2018-12-29T15:30:01Z</time>
      </trkpt>
      <trkpt lat="45.82891" lon="2.96834">
        <ele>802.4</ele>
        <time>2018-12-29T15:30:02Z</time>
      </trkpt>
      <trkpt lat="45.82893" lon="2.96837">
        <ele>801.8</ele>
        <time>2018-12-29T15:30:03Z</time>
      </trkpt>
      <trkpt lat="45.82894" lon="2.96841">
        <ele>801.4</ele>
        <time>2018-12-29T15:30:04Z</time>
      </trkpt>
      <trkpt lat="45.82896" lon="2.96844">
        <ele>800.8</ele>
        <time>2018-12-29T15:30:05Z</time>
      </trkpt>
      <trkpt lat="45.82898" lon="2.96846">
        <ele>800.2</ele>
        <time>2018-12-29T15:30:06Z</time>
      </trkpt>
      <trkpt lat="45.82902" lon="2.96852">
        <ele>800.2</ele>
        <time>2018-12-29T15:30:08Z</time>
      </trkpt>
      <trkpt lat="45.82904" lon="2.96856">
        <ele>799.8</ele>
        <time>2018-12-29T15:30:09Z</time>
      </trkpt>
      <trkpt lat="45.82908" lon="2.96861">
        <ele>799.4</ele>
        <time>2018-12-29T15:30:10Z</time>
      </trkpt>
      <trkpt lat="45.82912" lon="2.96866">
        <ele>798.8</ele>
        <time>2018-12-29T15:30:11Z</time>
      </trkpt>
      <trkpt lat="45.82914" lon="2.9687">
        <ele>798.4</ele>
        <time>2018-12-29T15:30:12Z</time>
      </trkpt>
      <trkpt lat="45.82915" lon="2.96873">
        <ele>798</ele>
        <time>2018-12-29T15:30:13Z</time>
      </trkpt>
      <trkpt lat="45.82916" lon="2.96874">
        <ele>798</ele>
        <time>2018-12-29T15:30:14Z</time>
      </trkpt>
      <trkpt lat="45.82919" lon="2.96878">
        <ele>797.6</ele>
        <time>2018-12-29T15:30:16Z</time>
      </trkpt>
      <trkpt lat="45.8292" lon="2.96879">
        <ele>797.2</ele>
        <time>2018-12-29T15:30:17Z</time>
      </trkpt>
      <trkpt lat="45.82922" lon="2.9688">
        <ele>796.4</ele>
        <time>2018-12-29T15:30:18Z</time>
      </trkpt>
      <trkpt lat="45.82923" lon="2.96881">
        <ele>796</ele>
        <time>2018-12-29T15:30:19Z</time>
      </trkpt>
      <trkpt lat="45.82925" lon="2.96883">
        <ele>796</ele>
        <time>2018-12-29T15:30:20Z</time>
      </trkpt>
      <trkpt lat="45.82928" lon="2.96893">
        <ele>796</ele>
        <time>2018-12-29T15:30:25Z</time>
      </trkpt>
      <trkpt lat="45.82931" lon="2.96899">
        <ele>796</ele>
        <time>2018-12-29T15:30:31Z</time>
      </trkpt>
      <trkpt lat="45.82935" lon="2.96904">
        <ele>796</ele>
        <time>2018-12-29T15:30:34Z</time>
      </trkpt>
      <trkpt lat="45.82936" lon="2.96904">
        <ele>796</ele>
        <time>2018-12-29T15:30:35Z</time>
      </trkpt>
      <trkpt lat="45.82938" lon="2.96904">
        <ele>796</ele>
        <time>2018-12-29T15:30:37Z</time>
      </trkpt>
      <trkpt lat="45.82938" lon="2.96905">
        <ele>796</ele>
        <time>2018-12-29T15:30:51Z</time>
      </trkpt>
      <trkpt lat="45.82939" lon="2.96909">
        <ele>795.6</ele>
        <time>2018-12-29T15:30:53Z</time>
      </trkpt>
      <trkpt lat="45.82941" lon="2.96913">
        <ele>795.2</ele>
        <time>2018-12-29T15:30:54Z</time>
      </trkpt>
      <trkpt lat="45.82943" lon="2.96917">
        <ele>794.8</ele>
        <time>2018-12-29T15:30:55Z</time>
      </trkpt>
      <trkpt lat="45.82945" lon="2.96921">
        <ele>794.4</ele>
        <time>2018-12-29T15:30:56Z</time>
      </trkpt>
      <trkpt lat="45.82947" lon="2.96926">
        <ele>793.8</ele>
        <time>2018-12-29T15:30:57Z</time>
      </trkpt>
      <trkpt lat="45.82952" lon="2.96934">
        <ele>793.8</ele>
        <time>2018-12-29T15:30:59Z</time>
      </trkpt>
      <trkpt lat="45.8296" lon="2.96948">
        <ele>793.8</ele>
        <time>2018-12-29T15:31:03Z</time>
      </trkpt>
      <trkpt lat="45.82962" lon="2.96955">
        <ele>793.8</ele>
        <time>2018-12-29T15:31:07Z</time>
      </trkpt>
      <trkpt lat="45.82962" lon="2.96957">
        <ele>793.8</ele>
        <time>2018-12-29T15:31:09Z</time>
      </trkpt>
      <trkpt lat="45.82965" lon="2.96963">
        <ele>791.8</ele>
        <time>2018-12-29T15:31:24Z</time>
      </trkpt>
      <trkpt lat="45.82966" lon="2.96966">
        <ele>791.8</ele>
        <time>2018-12-29T15:31:25Z</time>
      </trkpt>
      <trkpt lat="45.82971" lon="2.96986">
        <ele>791.8</ele>
        <time>2018-12-29T15:31:30Z</time>
      </trkpt>
      <trkpt lat="45.82973" lon="2.9699">
        <ele>791.8</ele>
        <time>2018-12-29T15:31:31Z</time>
      </trkpt>
      <trkpt lat="45.82975" lon="2.96995">
        <ele>791.8</ele>
        <time>2018-12-29T15:31:33Z</time>
      </trkpt>
      <trkpt lat="45.82974" lon="2.96997">
        <ele>791.8</ele>
        <time>2018-12-29T15:31:34Z</time>
      </trkpt>
      <trkpt lat="45.82973" lon="2.97001">
        <ele>791.8</ele>
        <time>2018-12-29T15:31:37Z</time>
      </trkpt>
      <trkpt lat="45.82974" lon="2.97007">
        <ele>791.8</ele>
        <time>2018-12-29T15:31:42Z</time>
      </trkpt>
      <trkpt lat="45.82975" lon="2.97009">
        <ele>791.8</ele>
        <time>2018-12-29T15:31:43Z</time>
      </trkpt>
      <trkpt lat="45.82975" lon="2.9701">
        <ele>791.8</ele>
        <time>2018-12-29T15:31:44Z</time>
      </trkpt>
      <trkpt lat="45.82985" lon="2.97063">
        <ele>791.8</ele>
        <time>2018-12-29T15:33:44Z</time>
      </trkpt>
      <trkpt lat="45.82984" lon="2.97065">
        <ele>791.8</ele>
        <time>2018-12-29T15:33:45Z</time>
      </trkpt>
      <trkpt lat="45.82985" lon="2.97078">
        <ele>791.4</ele>
        <time>2018-12-29T15:33:49Z</time>
      </trkpt>
      <trkpt lat="45.82985" lon="2.97083">
        <ele>791</ele>
        <time>2018-12-29T15:33:50Z</time>
      </trkpt>
      <trkpt lat="45.82985" lon="2.97088">
        <ele>790.6</ele>
        <time>2018-12-29T15:33:51Z</time>
      </trkpt>
      <trkpt lat="45.82985" lon="2.97093">
        <ele>790.2</ele>
        <time>2018-12-29T15:33:52Z</time>
      </trkpt>
      <trkpt lat="45.82986" lon="2.97097">
        <ele>789.8</ele>
        <time>2018-12-29T15:33:53Z</time>
      </trkpt>
      <trkpt lat="45.82987" lon="2.97107">
        <ele>789.8</ele>
        <time>2018-12-29T15:33:55Z</time>
      </trkpt>
      <trkpt lat="45.82989" lon="2.97124">
        <ele>789.8</ele>
        <time>2018-12-29T15:33:58Z</time>
      </trkpt>
      <trkpt lat="45.82993" lon="2.97136">
        <ele>789.8</ele>
        <time>2018-12-29T15:34:00Z</time>
      </trkpt>
      <trkpt lat="45.82996" lon="2.97142">
        <ele>789.4</ele>
        <time>2018-12-29T15:34:01Z</time>
      </trkpt>
      <trkpt lat="45.82998" lon="2.97149">
        <ele>789</ele>
        <time>2018-12-29T15:34:02Z</time>
      </trkpt>
      <trkpt lat="45.83001" lon="2.97156">
        <ele>788.6</ele>
        <time>2018-12-29T15:34:03Z</time>
      </trkpt>
      <trkpt lat="45.83003" lon="2.97163">
        <ele>788.2</ele>
        <time>2018-12-29T15:34:04Z</time>
      </trkpt>
      <trkpt lat="45.83006" lon="2.9717">
        <ele>787.8</ele>
        <time>2018-12-29T15:34:05Z</time>
      </trkpt>
      <trkpt lat="45.8301" lon="2.97183">
        <ele>787.8</ele>
        <time>2018-12-29T15:34:07Z</time>
      </trkpt>
      <trkpt lat="45.83012" lon="2.9719">
        <ele>787.4</ele>
        <time>2018-12-29T15:34:08Z</time>
      </trkpt>
      <trkpt lat="45.83014" lon="2.97193">
        <ele>787</ele>
        <time>2018-12-29T15:34:09Z</time>
      </trkpt>
      <trkpt lat="45.83015" lon="2.97195">
        <ele>786.6</ele>
        <time>2018-12-29T15:34:10Z</time>
      </trkpt>
      <trkpt lat="45.83015" lon="2.97197">
        <ele>786.2</ele>
        <time>2018-12-29T15:34:11Z</time>
      </trkpt>
      <trkpt lat="45.83015" lon="2.97201">
        <ele>785.8</ele>
        <time>2018-12-29T15:34:12Z</time>
      </trkpt>
      <trkpt lat="45.83016" lon="2.97203">
        <ele>785.8</ele>
        <time>2018-12-29T15:34:13Z</time>
      </trkpt>
      <trkpt lat="45.83018" lon="2.97207">
        <ele>785.8</ele>
        <time>2018-12-29T15:34:14Z</time>
      </trkpt>
      <trkpt lat="45.83019" lon="2.97211">
        <ele>785.8</ele>
        <time>2018-12-29T15:34:15Z</time>
      </trkpt>
      <trkpt lat="45.83019" lon="2.97214">
        <ele>785.8</ele>
        <time>2018-12-29T15:34:16Z</time>
      </trkpt>
      <trkpt lat="45.8302" lon="2.97225">
        <ele>785.8</ele>
        <time>2018-12-29T15:34:20Z</time>
      </trkpt>
      <trkpt lat="45.83021" lon="2.97229">
        <ele>785.4</ele>
        <time>2018-12-29T15:34:21Z</time>
      </trkpt>
      <trkpt lat="45.83022" lon="2.97234">
        <ele>785</ele>
        <time>2018-12-29T15:34:22Z</time>
      </trkpt>
      <trkpt lat="45.83023" lon="2.97241">
        <ele>784.6</ele>
        <time>2018-12-29T15:34:23Z</time>
      </trkpt>
      <trkpt lat="45.83024" lon="2.97247">
        <ele>784</ele>
        <time>2018-12-29T15:34:24Z</time>
      </trkpt>
      <trkpt lat="45.83026" lon="2.97255">
        <ele>783.2</ele>
        <time>2018-12-29T15:34:25Z</time>
      </trkpt>
      <trkpt lat="45.83028" lon="2.97263">
        <ele>782.6</ele>
        <time>2018-12-29T15:34:26Z</time>
      </trkpt>
      <trkpt lat="45.83031" lon="2.97273">
        <ele>782.2</ele>
        <time>2018-12-29T15:34:27Z</time>
      </trkpt>
      <trkpt lat="45.83032" lon="2.97282">
        <ele>781.4</ele>
        <time>2018-12-29T15:34:28Z</time>
      </trkpt>
      <trkpt lat="45.83034" lon="2.97291">
        <ele>780.8</ele>
        <time>2018-12-29T15:34:29Z</time>
      </trkpt>
      <trkpt lat="45.83036" lon="2.97298">
        <ele>780</ele>
        <time>2018-12-29T15:34:30Z</time>
      </trkpt>
      <trkpt lat="45.83036" lon="2.97305">
        <ele>779.4</ele>
        <time>2018-12-29T15:34:31Z</time>
      </trkpt>
      <trkpt lat="45.83038" lon="2.97314">
        <ele>778.6</ele>
        <time>2018-12-29T15:34:32Z</time>
      </trkpt>
      <trkpt lat="45.8304" lon="2.97323">
        <ele>778</ele>
        <time>2018-12-29T15:34:33Z</time>
      </trkpt>
      <trkpt lat="45.83043" lon="2.97334">
        <ele>777</ele>
        <time>2018-12-29T15:34:34Z</time>
      </trkpt>
      <trkpt lat="45.83046" lon="2.97346">
        <ele>776.2</ele>
        <time>2018-12-29T15:34:35Z</time>
      </trkpt>
      <trkpt lat="45.8305" lon="2.97358">
        <ele>775.2</ele>
        <time>2018-12-29T15:34:36Z</time>
      </trkpt>
      <trkpt lat="45.83054" lon="2.9737">
        <ele>774.2</ele>
        <time>2018-12-29T15:34:37Z</time>
      </trkpt>
      <trkpt lat="45.83058" lon="2.97383">
        <ele>773</ele>
        <time>2018-12-29T15:34:38Z</time>
      </trkpt>
      <trkpt lat="45.83063" lon="2.97395">
        <ele>771.8</ele>
        <time>2018-12-29T15:34:39Z</time>
      </trkpt>
      <trkpt lat="45.83067" lon="2.97408">
        <ele>770.6</ele>
        <time>2018-12-29T15:34:40Z</time>
      </trkpt>
      <trkpt lat="45.83071" lon="2.9742">
        <ele>769.4</ele>
        <time>2018-12-29T15:34:41Z</time>
      </trkpt>
      <trkpt lat="45.83075" lon="2.97432">
        <ele>768.2</ele>
        <time>2018-12-29T15:34:42Z</time>
      </trkpt>
      <trkpt lat="45.8308" lon="2.97444">
        <ele>767</ele>
        <time>2018-12-29T15:34:43Z</time>
      </trkpt>
      <trkpt lat="45.83085" lon="2.97457">
        <ele>765.8</ele>
        <time>2018-12-29T15:34:44Z</time>
      </trkpt>
      <trkpt lat="45.83089" lon="2.97469">
        <ele>764.6</ele>
        <time>2018-12-29T15:34:45Z</time>
      </trkpt>
      <trkpt lat="45.83093" lon="2.97481">
        <ele>763.4</ele>
        <time>2018-12-29T15:34:46Z</time>
      </trkpt>
      <trkpt lat="45.83098" lon="2.97492">
        <ele>762.4</ele>
        <time>2018-12-29T15:34:47Z</time>
      </trkpt>
      <trkpt lat="45.83102" lon="2.97503">
        <ele>761.4</ele>
        <time>2018-12-29T15:34:48Z</time>
      </trkpt>
      <trkpt lat="45.83105" lon="2.97516">
        <ele>759.2</ele>
        <time>2018-12-29T15:34:49Z</time>
      </trkpt>
      <trkpt lat="45.83107" lon="2.97528">
        <ele>758.4</ele>
        <time>2018-12-29T15:34:50Z</time>
      </trkpt>
      <trkpt lat="45.83109" lon="2.9754">
        <ele>757.4</ele>
        <time>2018-12-29T15:34:51Z</time>
      </trkpt>
      <trkpt lat="45.8311" lon="2.97553">
        <ele>756.4</ele>
        <time>2018-12-29T15:34:52Z</time>
      </trkpt>
      <trkpt lat="45.83111" lon="2.97565">
        <ele>755.6</ele>
        <time>2018-12-29T15:34:53Z</time>
      </trkpt>
      <trkpt lat="45.83111" lon="2.97578">
        <ele>754.6</ele>
        <time>2018-12-29T15:34:54Z</time>
      </trkpt>
      <trkpt lat="45.83112" lon="2.97591">
        <ele>753.6</ele>
        <time>2018-12-29T15:34:55Z</time>
      </trkpt>
      <trkpt lat="45.83112" lon="2.97604">
        <ele>752.8</ele>
        <time>2018-12-29T15:34:56Z</time>
      </trkpt>
      <trkpt lat="45.83112" lon="2.97619">
        <ele>751.8</ele>
        <time>2018-12-29T15:34:57Z</time>
      </trkpt>
      <trkpt lat="45.83111" lon="2.97633">
        <ele>750.8</ele>
        <time>2018-12-29T15:34:58Z</time>
      </trkpt>
      <trkpt lat="45.83111" lon="2.97648">
        <ele>750</ele>
        <time>2018-12-29T15:34:59Z</time>
      </trkpt>
      <trkpt lat="45.8311" lon="2.97661">
        <ele>749.2</ele>
        <time>2018-12-29T15:35:00Z</time>
      </trkpt>
      <trkpt lat="45.83109" lon="2.97674">
        <ele>748.4</ele>
        <time>2018-12-29T15:35:01Z</time>
      </trkpt>
      <trkpt lat="45.83108" lon="2.97687">
        <ele>747.6</ele>
        <time>2018-12-29T15:35:02Z</time>
      </trkpt>
      <trkpt lat="45.83106" lon="2.977">
        <ele>746.8</ele>
        <time>2018-12-29T15:35:03Z</time>
      </trkpt>
      <trkpt lat="45.83106" lon="2.97759">
        <ele>746.4</ele>
        <time>2018-12-29T15:35:08Z</time>
      </trkpt>
      <trkpt lat="45.83105" lon="2.97769">
        <ele>746</ele>
        <time>2018-12-29T15:35:09Z</time>
      </trkpt>
      <trkpt lat="45.83104" lon="2.97781">
        <ele>745.6</ele>
        <time>2018-12-29T15:35:10Z</time>
      </trkpt>
      <trkpt lat="45.83101" lon="2.97793">
        <ele>745</ele>
        <time>2018-12-29T15:35:11Z</time>
      </trkpt>
      <trkpt lat="45.83098" lon="2.97805">
        <ele>744.4</ele>
        <time>2018-12-29T15:35:12Z</time>
      </trkpt>
      <trkpt lat="45.83094" lon="2.97819">
        <ele>743.8</ele>
        <time>2018-12-29T15:35:13Z</time>
      </trkpt>
      <trkpt lat="45.83091" lon="2.97831">
        <ele>742.6</ele>
        <time>2018-12-29T15:35:14Z</time>
      </trkpt>
      <trkpt lat="45.83088" lon="2.97844">
        <ele>742.6</ele>
        <time>2018-12-29T15:35:15Z</time>
      </trkpt>
      <trkpt lat="45.83082" lon="2.97867">
        <ele>742.6</ele>
        <time>2018-12-29T15:35:17Z</time>
      </trkpt>
      <trkpt lat="45.83071" lon="2.97914">
        <ele>742.2</ele>
        <time>2018-12-29T15:35:21Z</time>
      </trkpt>
      <trkpt lat="45.83069" lon="2.97925">
        <ele>741.8</ele>
        <time>2018-12-29T15:35:22Z</time>
      </trkpt>
      <trkpt lat="45.83067" lon="2.97936">
        <ele>741.4</ele>
        <time>2018-12-29T15:35:23Z</time>
      </trkpt>
      <trkpt lat="45.83065" lon="2.97947">
        <ele>741</ele>
        <time>2018-12-29T15:35:24Z</time>
      </trkpt>
      <trkpt lat="45.83063" lon="2.97958">
        <ele>740.6</ele>
        <time>2018-12-29T15:35:25Z</time>
      </trkpt>
      <trkpt lat="45.83061" lon="2.97969">
        <ele>740.6</ele>
        <time>2018-12-29T15:35:26Z</time>
      </trkpt>
      <trkpt lat="45.83058" lon="2.9798">
        <ele>740.6</ele>
        <time>2018-12-29T15:35:27Z</time>
      </trkpt>
      <trkpt lat="45.83056" lon="2.97991">
        <ele>740.2</ele>
        <time>2018-12-29T15:35:28Z</time>
      </trkpt>
      <trkpt lat="45.83053" lon="2.98003">
        <ele>739.6</ele>
        <time>2018-12-29T15:35:29Z</time>
      </trkpt>
      <trkpt lat="45.8305" lon="2.98013">
        <ele>739.2</ele>
        <time>2018-12-29T15:35:30Z</time>
      </trkpt>
      <trkpt lat="45.83048" lon="2.98023">
        <ele>738.8</ele>
        <time>2018-12-29T15:35:31Z</time>
      </trkpt>
      <trkpt lat="45.83045" lon="2.98034">
        <ele>738.4</ele>
        <time>2018-12-29T15:35:32Z</time>
      </trkpt>
      <trkpt lat="45.83043" lon="2.98042">
        <ele>738.4</ele>
        <time>2018-12-29T15:35:33Z</time>
      </trkpt>
      <trkpt lat="45.83043" lon="2.98052">
        <ele>738.4</ele>
        <time>2018-12-29T15:35:35Z</time>
      </trkpt>
      <trkpt lat="45.83045" lon="2.98053">
        <ele>738.4</ele>
        <time>2018-12-29T15:35:36Z</time>
      </trkpt>
      <trkpt lat="45.83045" lon="2.98053">
        <ele>738.4</ele>
        <time>2018-12-29T15:35:38Z</time>
      </trkpt>
      <trkpt lat="45.83048" lon="2.98047">
        <ele>740</ele>
        <time>2018-12-29T15:36:37Z</time>
      </trkpt>
      <trkpt lat="45.8305" lon="2.98046">
        <ele>740.4</ele>
        <time>2018-12-29T15:36:38Z</time>
      </trkpt>
      <trkpt lat="45.83061" lon="2.98032">
        <ele>740.4</ele>
        <time>2018-12-29T15:36:43Z</time>
      </trkpt>
      <trkpt lat="45.83076" lon="2.98014">
        <ele>740.4</ele>
        <time>2018-12-29T15:36:48Z</time>
      </trkpt>
      <trkpt lat="45.83092" lon="2.97993">
        <ele>740.4</ele>
        <time>2018-12-29T15:36:53Z</time>
      </trkpt>
      <trkpt lat="45.83106" lon="2.97976">
        <ele>740.4</ele>
        <time>2018-12-29T15:36:58Z</time>
      </trkpt>
      <trkpt lat="45.83116" lon="2.97963">
        <ele>740.4</ele>
        <time>2018-12-29T15:37:03Z</time>
      </trkpt>
      <trkpt lat="45.83123" lon="2.97957">
        <ele>740.4</ele>
        <time>2018-12-29T15:37:07Z</time>
      </trkpt>
      <trkpt lat="45.83131" lon="2.97953">
        <ele>740.8</ele>
        <time>2018-12-29T15:37:10Z</time>
      </trkpt>
      <trkpt lat="45.83133" lon="2.97951">
        <ele>741.4</ele>
        <time>2018-12-29T15:37:11Z</time>
      </trkpt>
      <trkpt lat="45.83134" lon="2.97949">
        <ele>741.8</ele>
        <time>2018-12-29T15:37:12Z</time>
      </trkpt>
      <trkpt lat="45.83136" lon="2.97948">
        <ele>742.2</ele>
        <time>2018-12-29T15:37:13Z</time>
      </trkpt>
      <trkpt lat="45.83137" lon="2.97946">
        <ele>742.6</ele>
        <time>2018-12-29T15:37:14Z</time>
      </trkpt>
      <trkpt lat="45.8315" lon="2.97933">
        <ele>742.6</ele>
        <time>2018-12-29T15:37:20Z</time>
      </trkpt>
      <trkpt lat="45.83157" lon="2.97929">
        <ele>742.6</ele>
        <time>2018-12-29T15:37:23Z</time>
      </trkpt>
      <trkpt lat="45.83162" lon="2.97927">
        <ele>742.6</ele>
        <time>2018-12-29T15:37:25Z</time>
      </trkpt>
      <trkpt lat="45.83173" lon="2.97925">
        <ele>742.6</ele>
        <time>2018-12-29T15:37:30Z</time>
      </trkpt>
      <trkpt lat="45.83181" lon="2.97921">
        <ele>742.6</ele>
        <time>2018-12-29T15:37:31Z</time>
      </trkpt>
      <trkpt lat="45.832" lon="2.97918">
        <ele>743</ele>
        <time>2018-12-29T15:37:36Z</time>
      </trkpt>
      <trkpt lat="45.83204" lon="2.97916">
        <ele>743.4</ele>
        <time>2018-12-29T15:37:37Z</time>
      </trkpt>
      <trkpt lat="45.83206" lon="2.97916">
        <ele>743.8</ele>
        <time>2018-12-29T15:37:38Z</time>
      </trkpt>
      <trkpt lat="45.83209" lon="2.97915">
        <ele>744.2</ele>
        <time>2018-12-29T15:37:39Z</time>
      </trkpt>
      <trkpt lat="45.8321" lon="2.97915">
        <ele>744.6</ele>
        <time>2018-12-29T15:37:40Z</time>
      </trkpt>
      <trkpt lat="45.83212" lon="2.97916">
        <ele>744.6</ele>
        <time>2018-12-29T15:37:41Z</time>
      </trkpt>
      <trkpt lat="45.83283" lon="2.97885">
        <ele>744.6</ele>
        <time>2018-12-29T15:37:47Z</time>
      </trkpt>
      <trkpt lat="45.83288" lon="2.9789">
        <ele>744.6</ele>
        <time>2018-12-29T15:37:48Z</time>
      </trkpt>
      <trkpt lat="45.83291" lon="2.97892">
        <ele>744.6</ele>
        <time>2018-12-29T15:37:49Z</time>
      </trkpt>
      <trkpt lat="45.83304" lon="2.97889">
        <ele>744.6</ele>
        <time>2018-12-29T15:37:54Z</time>
      </trkpt>
      <trkpt lat="45.83321" lon="2.97889">
        <ele>745</ele>
        <time>2018-12-29T15:37:59Z</time>
      </trkpt>
      <trkpt lat="45.83324" lon="2.97888">
        <ele>745.4</ele>
        <time>2018-12-29T15:38:00Z</time>
      </trkpt>
      <trkpt lat="45.83326" lon="2.97887">
        <ele>745.8</ele>
        <time>2018-12-29T15:38:01Z</time>
      </trkpt>
      <trkpt lat="45.8333" lon="2.97888">
        <ele>746.2</ele>
        <time>2018-12-29T15:38:02Z</time>
      </trkpt>
      <trkpt lat="45.83332" lon="2.97888">
        <ele>746.6</ele>
        <time>2018-12-29T15:38:03Z</time>
      </trkpt>
      <trkpt lat="45.83335" lon="2.97887">
        <ele>746.6</ele>
        <time>2018-12-29T15:38:04Z</time>
      </trkpt>
      <trkpt lat="45.83351" lon="2.97883">
        <ele>746.6</ele>
        <time>2018-12-29T15:38:09Z</time>
      </trkpt>
      <trkpt lat="45.83369" lon="2.9788">
        <ele>746.6</ele>
        <time>2018-12-29T15:38:14Z</time>
      </trkpt>
      <trkpt lat="45.83382" lon="2.97882">
        <ele>746.6</ele>
        <time>2018-12-29T15:38:18Z</time>
      </trkpt>
      <trkpt lat="45.83383" lon="2.97882">
        <ele>746.6</ele>
        <time>2018-12-29T15:38:19Z</time>
      </trkpt>
      <trkpt lat="45.83386" lon="2.97886">
        <ele>746.6</ele>
        <time>2018-12-29T15:38:22Z</time>
      </trkpt>
      <trkpt lat="45.83389" lon="2.97893">
        <ele>746.6</ele>
        <time>2018-12-29T15:38:25Z</time>
      </trkpt>
      <trkpt lat="45.83395" lon="2.97906">
        <ele>746.6</ele>
        <time>2018-12-29T15:38:30Z</time>
      </trkpt>
      <trkpt lat="45.83397" lon="2.97909">
        <ele>746.6</ele>
        <time>2018-12-29T15:38:31Z</time>
      </trkpt>
      <trkpt lat="45.8341" lon="2.97921">
        <ele>746.6</ele>
        <time>2018-12-29T15:38:35Z</time>
      </trkpt>
      <trkpt lat="45.83421" lon="2.97931">
        <ele>746.6</ele>
        <time>2018-12-29T15:38:39Z</time>
      </trkpt>
      <trkpt lat="45.83434" lon="2.97942">
        <ele>746.2</ele>
        <time>2018-12-29T15:38:46Z</time>
      </trkpt>
      <trkpt lat="45.83435" lon="2.97943">
        <ele>745.6</ele>
        <time>2018-12-29T15:38:47Z</time>
      </trkpt>
      <trkpt lat="45.83436" lon="2.97945">
        <ele>745.2</ele>
        <time>2018-12-29T15:38:48Z</time>
      </trkpt>
      <trkpt lat="45.83437" lon="2.97947">
        <ele>744.6</ele>
        <time>2018-12-29T15:38:49Z</time>
      </trkpt>
      <trkpt lat="45.83437" lon="2.97949">
        <ele>744.2</ele>
        <time>2018-12-29T15:38:50Z</time>
      </trkpt>
      <trkpt lat="45.83437" lon="2.97951">
        <ele>744.2</ele>
        <time>2018-12-29T15:38:51Z</time>
      </trkpt>
      <trkpt lat="45.83438" lon="2.97959">
        <ele>743.8</ele>
        <time>2018-12-29T15:38:54Z</time>
      </trkpt>
      <trkpt lat="45.83438" lon="2.9796">
        <ele>743.4</ele>
        <time>2018-12-29T15:38:55Z</time>
      </trkpt>
      <trkpt lat="45.83439" lon="2.97963">
        <ele>742.8</ele>
        <time>2018-12-29T15:38:56Z</time>
      </trkpt>
      <trkpt lat="45.8344" lon="2.97966">
        <ele>742</ele>
        <time>2018-12-29T15:38:57Z</time>
      </trkpt>
      <trkpt lat="45.83444" lon="2.97974">
        <ele>742</ele>
        <time>2018-12-29T15:39:00Z</time>
      </trkpt>
      <trkpt lat="45.83513" lon="2.98028">
        <ele>742</ele>
        <time>2018-12-29T15:39:02Z</time>
      </trkpt>
      <trkpt lat="45.83525" lon="2.98043">
        <ele>741.6</ele>
        <time>2018-12-29T15:39:05Z</time>
      </trkpt>
      <trkpt lat="45.83528" lon="2.98048">
        <ele>741.2</ele>
        <time>2018-12-29T15:39:06Z</time>
      </trkpt>
      <trkpt lat="45.83532" lon="2.98053">
        <ele>740.8</ele>
        <time>2018-12-29T15:39:07Z</time>
      </trkpt>
      <trkpt lat="45.83536" lon="2.98058">
        <ele>740.4</ele>
        <time>2018-12-29T15:39:08Z</time>
      </trkpt>
      <trkpt lat="45.8354" lon="2.98064">
        <ele>740</ele>
        <time>2018-12-29T15:39:09Z</time>
      </trkpt>
      <trkpt lat="45.83547" lon="2.98073">
        <ele>739.4</ele>
        <time>2018-12-29T15:39:11Z</time>
      </trkpt>
      <trkpt lat="45.83551" lon="2.98078">
        <ele>739</ele>
        <time>2018-12-29T15:39:12Z</time>
      </trkpt>
      <trkpt lat="45.83556" lon="2.98084">
        <ele>738.6</ele>
        <time>2018-12-29T15:39:13Z</time>
      </trkpt>
      <trkpt lat="45.83559" lon="2.9809">
        <ele>738.2</ele>
        <time>2018-12-29T15:39:14Z</time>
      </trkpt>
      <trkpt lat="45.83561" lon="2.98096">
        <ele>737.8</ele>
        <time>2018-12-29T15:39:15Z</time>
      </trkpt>
      <trkpt lat="45.83568" lon="2.98109">
        <ele>737.8</ele>
        <time>2018-12-29T15:39:17Z</time>
      </trkpt>
      <trkpt lat="45.83574" lon="2.98121">
        <ele>737.8</ele>
        <time>2018-12-29T15:39:19Z</time>
      </trkpt>
      <trkpt lat="45.83577" lon="2.98127">
        <ele>737.8</ele>
        <time>2018-12-29T15:39:20Z</time>
      </trkpt>
      <trkpt lat="45.83586" lon="2.98143">
        <ele>737.4</ele>
        <time>2018-12-29T15:39:23Z</time>
      </trkpt>
      <trkpt lat="45.83588" lon="2.98148">
        <ele>737</ele>
        <time>2018-12-29T15:39:24Z</time>
      </trkpt>
      <trkpt lat="45.83591" lon="2.98153">
        <ele>736.6</ele>
        <time>2018-12-29T15:39:25Z</time>
      </trkpt>
      <trkpt lat="45.83593" lon="2.98158">
        <ele>736.2</ele>
        <time>2018-12-29T15:39:26Z</time>
      </trkpt>
      <trkpt lat="45.83596" lon="2.98162">
        <ele>735.8</ele>
        <time>2018-12-29T15:39:27Z</time>
      </trkpt>
      <trkpt lat="45.83601" lon="2.98165">
        <ele>735.4</ele>
        <time>2018-12-29T15:39:28Z</time>
      </trkpt>
      <trkpt lat="45.83606" lon="2.98169">
        <ele>734.8</ele>
        <time>2018-12-29T15:39:29Z</time>
      </trkpt>
      <trkpt lat="45.83612" lon="2.98174">
        <ele>734.4</ele>
        <time>2018-12-29T15:39:30Z</time>
      </trkpt>
      <trkpt lat="45.83619" lon="2.9818">
        <ele>733.8</ele>
        <time>2018-12-29T15:39:31Z</time>
      </trkpt>
      <trkpt lat="45.83625" lon="2.98187">
        <ele>733</ele>
        <time>2018-12-29T15:39:32Z</time>
      </trkpt>
      <trkpt lat="45.83631" lon="2.98196">
        <ele>732.2</ele>
        <time>2018-12-29T15:39:33Z</time>
      </trkpt>
      <trkpt lat="45.83637" lon="2.98204">
        <ele>731.4</ele>
        <time>2018-12-29T15:39:34Z</time>
      </trkpt>
      <trkpt lat="45.83643" lon="2.98213">
        <ele>730.6</ele>
        <time>2018-12-29T15:39:35Z</time>
      </trkpt>
      <trkpt lat="45.83648" lon="2.9822">
        <ele>729.8</ele>
        <time>2018-12-29T15:39:36Z</time>
      </trkpt>
      <trkpt lat="45.83653" lon="2.98229">
        <ele>728.8</ele>
        <time>2018-12-29T15:39:37Z</time>
      </trkpt>
      <trkpt lat="45.83669" lon="2.98254">
        <ele>728.4</ele>
        <time>2018-12-29T15:39:40Z</time>
      </trkpt>
      <trkpt lat="45.83674" lon="2.98263">
        <ele>728</ele>
        <time>2018-12-29T15:39:41Z</time>
      </trkpt>
      <trkpt lat="45.83677" lon="2.98273">
        <ele>727.4</ele>
        <time>2018-12-29T15:39:42Z</time>
      </trkpt>
      <trkpt lat="45.83681" lon="2.98282">
        <ele>727</ele>
        <time>2018-12-29T15:39:43Z</time>
      </trkpt>
      <trkpt lat="45.83684" lon="2.98292">
        <ele>726.6</ele>
        <time>2018-12-29T15:39:44Z</time>
      </trkpt>
      <trkpt lat="45.83691" lon="2.98308">
        <ele>726.2</ele>
        <time>2018-12-29T15:39:46Z</time>
      </trkpt>
      <trkpt lat="45.83696" lon="2.98315">
        <ele>725.8</ele>
        <time>2018-12-29T15:39:47Z</time>
      </trkpt>
      <trkpt lat="45.837" lon="2.98323">
        <ele>725.4</ele>
        <time>2018-12-29T15:39:48Z</time>
      </trkpt>
      <trkpt lat="45.83703" lon="2.98332">
        <ele>725</ele>
        <time>2018-12-29T15:39:49Z</time>
      </trkpt>
      <trkpt lat="45.83706" lon="2.9834">
        <ele>724.6</ele>
        <time>2018-12-29T15:39:50Z</time>
      </trkpt>
      <trkpt lat="45.83712" lon="2.98357">
        <ele>724.6</ele>
        <time>2018-12-29T15:39:52Z</time>
      </trkpt>
      <trkpt lat="45.83717" lon="2.98373">
        <ele>724.6</ele>
        <time>2018-12-29T15:39:54Z</time>
      </trkpt>
      <trkpt lat="45.83722" lon="2.98391">
        <ele>724.6</ele>
        <time>2018-12-29T15:39:56Z</time>
      </trkpt>
      <trkpt lat="45.83728" lon="2.98409">
        <ele>724.2</ele>
        <time>2018-12-29T15:39:58Z</time>
      </trkpt>
      <trkpt lat="45.83732" lon="2.98418">
        <ele>723.8</ele>
        <time>2018-12-29T15:39:59Z</time>
      </trkpt>
      <trkpt lat="45.83736" lon="2.98426">
        <ele>723.2</ele>
        <time>2018-12-29T15:40:00Z</time>
      </trkpt>
      <trkpt lat="45.83741" lon="2.98434">
        <ele>722.8</ele>
        <time>2018-12-29T15:40:01Z</time>
      </trkpt>
      <trkpt lat="45.83745" lon="2.98443">
        <ele>722.4</ele>
        <time>2018-12-29T15:40:02Z</time>
      </trkpt>
      <trkpt lat="45.83757" lon="2.98471">
        <ele>722.4</ele>
        <time>2018-12-29T15:40:05Z</time>
      </trkpt>
      <trkpt lat="45.83764" lon="2.98493">
        <ele>722</ele>
        <time>2018-12-29T15:40:07Z</time>
      </trkpt>
      <trkpt lat="45.83767" lon="2.98503">
        <ele>721.4</ele>
        <time>2018-12-29T15:40:08Z</time>
      </trkpt>
      <trkpt lat="45.83771" lon="2.98513">
        <ele>721</ele>
        <time>2018-12-29T15:40:09Z</time>
      </trkpt>
      <trkpt lat="45.83774" lon="2.98523">
        <ele>720.4</ele>
        <time>2018-12-29T15:40:10Z</time>
      </trkpt>
      <trkpt lat="45.83778" lon="2.98532">
        <ele>719.4</ele>
        <time>2018-12-29T15:40:11Z</time>
      </trkpt>
      <trkpt lat="45.83782" lon="2.98542">
        <ele>718.8</ele>
        <time>2018-12-29T15:40:12Z</time>
      </trkpt>
      <trkpt lat="45.83787" lon="2.98552">
        <ele>718.2</ele>
        <time>2018-12-29T15:40:13Z</time>
      </trkpt>
      <trkpt lat="45.83789" lon="2.98561">
        <ele>717.6</ele>
        <time>2018-12-29T15:40:14Z</time>
      </trkpt>
      <trkpt lat="45.83792" lon="2.9857">
        <ele>717</ele>
        <time>2018-12-29T15:40:15Z</time>
      </trkpt>
      <trkpt lat="45.83794" lon="2.98576">
        <ele>716.4</ele>
        <time>2018-12-29T15:40:16Z</time>
      </trkpt>
      <trkpt lat="45.83795" lon="2.98581">
        <ele>715.8</ele>
        <time>2018-12-29T15:40:17Z</time>
      </trkpt>
      <trkpt lat="45.83797" lon="2.98583">
        <ele>715.2</ele>
        <time>2018-12-29T15:40:18Z</time>
      </trkpt>
      <trkpt lat="45.83798" lon="2.98585">
        <ele>714.8</ele>
        <time>2018-12-29T15:40:19Z</time>
      </trkpt>
      <trkpt lat="45.838" lon="2.98586">
        <ele>714.2</ele>
        <time>2018-12-29T15:40:20Z</time>
      </trkpt>
      <trkpt lat="45.83801" lon="2.98587">
        <ele>713.6</ele>
        <time>2018-12-29T15:40:21Z</time>
      </trkpt>
      <trkpt lat="45.83802" lon="2.98588">
        <ele>713.6</ele>
        <time>2018-12-29T15:40:22Z</time>
      </trkpt>
      <trkpt lat="45.83803" lon="2.98589">
        <ele>713.6</ele>
        <time>2018-12-29T15:40:23Z</time>
      </trkpt>
      <trkpt lat="45.83804" lon="2.98589">
        <ele>713.6</ele>
        <time>2018-12-29T15:40:24Z</time>
      </trkpt>
      <trkpt lat="45.83806" lon="2.98593">
        <ele>713.6</ele>
        <time>2018-12-29T15:40:35Z</time>
      </trkpt>
      <trkpt lat="45.83809" lon="2.98596">
        <ele>713.6</ele>
        <time>2018-12-29T15:40:36Z</time>
      </trkpt>
      <trkpt lat="45.8381" lon="2.986">
        <ele>713.6</ele>
        <time>2018-12-29T15:40:37Z</time>
      </trkpt>
      <trkpt lat="45.83814" lon="2.98605">
        <ele>713.2</ele>
        <time>2018-12-29T15:40:38Z</time>
      </trkpt>
      <trkpt lat="45.83818" lon="2.98611">
        <ele>712.6</ele>
        <time>2018-12-29T15:40:39Z</time>
      </trkpt>
      <trkpt lat="45.83821" lon="2.98617">
        <ele>712.2</ele>
        <time>2018-12-29T15:40:40Z</time>
      </trkpt>
      <trkpt lat="45.83825" lon="2.98624">
        <ele>711.8</ele>
        <time>2018-12-29T15:40:41Z</time>
      </trkpt>
      <trkpt lat="45.83829" lon="2.98632">
        <ele>711.2</ele>
        <time>2018-12-29T15:40:42Z</time>
      </trkpt>
      <trkpt lat="45.83833" lon="2.9864">
        <ele>710.8</ele>
        <time>2018-12-29T15:40:43Z</time>
      </trkpt>
      <trkpt lat="45.83836" lon="2.9865">
        <ele>710.4</ele>
        <time>2018-12-29T15:40:44Z</time>
      </trkpt>
      <trkpt lat="45.83837" lon="2.9866">
        <ele>710</ele>
        <time>2018-12-29T15:40:45Z</time>
      </trkpt>
      <trkpt lat="45.83838" lon="2.9867">
        <ele>709.4</ele>
        <time>2018-12-29T15:40:46Z</time>
      </trkpt>
      <trkpt lat="45.83838" lon="2.98681">
        <ele>708.8</ele>
        <time>2018-12-29T15:40:47Z</time>
      </trkpt>
      <trkpt lat="45.83837" lon="2.98691">
        <ele>708.2</ele>
        <time>2018-12-29T15:40:48Z</time>
      </trkpt>
      <trkpt lat="45.83836" lon="2.98702">
        <ele>707.6</ele>
        <time>2018-12-29T15:40:49Z</time>
      </trkpt>
      <trkpt lat="45.83835" lon="2.98711">
        <ele>707</ele>
        <time>2018-12-29T15:40:50Z</time>
      </trkpt>
      <trkpt lat="45.83834" lon="2.98721">
        <ele>707</ele>
        <time>2018-12-29T15:40:51Z</time>
      </trkpt>
      <trkpt lat="45.83832" lon="2.98738">
        <ele>707</ele>
        <time>2018-12-29T15:40:53Z</time>
      </trkpt>
      <trkpt lat="45.8383" lon="2.98748">
        <ele>707</ele>
        <time>2018-12-29T15:40:55Z</time>
      </trkpt>
      <trkpt lat="45.83829" lon="2.98758">
        <ele>707</ele>
        <time>2018-12-29T15:40:59Z</time>
      </trkpt>
      <trkpt lat="45.83828" lon="2.98764">
        <ele>707</ele>
        <time>2018-12-29T15:41:01Z</time>
      </trkpt>
      <trkpt lat="45.83827" lon="2.98768">
        <ele>707</ele>
        <time>2018-12-29T15:41:03Z</time>
      </trkpt>
      <trkpt lat="45.83826" lon="2.9877">
        <ele>707</ele>
        <time>2018-12-29T15:41:08Z</time>
      </trkpt>
      <trkpt lat="45.83826" lon="2.98769">
        <ele>707</ele>
        <time>2018-12-29T15:41:09Z</time>
      </trkpt>
      <trkpt lat="45.83827" lon="2.98762">
        <ele>707</ele>
        <time>2018-12-29T15:41:13Z</time>
      </trkpt>
      <trkpt lat="45.83828" lon="2.98759">
        <ele>707</ele>
        <time>2018-12-29T15:41:14Z</time>
      </trkpt>
      <trkpt lat="45.83831" lon="2.98755">
        <ele>707</ele>
        <time>2018-12-29T15:41:17Z</time>
      </trkpt>
      <trkpt lat="45.83833" lon="2.98751">
        <ele>707</ele>
        <time>2018-12-29T15:41:19Z</time>
      </trkpt>
      <trkpt lat="45.83837" lon="2.98749">
        <ele>707</ele>
        <time>2018-12-29T15:41:21Z</time>
      </trkpt>
      <trkpt lat="45.83841" lon="2.98747">
        <ele>707</ele>
        <time>2018-12-29T15:41:25Z</time>
      </trkpt>
      <trkpt lat="45.83852" lon="2.98745">
        <ele>707</ele>
        <time>2018-12-29T15:41:32Z</time>
      </trkpt>
      <trkpt lat="45.83862" lon="2.9875">
        <ele>706.6</ele>
        <time>2018-12-29T15:41:35Z</time>
      </trkpt>
      <trkpt lat="45.83865" lon="2.98752">
        <ele>706.2</ele>
        <time>2018-12-29T15:41:36Z</time>
      </trkpt>
      <trkpt lat="45.83869" lon="2.98756">
        <ele>705.8</ele>
        <time>2018-12-29T15:41:37Z</time>
      </trkpt>
      <trkpt lat="45.83872" lon="2.98759">
        <ele>705.4</ele>
        <time>2018-12-29T15:41:38Z</time>
      </trkpt>
      <trkpt lat="45.83875" lon="2.98762">
        <ele>705</ele>
        <time>2018-12-29T15:41:39Z</time>
      </trkpt>
      <trkpt lat="45.83881" lon="2.98767">
        <ele>705</ele>
        <time>2018-12-29T15:41:41Z</time>
      </trkpt>
      <trkpt lat="45.83893" lon="2.98783">
        <ele>705</ele>
        <time>2018-12-29T15:41:45Z</time>
      </trkpt>
      <trkpt lat="45.83907" lon="2.98797">
        <ele>704.6</ele>
        <time>2018-12-29T15:41:49Z</time>
      </trkpt>
      <trkpt lat="45.83911" lon="2.98802">
        <ele>703.8</ele>
        <time>2018-12-29T15:41:50Z</time>
      </trkpt>
      <trkpt lat="45.83917" lon="2.98806">
        <ele>703.4</ele>
        <time>2018-12-29T15:41:51Z</time>
      </trkpt>
      <trkpt lat="45.83922" lon="2.98811">
        <ele>703</ele>
        <time>2018-12-29T15:41:53Z</time>
      </trkpt>
      <trkpt lat="45.83946" lon="2.98831">
        <ele>703</ele>
        <time>2018-12-29T15:41:57Z</time>
      </trkpt>
      <trkpt lat="45.83952" lon="2.98834">
        <ele>703</ele>
        <time>2018-12-29T15:41:58Z</time>
      </trkpt>
      <trkpt lat="45.83965" lon="2.9884">
        <ele>702.4</ele>
        <time>2018-12-29T15:42:00Z</time>
      </trkpt>
      <trkpt lat="45.83971" lon="2.98844">
        <ele>702</ele>
        <time>2018-12-29T15:42:01Z</time>
      </trkpt>
      <trkpt lat="45.83977" lon="2.98848">
        <ele>701.6</ele>
        <time>2018-12-29T15:42:02Z</time>
      </trkpt>
      <trkpt lat="45.83983" lon="2.98852">
        <ele>701.2</ele>
        <time>2018-12-29T15:42:03Z</time>
      </trkpt>
      <trkpt lat="45.83988" lon="2.98857">
        <ele>700.8</ele>
        <time>2018-12-29T15:42:04Z</time>
      </trkpt>
      <trkpt lat="45.84" lon="2.98864">
        <ele>700.8</ele>
        <time>2018-12-29T15:42:06Z</time>
      </trkpt>
      <trkpt lat="45.84011" lon="2.98869">
        <ele>700.8</ele>
        <time>2018-12-29T15:42:08Z</time>
      </trkpt>
      <trkpt lat="45.8402" lon="2.98872">
        <ele>700.8</ele>
        <time>2018-12-29T15:42:10Z</time>
      </trkpt>
      <trkpt lat="45.84057" lon="2.98887">
        <ele>700.8</ele>
        <time>2018-12-29T15:42:17Z</time>
      </trkpt>
      <trkpt lat="45.84081" lon="2.98898">
        <ele>700.4</ele>
        <time>2018-12-29T15:42:21Z</time>
      </trkpt>
      <trkpt lat="45.84087" lon="2.98901">
        <ele>699.8</ele>
        <time>2018-12-29T15:42:22Z</time>
      </trkpt>
      <trkpt lat="45.84092" lon="2.98906">
        <ele>699.4</ele>
        <time>2018-12-29T15:42:23Z</time>
      </trkpt>
      <trkpt lat="45.84098" lon="2.98911">
        <ele>699</ele>
        <time>2018-12-29T15:42:24Z</time>
      </trkpt>
      <trkpt lat="45.84106" lon="2.98916">
        <ele>698.6</ele>
        <time>2018-12-29T15:42:25Z</time>
      </trkpt>
      <trkpt lat="45.84113" lon="2.9892">
        <ele>698.6</ele>
        <time>2018-12-29T15:42:26Z</time>
      </trkpt>
      <trkpt lat="45.84135" lon="2.98933">
        <ele>698.2</ele>
        <time>2018-12-29T15:42:29Z</time>
      </trkpt>
      <trkpt lat="45.84141" lon="2.98936">
        <ele>697.8</ele>
        <time>2018-12-29T15:42:30Z</time>
      </trkpt>
      <trkpt lat="45.84147" lon="2.9894">
        <ele>697.4</ele>
        <time>2018-12-29T15:42:31Z</time>
      </trkpt>
      <trkpt lat="45.84154" lon="2.98944">
        <ele>697</ele>
        <time>2018-12-29T15:42:32Z</time>
      </trkpt>
      <trkpt lat="45.8416" lon="2.98947">
        <ele>696.6</ele>
        <time>2018-12-29T15:42:33Z</time>
      </trkpt>
      <trkpt lat="45.84172" lon="2.98956">
        <ele>696.6</ele>
        <time>2018-12-29T15:42:35Z</time>
      </trkpt>
      <trkpt lat="45.84177" lon="2.98961">
        <ele>696.6</ele>
        <time>2018-12-29T15:42:36Z</time>
      </trkpt>
      <trkpt lat="45.84188" lon="2.98973">
        <ele>696.6</ele>
        <time>2018-12-29T15:42:38Z</time>
      </trkpt>
      <trkpt lat="45.84199" lon="2.98985">
        <ele>696.6</ele>
        <time>2018-12-29T15:42:40Z</time>
      </trkpt>
      <trkpt lat="45.84211" lon="2.98994">
        <ele>696.6</ele>
        <time>2018-12-29T15:42:42Z</time>
      </trkpt>
      <trkpt lat="45.84217" lon="2.98999">
        <ele>696.6</ele>
        <time>2018-12-29T15:42:43Z</time>
      </trkpt>
      <trkpt lat="45.84234" lon="2.99016">
        <ele>696.6</ele>
        <time>2018-12-29T15:42:46Z</time>
      </trkpt>
      <trkpt lat="45.84245" lon="2.99028">
        <ele>696.2</ele>
        <time>2018-12-29T15:42:48Z</time>
      </trkpt>
      <trkpt lat="45.8425" lon="2.99033">
        <ele>695.8</ele>
        <time>2018-12-29T15:42:49Z</time>
      </trkpt>
      <trkpt lat="45.84256" lon="2.99039">
        <ele>695.4</ele>
        <time>2018-12-29T15:42:50Z</time>
      </trkpt>
      <trkpt lat="45.84262" lon="2.99044">
        <ele>695</ele>
        <time>2018-12-29T15:42:51Z</time>
      </trkpt>
      <trkpt lat="45.84267" lon="2.9905">
        <ele>694.6</ele>
        <time>2018-12-29T15:42:52Z</time>
      </trkpt>
      <trkpt lat="45.84278" lon="2.9906">
        <ele>694.2</ele>
        <time>2018-12-29T15:42:54Z</time>
      </trkpt>
      <trkpt lat="45.84283" lon="2.99065">
        <ele>693.8</ele>
        <time>2018-12-29T15:42:55Z</time>
      </trkpt>
      <trkpt lat="45.84289" lon="2.99071">
        <ele>693.4</ele>
        <time>2018-12-29T15:42:56Z</time>
      </trkpt>
      <trkpt lat="45.84295" lon="2.99076">
        <ele>692.8</ele>
        <time>2018-12-29T15:42:57Z</time>
      </trkpt>
      <trkpt lat="45.84301" lon="2.99082">
        <ele>692.4</ele>
        <time>2018-12-29T15:42:58Z</time>
      </trkpt>
      <trkpt lat="45.84306" lon="2.99088">
        <ele>691.8</ele>
        <time>2018-12-29T15:42:59Z</time>
      </trkpt>
      <trkpt lat="45.84313" lon="2.99094">
        <ele>691.4</ele>
        <time>2018-12-29T15:43:00Z</time>
      </trkpt>
      <trkpt lat="45.84319" lon="2.99099">
        <ele>690.8</ele>
        <time>2018-12-29T15:43:01Z</time>
      </trkpt>
      <trkpt lat="45.84325" lon="2.99105">
        <ele>690.2</ele>
        <time>2018-12-29T15:43:02Z</time>
      </trkpt>
      <trkpt lat="45.84338" lon="2.99117">
        <ele>689.8</ele>
        <time>2018-12-29T15:43:04Z</time>
      </trkpt>
      <trkpt lat="45.84344" lon="2.99123">
        <ele>688.8</ele>
        <time>2018-12-29T15:43:05Z</time>
      </trkpt>
      <trkpt lat="45.8435" lon="2.99129">
        <ele>688.4</ele>
        <time>2018-12-29T15:43:06Z</time>
      </trkpt>
      <trkpt lat="45.84357" lon="2.99134">
        <ele>687.8</ele>
        <time>2018-12-29T15:43:07Z</time>
      </trkpt>
      <trkpt lat="45.84378" lon="2.99151">
        <ele>687.4</ele>
        <time>2018-12-29T15:43:10Z</time>
      </trkpt>
      <trkpt lat="45.84385" lon="2.99157">
        <ele>687</ele>
        <time>2018-12-29T15:43:11Z</time>
      </trkpt>
      <trkpt lat="45.84392" lon="2.99162">
        <ele>686.6</ele>
        <time>2018-12-29T15:43:12Z</time>
      </trkpt>
      <trkpt lat="45.84399" lon="2.99167">
        <ele>686.2</ele>
        <time>2018-12-29T15:43:13Z</time>
      </trkpt>
      <trkpt lat="45.84406" lon="2.99172">
        <ele>685.8</ele>
        <time>2018-12-29T15:43:14Z</time>
      </trkpt>
      <trkpt lat="45.84433" lon="2.99189">
        <ele>685.8</ele>
        <time>2018-12-29T15:43:18Z</time>
      </trkpt>
      <trkpt lat="45.84446" lon="2.99197">
        <ele>685.8</ele>
        <time>2018-12-29T15:43:20Z</time>
      </trkpt>
      <trkpt lat="45.84462" lon="2.9921">
        <ele>685.8</ele>
        <time>2018-12-29T15:43:23Z</time>
      </trkpt>
      <trkpt lat="45.84466" lon="2.99215">
        <ele>685.8</ele>
        <time>2018-12-29T15:43:24Z</time>
      </trkpt>
      <trkpt lat="45.8448" lon="2.99225">
        <ele>685.8</ele>
        <time>2018-12-29T15:43:27Z</time>
      </trkpt>
      <trkpt lat="45.84485" lon="2.99229">
        <ele>685.8</ele>
        <time>2018-12-29T15:43:28Z</time>
      </trkpt>
      <trkpt lat="45.84496" lon="2.99237">
        <ele>685.8</ele>
        <time>2018-12-29T15:43:30Z</time>
      </trkpt>
      <trkpt lat="45.84506" lon="2.99245">
        <ele>685.8</ele>
        <time>2018-12-29T15:43:32Z</time>
      </trkpt>
      <trkpt lat="45.84523" lon="2.99257">
        <ele>685.8</ele>
        <time>2018-12-29T15:43:35Z</time>
      </trkpt>
      <trkpt lat="45.8453" lon="2.99259">
        <ele>685.8</ele>
        <time>2018-12-29T15:43:36Z</time>
      </trkpt>
      <trkpt lat="45.84543" lon="2.99263">
        <ele>685.2</ele>
        <time>2018-12-29T15:43:38Z</time>
      </trkpt>
      <trkpt lat="45.8455" lon="2.99266">
        <ele>684.8</ele>
        <time>2018-12-29T15:43:39Z</time>
      </trkpt>
      <trkpt lat="45.84556" lon="2.99271">
        <ele>684.4</ele>
        <time>2018-12-29T15:43:40Z</time>
      </trkpt>
      <trkpt lat="45.84562" lon="2.99277">
        <ele>684</ele>
        <time>2018-12-29T15:43:41Z</time>
      </trkpt>
      <trkpt lat="45.84569" lon="2.99283">
        <ele>683.6</ele>
        <time>2018-12-29T15:43:42Z</time>
      </trkpt>
      <trkpt lat="45.84576" lon="2.99289">
        <ele>683.6</ele>
        <time>2018-12-29T15:43:43Z</time>
      </trkpt>
      <trkpt lat="45.84588" lon="2.99301">
        <ele>683.6</ele>
        <time>2018-12-29T15:43:45Z</time>
      </trkpt>
      <trkpt lat="45.84614" lon="2.99323">
        <ele>683.2</ele>
        <time>2018-12-29T15:43:49Z</time>
      </trkpt>
      <trkpt lat="45.84619" lon="2.99329">
        <ele>682.8</ele>
        <time>2018-12-29T15:43:50Z</time>
      </trkpt>
      <trkpt lat="45.84625" lon="2.99335">
        <ele>682.4</ele>
        <time>2018-12-29T15:43:51Z</time>
      </trkpt>
      <trkpt lat="45.8463" lon="2.99342">
        <ele>682</ele>
        <time>2018-12-29T15:43:52Z</time>
      </trkpt>
      <trkpt lat="45.84635" lon="2.99348">
        <ele>681.6</ele>
        <time>2018-12-29T15:43:53Z</time>
      </trkpt>
      <trkpt lat="45.84659" lon="2.99373">
        <ele>681.6</ele>
        <time>2018-12-29T15:43:57Z</time>
      </trkpt>
      <trkpt lat="45.84665" lon="2.99379">
        <ele>681</ele>
        <time>2018-12-29T15:43:58Z</time>
      </trkpt>
      <trkpt lat="45.84671" lon="2.99385">
        <ele>680.6</ele>
        <time>2018-12-29T15:43:59Z</time>
      </trkpt>
      <trkpt lat="45.84678" lon="2.99392">
        <ele>680</ele>
        <time>2018-12-29T15:44:00Z</time>
      </trkpt>
      <trkpt lat="45.84685" lon="2.99399">
        <ele>679.6</ele>
        <time>2018-12-29T15:44:01Z</time>
      </trkpt>
      <trkpt lat="45.84691" lon="2.99406">
        <ele>679</ele>
        <time>2018-12-29T15:44:02Z</time>
      </trkpt>
      <trkpt lat="45.84697" lon="2.99414">
        <ele>678.6</ele>
        <time>2018-12-29T15:44:03Z</time>
      </trkpt>
      <trkpt lat="45.84703" lon="2.99421">
        <ele>678.2</ele>
        <time>2018-12-29T15:44:04Z</time>
      </trkpt>
      <trkpt lat="45.84708" lon="2.99428">
        <ele>677.6</ele>
        <time>2018-12-29T15:44:05Z</time>
      </trkpt>
      <trkpt lat="45.84715" lon="2.99434">
        <ele>677.2</ele>
        <time>2018-12-29T15:44:06Z</time>
      </trkpt>
      <trkpt lat="45.84722" lon="2.99442">
        <ele>676.6</ele>
        <time>2018-12-29T15:44:07Z</time>
      </trkpt>
      <trkpt lat="45.84729" lon="2.99449">
        <ele>676</ele>
        <time>2018-12-29T15:44:08Z</time>
      </trkpt>
      <trkpt lat="45.84737" lon="2.99458">
        <ele>675.4</ele>
        <time>2018-12-29T15:44:09Z</time>
      </trkpt>
      <trkpt lat="45.84745" lon="2.99466">
        <ele>674.8</ele>
        <time>2018-12-29T15:44:10Z</time>
      </trkpt>
      <trkpt lat="45.84754" lon="2.99475">
        <ele>674.2</ele>
        <time>2018-12-29T15:44:11Z</time>
      </trkpt>
      <trkpt lat="45.84763" lon="2.99485">
        <ele>673.6</ele>
        <time>2018-12-29T15:44:12Z</time>
      </trkpt>
      <trkpt lat="45.84772" lon="2.99496">
        <ele>673</ele>
        <time>2018-12-29T15:44:13Z</time>
      </trkpt>
      <trkpt lat="45.8478" lon="2.99506">
        <ele>672.4</ele>
        <time>2018-12-29T15:44:14Z</time>
      </trkpt>
      <trkpt lat="45.84788" lon="2.99516">
        <ele>671.6</ele>
        <time>2018-12-29T15:44:15Z</time>
      </trkpt>
      <trkpt lat="45.84795" lon="2.99526">
        <ele>671.2</ele>
        <time>2018-12-29T15:44:16Z</time>
      </trkpt>
      <trkpt lat="45.848" lon="2.99536">
        <ele>670.8</ele>
        <time>2018-12-29T15:44:17Z</time>
      </trkpt>
      <trkpt lat="45.84806" lon="2.99542">
        <ele>670</ele>
        <time>2018-12-29T15:44:18Z</time>
      </trkpt>
      <trkpt lat="45.84811" lon="2.99548">
        <ele>669.6</ele>
        <time>2018-12-29T15:44:19Z</time>
      </trkpt>
      <trkpt lat="45.8482" lon="2.99557">
        <ele>669.6</ele>
        <time>2018-12-29T15:44:22Z</time>
      </trkpt>
      <trkpt lat="45.84834" lon="2.99566">
        <ele>669.6</ele>
        <time>2018-12-29T15:44:26Z</time>
      </trkpt>
      <trkpt lat="45.84845" lon="2.99573">
        <ele>669.6</ele>
        <time>2018-12-29T15:44:30Z</time>
      </trkpt>
      <trkpt lat="45.84848" lon="2.99576">
        <ele>669.6</ele>
        <time>2018-12-29T15:44:31Z</time>
      </trkpt>
      <trkpt lat="45.84862" lon="2.99592">
        <ele>669.6</ele>
        <time>2018-12-29T15:44:36Z</time>
      </trkpt>
      <trkpt lat="45.84877" lon="2.99604">
        <ele>669.6</ele>
        <time>2018-12-29T15:44:40Z</time>
      </trkpt>
      <trkpt lat="45.8489" lon="2.99613">
        <ele>669.6</ele>
        <time>2018-12-29T15:44:44Z</time>
      </trkpt>
      <trkpt lat="45.84909" lon="2.99623">
        <ele>669.6</ele>
        <time>2018-12-29T15:44:48Z</time>
      </trkpt>
      <trkpt lat="45.8492" lon="2.99636">
        <ele>669.6</ele>
        <time>2018-12-29T15:44:51Z</time>
      </trkpt>
      <trkpt lat="45.8493" lon="2.99647">
        <ele>669.6</ele>
        <time>2018-12-29T15:44:53Z</time>
      </trkpt>
      <trkpt lat="45.84937" lon="2.9966">
        <ele>669.6</ele>
        <time>2018-12-29T15:44:55Z</time>
      </trkpt>
      <trkpt lat="45.8496" lon="2.99693">
        <ele>669.6</ele>
        <time>2018-12-29T15:45:00Z</time>
      </trkpt>
      <trkpt lat="45.84966" lon="2.99699">
        <ele>669.6</ele>
        <time>2018-12-29T15:45:01Z</time>
      </trkpt>
      <trkpt lat="45.84981" lon="2.9972">
        <ele>669.6</ele>
        <time>2018-12-29T15:45:04Z</time>
      </trkpt>
      <trkpt lat="45.84986" lon="2.99726">
        <ele>669.6</ele>
        <time>2018-12-29T15:45:05Z</time>
      </trkpt>
      <trkpt lat="45.84998" lon="2.99735">
        <ele>669.6</ele>
        <time>2018-12-29T15:45:07Z</time>
      </trkpt>
      <trkpt lat="45.85007" lon="2.99744">
        <ele>669.6</ele>
        <time>2018-12-29T15:45:09Z</time>
      </trkpt>
      <trkpt lat="45.85032" lon="2.9976">
        <ele>669.6</ele>
        <time>2018-12-29T15:45:14Z</time>
      </trkpt>
      <trkpt lat="45.8504" lon="2.99766">
        <ele>669.6</ele>
        <time>2018-12-29T15:45:16Z</time>
      </trkpt>
      <trkpt lat="45.85047" lon="2.99775">
        <ele>669.6</ele>
        <time>2018-12-29T15:45:18Z</time>
      </trkpt>
      <trkpt lat="45.85057" lon="2.99787">
        <ele>669.6</ele>
        <time>2018-12-29T15:45:20Z</time>
      </trkpt>
      <trkpt lat="45.85063" lon="2.99794">
        <ele>669</ele>
        <time>2018-12-29T15:45:21Z</time>
      </trkpt>
      <trkpt lat="45.85067" lon="2.99801">
        <ele>668.4</ele>
        <time>2018-12-29T15:45:22Z</time>
      </trkpt>
      <trkpt lat="45.85072" lon="2.99807">
        <ele>667.8</ele>
        <time>2018-12-29T15:45:23Z</time>
      </trkpt>
      <trkpt lat="45.85078" lon="2.99812">
        <ele>667.2</ele>
        <time>2018-12-29T15:45:24Z</time>
      </trkpt>
      <trkpt lat="45.85084" lon="2.99816">
        <ele>666.6</ele>
        <time>2018-12-29T15:45:25Z</time>
      </trkpt>
      <trkpt lat="45.8509" lon="2.99819">
        <ele>666</ele>
        <time>2018-12-29T15:45:26Z</time>
      </trkpt>
      <trkpt lat="45.85097" lon="2.99823">
        <ele>665.2</ele>
        <time>2018-12-29T15:45:27Z</time>
      </trkpt>
      <trkpt lat="45.85103" lon="2.99826">
        <ele>664.4</ele>
        <time>2018-12-29T15:45:28Z</time>
      </trkpt>
      <trkpt lat="45.85109" lon="2.9983">
        <ele>663.6</ele>
        <time>2018-12-29T15:45:29Z</time>
      </trkpt>
      <trkpt lat="45.85115" lon="2.99834">
        <ele>662.8</ele>
        <time>2018-12-29T15:45:30Z</time>
      </trkpt>
      <trkpt lat="45.85121" lon="2.9984">
        <ele>662</ele>
        <time>2018-12-29T15:45:31Z</time>
      </trkpt>
      <trkpt lat="45.85127" lon="2.99844">
        <ele>660.8</ele>
        <time>2018-12-29T15:45:32Z</time>
      </trkpt>
      <trkpt lat="45.85133" lon="2.99848">
        <ele>660.2</ele>
        <time>2018-12-29T15:45:33Z</time>
      </trkpt>
      <trkpt lat="45.85139" lon="2.99852">
        <ele>659.4</ele>
        <time>2018-12-29T15:45:34Z</time>
      </trkpt>
      <trkpt lat="45.85153" lon="2.9986">
        <ele>659.4</ele>
        <time>2018-12-29T15:45:36Z</time>
      </trkpt>
      <trkpt lat="45.85174" lon="2.99869">
        <ele>659</ele>
        <time>2018-12-29T15:45:39Z</time>
      </trkpt>
      <trkpt lat="45.85181" lon="2.99873">
        <ele>658.6</ele>
        <time>2018-12-29T15:45:40Z</time>
      </trkpt>
      <trkpt lat="45.85187" lon="2.99885">
        <ele>658.2</ele>
        <time>2018-12-29T15:45:41Z</time>
      </trkpt>
      <trkpt lat="45.85192" lon="2.99895">
        <ele>657.8</ele>
        <time>2018-12-29T15:45:42Z</time>
      </trkpt>
      <trkpt lat="45.85197" lon="2.99903">
        <ele>657.4</ele>
        <time>2018-12-29T15:45:43Z</time>
      </trkpt>
      <trkpt lat="45.85203" lon="2.99911">
        <ele>657.4</ele>
        <time>2018-12-29T15:45:45Z</time>
      </trkpt>
      <trkpt lat="45.85212" lon="2.99918">
        <ele>657.4</ele>
        <time>2018-12-29T15:45:48Z</time>
      </trkpt>
      <trkpt lat="45.85214" lon="2.99919">
        <ele>657.4</ele>
        <time>2018-12-29T15:45:49Z</time>
      </trkpt>
      <trkpt lat="45.85221" lon="2.99921">
        <ele>657.4</ele>
        <time>2018-12-29T15:45:53Z</time>
      </trkpt>
      <trkpt lat="45.85222" lon="2.99922">
        <ele>657.4</ele>
        <time>2018-12-29T15:45:54Z</time>
      </trkpt>
      <trkpt lat="45.85227" lon="2.99926">
        <ele>657.4</ele>
        <time>2018-12-29T15:46:10Z</time>
      </trkpt>
      <trkpt lat="45.85231" lon="2.99929">
        <ele>657.4</ele>
        <time>2018-12-29T15:46:12Z</time>
      </trkpt>
      <trkpt lat="45.85242" lon="2.99937">
        <ele>657.4</ele>
        <time>2018-12-29T15:46:16Z</time>
      </trkpt>
      <trkpt lat="45.85248" lon="2.99942">
        <ele>657</ele>
        <time>2018-12-29T15:46:18Z</time>
      </trkpt>
      <trkpt lat="45.85252" lon="2.99945">
        <ele>656.6</ele>
        <time>2018-12-29T15:46:19Z</time>
      </trkpt>
      <trkpt lat="45.85257" lon="2.99949">
        <ele>656.2</ele>
        <time>2018-12-29T15:46:20Z</time>
      </trkpt>
      <trkpt lat="45.85261" lon="2.99952">
        <ele>655.8</ele>
        <time>2018-12-29T15:46:21Z</time>
      </trkpt>
      <trkpt lat="45.85266" lon="2.99954">
        <ele>655.4</ele>
        <time>2018-12-29T15:46:22Z</time>
      </trkpt>
      <trkpt lat="45.85284" lon="2.99965">
        <ele>655</ele>
        <time>2018-12-29T15:46:26Z</time>
      </trkpt>
      <trkpt lat="45.85289" lon="2.99969">
        <ele>654.6</ele>
        <time>2018-12-29T15:46:27Z</time>
      </trkpt>
      <trkpt lat="45.85294" lon="2.99973">
        <ele>654.2</ele>
        <time>2018-12-29T15:46:28Z</time>
      </trkpt>
      <trkpt lat="45.85299" lon="2.99977">
        <ele>653.6</ele>
        <time>2018-12-29T15:46:29Z</time>
      </trkpt>
      <trkpt lat="45.85305" lon="2.99982">
        <ele>653</ele>
        <time>2018-12-29T15:46:30Z</time>
      </trkpt>
      <trkpt lat="45.85311" lon="2.99985">
        <ele>652.4</ele>
        <time>2018-12-29T15:46:31Z</time>
      </trkpt>
      <trkpt lat="45.85317" lon="2.99988">
        <ele>651.8</ele>
        <time>2018-12-29T15:46:32Z</time>
      </trkpt>
      <trkpt lat="45.85323" lon="2.99992">
        <ele>651</ele>
        <time>2018-12-29T15:46:33Z</time>
      </trkpt>
      <trkpt lat="45.8533" lon="2.99995">
        <ele>650.2</ele>
        <time>2018-12-29T15:46:34Z</time>
      </trkpt>
      <trkpt lat="45.85336" lon="2.99999">
        <ele>649.6</ele>
        <time>2018-12-29T15:46:35Z</time>
      </trkpt>
      <trkpt lat="45.85343" lon="3.00003">
        <ele>648.8</ele>
        <time>2018-12-29T15:46:36Z</time>
      </trkpt>
      <trkpt lat="45.85349" lon="3.00009">
        <ele>648.2</ele>
        <time>2018-12-29T15:46:37Z</time>
      </trkpt>
      <trkpt lat="45.85353" lon="3.00017">
        <ele>647.4</ele>
        <time>2018-12-29T15:46:38Z</time>
      </trkpt>
      <trkpt lat="45.85354" lon="3.00024">
        <ele>646.8</ele>
        <time>2018-12-29T15:46:39Z</time>
      </trkpt>
      <trkpt lat="45.85353" lon="3.0003">
        <ele>646.2</ele>
        <time>2018-12-29T15:46:40Z</time>
      </trkpt>
      <trkpt lat="45.85352" lon="3.00035">
        <ele>645.6</ele>
        <time>2018-12-29T15:46:41Z</time>
      </trkpt>
      <trkpt lat="45.85351" lon="3.00042">
        <ele>645.6</ele>
        <time>2018-12-29T15:46:42Z</time>
      </trkpt>
      <trkpt lat="45.85349" lon="3.0005">
        <ele>645.6</ele>
        <time>2018-12-29T15:46:43Z</time>
      </trkpt>
      <trkpt lat="45.85342" lon="3.00067">
        <ele>645.6</ele>
        <time>2018-12-29T15:46:45Z</time>
      </trkpt>
      <trkpt lat="45.85336" lon="3.00086">
        <ele>645.6</ele>
        <time>2018-12-29T15:46:47Z</time>
      </trkpt>
      <trkpt lat="45.8533" lon="3.00103">
        <ele>645.6</ele>
        <time>2018-12-29T15:46:49Z</time>
      </trkpt>
      <trkpt lat="45.85326" lon="3.00111">
        <ele>645.2</ele>
        <time>2018-12-29T15:46:50Z</time>
      </trkpt>
      <trkpt lat="45.85322" lon="3.0012">
        <ele>644.8</ele>
        <time>2018-12-29T15:46:51Z</time>
      </trkpt>
      <trkpt lat="45.85319" lon="3.00129">
        <ele>644.4</ele>
        <time>2018-12-29T15:46:52Z</time>
      </trkpt>
      <trkpt lat="45.85314" lon="3.00137">
        <ele>644</ele>
        <time>2018-12-29T15:46:53Z</time>
      </trkpt>
      <trkpt lat="45.8531" lon="3.00145">
        <ele>643.6</ele>
        <time>2018-12-29T15:46:54Z</time>
      </trkpt>
      <trkpt lat="45.85284" lon="3.00199">
        <ele>643.6</ele>
        <time>2018-12-29T15:47:00Z</time>
      </trkpt>
      <trkpt lat="45.85275" lon="3.00218">
        <ele>643.2</ele>
        <time>2018-12-29T15:47:02Z</time>
      </trkpt>
      <trkpt lat="45.85271" lon="3.00228">
        <ele>642.8</ele>
        <time>2018-12-29T15:47:03Z</time>
      </trkpt>
      <trkpt lat="45.85266" lon="3.00239">
        <ele>642.4</ele>
        <time>2018-12-29T15:47:04Z</time>
      </trkpt>
      <trkpt lat="45.85262" lon="3.00248">
        <ele>641.8</ele>
        <time>2018-12-29T15:47:05Z</time>
      </trkpt>
      <trkpt lat="45.85257" lon="3.00259">
        <ele>641.4</ele>
        <time>2018-12-29T15:47:06Z</time>
      </trkpt>
      <trkpt lat="45.85241" lon="3.00293">
        <ele>641.4</ele>
        <time>2018-12-29T15:47:10Z</time>
      </trkpt>
      <trkpt lat="45.85237" lon="3.00301">
        <ele>642.2</ele>
        <time>2018-12-29T15:47:11Z</time>
      </trkpt>
      <trkpt lat="45.85234" lon="3.00309">
        <ele>642.6</ele>
        <time>2018-12-29T15:47:12Z</time>
      </trkpt>
      <trkpt lat="45.8523" lon="3.00317">
        <ele>643.2</ele>
        <time>2018-12-29T15:47:13Z</time>
      </trkpt>
      <trkpt lat="45.85226" lon="3.00324">
        <ele>643.6</ele>
        <time>2018-12-29T15:47:14Z</time>
      </trkpt>
      <trkpt lat="45.85219" lon="3.00337">
        <ele>644</ele>
        <time>2018-12-29T15:47:16Z</time>
      </trkpt>
      <trkpt lat="45.85216" lon="3.00343">
        <ele>644.4</ele>
        <time>2018-12-29T15:47:17Z</time>
      </trkpt>
      <trkpt lat="45.85212" lon="3.00349">
        <ele>644.8</ele>
        <time>2018-12-29T15:47:18Z</time>
      </trkpt>
      <trkpt lat="45.8521" lon="3.00354">
        <ele>645.4</ele>
        <time>2018-12-29T15:47:19Z</time>
      </trkpt>
      <trkpt lat="45.85207" lon="3.0036">
        <ele>645.8</ele>
        <time>2018-12-29T15:47:20Z</time>
      </trkpt>
      <trkpt lat="45.85201" lon="3.00369">
        <ele>646.2</ele>
        <time>2018-12-29T15:47:22Z</time>
      </trkpt>
      <trkpt lat="45.85199" lon="3.00375">
        <ele>646.6</ele>
        <time>2018-12-29T15:47:23Z</time>
      </trkpt>
      <trkpt lat="45.85196" lon="3.0038">
        <ele>647</ele>
        <time>2018-12-29T15:47:24Z</time>
      </trkpt>
      <trkpt lat="45.85194" lon="3.00385">
        <ele>647.4</ele>
        <time>2018-12-29T15:47:25Z</time>
      </trkpt>
      <trkpt lat="45.85192" lon="3.00389">
        <ele>647.8</ele>
        <time>2018-12-29T15:47:26Z</time>
      </trkpt>
      <trkpt lat="45.85185" lon="3.00402">
        <ele>648.2</ele>
        <time>2018-12-29T15:47:29Z</time>
      </trkpt>
      <trkpt lat="45.85184" lon="3.00406">
        <ele>648.8</ele>
        <time>2018-12-29T15:47:30Z</time>
      </trkpt>
      <trkpt lat="45.85182" lon="3.0041">
        <ele>649.2</ele>
        <time>2018-12-29T15:47:31Z</time>
      </trkpt>
      <trkpt lat="45.85181" lon="3.00415">
        <ele>649.6</ele>
        <time>2018-12-29T15:47:32Z</time>
      </trkpt>
      <trkpt lat="45.8518" lon="3.00419">
        <ele>650</ele>
        <time>2018-12-29T15:47:33Z</time>
      </trkpt>
      <trkpt lat="45.85179" lon="3.00422">
        <ele>650</ele>
        <time>2018-12-29T15:47:34Z</time>
      </trkpt>
      <trkpt lat="45.85174" lon="3.00446">
        <ele>650</ele>
        <time>2018-12-29T15:47:38Z</time>
      </trkpt>
      <trkpt lat="45.85172" lon="3.00461">
        <ele>649.6</ele>
        <time>2018-12-29T15:47:40Z</time>
      </trkpt>
      <trkpt lat="45.85172" lon="3.00468">
        <ele>649.2</ele>
        <time>2018-12-29T15:47:41Z</time>
      </trkpt>
      <trkpt lat="45.85172" lon="3.00475">
        <ele>648.6</ele>
        <time>2018-12-29T15:47:42Z</time>
      </trkpt>
      <trkpt lat="45.85172" lon="3.00482">
        <ele>648.2</ele>
        <time>2018-12-29T15:47:43Z</time>
      </trkpt>
      <trkpt lat="45.85173" lon="3.0049">
        <ele>647.8</ele>
        <time>2018-12-29T15:47:44Z</time>
      </trkpt>
      <trkpt lat="45.85178" lon="3.00516">
        <ele>647.8</ele>
        <time>2018-12-29T15:47:49Z</time>
      </trkpt>
      <trkpt lat="45.85179" lon="3.00532">
        <ele>647.4</ele>
        <time>2018-12-29T15:47:54Z</time>
      </trkpt>
      <trkpt lat="45.8518" lon="3.00537">
        <ele>647</ele>
        <time>2018-12-29T15:47:55Z</time>
      </trkpt>
      <trkpt lat="45.85181" lon="3.00543">
        <ele>646.6</ele>
        <time>2018-12-29T15:47:56Z</time>
      </trkpt>
      <trkpt lat="45.85183" lon="3.0055">
        <ele>646.2</ele>
        <time>2018-12-29T15:47:57Z</time>
      </trkpt>
      <trkpt lat="45.85184" lon="3.00557">
        <ele>645.8</ele>
        <time>2018-12-29T15:47:58Z</time>
      </trkpt>
      <trkpt lat="45.85184" lon="3.00564">
        <ele>645.8</ele>
        <time>2018-12-29T15:47:59Z</time>
      </trkpt>
      <trkpt lat="45.85185" lon="3.00572">
        <ele>645.4</ele>
        <time>2018-12-29T15:48:00Z</time>
      </trkpt>
      <trkpt lat="45.85184" lon="3.00579">
        <ele>644.4</ele>
        <time>2018-12-29T15:48:01Z</time>
      </trkpt>
      <trkpt lat="45.85183" lon="3.00587">
        <ele>644</ele>
        <time>2018-12-29T15:48:02Z</time>
      </trkpt>
      <trkpt lat="45.85184" lon="3.00595">
        <ele>643.6</ele>
        <time>2018-12-29T15:48:03Z</time>
      </trkpt>
      <trkpt lat="45.85186" lon="3.0062">
        <ele>643.2</ele>
        <time>2018-12-29T15:48:06Z</time>
      </trkpt>
      <trkpt lat="45.85187" lon="3.00628">
        <ele>642.8</ele>
        <time>2018-12-29T15:48:07Z</time>
      </trkpt>
      <trkpt lat="45.85188" lon="3.00637">
        <ele>642.4</ele>
        <time>2018-12-29T15:48:08Z</time>
      </trkpt>
      <trkpt lat="45.8519" lon="3.00645">
        <ele>642</ele>
        <time>2018-12-29T15:48:09Z</time>
      </trkpt>
      <trkpt lat="45.85192" lon="3.00654">
        <ele>641.4</ele>
        <time>2018-12-29T15:48:10Z</time>
      </trkpt>
      <trkpt lat="45.85196" lon="3.00672">
        <ele>641</ele>
        <time>2018-12-29T15:48:12Z</time>
      </trkpt>
      <trkpt lat="45.85199" lon="3.00682">
        <ele>640.6</ele>
        <time>2018-12-29T15:48:13Z</time>
      </trkpt>
      <trkpt lat="45.85202" lon="3.00692">
        <ele>640.2</ele>
        <time>2018-12-29T15:48:14Z</time>
      </trkpt>
      <trkpt lat="45.85204" lon="3.00702">
        <ele>639.6</ele>
        <time>2018-12-29T15:48:15Z</time>
      </trkpt>
      <trkpt lat="45.85207" lon="3.00713">
        <ele>639</ele>
        <time>2018-12-29T15:48:16Z</time>
      </trkpt>
      <trkpt lat="45.85209" lon="3.00723">
        <ele>638.6</ele>
        <time>2018-12-29T15:48:17Z</time>
      </trkpt>
      <trkpt lat="45.85212" lon="3.00734">
        <ele>638</ele>
        <time>2018-12-29T15:48:18Z</time>
      </trkpt>
      <trkpt lat="45.85215" lon="3.00745">
        <ele>637.4</ele>
        <time>2018-12-29T15:48:19Z</time>
      </trkpt>
      <trkpt lat="45.85217" lon="3.00756">
        <ele>636.8</ele>
        <time>2018-12-29T15:48:20Z</time>
      </trkpt>
      <trkpt lat="45.85219" lon="3.00766">
        <ele>636.2</ele>
        <time>2018-12-29T15:48:21Z</time>
      </trkpt>
      <trkpt lat="45.85223" lon="3.00776">
        <ele>635.6</ele>
        <time>2018-12-29T15:48:22Z</time>
      </trkpt>
      <trkpt lat="45.85227" lon="3.00786">
        <ele>635</ele>
        <time>2018-12-29T15:48:23Z</time>
      </trkpt>
      <trkpt lat="45.85231" lon="3.00795">
        <ele>634.6</ele>
        <time>2018-12-29T15:48:24Z</time>
      </trkpt>
      <trkpt lat="45.85238" lon="3.00815">
        <ele>634</ele>
        <time>2018-12-29T15:48:26Z</time>
      </trkpt>
      <trkpt lat="45.85242" lon="3.00824">
        <ele>633.6</ele>
        <time>2018-12-29T15:48:27Z</time>
      </trkpt>
      <trkpt lat="45.85245" lon="3.00834">
        <ele>633.2</ele>
        <time>2018-12-29T15:48:28Z</time>
      </trkpt>
      <trkpt lat="45.85249" lon="3.00844">
        <ele>632.6</ele>
        <time>2018-12-29T15:48:29Z</time>
      </trkpt>
      <trkpt lat="45.85253" lon="3.00854">
        <ele>632.2</ele>
        <time>2018-12-29T15:48:30Z</time>
      </trkpt>
      <trkpt lat="45.85268" lon="3.00903">
        <ele>632.2</ele>
        <time>2018-12-29T15:48:35Z</time>
      </trkpt>
      <trkpt lat="45.85271" lon="3.00913">
        <ele>631.8</ele>
        <time>2018-12-29T15:48:36Z</time>
      </trkpt>
      <trkpt lat="45.85274" lon="3.00923">
        <ele>631.4</ele>
        <time>2018-12-29T15:48:37Z</time>
      </trkpt>
      <trkpt lat="45.85278" lon="3.00932">
        <ele>630.8</ele>
        <time>2018-12-29T15:48:38Z</time>
      </trkpt>
      <trkpt lat="45.85281" lon="3.00942">
        <ele>630.4</ele>
        <time>2018-12-29T15:48:39Z</time>
      </trkpt>
      <trkpt lat="45.85284" lon="3.00951">
        <ele>630</ele>
        <time>2018-12-29T15:48:40Z</time>
      </trkpt>
      <trkpt lat="45.85297" lon="3.00989">
        <ele>630</ele>
        <time>2018-12-29T15:48:44Z</time>
      </trkpt>
      <trkpt lat="45.85299" lon="3.00997">
        <ele>630</ele>
        <time>2018-12-29T15:48:45Z</time>
      </trkpt>
      <trkpt lat="45.85306" lon="3.0102">
        <ele>630</ele>
        <time>2018-12-29T15:48:48Z</time>
      </trkpt>
      <trkpt lat="45.85311" lon="3.01032">
        <ele>630</ele>
        <time>2018-12-29T15:48:50Z</time>
      </trkpt>
      <trkpt lat="45.85313" lon="3.01037">
        <ele>630</ele>
        <time>2018-12-29T15:48:51Z</time>
      </trkpt>
      <trkpt lat="45.85317" lon="3.01055">
        <ele>630</ele>
        <time>2018-12-29T15:48:54Z</time>
      </trkpt>
      <trkpt lat="45.85321" lon="3.01072">
        <ele>630</ele>
        <time>2018-12-29T15:48:57Z</time>
      </trkpt>
      <trkpt lat="45.85325" lon="3.01082">
        <ele>630</ele>
        <time>2018-12-29T15:48:59Z</time>
      </trkpt>
      <trkpt lat="45.85328" lon="3.01082">
        <ele>630</ele>
        <time>2018-12-29T15:49:00Z</time>
      </trkpt>
      <trkpt lat="45.85331" lon="3.01082">
        <ele>630</ele>
        <time>2018-12-29T15:49:01Z</time>
      </trkpt>
      <trkpt lat="45.85338" lon="3.01087">
        <ele>630</ele>
        <time>2018-12-29T15:49:05Z</time>
      </trkpt>
      <trkpt lat="45.85336" lon="3.01091">
        <ele>630</ele>
        <time>2018-12-29T15:49:08Z</time>
      </trkpt>
      <trkpt lat="45.85336" lon="3.01091">
        <ele>630</ele>
        <time>2018-12-29T15:49:09Z</time>
      </trkpt>
      <trkpt lat="45.85337" lon="3.01094">
        <ele>630</ele>
        <time>2018-12-29T15:49:33Z</time>
      </trkpt>
      <trkpt lat="45.85339" lon="3.01098">
        <ele>630</ele>
        <time>2018-12-29T15:49:35Z</time>
      </trkpt>
      <trkpt lat="45.85349" lon="3.01109">
        <ele>630</ele>
        <time>2018-12-29T15:49:39Z</time>
      </trkpt>
      <trkpt lat="45.85355" lon="3.01115">
        <ele>630</ele>
        <time>2018-12-29T15:49:41Z</time>
      </trkpt>
      <trkpt lat="45.85358" lon="3.01119">
        <ele>630</ele>
        <time>2018-12-29T15:49:42Z</time>
      </trkpt>
      <trkpt lat="45.85361" lon="3.01125">
        <ele>630</ele>
        <time>2018-12-29T15:49:43Z</time>
      </trkpt>
      <trkpt lat="45.85371" lon="3.0114">
        <ele>630</ele>
        <time>2018-12-29T15:49:46Z</time>
      </trkpt>
      <trkpt lat="45.85377" lon="3.01152">
        <ele>630</ele>
        <time>2018-12-29T15:49:48Z</time>
      </trkpt>
      <trkpt lat="45.85386" lon="3.01168">
        <ele>630</ele>
        <time>2018-12-29T15:49:51Z</time>
      </trkpt>
      <trkpt lat="45.85392" lon="3.01178">
        <ele>630</ele>
        <time>2018-12-29T15:49:53Z</time>
      </trkpt>
      <trkpt lat="45.85408" lon="3.01207">
        <ele>630</ele>
        <time>2018-12-29T15:49:58Z</time>
      </trkpt>
      <trkpt lat="45.85412" lon="3.01213">
        <ele>630</ele>
        <time>2018-12-29T15:49:59Z</time>
      </trkpt>
      <trkpt lat="45.85447" lon="3.01272">
        <ele>630</ele>
        <time>2018-12-29T15:50:09Z</time>
      </trkpt>
      <trkpt lat="45.85467" lon="3.01305">
        <ele>630</ele>
        <time>2018-12-29T15:50:16Z</time>
      </trkpt>
      <trkpt lat="45.85484" lon="3.01333">
        <ele>630</ele>
        <time>2018-12-29T15:50:22Z</time>
      </trkpt>
      <trkpt lat="45.855" lon="3.01356">
        <ele>629.6</ele>
        <time>2018-12-29T15:50:26Z</time>
      </trkpt>
      <trkpt lat="45.85503" lon="3.01362">
        <ele>629.2</ele>
        <time>2018-12-29T15:50:27Z</time>
      </trkpt>
      <trkpt lat="45.85507" lon="3.01366">
        <ele>628.6</ele>
        <time>2018-12-29T15:50:28Z</time>
      </trkpt>
      <trkpt lat="45.8551" lon="3.01368">
        <ele>627.8</ele>
        <time>2018-12-29T15:50:29Z</time>
      </trkpt>
      <trkpt lat="45.85514" lon="3.01366">
        <ele>627.8</ele>
        <time>2018-12-29T15:50:30Z</time>
      </trkpt>
      <trkpt lat="45.85518" lon="3.0136">
        <ele>627.4</ele>
        <time>2018-12-29T15:50:31Z</time>
      </trkpt>
      <trkpt lat="45.85519" lon="3.01352">
        <ele>626.8</ele>
        <time>2018-12-29T15:50:32Z</time>
      </trkpt>
      <trkpt lat="45.8552" lon="3.01344">
        <ele>626.4</ele>
        <time>2018-12-29T15:50:33Z</time>
      </trkpt>
      <trkpt lat="45.85522" lon="3.01336">
        <ele>625.6</ele>
        <time>2018-12-29T15:50:34Z</time>
      </trkpt>
      <trkpt lat="45.85523" lon="3.01327">
        <ele>624.8</ele>
        <time>2018-12-29T15:50:35Z</time>
      </trkpt>
      <trkpt lat="45.85525" lon="3.01318">
        <ele>624</ele>
        <time>2018-12-29T15:50:36Z</time>
      </trkpt>
      <trkpt lat="45.85527" lon="3.01311">
        <ele>623.4</ele>
        <time>2018-12-29T15:50:37Z</time>
      </trkpt>
      <trkpt lat="45.85529" lon="3.01304">
        <ele>622.6</ele>
        <time>2018-12-29T15:50:38Z</time>
      </trkpt>
      <trkpt lat="45.85532" lon="3.01298">
        <ele>622</ele>
        <time>2018-12-29T15:50:39Z</time>
      </trkpt>
      <trkpt lat="45.85536" lon="3.01294">
        <ele>621.2</ele>
        <time>2018-12-29T15:50:40Z</time>
      </trkpt>
      <trkpt lat="45.8554" lon="3.01295">
        <ele>620.4</ele>
        <time>2018-12-29T15:50:41Z</time>
      </trkpt>
      <trkpt lat="45.85543" lon="3.01299">
        <ele>619.8</ele>
        <time>2018-12-29T15:50:42Z</time>
      </trkpt>
      <trkpt lat="45.85546" lon="3.01305">
        <ele>619</ele>
        <time>2018-12-29T15:50:43Z</time>
      </trkpt>
      <trkpt lat="45.85549" lon="3.01312">
        <ele>618.4</ele>
        <time>2018-12-29T15:50:44Z</time>
      </trkpt>
      <trkpt lat="45.85552" lon="3.0132">
        <ele>618.4</ele>
        <time>2018-12-29T15:50:45Z</time>
      </trkpt>
      <trkpt lat="45.85559" lon="3.01339">
        <ele>617.8</ele>
        <time>2018-12-29T15:50:47Z</time>
      </trkpt>
      <trkpt lat="45.85561" lon="3.01348">
        <ele>617.4</ele>
        <time>2018-12-29T15:50:48Z</time>
      </trkpt>
      <trkpt lat="45.85562" lon="3.01358">
        <ele>617</ele>
        <time>2018-12-29T15:50:49Z</time>
      </trkpt>
      <trkpt lat="45.85563" lon="3.01367">
        <ele>616.6</ele>
        <time>2018-12-29T15:50:50Z</time>
      </trkpt>
      <trkpt lat="45.85564" lon="3.01376">
        <ele>616.2</ele>
        <time>2018-12-29T15:50:51Z</time>
      </trkpt>
      <trkpt lat="45.85568" lon="3.014">
        <ele>616.2</ele>
        <time>2018-12-29T15:50:54Z</time>
      </trkpt>
      <trkpt lat="45.85571" lon="3.01414">
        <ele>616.2</ele>
        <time>2018-12-29T15:50:56Z</time>
      </trkpt>
      <trkpt lat="45.85577" lon="3.01442">
        <ele>616.2</ele>
        <time>2018-12-29T15:51:00Z</time>
      </trkpt>
      <trkpt lat="45.85588" lon="3.01497">
        <ele>616.2</ele>
        <time>2018-12-29T15:51:08Z</time>
      </trkpt>
      <trkpt lat="45.85599" lon="3.01545">
        <ele>616.2</ele>
        <time>2018-12-29T15:51:15Z</time>
      </trkpt>
      <trkpt lat="45.85607" lon="3.01571">
        <ele>616.2</ele>
        <time>2018-12-29T15:51:19Z</time>
      </trkpt>
      <trkpt lat="45.85615" lon="3.01583">
        <ele>616.2</ele>
        <time>2018-12-29T15:51:21Z</time>
      </trkpt>
      <trkpt lat="45.85626" lon="3.01592">
        <ele>616.2</ele>
        <time>2018-12-29T15:51:23Z</time>
      </trkpt>
      <trkpt lat="45.85638" lon="3.01604">
        <ele>615.6</ele>
        <time>2018-12-29T15:51:25Z</time>
      </trkpt>
      <trkpt lat="45.85643" lon="3.01609">
        <ele>615</ele>
        <time>2018-12-29T15:51:26Z</time>
      </trkpt>
      <trkpt lat="45.85648" lon="3.01615">
        <ele>614.6</ele>
        <time>2018-12-29T15:51:27Z</time>
      </trkpt>
      <trkpt lat="45.85653" lon="3.0162">
        <ele>614</ele>
        <time>2018-12-29T15:51:28Z</time>
      </trkpt>
      <trkpt lat="45.85658" lon="3.01626">
        <ele>613.6</ele>
        <time>2018-12-29T15:51:29Z</time>
      </trkpt>
      <trkpt lat="45.85668" lon="3.01637">
        <ele>613.6</ele>
        <time>2018-12-29T15:51:31Z</time>
      </trkpt>
      <trkpt lat="45.85712" lon="3.01682">
        <ele>613</ele>
        <time>2018-12-29T15:51:39Z</time>
      </trkpt>
      <trkpt lat="45.85718" lon="3.01689">
        <ele>612.4</ele>
        <time>2018-12-29T15:51:40Z</time>
      </trkpt>
      <trkpt lat="45.85724" lon="3.01695">
        <ele>612</ele>
        <time>2018-12-29T15:51:41Z</time>
      </trkpt>
      <trkpt lat="45.85729" lon="3.01702">
        <ele>611.4</ele>
        <time>2018-12-29T15:51:42Z</time>
      </trkpt>
      <trkpt lat="45.85734" lon="3.01709">
        <ele>611</ele>
        <time>2018-12-29T15:51:43Z</time>
      </trkpt>
      <trkpt lat="45.85755" lon="3.01737">
        <ele>611</ele>
        <time>2018-12-29T15:51:47Z</time>
      </trkpt>
      <trkpt lat="45.85801" lon="3.01795">
        <ele>611</ele>
        <time>2018-12-29T15:51:55Z</time>
      </trkpt>
      <trkpt lat="45.85836" lon="3.01849">
        <ele>611</ele>
        <time>2018-12-29T15:52:01Z</time>
      </trkpt>
      <trkpt lat="45.85844" lon="3.01872">
        <ele>611</ele>
        <time>2018-12-29T15:52:03Z</time>
      </trkpt>
      <trkpt lat="45.85851" lon="3.01897">
        <ele>610.4</ele>
        <time>2018-12-29T15:52:05Z</time>
      </trkpt>
      <trkpt lat="45.85854" lon="3.01909">
        <ele>610</ele>
        <time>2018-12-29T15:52:06Z</time>
      </trkpt>
      <trkpt lat="45.85856" lon="3.01922">
        <ele>609.4</ele>
        <time>2018-12-29T15:52:07Z</time>
      </trkpt>
      <trkpt lat="45.85859" lon="3.01934">
        <ele>609</ele>
        <time>2018-12-29T15:52:08Z</time>
      </trkpt>
      <trkpt lat="45.85862" lon="3.01946">
        <ele>608</ele>
        <time>2018-12-29T15:52:09Z</time>
      </trkpt>
      <trkpt lat="45.85866" lon="3.01957">
        <ele>607.6</ele>
        <time>2018-12-29T15:52:10Z</time>
      </trkpt>
      <trkpt lat="45.85869" lon="3.01966">
        <ele>607.2</ele>
        <time>2018-12-29T15:52:11Z</time>
      </trkpt>
      <trkpt lat="45.85871" lon="3.01971">
        <ele>606.8</ele>
        <time>2018-12-29T15:52:12Z</time>
      </trkpt>
      <trkpt lat="45.85871" lon="3.01974">
        <ele>606.4</ele>
        <time>2018-12-29T15:52:13Z</time>
      </trkpt>
      <trkpt lat="45.85868" lon="3.01967">
        <ele>606.4</ele>
        <time>2018-12-29T15:52:16Z</time>
      </trkpt>
      <trkpt lat="45.85866" lon="3.01959">
        <ele>606.4</ele>
        <time>2018-12-29T15:52:19Z</time>
      </trkpt>
      <trkpt lat="45.85861" lon="3.01942">
        <ele>606.4</ele>
        <time>2018-12-29T15:52:23Z</time>
      </trkpt>
      <trkpt lat="45.85858" lon="3.01934">
        <ele>606.8</ele>
        <time>2018-12-29T15:52:25Z</time>
      </trkpt>
      <trkpt lat="45.85855" lon="3.01932">
        <ele>607.2</ele>
        <time>2018-12-29T15:52:26Z</time>
      </trkpt>
      <trkpt lat="45.85851" lon="3.01934">
        <ele>607.6</ele>
        <time>2018-12-29T15:52:27Z</time>
      </trkpt>
      <trkpt lat="45.85848" lon="3.01939">
        <ele>608.2</ele>
        <time>2018-12-29T15:52:28Z</time>
      </trkpt>
      <trkpt lat="45.85846" lon="3.01945">
        <ele>608.6</ele>
        <time>2018-12-29T15:52:29Z</time>
      </trkpt>
      <trkpt lat="45.85843" lon="3.01952">
        <ele>608.6</ele>
        <time>2018-12-29T15:52:30Z</time>
      </trkpt>
      <trkpt lat="45.85832" lon="3.0198">
        <ele>608.6</ele>
        <time>2018-12-29T15:52:34Z</time>
      </trkpt>
      <trkpt lat="45.85829" lon="3.01988">
        <ele>608</ele>
        <time>2018-12-29T15:52:35Z</time>
      </trkpt>
      <trkpt lat="45.85825" lon="3.01996">
        <ele>607.4</ele>
        <time>2018-12-29T15:52:36Z</time>
      </trkpt>
      <trkpt lat="45.85821" lon="3.02004">
        <ele>606.6</ele>
        <time>2018-12-29T15:52:37Z</time>
      </trkpt>
      <trkpt lat="45.85817" lon="3.02014">
        <ele>605.8</ele>
        <time>2018-12-29T15:52:38Z</time>
      </trkpt>
      <trkpt lat="45.85813" lon="3.02025">
        <ele>604.8</ele>
        <time>2018-12-29T15:52:39Z</time>
      </trkpt>
      <trkpt lat="45.85808" lon="3.02035">
        <ele>603.8</ele>
        <time>2018-12-29T15:52:40Z</time>
      </trkpt>
      <trkpt lat="45.85803" lon="3.02046">
        <ele>602.6</ele>
        <time>2018-12-29T15:52:41Z</time>
      </trkpt>
      <trkpt lat="45.85798" lon="3.02058">
        <ele>601.6</ele>
        <time>2018-12-29T15:52:42Z</time>
      </trkpt>
      <trkpt lat="45.85794" lon="3.02068">
        <ele>600.6</ele>
        <time>2018-12-29T15:52:43Z</time>
      </trkpt>
      <trkpt lat="45.8579" lon="3.02077">
        <ele>599.4</ele>
        <time>2018-12-29T15:52:44Z</time>
      </trkpt>
      <trkpt lat="45.85786" lon="3.02086">
        <ele>598.4</ele>
        <time>2018-12-29T15:52:45Z</time>
      </trkpt>
      <trkpt lat="45.85761" lon="3.02138">
        <ele>598.4</ele>
        <time>2018-12-29T15:52:51Z</time>
      </trkpt>
      <trkpt lat="45.85757" lon="3.02146">
        <ele>598</ele>
        <time>2018-12-29T15:52:52Z</time>
      </trkpt>
      <trkpt lat="45.85753" lon="3.02153">
        <ele>597.4</ele>
        <time>2018-12-29T15:52:53Z</time>
      </trkpt>
      <trkpt lat="45.85748" lon="3.02161">
        <ele>597</ele>
        <time>2018-12-29T15:52:54Z</time>
      </trkpt>
      <trkpt lat="45.85743" lon="3.02169">
        <ele>596.6</ele>
        <time>2018-12-29T15:52:55Z</time>
      </trkpt>
      <trkpt lat="45.85739" lon="3.02175">
        <ele>596.2</ele>
        <time>2018-12-29T15:52:56Z</time>
      </trkpt>
      <trkpt lat="45.85734" lon="3.0218">
        <ele>595.6</ele>
        <time>2018-12-29T15:52:57Z</time>
      </trkpt>
      <trkpt lat="45.85728" lon="3.02183">
        <ele>594.6</ele>
        <time>2018-12-29T15:52:58Z</time>
      </trkpt>
      <trkpt lat="45.85723" lon="3.02188">
        <ele>594</ele>
        <time>2018-12-29T15:52:59Z</time>
      </trkpt>
      <trkpt lat="45.8572" lon="3.02196">
        <ele>593.6</ele>
        <time>2018-12-29T15:53:00Z</time>
      </trkpt>
      <trkpt lat="45.85714" lon="3.02214">
        <ele>593.6</ele>
        <time>2018-12-29T15:53:02Z</time>
      </trkpt>
      <trkpt lat="45.85711" lon="3.02224">
        <ele>593.6</ele>
        <time>2018-12-29T15:53:03Z</time>
      </trkpt>
      <trkpt lat="45.85709" lon="3.02234">
        <ele>593.2</ele>
        <time>2018-12-29T15:53:04Z</time>
      </trkpt>
      <trkpt lat="45.85707" lon="3.02244">
        <ele>592.6</ele>
        <time>2018-12-29T15:53:05Z</time>
      </trkpt>
      <trkpt lat="45.85704" lon="3.02254">
        <ele>592.2</ele>
        <time>2018-12-29T15:53:06Z</time>
      </trkpt>
      <trkpt lat="45.85702" lon="3.02264">
        <ele>591.8</ele>
        <time>2018-12-29T15:53:07Z</time>
      </trkpt>
      <trkpt lat="45.85699" lon="3.02274">
        <ele>591.4</ele>
        <time>2018-12-29T15:53:08Z</time>
      </trkpt>
      <trkpt lat="45.85697" lon="3.02284">
        <ele>591.4</ele>
        <time>2018-12-29T15:53:09Z</time>
      </trkpt>
      <trkpt lat="45.85687" lon="3.02326">
        <ele>591.4</ele>
        <time>2018-12-29T15:53:14Z</time>
      </trkpt>
      <trkpt lat="45.85685" lon="3.02331">
        <ele>591</ele>
        <time>2018-12-29T15:53:15Z</time>
      </trkpt>
      <trkpt lat="45.85685" lon="3.02335">
        <ele>590.6</ele>
        <time>2018-12-29T15:53:16Z</time>
      </trkpt>
      <trkpt lat="45.85687" lon="3.02341">
        <ele>590</ele>
        <time>2018-12-29T15:53:17Z</time>
      </trkpt>
      <trkpt lat="45.85691" lon="3.02346">
        <ele>589.6</ele>
        <time>2018-12-29T15:53:18Z</time>
      </trkpt>
      <trkpt lat="45.85695" lon="3.0235">
        <ele>589.2</ele>
        <time>2018-12-29T15:53:19Z</time>
      </trkpt>
      <trkpt lat="45.857" lon="3.02353">
        <ele>588.6</ele>
        <time>2018-12-29T15:53:20Z</time>
      </trkpt>
      <trkpt lat="45.85705" lon="3.02356">
        <ele>588.2</ele>
        <time>2018-12-29T15:53:21Z</time>
      </trkpt>
      <trkpt lat="45.8571" lon="3.02359">
        <ele>587.6</ele>
        <time>2018-12-29T15:53:22Z</time>
      </trkpt>
      <trkpt lat="45.85715" lon="3.02362">
        <ele>587.2</ele>
        <time>2018-12-29T15:53:23Z</time>
      </trkpt>
      <trkpt lat="45.85733" lon="3.02372">
        <ele>587.2</ele>
        <time>2018-12-29T15:53:27Z</time>
      </trkpt>
      <trkpt lat="45.85753" lon="3.02376">
        <ele>587.2</ele>
        <time>2018-12-29T15:53:31Z</time>
      </trkpt>
      <trkpt lat="45.85764" lon="3.02376">
        <ele>586.8</ele>
        <time>2018-12-29T15:53:33Z</time>
      </trkpt>
      <trkpt lat="45.8577" lon="3.02376">
        <ele>586.4</ele>
        <time>2018-12-29T15:53:34Z</time>
      </trkpt>
      <trkpt lat="45.85776" lon="3.02377">
        <ele>586</ele>
        <time>2018-12-29T15:53:35Z</time>
      </trkpt>
      <trkpt lat="45.85782" lon="3.02378">
        <ele>585.6</ele>
        <time>2018-12-29T15:53:36Z</time>
      </trkpt>
      <trkpt lat="45.8579" lon="3.0238">
        <ele>585.2</ele>
        <time>2018-12-29T15:53:37Z</time>
      </trkpt>
      <trkpt lat="45.85798" lon="3.02382">
        <ele>584.6</ele>
        <time>2018-12-29T15:53:38Z</time>
      </trkpt>
      <trkpt lat="45.85807" lon="3.02385">
        <ele>584</ele>
        <time>2018-12-29T15:53:39Z</time>
      </trkpt>
      <trkpt lat="45.85816" lon="3.02387">
        <ele>583</ele>
        <time>2018-12-29T15:53:40Z</time>
      </trkpt>
      <trkpt lat="45.85827" lon="3.02389">
        <ele>582</ele>
        <time>2018-12-29T15:53:41Z</time>
      </trkpt>
      <trkpt lat="45.85839" lon="3.02391">
        <ele>580.6</ele>
        <time>2018-12-29T15:53:42Z</time>
      </trkpt>
      <trkpt lat="45.8585" lon="3.02394">
        <ele>579.2</ele>
        <time>2018-12-29T15:53:43Z</time>
      </trkpt>
      <trkpt lat="45.85861" lon="3.02397">
        <ele>577.6</ele>
        <time>2018-12-29T15:53:44Z</time>
      </trkpt>
      <trkpt lat="45.85873" lon="3.024">
        <ele>576</ele>
        <time>2018-12-29T15:53:45Z</time>
      </trkpt>
      <trkpt lat="45.85884" lon="3.02402">
        <ele>574.6</ele>
        <time>2018-12-29T15:53:46Z</time>
      </trkpt>
      <trkpt lat="45.85894" lon="3.02406">
        <ele>571.6</ele>
        <time>2018-12-29T15:53:47Z</time>
      </trkpt>
      <trkpt lat="45.85905" lon="3.0241">
        <ele>570.6</ele>
        <time>2018-12-29T15:53:48Z</time>
      </trkpt>
      <trkpt lat="45.85917" lon="3.02413">
        <ele>569.6</ele>
        <time>2018-12-29T15:53:49Z</time>
      </trkpt>
      <trkpt lat="45.85927" lon="3.02416">
        <ele>568.6</ele>
        <time>2018-12-29T15:53:50Z</time>
      </trkpt>
      <trkpt lat="45.85937" lon="3.02419">
        <ele>567.6</ele>
        <time>2018-12-29T15:53:51Z</time>
      </trkpt>
      <trkpt lat="45.85946" lon="3.02421">
        <ele>566.8</ele>
        <time>2018-12-29T15:53:52Z</time>
      </trkpt>
      <trkpt lat="45.85952" lon="3.02425">
        <ele>566.8</ele>
        <time>2018-12-29T15:53:53Z</time>
      </trkpt>
      <trkpt lat="45.85954" lon="3.02434">
        <ele>567.2</ele>
        <time>2018-12-29T15:53:54Z</time>
      </trkpt>
      <trkpt lat="45.85953" lon="3.02443">
        <ele>567.6</ele>
        <time>2018-12-29T15:53:55Z</time>
      </trkpt>
      <trkpt lat="45.8595" lon="3.02451">
        <ele>568.2</ele>
        <time>2018-12-29T15:53:56Z</time>
      </trkpt>
      <trkpt lat="45.85947" lon="3.02459">
        <ele>568.6</ele>
        <time>2018-12-29T15:53:57Z</time>
      </trkpt>
      <trkpt lat="45.85946" lon="3.02468">
        <ele>569.2</ele>
        <time>2018-12-29T15:53:58Z</time>
      </trkpt>
      <trkpt lat="45.85944" lon="3.02473">
        <ele>569.2</ele>
        <time>2018-12-29T15:53:59Z</time>
      </trkpt>
      <trkpt lat="45.85942" lon="3.02474">
        <ele>569.2</ele>
        <time>2018-12-29T15:54:01Z</time>
      </trkpt>
      <trkpt lat="45.85942" lon="3.02473">
        <ele>569.2</ele>
        <time>2018-12-29T15:54:02Z</time>
      </trkpt>
    </trkseg>
  </trk>
</gpx>